
Distance (Route):
Temperature : 24.7°C
Humidity : 47.5%
Pressure : 0hPa| Receiver | Frames | First received | Last received |
|---|---|---|---|
| IW2NTF | 991 | 2026-08-30 11:02:05 | 2026-08-30 13:19:26 |
| DO3MHA-11 | 455 | 2026-08-30 11:36:24 | 2026-08-30 13:03:14 |
| DB0UT-7 | 162 | 2026-08-30 11:31:02 | 2026-08-30 13:02:51 |
| NBG1-10 | 110 | 2026-08-30 11:45:24 | 2026-08-30 12:59:18 |
| OE5DRO-10 | 101 | 2026-08-30 12:12:44 | 2026-08-30 12:52:23 |
| DK5PH-5 | 38 | 2026-08-30 12:20:41 | 2026-08-30 12:49:56 |
| DL1ZP-14 | 22 | 2026-08-30 12:20:53 | 2026-08-30 12:49:52 |
| OE5DXL-15 | 21 | 2026-08-30 12:20:23 | 2026-08-30 12:50:27 |
| S52SK | 15 | 2026-08-30 12:19:43 | 2026-08-30 12:26:52 |
| DF7PN | 4 | 2026-08-30 12:36:18 | 2026-08-30 12:48:44 |
| Receiver | Date | Latitude | Longitude | Direction | Speed | Altitude | Climb | Temperature | Humidity | Pressure | Voltage | Killtimer | Uptime | BKT | XDATA |
|---|---|---|---|---|---|---|---|---|---|---|---|---|---|---|---|
| IW2NTF | 2026-08-30 13:19:26 | 45.68660 | 9.42718 | 75° | 5km/h | 690m | -8.2m/s | 24.7°C | 47.5% | 0hPa | 2.7V | 07:57:14 | 02:45:13 | 00:00:00 | |
| IW2NTF | 2026-08-30 13:19:03 | 45.68654 | 9.42692 | 69° | 5km/h | 845m | -7.3m/s | 23.2°C | 50.9% | 0hPa | 2.7V | 07:57:35 | 02:44:52 | 00:00:00 | |
| IW2NTF | 2026-08-30 13:19:03 | 45.68653 | 9.42689 | 69° | 5km/h | 859m | -6.5m/s | 23.1°C | 51.3% | 0hPa | 2.7V | 07:57:37 | 02:44:50 | 00:00:00 | |
| IW2NTF | 2026-08-30 13:19:03 | 45.68653 | 9.42684 | 75° | 9km/h | 874m | -7.9m/s | 22.8°C | 51.5% | 0hPa | 2.7V | 07:57:39 | 02:44:48 | 00:00:00 | |
| IW2NTF | 2026-08-30 13:18:58 | 45.68652 | 9.42679 | 59° | 7km/h | 888m | -7.7m/s | 22.7°C | 52.3% | 0hPa | 2.6V | 07:57:41 | 02:44:46 | 00:00:00 | |
| IW2NTF | 2026-08-30 13:18:58 | 45.68650 | 9.42674 | 62° | 9km/h | 904m | -8.2m/s | 22.6°C | 52.7% | 0hPa | 2.7V | 07:57:43 | 02:44:44 | 00:00:00 | |
| IW2NTF | 2026-08-30 13:18:51 | 45.68645 | 9.42647 | 83° | 11km/h | 967m | -9.2m/s | 21.9°C | 54% | 0hPa | 2.7V | 07:57:51 | 02:44:36 | 00:00:00 | |
| IW2NTF | 2026-08-30 13:18:45 | 45.68643 | 9.42639 | 70° | 13km/h | 985m | -9.4m/s | 21.7°C | 53.8% | 0hPa | 2.7V | 07:57:53 | 02:44:34 | 00:00:00 | |
| IW2NTF | 2026-08-30 13:18:45 | 45.68641 | 9.42632 | 60° | 9km/h | 1003m | -9m/s | 21.5°C | 54% | 0hPa | 2.7V | 07:57:55 | 02:44:32 | 00:00:00 | |
| IW2NTF | 2026-08-30 13:18:45 | 45.68639 | 9.42626 | 67° | 11km/h | 1021m | -9m/s | 21.4°C | 54.1% | 0hPa | 2.7V | 07:57:57 | 02:44:30 | 00:00:00 | |
| IW2NTF | 2026-08-30 13:18:39 | 45.68637 | 9.42619 | 65° | 13km/h | 1037m | -8.2m/s | 21.2°C | 54.3% | 0hPa | 2.7V | 07:57:59 | 02:44:28 | 00:00:00 | |
| IW2NTF | 2026-08-30 13:18:39 | 45.68634 | 9.42610 | 60° | 13km/h | 1054m | -8.2m/s | 21.1°C | 55.4% | 0hPa | 2.7V | 07:58:01 | 02:44:26 | 00:00:00 | |
| IW2NTF | 2026-08-30 13:18:39 | 45.68632 | 9.42603 | 65° | 11km/h | 1072m | -9.5m/s | 20.9°C | 56.3% | 0hPa | 2.7V | 07:58:03 | 02:44:24 | 00:00:00 | |
| IW2NTF | 2026-08-30 13:18:31 | 45.68628 | 9.42589 | 70° | 9km/h | 1110m | -9.2m/s | 20.5°C | 57.7% | 0hPa | 2.7V | 07:58:07 | 02:44:20 | 00:00:00 | |
| IW2NTF | 2026-08-30 13:18:31 | 45.68627 | 9.42583 | 84° | 9km/h | 1128m | -9.6m/s | 20.3°C | 57.1% | 0hPa | 2.7V | 07:58:09 | 02:44:18 | 00:00:00 | |
| IW2NTF | 2026-08-30 13:18:31 | 45.68627 | 9.42578 | 73° | 5km/h | 1148m | -9.9m/s | 20.1°C | 58.9% | 0hPa | 2.7V | 07:58:11 | 02:44:16 | 00:00:00 | |
| IW2NTF | 2026-08-30 13:18:26 | 45.68626 | 9.42573 | 76° | 7km/h | 1167m | -9.4m/s | 19.9°C | 59.9% | 0hPa | 2.7V | 07:58:13 | 02:44:14 | 00:00:00 | |
| IW2NTF | 2026-08-30 13:18:26 | 45.68626 | 9.42568 | 83° | 7km/h | 1187m | -9.7m/s | 19.8°C | 60.2% | 0hPa | 2.6V | 07:58:15 | 02:44:12 | 00:00:00 | |
| IW2NTF | 2026-08-30 13:18:26 | 45.68625 | 9.42565 | 10° | 4km/h | 1205m | -9.9m/s | 19.6°C | 60.9% | 0hPa | 2.7V | 07:58:17 | 02:44:10 | 00:00:00 | |
| IW2NTF | 2026-08-30 13:18:19 | 45.68625 | 9.42564 | 120° | 0km/h | 1224m | -9m/s | 19.4°C | 61.3% | 0hPa | 2.7V | 07:58:19 | 02:44:08 | 00:00:00 | |
| IW2NTF | 2026-08-30 13:18:19 | 45.68626 | 9.42564 | 126° | 2km/h | 1241m | -8.6m/s | 19.2°C | 62.5% | 0hPa | 2.7V | 07:58:21 | 02:44:06 | 00:00:00 | |
| IW2NTF | 2026-08-30 13:18:19 | 45.68625 | 9.42562 | 76° | 4km/h | 1258m | -8.1m/s | 19°C | 62.4% | 0hPa | 2.7V | 07:58:23 | 02:44:04 | 00:00:00 | |
| IW2NTF | 2026-08-30 13:18:13 | 45.68624 | 9.42559 | 58° | 7km/h | 1274m | -9.3m/s | 18.9°C | 63.4% | 0hPa | 2.7V | 07:58:25 | 02:44:02 | 00:00:00 | |
| IW2NTF | 2026-08-30 13:18:13 | 45.68622 | 9.42557 | 28° | 7km/h | 1291m | -8.4m/s | 18.7°C | 63.8% | 0hPa | 2.6V | 07:58:27 | 02:44:00 | 00:00:00 | |
| IW2NTF | 2026-08-30 13:18:13 | 45.68620 | 9.42554 | 0° | 5km/h | 1309m | -9.3m/s | 18.5°C | 62.8% | 0hPa | 2.7V | 07:58:29 | 02:43:58 | 00:00:00 | |
| IW2NTF | 2026-08-30 13:18:07 | 45.68618 | 9.42554 | 43° | 4km/h | 1327m | -9.7m/s | 18.3°C | 64.9% | 0hPa | 2.7V | 07:58:31 | 02:43:56 | 00:00:00 | |
| IW2NTF | 2026-08-30 13:18:07 | 45.68616 | 9.42552 | 38° | 5km/h | 1347m | -10.3m/s | 18.1°C | 65.3% | 0hPa | 2.6V | 07:58:33 | 02:43:54 | 00:00:00 | |
| IW2NTF | 2026-08-30 13:18:07 | 45.68613 | 9.42551 | 14° | 5km/h | 1366m | -10.4m/s | 18°C | 65.1% | 0hPa | 2.7V | 07:58:35 | 02:43:52 | 00:00:00 | |
| IW2NTF | 2026-08-30 13:18:01 | 45.68610 | 9.42549 | 34° | 7km/h | 1384m | -9.1m/s | 17.9°C | 62.3% | 0hPa | 2.7V | 07:58:37 | 02:43:50 | 00:00:00 | |
| IW2NTF | 2026-08-30 13:18:01 | 45.68607 | 9.42546 | 35° | 9km/h | 1402m | -8.9m/s | 17.7°C | 65.7% | 0hPa | 2.7V | 07:58:39 | 02:43:48 | 00:00:00 | |
| IW2NTF | 2026-08-30 13:18:01 | 45.68603 | 9.42543 | 30° | 9km/h | 1420m | -8.7m/s | 17.5°C | 67.9% | 0hPa | 2.7V | 07:58:41 | 02:43:46 | 00:00:00 | |
| IW2NTF | 2026-08-30 13:17:55 | 45.68599 | 9.42540 | 21° | 9km/h | 1439m | -8.5m/s | 17.4°C | 67.7% | 0hPa | 2.6V | 07:58:43 | 02:43:44 | 00:00:00 | |
| IW2NTF | 2026-08-30 13:17:55 | 45.68595 | 9.42536 | 31° | 13km/h | 1456m | -8.4m/s | 17.2°C | 67.1% | 0hPa | 2.7V | 07:58:45 | 02:43:42 | 00:00:00 | |
| IW2NTF | 2026-08-30 13:17:55 | 45.68591 | 9.42533 | 33° | 11km/h | 1473m | -9.3m/s | 17°C | 68% | 0hPa | 2.7V | 07:58:47 | 02:43:40 | 00:00:00 | |
| IW2NTF | 2026-08-30 13:17:49 | 45.68586 | 9.42531 | 32° | 11km/h | 1490m | -8.7m/s | 16.8°C | 67% | 0hPa | 2.7V | 07:58:49 | 02:43:38 | 00:00:00 | |
| IW2NTF | 2026-08-30 13:17:49 | 45.68582 | 9.42527 | 23° | 7km/h | 1510m | -11.1m/s | 16.7°C | 67% | 0hPa | 2.7V | 07:58:51 | 02:43:36 | 00:00:00 | |
| IW2NTF | 2026-08-30 13:17:49 | 45.68578 | 9.42525 | 14° | 7km/h | 1530m | -10m/s | 16.4°C | 68.8% | 0hPa | 2.6V | 07:58:53 | 02:43:34 | 00:00:00 | |
| IW2NTF | 2026-08-30 13:17:42 | 45.68575 | 9.42523 | 22° | 7km/h | 1547m | -9.2m/s | 16.2°C | 69.6% | 0hPa | 2.7V | 07:58:55 | 02:43:32 | 00:00:00 | |
| IW2NTF | 2026-08-30 13:17:42 | 45.68570 | 9.42521 | 17° | 9km/h | 1566m | -8.7m/s | 16.1°C | 70.1% | 0hPa | 2.7V | 07:58:57 | 02:43:30 | 00:00:00 | |
| IW2NTF | 2026-08-30 13:17:42 | 45.68564 | 9.42518 | 19° | 9km/h | 1593m | -9m/s | 15.8°C | 71% | 0hPa | 2.7V | 07:59:00 | 02:43:27 | 00:00:00 | |
| IW2NTF | 2026-08-30 13:17:37 | 45.68559 | 9.42516 | 14° | 11km/h | 1611m | -9.6m/s | 15.6°C | 71.1% | 0hPa | 2.7V | 07:59:02 | 02:43:25 | 00:00:00 | |
| IW2NTF | 2026-08-30 13:17:37 | 45.68554 | 9.42514 | 19° | 11km/h | 1628m | -8.7m/s | 15.5°C | 72.2% | 0hPa | 2.6V | 07:59:04 | 02:43:23 | 00:00:00 | |
| IW2NTF | 2026-08-30 13:17:37 | 45.68549 | 9.42511 | 26° | 11km/h | 1644m | -8.3m/s | 15.3°C | 72.9% | 0hPa | 2.7V | 07:59:06 | 02:43:21 | 00:00:00 | |
| IW2NTF | 2026-08-30 13:17:30 | 45.68544 | 9.42509 | 14° | 9km/h | 1660m | -8.3m/s | 15.2°C | 73.4% | 0hPa | 2.7V | 07:59:08 | 02:43:19 | 00:00:00 | |
| IW2NTF | 2026-08-30 13:17:30 | 45.68539 | 9.42507 | 17° | 9km/h | 1677m | -7.3m/s | 15°C | 73.8% | 0hPa | 2.7V | 07:59:10 | 02:43:17 | 00:00:00 | |
| IW2NTF | 2026-08-30 13:17:30 | 45.68535 | 9.42505 | 28° | 9km/h | 1692m | -7.9m/s | 14.8°C | 74.6% | 0hPa | 2.7V | 07:59:12 | 02:43:15 | 00:00:00 | |
| IW2NTF | 2026-08-30 13:17:24 | 45.68532 | 9.42503 | 20° | 7km/h | 1708m | -7.8m/s | 14.7°C | 75% | 0hPa | 2.7V | 07:59:14 | 02:43:13 | 00:00:00 | |
| IW2NTF | 2026-08-30 13:17:24 | 45.68529 | 9.42502 | 7° | 7km/h | 1723m | -8.1m/s | 14.5°C | 76.2% | 0hPa | 2.7V | 07:59:16 | 02:43:11 | 00:00:00 | |
| IW2NTF | 2026-08-30 13:17:24 | 45.68526 | 9.42502 | 35° | 5km/h | 1740m | -9.3m/s | 14.4°C | 76.3% | 0hPa | 2.6V | 07:59:18 | 02:43:09 | 00:00:00 | |
| IW2NTF | 2026-08-30 13:17:18 | 45.68525 | 9.42502 | 301° | 0km/h | 1757m | -8.8m/s | 14.2°C | 76.4% | 0hPa | 2.7V | 07:59:20 | 02:43:07 | 00:00:00 | |
| IW2NTF | 2026-08-30 13:17:18 | 45.68523 | 9.42502 | 322° | 2km/h | 1774m | -9.3m/s | 14.1°C | 76.5% | 0hPa | 2.7V | 07:59:22 | 02:43:05 | 00:00:00 | |
| IW2NTF | 2026-08-30 13:17:18 | 45.68523 | 9.42504 | 252° | 4km/h | 1793m | -9.7m/s | 14°C | 77.4% | 0hPa | 2.7V | 07:59:24 | 02:43:03 | 00:00:00 | |
| IW2NTF | 2026-08-30 13:17:11 | 45.68523 | 9.42505 | 283° | 4km/h | 1812m | -11.1m/s | 13.8°C | 78.3% | 0hPa | 2.6V | 07:59:26 | 02:43:01 | 00:00:00 | |
| IW2NTF | 2026-08-30 13:17:11 | 45.68521 | 9.42508 | 305° | 5km/h | 1834m | -9.4m/s | 13.6°C | 79.4% | 0hPa | 2.7V | 07:59:28 | 02:42:59 | 00:00:00 | |
| IW2NTF | 2026-08-30 13:17:11 | 45.68520 | 9.42513 | 305° | 7km/h | 1852m | -8.8m/s | 13.4°C | 79.3% | 0hPa | 2.7V | 07:59:30 | 02:42:57 | 00:00:00 | |
| IW2NTF | 2026-08-30 13:17:06 | 45.68518 | 9.42517 | 297° | 5km/h | 1872m | -10m/s | 13.2°C | 78% | 0hPa | 2.7V | 07:59:32 | 02:42:55 | 00:00:00 | |
| IW2NTF | 2026-08-30 13:17:06 | 45.68516 | 9.42522 | 304° | 5km/h | 1893m | -10.9m/s | 13.2°C | 76.9% | 0hPa | 2.7V | 07:59:34 | 02:42:53 | 00:00:00 | |
| IW2NTF | 2026-08-30 13:17:06 | 45.68514 | 9.42528 | 290° | 11km/h | 1914m | -10.2m/s | 13.4°C | 64% | 0hPa | 2.6V | 07:59:36 | 02:42:51 | 00:00:00 | |
| IW2NTF | 2026-08-30 13:17:00 | 45.68512 | 9.42535 | 295° | 11km/h | 1936m | -10.4m/s | 13.8°C | 54.2% | 0hPa | 2.7V | 07:59:38 | 02:42:49 | 00:00:00 | |
| IW2NTF | 2026-08-30 13:17:00 | 45.68509 | 9.42543 | 292° | 15km/h | 1957m | -10.8m/s | 14.1°C | 37% | 0hPa | 2.7V | 07:59:40 | 02:42:47 | 00:00:00 | |
| IW2NTF | 2026-08-30 13:17:00 | 45.68505 | 9.42551 | 309° | 13km/h | 1978m | -10.1m/s | 13.9°C | 43.1% | 0hPa | 2.7V | 07:59:42 | 02:42:45 | 00:00:00 | |
| IW2NTF | 2026-08-30 13:16:54 | 45.68502 | 9.42560 | 299° | 13km/h | 1999m | -10.5m/s | 14.2°C | 25.4% | 0hPa | 2.6V | 07:59:44 | 02:42:43 | 00:00:00 | |
| IW2NTF | 2026-08-30 13:16:54 | 45.68496 | 9.42575 | 287° | 13km/h | 2037m | -9.1m/s | 14.1°C | 21.4% | 0hPa | 2.7V | 07:59:48 | 02:42:39 | 00:00:00 | |
| IW2NTF | 2026-08-30 13:16:48 | 45.68489 | 9.42601 | 286° | 13km/h | 2093m | -9.4m/s | 13.4°C | 43.7% | 0hPa | 2.7V | 07:59:54 | 02:42:33 | 00:00:00 | |
| IW2NTF | 2026-08-30 13:16:42 | 45.68484 | 9.42624 | 285° | 9km/h | 2152m | -9.7m/s | 12.8°C | 56.6% | 0hPa | 2.7V | 08:00:00 | 02:42:27 | 00:00:00 | |
| IW2NTF | 2026-08-30 13:16:36 | 45.68481 | 9.42640 | 301° | 5km/h | 2211m | -8.8m/s | 12.8°C | 49.8% | 0hPa | 2.7V | 08:00:06 | 02:42:21 | 00:00:00 | |
| IW2NTF | 2026-08-30 13:16:30 | 45.68475 | 9.42646 | 6° | 5km/h | 2263m | -8.3m/s | 13.1°C | 39.4% | 0hPa | 2.7V | 08:00:12 | 02:42:15 | 00:00:00 | |
| IW2NTF | 2026-08-30 13:16:24 | 45.68464 | 9.42648 | 14° | 9km/h | 2318m | -9.8m/s | 12.8°C | 38.4% | 0hPa | 2.6V | 08:00:18 | 02:42:09 | 00:00:00 | |
| IW2NTF | 2026-08-30 13:16:18 | 45.68451 | 9.42645 | 359° | 11km/h | 2378m | -10m/s | 12.4°C | 37.5% | 0hPa | 2.7V | 08:00:24 | 02:42:03 | 00:00:00 | |
| IW2NTF | 2026-08-30 13:16:12 | 45.68436 | 9.42643 | 14° | 7km/h | 2436m | -10.4m/s | 12.1°C | 38.5% | 0hPa | 2.7V | 08:00:30 | 02:41:57 | 00:00:00 | |
| IW2NTF | 2026-08-30 13:16:06 | 45.68422 | 9.42639 | 5° | 11km/h | 2494m | -9.1m/s | 11.6°C | 39.4% | 0hPa | 2.7V | 08:00:36 | 02:41:51 | 00:00:00 | |
| IW2NTF | 2026-08-30 13:16:00 | 45.68407 | 9.42631 | 38° | 11km/h | 2546m | -7.6m/s | 11.1°C | 40.5% | 0hPa | 2.6V | 08:00:42 | 02:41:45 | 00:00:00 | |
| IW2NTF | 2026-08-30 13:15:54 | 45.68393 | 9.42620 | 34° | 7km/h | 2599m | -10m/s | 10.6°C | 41.3% | 0hPa | 2.7V | 08:00:48 | 02:41:39 | 00:00:00 | |
| IW2NTF | 2026-08-30 13:15:49 | 45.68383 | 9.42606 | 49° | 11km/h | 2655m | -8.1m/s | 10.2°C | 43.4% | 0hPa | 2.7V | 08:00:54 | 02:41:33 | 00:00:00 | |
| IW2NTF | 2026-08-30 13:15:42 | 45.68374 | 9.42594 | 31° | 9km/h | 2712m | -10m/s | 9.8°C | 44% | 0hPa | 2.7V | 08:01:00 | 02:41:27 | 00:00:00 | |
| IW2NTF | 2026-08-30 13:15:36 | 45.68365 | 9.42579 | 37° | 9km/h | 2768m | -9.5m/s | 9.2°C | 45.4% | 0hPa | 2.7V | 08:01:06 | 02:41:21 | 00:00:00 | |
| IW2NTF | 2026-08-30 13:15:30 | 45.68356 | 9.42564 | 53° | 9km/h | 2828m | -10.8m/s | 8.7°C | 46.8% | 0hPa | 2.6V | 08:01:12 | 02:41:15 | 00:00:00 | |
| IW2NTF | 2026-08-30 13:15:24 | 45.68345 | 9.42552 | 61° | 9km/h | 2886m | -9.7m/s | 8.2°C | 50.8% | 0hPa | 2.7V | 08:01:18 | 02:41:09 | 00:00:00 | |
| IW2NTF | 2026-08-30 13:15:19 | 45.68338 | 9.42537 | 70° | 7km/h | 2944m | -8.8m/s | 7.9°C | 52.4% | 0hPa | 2.7V | 08:01:24 | 02:41:03 | 00:00:00 | |
| IW2NTF | 2026-08-30 13:15:12 | 45.68334 | 9.42515 | 70° | 13km/h | 3001m | -10.4m/s | 8°C | 50.2% | 0hPa | 2.7V | 08:01:30 | 02:40:57 | 00:00:00 | |
| IW2NTF | 2026-08-30 13:15:06 | 45.68332 | 9.42488 | 84° | 15km/h | 3060m | -9.1m/s | 7.6°C | 53% | 0hPa | 2.7V | 08:01:36 | 02:40:51 | 00:00:00 | |
| IW2NTF | 2026-08-30 13:15:00 | 45.68328 | 9.42459 | 68° | 15km/h | 3119m | -10.2m/s | 7.2°C | 53.6% | 0hPa | 2.7V | 08:01:42 | 02:40:45 | 00:00:00 | |
| IW2NTF | 2026-08-30 13:14:54 | 45.68323 | 9.42428 | 71° | 18km/h | 3179m | -9.3m/s | 6.8°C | 53.1% | 0hPa | 2.5V | 08:01:48 | 02:40:39 | 00:00:00 | |
| IW2NTF | 2026-08-30 13:14:48 | 45.68314 | 9.42392 | 66° | 16km/h | 3233m | -9.8m/s | 6.4°C | 54.1% | 0hPa | 2.6V | 08:01:54 | 02:40:33 | 00:00:00 | |
| IW2NTF | 2026-08-30 13:14:42 | 45.68304 | 9.42354 | 75° | 18km/h | 3290m | -8.9m/s | 6°C | 54.8% | 0hPa | 2.7V | 08:02:00 | 02:40:27 | 00:00:00 | |
| IW2NTF | 2026-08-30 13:14:36 | 45.68295 | 9.42314 | 63° | 20km/h | 3348m | -9.8m/s | 5.6°C | 56% | 0hPa | 2.7V | 08:02:06 | 02:40:21 | 00:00:00 | |
| IW2NTF | 2026-08-30 13:14:30 | 45.68285 | 9.42274 | 61° | 20km/h | 3409m | -9.9m/s | 5.1°C | 58.3% | 0hPa | 2.7V | 08:02:12 | 02:40:15 | 00:00:00 | |
| IW2NTF | 2026-08-30 13:14:24 | 45.68271 | 9.42233 | 65° | 24km/h | 3466m | -9.6m/s | 4.8°C | 59.4% | 0hPa | 2.7V | 08:02:18 | 02:40:09 | 00:00:00 | |
| IW2NTF | 2026-08-30 13:14:18 | 45.68255 | 9.42188 | 64° | 24km/h | 3524m | -10.8m/s | 4.4°C | 59.7% | 0hPa | 2.7V | 08:02:24 | 02:40:03 | 00:00:00 | |
| IW2NTF | 2026-08-30 13:14:12 | 45.68240 | 9.42142 | 68° | 22km/h | 3584m | -9.8m/s | 4°C | 61.6% | 0hPa | 2.7V | 08:02:30 | 02:39:57 | 00:00:00 | |
| IW2NTF | 2026-08-30 13:14:06 | 45.68229 | 9.42094 | 76° | 26km/h | 3643m | -10.8m/s | 3.5°C | 64.5% | 0hPa | 2.7V | 08:02:36 | 02:39:51 | 00:00:00 | |
| IW2NTF | 2026-08-30 13:14:00 | 45.68218 | 9.42042 | 71° | 24km/h | 3702m | -9.6m/s | 2.9°C | 66.4% | 0hPa | 2.7V | 08:02:42 | 02:39:45 | 00:00:00 | |
| IW2NTF | 2026-08-30 13:13:54 | 45.68207 | 9.41989 | 77° | 26km/h | 3761m | -8.9m/s | 2.5°C | 67.6% | 0hPa | 2.7V | 08:02:48 | 02:39:39 | 00:00:00 | |
| IW2NTF | 2026-08-30 13:13:48 | 45.68193 | 9.41933 | 70° | 26km/h | 3818m | -8.3m/s | 2°C | 70.2% | 0hPa | 2.5V | 08:02:54 | 02:39:33 | 00:00:00 | |
| IW2NTF | 2026-08-30 13:13:31 | 45.68151 | 9.41763 | 72° | 31km/h | 3978m | -10.5m/s | 0.7°C | 73.5% | 0hPa | 2.5V | 08:03:11 | 02:39:16 | 00:00:00 | |
| IW2NTF | 2026-08-30 13:13:25 | 45.68135 | 9.41700 | 74° | 29km/h | 4035m | -8.7m/s | 0.2°C | 74.4% | 0hPa | 2.5V | 08:03:17 | 02:39:10 | 00:00:00 | |
| IW2NTF | 2026-08-30 13:13:19 | 45.68126 | 9.41634 | 82° | 31km/h | 4090m | -10.2m/s | -0.2°C | 70.9% | 0hPa | 2.5V | 08:03:23 | 02:39:04 | 00:00:00 | |
| IW2NTF | 2026-08-30 13:13:13 | 45.68121 | 9.41565 | 87° | 33km/h | 4149m | -11.1m/s | -0.3°C | 63.4% | 0hPa | 2.5V | 08:03:29 | 02:38:58 | 00:00:00 | |
| IW2NTF | 2026-08-30 13:13:07 | 45.68120 | 9.41489 | 87° | 35km/h | 4211m | -10.3m/s | -0.7°C | 66% | 0hPa | 2.5V | 08:03:35 | 02:38:52 | 00:00:00 | |
| IW2NTF | 2026-08-30 13:13:01 | 45.68120 | 9.41405 | 94° | 37km/h | 4268m | -9.9m/s | -1.2°C | 68.3% | 0hPa | 2.5V | 08:03:41 | 02:38:46 | 00:00:00 | |
| IW2NTF | 2026-08-30 13:12:55 | 45.68123 | 9.41321 | 91° | 37km/h | 4329m | -11.6m/s | -1.7°C | 70.3% | 0hPa | 2.5V | 08:03:47 | 02:38:40 | 00:00:00 | |
| IW2NTF | 2026-08-30 13:12:49 | 45.68126 | 9.41234 | 94° | 38km/h | 4391m | -9.6m/s | -2.1°C | 73.9% | 0hPa | 2.5V | 08:03:53 | 02:38:34 | 00:00:00 | |
| IW2NTF | 2026-08-30 13:12:43 | 45.68132 | 9.41146 | 101° | 40km/h | 4450m | -9.7m/s | -2.5°C | 66.2% | 0hPa | 2.5V | 08:03:59 | 02:38:28 | 00:00:00 | |
| IW2NTF | 2026-08-30 13:12:37 | 45.68141 | 9.41063 | 99° | 37km/h | 4509m | -10.2m/s | -3°C | 66.8% | 0hPa | 2.5V | 08:04:05 | 02:38:22 | 00:00:00 | |
| IW2NTF | 2026-08-30 13:12:31 | 45.68150 | 9.40979 | 96° | 38km/h | 4566m | -9.5m/s | -3.1°C | 66.6% | 0hPa | 2.6V | 08:04:11 | 02:38:16 | 00:00:00 | |
| IW2NTF | 2026-08-30 13:12:25 | 45.68153 | 9.40897 | 90° | 37km/h | 4621m | -9.7m/s | -2.6°C | 34.5% | 0hPa | 2.6V | 08:04:17 | 02:38:10 | 00:00:00 | |
| IW2NTF | 2026-08-30 13:12:19 | 45.68150 | 9.40819 | 84° | 37km/h | 4675m | -9.1m/s | -2.7°C | 31.2% | 0hPa | 2.6V | 08:04:23 | 02:38:04 | 00:00:00 | |
| IW2NTF | 2026-08-30 13:12:13 | 45.68106 | 9.40619 | 62° | 24km/h | 4856m | -8.6m/s | -2°C | 6% | 0hPa | 2.5V | 08:04:43 | 02:37:44 | 00:00:00 | |
| IW2NTF | 2026-08-30 13:12:08 | 45.68100 | 9.40603 | 59° | 26km/h | 4874m | -9.7m/s | -2.1°C | 5.9% | 0hPa | 2.6V | 08:04:45 | 02:37:42 | 00:00:00 | |
| IW2NTF | 2026-08-30 13:12:01 | 45.68084 | 9.40555 | 65° | 26km/h | 4929m | -9.1m/s | -2.5°C | 5.9% | 0hPa | 2.6V | 08:04:51 | 02:37:36 | 00:00:00 | |
| IW2NTF | 2026-08-30 13:11:45 | 45.68065 | 9.40506 | 56° | 26km/h | 4984m | -10.1m/s | -2.7°C | 5.6% | 0hPa | 2.6V | 08:04:57 | 02:37:30 | 00:00:00 | |
| IW2NTF | 2026-08-30 13:11:39 | 45.68045 | 9.40458 | 54° | 26km/h | 5041m | -9.2m/s | -2.9°C | 5.2% | 0hPa | 2.6V | 08:05:03 | 02:37:24 | 00:00:00 | |
| IW2NTF | 2026-08-30 13:11:30 | 45.68008 | 9.40377 | 61° | 24km/h | 5132m | -9.6m/s | -3.3°C | 4.4% | 0hPa | 2.6V | 08:05:13 | 02:37:14 | 00:00:00 | |
| IW2NTF | 2026-08-30 13:11:19 | 45.67971 | 9.40291 | 59° | 31km/h | 5228m | -8.9m/s | -4.1°C | 4.6% | 0hPa | 2.6V | 08:05:23 | 02:37:04 | 00:00:00 | |
| IW2NTF | 2026-08-30 13:11:09 | 45.67932 | 9.40189 | 64° | 35km/h | 5322m | -9.4m/s | -4.8°C | 4.5% | 0hPa | 2.6V | 08:05:33 | 02:36:54 | 00:00:00 | |
| IW2NTF | 2026-08-30 13:10:59 | 45.67897 | 9.40079 | 65° | 33km/h | 5421m | -10.2m/s | -5.6°C | 5% | 0hPa | 2.6V | 08:05:43 | 02:36:44 | 00:00:00 | |
| IW2NTF | 2026-08-30 13:10:47 | 45.67859 | 9.39942 | 66° | 35km/h | 5539m | -9.8m/s | -6.4°C | 4.4% | 0hPa | 2.6V | 08:05:55 | 02:36:32 | 00:00:00 | |
| IW2NTF | 2026-08-30 13:10:37 | 45.67823 | 9.39827 | 67° | 35km/h | 5633m | -9.3m/s | -7.2°C | 4.8% | 0hPa | 2.6V | 08:06:05 | 02:36:22 | 00:00:00 | |
| IW2NTF | 2026-08-30 13:10:27 | 45.67786 | 9.39717 | 68° | 33km/h | 5728m | -10.2m/s | -7.9°C | 5.6% | 0hPa | 2.5V | 08:06:15 | 02:36:12 | 00:00:00 | |
| IW2NTF | 2026-08-30 13:10:17 | 45.67757 | 9.39603 | 70° | 35km/h | 5826m | -9.2m/s | -8.6°C | 6.5% | 0hPa | 2.6V | 08:06:25 | 02:36:02 | 00:00:00 | |
| IW2NTF | 2026-08-30 13:10:07 | 45.67728 | 9.39487 | 70° | 31km/h | 5923m | -9.4m/s | -9.3°C | 6.4% | 0hPa | 2.6V | 08:06:35 | 02:35:52 | 00:00:00 | |
| IW2NTF | 2026-08-30 13:09:56 | 45.67698 | 9.39368 | 69° | 38km/h | 6025m | -9.1m/s | -9.9°C | 6.5% | 0hPa | 2.5V | 08:06:45 | 02:35:42 | 00:00:00 | |
| IW2NTF | 2026-08-30 13:09:47 | 45.67664 | 9.39237 | 67° | 38km/h | 6123m | -10.1m/s | -10.5°C | 5.1% | 0hPa | 2.5V | 08:06:55 | 02:35:32 | 00:00:00 | |
| IW2NTF | 2026-08-30 13:09:37 | 45.67632 | 9.39104 | 74° | 40km/h | 6223m | -9.5m/s | -11°C | 5.8% | 0hPa | 2.6V | 08:07:05 | 02:35:22 | 00:00:00 | |
| IW2NTF | 2026-08-30 13:09:27 | 45.67602 | 9.38965 | 70° | 40km/h | 6322m | -9.3m/s | -11.4°C | 5% | 0hPa | 2.6V | 08:07:15 | 02:35:12 | 00:00:00 | |
| IW2NTF | 2026-08-30 13:09:17 | 45.67570 | 9.38828 | 67° | 42km/h | 6418m | -10.6m/s | -11.8°C | 4.3% | 0hPa | 2.5V | 08:07:25 | 02:35:02 | 00:00:00 | |
| IW2NTF | 2026-08-30 13:09:07 | 45.67535 | 9.38681 | 71° | 42km/h | 6522m | -10.5m/s | -12.4°C | 4% | 0hPa | 2.5V | 08:07:35 | 02:34:52 | 00:00:00 | |
| IW2NTF | 2026-08-30 13:08:57 | 45.67497 | 9.38534 | 72° | 42km/h | 6632m | -9.8m/s | -13.1°C | 3.6% | 0hPa | 2.6V | 08:07:45 | 02:34:42 | 00:00:00 | |
| IW2NTF | 2026-08-30 13:08:47 | 45.67462 | 9.38383 | 71° | 42km/h | 6732m | -9.4m/s | -13.9°C | 7.4% | 0hPa | 2.6V | 08:07:55 | 02:34:32 | 00:00:00 | |
| IW2NTF | 2026-08-30 13:08:37 | 45.67426 | 9.38236 | 68° | 42km/h | 6832m | -9m/s | -14.6°C | 7.5% | 0hPa | 2.5V | 08:08:05 | 02:34:22 | 00:00:00 | |
| IW2NTF | 2026-08-30 13:08:27 | 45.67389 | 9.38089 | 68° | 46km/h | 6932m | -10.3m/s | -15.5°C | 9.1% | 0hPa | 2.6V | 08:08:15 | 02:34:12 | 00:00:00 | |
| IW2NTF | 2026-08-30 13:08:17 | 45.67348 | 9.37941 | 69° | 44km/h | 7036m | -10.8m/s | -16.2°C | 10.7% | 0hPa | 2.5V | 08:08:25 | 02:34:02 | 00:00:00 | |
| IW2NTF | 2026-08-30 13:08:07 | 45.67304 | 9.37782 | 69° | 49km/h | 7141m | -10.7m/s | -17°C | 11.1% | 0hPa | 2.5V | 08:08:35 | 02:33:52 | 00:00:00 | |
| IW2NTF | 2026-08-30 13:07:57 | 45.67256 | 9.37609 | 71° | 53km/h | 7247m | -10.1m/s | -17.8°C | 12.9% | 0hPa | 2.6V | 08:08:45 | 02:33:42 | 00:00:00 | |
| IW2NTF | 2026-08-30 13:07:47 | 45.67211 | 9.37428 | 74° | 55km/h | 7348m | -11.2m/s | -18.7°C | 11.8% | 0hPa | 2.5V | 08:08:55 | 02:33:32 | 00:00:00 | |
| IW2NTF | 2026-08-30 13:07:37 | 45.67175 | 9.37232 | 77° | 60km/h | 7462m | -12.9m/s | -19.5°C | 10.9% | 0hPa | 2.5V | 08:09:05 | 02:33:22 | 00:00:00 | |
| IW2NTF | 2026-08-30 13:07:27 | 45.67149 | 9.37024 | 81° | 60km/h | 7574m | -11m/s | -20.2°C | 25.2% | 0hPa | 2.5V | 08:09:15 | 02:33:12 | 00:00:00 | |
| IW2NTF | 2026-08-30 13:07:17 | 45.67125 | 9.36811 | 79° | 60km/h | 7678m | -10.4m/s | -21.2°C | 39% | 0hPa | 2.6V | 08:09:25 | 02:33:02 | 00:00:00 | |
| IW2NTF | 2026-08-30 13:07:07 | 45.67099 | 9.36600 | 79° | 58km/h | 7781m | -10.3m/s | -22.2°C | 51.8% | 0hPa | 2.5V | 08:09:35 | 02:32:52 | 00:00:00 | |
| IW2NTF | 2026-08-30 13:06:57 | 45.67075 | 9.36382 | 80° | 60km/h | 7885m | -10.5m/s | -23.2°C | 60.8% | 0hPa | 2.6V | 08:09:45 | 02:32:42 | 00:00:00 | |
| IW2NTF | 2026-08-30 13:06:47 | 45.67055 | 9.36158 | 82° | 60km/h | 7992m | -10.7m/s | -24.2°C | 66% | 0hPa | 2.6V | 08:09:55 | 02:32:32 | 00:00:00 | |
| IW2NTF | 2026-08-30 13:06:37 | 45.67039 | 9.35933 | 85° | 62km/h | 8096m | -10.6m/s | -25.1°C | 54.9% | 0hPa | 2.6V | 08:10:05 | 02:32:22 | 00:00:00 | |
| IW2NTF | 2026-08-30 13:06:27 | 45.67023 | 9.35707 | 83° | 62km/h | 8201m | -10.8m/s | -25.9°C | 55.2% | 0hPa | 2.6V | 08:10:15 | 02:32:12 | 00:00:00 | |
| IW2NTF | 2026-08-30 13:06:17 | 45.67010 | 9.35480 | 84° | 64km/h | 8307m | -10.6m/s | -26.6°C | 48.4% | 0hPa | 2.5V | 08:10:25 | 02:32:02 | 00:00:00 | |
| IW2NTF | 2026-08-30 13:06:07 | 45.66993 | 9.35252 | 83° | 66km/h | 8412m | -11.4m/s | -27.5°C | 50.4% | 0hPa | 2.6V | 08:10:35 | 02:31:52 | 00:00:00 | |
| IW2NTF | 2026-08-30 13:05:57 | 45.66972 | 9.35023 | 80° | 64km/h | 8520m | -10.9m/s | -28.4°C | 47.4% | 0hPa | 2.5V | 08:10:45 | 02:31:42 | 00:00:00 | |
| IW2NTF | 2026-08-30 13:05:47 | 45.66946 | 9.34797 | 80° | 64km/h | 8627m | -11.9m/s | -29.1°C | 41.6% | 0hPa | 2.5V | 08:10:55 | 02:31:32 | 00:00:00 | |
| IW2NTF | 2026-08-30 13:05:37 | 45.66919 | 9.34571 | 79° | 64km/h | 8754m | -14.6m/s | -30.2°C | 40.6% | 0hPa | 2.6V | 08:11:05 | 02:31:22 | 00:00:00 | |
| IW2NTF | 2026-08-30 13:05:27 | 45.66890 | 9.34346 | 80° | 64km/h | 8888m | -12m/s | -31.4°C | 36.2% | 0hPa | 2.5V | 08:11:15 | 02:31:12 | 00:00:00 | |
| IW2NTF | 2026-08-30 13:05:12 | 45.66861 | 9.34139 | 77° | 55km/h | 9018m | -13.9m/s | -31.6°C | 13.8% | 0hPa | 2.5V | 08:11:25 | 02:31:02 | 00:00:00 | |
| IW2NTF | 2026-08-30 13:05:02 | 45.66828 | 9.33958 | 75° | 51km/h | 9156m | -15.1m/s | -32.8°C | 20.3% | 0hPa | 2.6V | 08:11:35 | 02:30:52 | 00:00:00 | |
| IW2NTF | 2026-08-30 13:04:57 | 45.66796 | 9.33791 | 73° | 46km/h | 9301m | -14.8m/s | -34°C | 27.7% | 0hPa | 2.6V | 08:11:45 | 02:30:42 | 00:00:00 | |
| IW2NTF | 2026-08-30 13:04:47 | 45.66768 | 9.33617 | 79° | 55km/h | 9445m | -13.9m/s | -34.9°C | 24.4% | 0hPa | 2.5V | 08:11:55 | 02:30:32 | 00:00:00 | |
| IW2NTF | 2026-08-30 13:04:37 | 45.66745 | 9.33420 | 81° | 58km/h | 9585m | -14.6m/s | -36.1°C | 25.7% | 0hPa | 2.5V | 08:12:05 | 02:30:22 | 00:00:00 | |
| IW2NTF | 2026-08-30 13:04:27 | 45.66726 | 9.33214 | 83° | 58km/h | 9729m | -15.2m/s | -37.4°C | 27.1% | 0hPa | 2.5V | 08:12:15 | 02:30:12 | 00:00:00 | |
| IW2NTF | 2026-08-30 13:04:17 | 45.66713 | 9.32997 | 86° | 60km/h | 9870m | -14m/s | -38.7°C | 27.2% | 0hPa | 2.5V | 08:12:25 | 02:30:02 | 00:00:00 | |
| IW2NTF | 2026-08-30 13:04:08 | 45.66698 | 9.32769 | 85° | 64km/h | 10012m | -14.5m/s | -39.8°C | 25.7% | 0hPa | 2.5V | 08:12:35 | 02:29:52 | 00:00:00 | |
| IW2NTF | 2026-08-30 13:03:57 | 45.66681 | 9.32536 | 85° | 64km/h | 10157m | -13.7m/s | -41.1°C | 27.5% | 0hPa | 2.5V | 08:12:45 | 02:29:42 | 00:00:00 | |
| IW2NTF | 2026-08-30 13:03:47 | 45.66660 | 9.32308 | 83° | 64km/h | 10301m | -14.8m/s | -42.4°C | 27.6% | 0hPa | 2.5V | 08:12:55 | 02:29:32 | 00:00:00 | |
| IW2NTF | 2026-08-30 13:03:37 | 45.66645 | 9.32082 | 86° | 62km/h | 10449m | -14.9m/s | -43.5°C | 26.5% | 0hPa | 2.5V | 08:13:05 | 02:29:22 | 00:00:00 | |
| IW2NTF | 2026-08-30 13:03:27 | 45.66636 | 9.31851 | 87° | 64km/h | 10592m | -13.4m/s | -44.8°C | 29.1% | 0hPa | 2.5V | 08:13:15 | 02:29:12 | 00:00:00 | |
| IW2NTF | 2026-08-30 13:03:17 | 45.66627 | 9.31609 | 86° | 69km/h | 10741m | -16.1m/s | -46.1°C | 32.3% | 0hPa | 2.5V | 08:13:25 | 02:29:02 | 00:00:00 | |
| DO3MHA-11 | 2026-08-30 13:03:14 | 45.66629 | 9.31658 | 87° | 69km/h | 10710m | -15.1m/s | -45.8°C | 31.6% | 0hPa | 2.6V | 00:00:00 | 02:29:04 | 00:00:00 | |
| IW2NTF | 2026-08-30 13:03:07 | 45.66620 | 9.31358 | 89° | 69km/h | 10890m | -13.9m/s | -47.4°C | 35.1% | 0hPa | 2.5V | 08:13:35 | 02:28:52 | 00:00:00 | |
| DO3MHA-11 | 2026-08-30 13:03:04 | 45.66620 | 9.31408 | 91° | 71km/h | 10861m | -14.9m/s | -47.1°C | 34.5% | 0hPa | 2.5V | 00:00:00 | 02:28:54 | 00:00:00 | |
| IW2NTF | 2026-08-30 13:02:57 | 45.66626 | 9.31099 | 93° | 71km/h | 11031m | -13m/s | -48.7°C | 39.2% | 0hPa | 2.5V | 08:13:45 | 02:28:42 | 00:00:00 | |
| DO3MHA-11 | 2026-08-30 13:02:54 | 45.66624 | 9.31151 | 93° | 71km/h | 11004m | -14.1m/s | -48.4°C | 38.3% | 0hPa | 2.5V | 00:00:00 | 02:28:44 | 00:00:00 | |
| DB0UT-7 | 2026-08-30 13:02:51 | 45.66627 | 9.31073 | 93° | 71km/h | 11044m | -14.2m/s | -48.8°C | 39.6% | 0hPa | 2.5V | 00:00:00 | 00:00:00 | 00:00:00 | |
| IW2NTF | 2026-08-30 13:02:47 | 45.66637 | 9.30837 | 93° | 73km/h | 11178m | -15.3m/s | -50.2°C | 42.1% | 0hPa | 2.5V | 08:13:55 | 02:28:32 | 00:00:00 | |
| DO3MHA-11 | 2026-08-30 13:02:44 | 45.66634 | 9.30890 | 94° | 73km/h | 11148m | -15.4m/s | -49.8°C | 41.8% | 0hPa | 2.6V | 00:00:00 | 02:28:34 | 00:00:00 | |
| IW2NTF | 2026-08-30 13:02:37 | 45.66650 | 9.30577 | 95° | 71km/h | 11329m | -14.8m/s | -51.6°C | 40.2% | 0hPa | 2.5V | 08:14:05 | 02:28:22 | 00:00:00 | |
| DO3MHA-11 | 2026-08-30 13:02:34 | 45.66647 | 9.30628 | 94° | 71km/h | 11300m | -14.6m/s | -51.2°C | 40.7% | 0hPa | 2.5V | 00:00:00 | 02:28:24 | 00:00:00 | |
| IW2NTF | 2026-08-30 13:02:27 | 45.66659 | 9.30322 | 90° | 71km/h | 11475m | -15.7m/s | -52.3°C | 39.4% | 0hPa | 2.5V | 08:14:15 | 02:28:12 | 00:00:00 | |
| DO3MHA-11 | 2026-08-30 13:02:24 | 45.66658 | 9.30373 | 93° | 71km/h | 11444m | -15.6m/s | -52.0°C | 38.6% | 0hPa | 2.5V | 00:00:00 | 02:28:14 | 00:00:00 | |
| DB0UT-7 | 2026-08-30 13:02:21 | 45.66659 | 9.30296 | 91° | 73km/h | 11490m | -15.1m/s | -52.4°C | 40.0% | 0hPa | 2.5V | 08:14:00 | 02:28:11 | 00:00:00 | |
| IW2NTF | 2026-08-30 13:02:17 | 45.66656 | 9.30066 | 88° | 68km/h | 11620m | -13.3m/s | -53.7°C | 43.7% | 0hPa | 2.5V | 08:14:25 | 02:28:02 | 00:00:00 | |
| DO3MHA-11 | 2026-08-30 13:02:14 | 45.66657 | 9.30117 | 88° | 71km/h | 11593m | -14.2m/s | -53.4°C | 43.3% | 0hPa | 2.6V | 08:14:00 | 02:28:04 | 00:00:00 | |
| IW2NTF | 2026-08-30 13:02:07 | 45.66650 | 9.29809 | 87° | 73km/h | 11768m | -16.1m/s | -54.7°C | 43.9% | 0hPa | 2.5V | 08:14:35 | 02:27:52 | 00:00:00 | |
| DO3MHA-11 | 2026-08-30 13:02:04 | 45.66651 | 9.29861 | 89° | 75km/h | 11739m | -15.4m/s | -54.5°C | 44.0% | 0hPa | 2.5V | 00:00:00 | 02:27:54 | 00:00:00 | |
| IW2NTF | 2026-08-30 13:01:55 | 45.66658 | 9.29472 | 95° | 80km/h | 11944m | -15.1m/s | -55.6°C | 44.8% | 0hPa | 2.5V | 08:14:47 | 02:27:40 | 00:00:00 | |
| DB0UT-7 | 2026-08-30 13:01:51 | 45.66656 | 9.29501 | 95° | 77km/h | 11929m | -15.8m/s | -55.4°C | 44.6% | 0hPa | 2.5V | 00:00:00 | 00:00:00 | 00:00:00 | |
| IW2NTF | 2026-08-30 13:01:45 | 45.66669 | 9.29187 | 91° | 78km/h | 12098m | -16.3m/s | -56.9°C | 44.5% | 0hPa | 2.5V | 08:14:57 | 02:27:30 | 00:00:00 | |
| DO3MHA-11 | 2026-08-30 13:01:44 | 45.66665 | 9.29299 | 92° | 77km/h | 12038m | -15.6m/s | -56.3°C | 44.6% | 0hPa | 2.6V | 00:00:00 | 02:27:34 | 00:00:00 | |
| IW2NTF | 2026-08-30 13:01:35 | 45.66677 | 9.28912 | 93° | 75km/h | 12258m | -15.4m/s | -58.1°C | 42.3% | 0hPa | 2.5V | 08:15:07 | 02:27:20 | 00:00:00 | |
| DO3MHA-11 | 2026-08-30 13:01:34 | 45.66674 | 9.29022 | 94° | 77km/h | 12194m | -16.8m/s | -57.6°C | 43.9% | 0hPa | 2.5V | 00:00:00 | 02:27:24 | 00:00:00 | |
| IW2NTF | 2026-08-30 13:01:25 | 45.66677 | 9.28644 | 89° | 73km/h | 12416m | -15.7m/s | -58.3°C | 33.9% | 0hPa | 2.5V | 08:15:17 | 02:27:10 | 00:00:00 | |
| DO3MHA-11 | 2026-08-30 13:01:24 | 45.66680 | 9.28750 | 90° | 75km/h | 12353m | -15.7m/s | -58.6°C | 38.5% | 0hPa | 2.5V | 00:00:00 | 02:27:14 | 00:00:00 | |
| DB0UT-7 | 2026-08-30 13:01:21 | 45.66678 | 9.28670 | 88° | 84km/h | 12400m | -15.2m/s | -58.3°C | 34.9% | 0hPa | 2.5V | 00:00:00 | 02:27:11 | 00:00:00 | |
| IW2NTF | 2026-08-30 13:01:15 | 45.66668 | 9.28362 | 88° | 82km/h | 12573m | -16.2m/s | -58.5°C | 27.4% | 0hPa | 2.5V | 08:15:27 | 02:27:00 | 00:00:00 | |
| DO3MHA-11 | 2026-08-30 13:01:14 | 45.66672 | 9.28478 | 88° | 82km/h | 12511m | -15.7m/s | -58.3°C | 29.4% | 0hPa | 2.6V | 00:00:00 | 02:27:04 | 00:00:00 | |
| IW2NTF | 2026-08-30 13:01:05 | 45.66676 | 9.28049 | 94° | 88km/h | 12728m | -16.1m/s | -58.7°C | 23.8% | 0hPa | 2.5V | 08:15:37 | 02:26:50 | 00:00:00 | |
| DO3MHA-11 | 2026-08-30 13:01:04 | 45.66670 | 9.28177 | 93° | 89km/h | 12670m | -15.2m/s | -58.5°C | 24.8% | 0hPa | 2.5V | 00:00:00 | 02:26:54 | 00:00:00 | |
| IW2NTF | 2026-08-30 13:00:55 | 45.66688 | 9.27720 | 92° | 91km/h | 12887m | -15.7m/s | -59°C | 22% | 0hPa | 2.5V | 08:15:47 | 02:26:40 | 00:00:00 | |
| DO3MHA-11 | 2026-08-30 13:00:54 | 45.66684 | 9.27854 | 94° | 93km/h | 12825m | -15.0m/s | -58.8°C | 23.1% | 0hPa | 2.5V | 00:00:00 | 02:26:44 | 00:00:00 | |
| DB0UT-7 | 2026-08-30 13:00:51 | 45.66687 | 9.27754 | 93° | 84km/h | 12872m | -15.2m/s | -58.8°C | 22.1% | 0hPa | 2.5V | 00:00:00 | 00:00:00 | 00:00:00 | |
| IW2NTF | 2026-08-30 13:00:45 | 45.66695 | 9.27391 | 91° | 86km/h | 13050m | -15.4m/s | -59.1°C | 18.2% | 0hPa | 2.5V | 08:15:57 | 02:26:30 | 00:00:00 | |
| DO3MHA-11 | 2026-08-30 13:00:44 | 45.66693 | 9.27521 | 92° | 88km/h | 12986m | -15.4m/s | -59.1°C | 20.3% | 0hPa | 2.6V | 08:15:00 | 02:26:34 | 00:00:00 | |
| IW2NTF | 2026-08-30 13:00:35 | 45.66703 | 9.27094 | 93° | 78km/h | 13209m | -17.2m/s | -58.2°C | 15.5% | 0hPa | 2.5V | 08:16:07 | 02:26:20 | 00:00:00 | |
| DO3MHA-11 | 2026-08-30 13:00:34 | 45.66700 | 9.27209 | 91° | 78km/h | 13144m | -16.3m/s | -58.2°C | 15.9% | 0hPa | 2.5V | 00:00:00 | 02:26:24 | 00:00:00 | |
| IW2NTF | 2026-08-30 13:00:25 | 45.66702 | 9.26818 | 84° | 77km/h | 13372m | -16.2m/s | -58.7°C | 14.7% | 0hPa | 2.5V | 08:16:17 | 02:26:10 | 00:00:00 | |
| DO3MHA-11 | 2026-08-30 13:00:24 | 45.66706 | 9.26927 | 88° | 77km/h | 13308m | -16.9m/s | -58.6°C | 15.2% | 0hPa | 2.6V | 00:00:00 | 02:26:14 | 00:00:00 | |
| DB0UT-7 | 2026-08-30 13:00:21 | 45.66703 | 9.26845 | 87° | 78km/h | 13357m | -15.4m/s | -58.6°C | 14.9% | 0hPa | 2.6V | 00:00:00 | 02:26:11 | 00:00:00 | |
| IW2NTF | 2026-08-30 13:00:15 | 45.66682 | 9.26530 | 84° | 82km/h | 13534m | -16.1m/s | -59.1°C | 13.6% | 0hPa | 2.6V | 08:16:27 | 02:26:00 | 00:00:00 | |
| DO3MHA-11 | 2026-08-30 13:00:14 | 45.66691 | 9.26649 | 85° | 80km/h | 13469m | -16.9m/s | -58.8°C | 13.8% | 0hPa | 2.6V | 00:00:00 | 02:26:04 | 00:00:00 | |
| IW2NTF | 2026-08-30 13:00:05 | 45.66663 | 9.26252 | 85° | 78km/h | 13696m | -16.7m/s | -58.7°C | 11.9% | 0hPa | 2.5V | 08:16:37 | 02:25:50 | 00:00:00 | |
| DO3MHA-11 | 2026-08-30 13:00:04 | 45.66670 | 9.26361 | 85° | 78km/h | 13632m | -16.8m/s | -59.2°C | 13.1% | 0hPa | 2.5V | 00:00:00 | 02:25:54 | 00:00:00 | |
| IW2NTF | 2026-08-30 12:59:56 | 45.66656 | 9.25963 | 90° | 78km/h | 13864m | -16.7m/s | -58.4°C | 10.2% | 0hPa | 2.5V | 08:16:47 | 02:25:40 | 00:00:00 | |
| DO3MHA-11 | 2026-08-30 12:59:54 | 45.66656 | 9.26081 | 90° | 80km/h | 13796m | -17.1m/s | -59.0°C | 11.4% | 0hPa | 2.5V | 00:00:00 | 02:25:44 | 00:00:00 | |
| DB0UT-7 | 2026-08-30 12:59:51 | 45.66656 | 9.25992 | 91° | 69km/h | 13847m | -16.8m/s | -58.3°C | 10.3% | 0hPa | 2.5V | 00:00:00 | 00:00:00 | 00:00:00 | |
| DO3MHA-11 | 2026-08-30 12:59:44 | 45.66657 | 9.25797 | 90° | 69km/h | 13969m | -17.5m/s | -58.3°C | 9.4% | 0hPa | 2.5V | 00:00:00 | 02:25:34 | 00:00:00 | |
| IW2NTF | 2026-08-30 12:59:41 | 45.66655 | 9.25695 | 87° | 69km/h | 14040m | -17.4m/s | -58.4°C | 9% | 0hPa | 2.6V | 08:16:57 | 02:25:30 | 00:00:00 | |
| IW2NTF | 2026-08-30 12:59:35 | 45.66643 | 9.25456 | 87° | 66km/h | 14216m | -18.6m/s | -58.6°C | 8% | 0hPa | 2.5V | 08:17:07 | 02:25:20 | 00:00:00 | |
| DO3MHA-11 | 2026-08-30 12:59:34 | 45.66648 | 9.25551 | 87° | 66km/h | 14144m | -18.1m/s | -58.4°C | 8.4% | 0hPa | 2.5V | 00:00:00 | 02:25:24 | 00:00:00 | |
| IW2NTF | 2026-08-30 12:59:25 | 45.66626 | 9.25221 | 79° | 68km/h | 14395m | -18.1m/s | -58.8°C | 7.6% | 0hPa | 2.5V | 08:17:17 | 02:25:10 | 00:00:00 | |
| DO3MHA-11 | 2026-08-30 12:59:24 | 45.66634 | 9.25316 | 83° | 68km/h | 14323m | -18.4m/s | -58.3°C | 7.6% | 0hPa | 2.6V | 00:00:00 | 02:25:14 | 00:00:00 | |
| DB0UT-7 | 2026-08-30 12:59:21 | 45.66629 | 9.25245 | 82° | 69km/h | 14377m | -17.7m/s | -58.6°C | 7.6% | 0hPa | 2.6V | 00:00:00 | 02:25:11 | 00:00:00 | |
| NBG1-10 | 2026-08-30 12:59:18 | 45.66621 | 9.25173 | 81° | 69km/h | 14431m | -19.1m/s | -58.9°C | 7.6% | 0hPa | 2.5V | 00:00:00 | 02:25:08 | 00:00:00 | |
| IW2NTF | 2026-08-30 12:59:15 | 45.66605 | 9.24971 | 86° | 73km/h | 14577m | -18.6m/s | -59.4°C | 7.5% | 0hPa | 2.5V | 08:17:27 | 02:25:00 | 00:00:00 | |
| DO3MHA-11 | 2026-08-30 12:59:14 | 45.66611 | 9.25073 | 83° | 69km/h | 14505m | -18.4m/s | -59.3°C | 7.7% | 0hPa | 2.6V | 08:17:00 | 02:25:04 | 00:00:00 | |
| IW2NTF | 2026-08-30 12:59:05 | 45.66599 | 9.24724 | 87° | 68km/h | 14754m | -16.5m/s | -59.9°C | 8% | 0hPa | 2.6V | 08:17:37 | 02:24:50 | 00:00:00 | |
| DO3MHA-11 | 2026-08-30 12:59:03 | 45.66600 | 9.24797 | 89° | 68km/h | 14703m | -17.6m/s | -59.8°C | 8.0% | 0hPa | 2.5V | 00:00:00 | 02:24:53 | 00:00:00 | |
| IW2NTF | 2026-08-30 12:58:55 | 45.66599 | 9.24477 | 95° | 69km/h | 14927m | -18.2m/s | -60.6°C | 8.6% | 0hPa | 2.5V | 08:17:47 | 02:24:40 | 00:00:00 | |
| DO3MHA-11 | 2026-08-30 12:58:53 | 45.66595 | 9.24552 | 91° | 68km/h | 14876m | -15.5m/s | -60.6°C | 8.6% | 0hPa | 2.5V | 00:00:00 | 02:24:43 | 00:00:00 | |
| DB0UT-7 | 2026-08-30 12:58:51 | 45.66597 | 9.24502 | 95° | 57km/h | 14910m | -18.0m/s | -60.6°C | 8.5% | 0hPa | 2.5V | 00:00:00 | 00:00:00 | 00:00:00 | |
| NBG1-10 | 2026-08-30 12:58:45 | 45.66611 | 9.24357 | 102° | 53km/h | 15010m | -15.1m/s | -60.6°C | 8.7% | 0hPa | 2.5V | 08:17:00 | 02:24:35 | 00:00:00 | |
| DO3MHA-11 | 2026-08-30 12:58:43 | 45.66617 | 9.24313 | 101° | 53km/h | 15042m | -15.0m/s | -60.4°C | 8.6% | 0hPa | 2.5V | 00:00:00 | 02:24:33 | 00:00:00 | |
| IW2NTF | 2026-08-30 12:58:41 | 45.66623 | 9.24251 | 94° | 55km/h | 15092m | -17.2m/s | -59.2°C | 7.5% | 0hPa | 2.6V | 08:17:57 | 02:24:30 | 00:00:00 | |
| IW2NTF | 2026-08-30 12:58:34 | 45.66612 | 9.24070 | 76° | 53km/h | 15272m | -17.8m/s | -59.9°C | 7.6% | 0hPa | 2.5V | 08:18:07 | 02:24:20 | 00:00:00 | |
| DO3MHA-11 | 2026-08-30 12:58:33 | 45.66621 | 9.24123 | 81° | 53km/h | 15219m | -18.5m/s | -59.5°C | 7.5% | 0hPa | 2.6V | 00:00:00 | 02:24:23 | 00:00:00 | |
| IW2NTF | 2026-08-30 12:58:24 | 45.66568 | 9.23882 | 71° | 55km/h | 15444m | -16.3m/s | -59.3°C | 6.7% | 0hPa | 2.6V | 08:18:17 | 02:24:10 | 00:00:00 | |
| DO3MHA-11 | 2026-08-30 12:58:23 | 45.66581 | 9.23938 | 74° | 53km/h | 15393m | -17.7m/s | -59.8°C | 7.3% | 0hPa | 2.5V | 00:00:00 | 02:24:13 | 00:00:00 | |
| DB0UT-7 | 2026-08-30 12:58:21 | 45.66573 | 9.23900 | 72° | 55km/h | 15428m | -17.0m/s | -59.5°C | 7.0% | 0hPa | 2.5V | 00:00:00 | 02:24:11 | 00:00:00 | |
| IW2NTF | 2026-08-30 12:58:14 | 45.66528 | 9.23707 | 72° | 53km/h | 15616m | -18.1m/s | -58.2°C | 5.7% | 0hPa | 2.5V | 08:18:27 | 02:24:00 | 00:00:00 | |
| DO3MHA-11 | 2026-08-30 12:58:13 | 45.66540 | 9.23759 | 72° | 53km/h | 15565m | -17.2m/s | -58.1°C | 5.7% | 0hPa | 2.6V | 00:00:00 | 02:24:03 | 00:00:00 | |
| NBG1-10 | 2026-08-30 12:58:12 | 45.66536 | 9.23742 | 73° | 58km/h | 15582m | -17.1m/s | -58.1°C | 5.6% | 0hPa | 2.5V | 00:00:00 | 02:24:02 | 00:00:00 | |
| IW2NTF | 2026-08-30 12:58:04 | 45.66478 | 9.23522 | 68° | 60km/h | 15783m | -17.3m/s | -58.7°C | 5.7% | 0hPa | 2.5V | 08:18:37 | 02:23:50 | 00:00:00 | |
| DO3MHA-11 | 2026-08-30 12:58:03 | 45.66494 | 9.23578 | 66° | 60km/h | 15734m | -16.1m/s | -58.2°C | 5.7% | 0hPa | 2.6V | 00:00:00 | 02:23:53 | 00:00:00 | |
| IW2NTF | 2026-08-30 12:57:54 | 45.66431 | 9.23312 | 74° | 64km/h | 15960m | -15.7m/s | -59.7°C | 6.1% | 0hPa | 2.6V | 08:18:47 | 02:23:40 | 00:00:00 | |
| DO3MHA-11 | 2026-08-30 12:57:52 | 45.66440 | 9.23355 | 76° | 62km/h | 15926m | -17.3m/s | -59.5°C | 6.0% | 0hPa | 2.6V | 00:00:00 | 02:23:42 | 00:00:00 | |
| DB0UT-7 | 2026-08-30 12:57:51 | 45.66436 | 9.23334 | 73° | 49km/h | 15944m | -16.4m/s | -59.6°C | 6.0% | 0hPa | 2.6V | 08:18:00 | 00:00:00 | 00:00:00 | |
| IW2NTF | 2026-08-30 12:57:44 | 45.66408 | 9.23094 | 88° | 55km/h | 16118m | -16.3m/s | -59.8°C | 6% | 0hPa | 2.6V | 08:18:57 | 02:23:30 | 00:00:00 | |
| DO3MHA-11 | 2026-08-30 12:57:42 | 45.66410 | 9.23135 | 85° | 51km/h | 16086m | -16.6m/s | -59.9°C | 6.0% | 0hPa | 2.5V | 08:18:00 | 02:23:32 | 00:00:00 | |
| NBG1-10 | 2026-08-30 12:57:39 | 45.66408 | 9.23075 | 88° | 38km/h | 16135m | -16.1m/s | -59.8°C | 5.9% | 0hPa | 2.5V | 00:00:00 | 02:23:29 | 00:00:00 | |
| IW2NTF | 2026-08-30 12:57:34 | 45.66408 | 9.22930 | 88° | 37km/h | 16293m | -17.8m/s | -60.4°C | 6.1% | 0hPa | 2.5V | 08:19:07 | 02:23:20 | 00:00:00 | |
| DO3MHA-11 | 2026-08-30 12:57:32 | 45.66408 | 9.22956 | 89° | 35km/h | 16259m | -17.0m/s | -60.2°C | 6.1% | 0hPa | 2.6V | 00:00:00 | 02:23:22 | 00:00:00 | |
| IW2NTF | 2026-08-30 12:57:24 | 45.66393 | 9.22804 | 76° | 38km/h | 16462m | -16.4m/s | -60.9°C | 6.3% | 0hPa | 2.6V | 08:19:17 | 02:23:10 | 00:00:00 | |
| DO3MHA-11 | 2026-08-30 12:57:22 | 45.66397 | 9.22830 | 80° | 35km/h | 16430m | -16.4m/s | -60.8°C | 6.2% | 0hPa | 2.5V | 00:00:00 | 02:23:12 | 00:00:00 | |
| DB0UT-7 | 2026-08-30 12:57:21 | 45.66395 | 9.22817 | 80° | 40km/h | 16446m | -16.3m/s | -60.9°C | 6.3% | 0hPa | 2.5V | 00:00:00 | 02:23:11 | 00:00:00 | |
| IW2NTF | 2026-08-30 12:57:14 | 45.66359 | 9.22693 | 56° | 37km/h | 16630m | -16.1m/s | -60.2°C | 6.1% | 0hPa | 2.5V | 08:19:27 | 02:23:00 | 00:00:00 | |
| DO3MHA-11 | 2026-08-30 12:57:12 | 45.66367 | 9.22713 | 60° | 38km/h | 16598m | -17.8m/s | -60.2°C | 6.0% | 0hPa | 2.5V | 00:00:00 | 02:23:02 | 00:00:00 | |
| NBG1-10 | 2026-08-30 12:57:06 | 45.66336 | 9.22647 | 56° | 38km/h | 16699m | -17.1m/s | -59.9°C | 6.0% | 0hPa | 2.5V | 00:00:00 | 02:22:56 | 00:00:00 | |
| IW2NTF | 2026-08-30 12:57:04 | 45.66296 | 9.22564 | 58° | 51km/h | 16810m | -21.8m/s | -60°C | 6% | 0hPa | 2.5V | 08:19:37 | 02:22:50 | 00:00:00 | |
| DO3MHA-11 | 2026-08-30 12:57:02 | 45.66309 | 9.22594 | 59° | 46km/h | 16770m | -18.6m/s | -59.8°C | 5.8% | 0hPa | 2.6V | 00:00:00 | 02:22:52 | 00:00:00 | |
| DO3MHA-11 | 2026-08-30 12:56:52 | 45.66248 | 9.22452 | 59° | 37km/h | 16958m | -18.8m/s | -58.5°C | 5.6% | 0hPa | 2.6V | 00:00:00 | 02:22:42 | 00:00:00 | |
| IW2NTF | 2026-08-30 12:56:51 | 45.66238 | 9.22427 | 64° | 40km/h | 16993m | -16.1m/s | -58.6°C | 5.7% | 0hPa | 2.6V | 08:19:47 | 02:22:40 | 00:00:00 | |
| DB0UT-7 | 2026-08-30 12:56:51 | 45.66242 | 9.22440 | 61° | 29km/h | 16976m | -17.3m/s | -58.5°C | 5.6% | 0hPa | 2.5V | 00:00:00 | 00:00:00 | 00:00:00 | |
| DO3MHA-11 | 2026-08-30 12:56:42 | 45.66213 | 9.22328 | 76° | 24km/h | 17140m | -17.8m/s | -57.8°C | 5.2% | 0hPa | 2.5V | 00:00:00 | 02:22:32 | 00:00:00 | |
| IW2NTF | 2026-08-30 12:56:41 | 45.66209 | 9.22310 | 70° | 24km/h | 17175m | -16.9m/s | -57.2°C | 5.1% | 0hPa | 2.6V | 08:19:57 | 02:22:30 | 00:00:00 | |
| IW2NTF | 2026-08-30 12:56:34 | 45.66181 | 9.22233 | 57° | 24km/h | 17350m | -17.3m/s | -56.5°C | 4.7% | 0hPa | 2.5V | 08:20:07 | 02:22:20 | 00:00:00 | |
| NBG1-10 | 2026-08-30 12:56:33 | 45.66191 | 9.22256 | 60° | 26km/h | 17300m | -16.1m/s | -56.2°C | 4.5% | 0hPa | 2.6V | 00:00:00 | 02:22:23 | 00:00:00 | |
| DO3MHA-11 | 2026-08-30 12:56:32 | 45.66188 | 9.22248 | 58° | 27km/h | 17316m | -16.2m/s | -56.3°C | 4.6% | 0hPa | 2.6V | 00:00:00 | 02:22:22 | 00:00:00 | |
| IW2NTF | 2026-08-30 12:56:23 | 45.66141 | 9.22142 | 65° | 35km/h | 17535m | -18.6m/s | -57.1°C | 4.9% | 0hPa | 2.6V | 08:20:17 | 02:22:10 | 00:00:00 | |
| DO3MHA-11 | 2026-08-30 12:56:22 | 45.66148 | 9.22162 | 61° | 31km/h | 17499m | -18.4m/s | -57.0°C | 4.9% | 0hPa | 2.6V | 00:00:00 | 02:22:12 | 00:00:00 | |
| DB0UT-7 | 2026-08-30 12:56:21 | 45.66145 | 9.22152 | 66° | 22km/h | 17517m | -18.2m/s | -57.1°C | 4.9% | 0hPa | 2.6V | 00:00:00 | 02:22:11 | 00:00:00 | |
| IW2NTF | 2026-08-30 12:56:13 | 45.66119 | 9.22049 | 73° | 18km/h | 17712m | -20.3m/s | -56.8°C | 4.9% | 0hPa | 2.6V | 08:20:27 | 02:22:00 | 00:00:00 | |
| DO3MHA-11 | 2026-08-30 12:56:12 | 45.66121 | 9.22062 | 82° | 18km/h | 17675m | -17.3m/s | -56.8°C | 4.8% | 0hPa | 2.5V | 08:20:00 | 02:22:02 | 00:00:00 | |
| IW2NTF | 2026-08-30 12:56:04 | 45.66093 | 9.21996 | 42° | 16km/h | 17900m | -19.9m/s | -57°C | 4.8% | 0hPa | 2.6V | 08:20:37 | 02:21:50 | 00:00:00 | |
| DO3MHA-11 | 2026-08-30 12:56:02 | 45.66099 | 9.22005 | 48° | 16km/h | 17862m | -20.4m/s | -56.6°C | 4.7% | 0hPa | 2.5V | 00:00:00 | 02:21:52 | 00:00:00 | |
| NBG1-10 | 2026-08-30 12:56:00 | 45.66093 | 9.21996 | 43° | 22km/h | 17901m | -19.9m/s | -56.9°C | 4.8% | 0hPa | 2.5V | 00:00:00 | 02:21:50 | 00:00:00 | |
| IW2NTF | 2026-08-30 12:55:54 | 45.66072 | 9.21948 | 69° | 16km/h | 18081m | -15.9m/s | -56.2°C | 4.5% | 0hPa | 2.5V | 08:20:47 | 02:21:40 | 00:00:00 | |
| DO3MHA-11 | 2026-08-30 12:55:52 | 45.66075 | 9.21958 | 60° | 20km/h | 18045m | -18.3m/s | -56.2°C | 4.5% | 0hPa | 2.5V | 00:00:00 | 02:21:42 | 00:00:00 | |
| DB0UT-7 | 2026-08-30 12:55:51 | 45.66073 | 9.21953 | 66° | 22km/h | 18064m | -18.4m/s | -56.2°C | 4.5% | 0hPa | 2.5V | 00:00:00 | 00:00:00 | 00:00:00 | |
| IW2NTF | 2026-08-30 12:55:44 | 45.66055 | 9.21869 | 81° | 29km/h | 18261m | -16.5m/s | -57°C | 4.8% | 0hPa | 2.5V | 08:20:57 | 02:21:30 | 00:00:00 | |
| DO3MHA-11 | 2026-08-30 12:55:42 | 45.66058 | 9.21890 | 79° | 29km/h | 18226m | -18.6m/s | -56.7°C | 4.8% | 0hPa | 2.6V | 00:00:00 | 02:21:32 | 00:00:00 | |
| IW2NTF | 2026-08-30 12:55:34 | 45.66054 | 9.21774 | 85° | 20km/h | 18464m | -19.6m/s | -56.6°C | 4.8% | 0hPa | 2.5V | 08:21:07 | 02:21:20 | 00:00:00 | |
| DO3MHA-11 | 2026-08-30 12:55:32 | 45.66054 | 9.21789 | 95° | 16km/h | 18425m | -17.5m/s | -57.0°C | 4.9% | 0hPa | 2.6V | 00:00:00 | 02:21:22 | 00:00:00 | |
| NBG1-10 | 2026-08-30 12:55:27 | 45.66051 | 9.21756 | 74° | 11km/h | 18523m | -20.3m/s | -56.6°C | 4.7% | 0hPa | 2.6V | 00:00:00 | 02:21:17 | 00:00:00 | |
| IW2NTF | 2026-08-30 12:55:24 | 45.66045 | 9.21724 | 79° | 13km/h | 18655m | -19.2m/s | -56.4°C | 4.6% | 0hPa | 2.6V | 08:21:17 | 02:21:10 | 00:00:00 | |
| DO3MHA-11 | 2026-08-30 12:55:22 | 45.66046 | 9.21733 | 80° | 13km/h | 18618m | -18.4m/s | -56.5°C | 4.7% | 0hPa | 2.6V | 00:00:00 | 02:21:12 | 00:00:00 | |
| DB0UT-7 | 2026-08-30 12:55:21 | 45.66046 | 9.21729 | 82° | 13km/h | 18636m | -18.5m/s | -56.4°C | 4.7% | 0hPa | 2.6V | 00:00:00 | 02:21:11 | 00:00:00 | |
| IW2NTF | 2026-08-30 12:55:14 | 45.66057 | 9.21683 | 138° | 9km/h | 18851m | -18.1m/s | -56.3°C | 4.6% | 0hPa | 2.6V | 08:21:27 | 02:21:00 | 00:00:00 | |
| DO3MHA-11 | 2026-08-30 12:55:12 | 45.66053 | 9.21689 | 137° | 7km/h | 18814m | -20.6m/s | -56.5°C | 4.6% | 0hPa | 2.7V | 00:00:00 | 02:21:02 | 00:00:00 | |
| IW2NTF | 2026-08-30 12:55:04 | 45.66058 | 9.21689 | 326° | 11km/h | 19042m | -20.1m/s | -56.8°C | 4.7% | 0hPa | 2.6V | 08:21:37 | 02:20:50 | 00:00:00 | |
| DO3MHA-11 | 2026-08-30 12:55:02 | 45.66062 | 9.21683 | 316° | 15km/h | 19004m | -19.2m/s | -56.4°C | 4.5% | 0hPa | 2.5V | 00:00:00 | 02:20:52 | 00:00:00 | |
| IW2NTF | 2026-08-30 12:54:54 | 45.66019 | 9.21704 | 5° | 16km/h | 19229m | -21.9m/s | -57.6°C | 5.2% | 0hPa | 2.5V | 08:21:47 | 02:20:40 | 00:00:00 | |
| NBG1-10 | 2026-08-30 12:54:54 | 45.66037 | 9.21702 | 344° | 16km/h | 19159m | -18.0m/s | -57.4°C | 5.1% | 0hPa | 2.5V | 00:00:00 | 02:20:44 | 00:00:00 | |
| DO3MHA-11 | 2026-08-30 12:54:52 | 45.66028 | 9.21704 | 360° | 16km/h | 19194m | -17.9m/s | -57.5°C | 5.1% | 0hPa | 2.5V | 00:00:00 | 02:20:42 | 00:00:00 | |
| DB0UT-7 | 2026-08-30 12:54:51 | 45.66023 | 9.21704 | 5° | 13km/h | 19211m | -14.8m/s | -57.6°C | 5.1% | 0hPa | 2.5V | 00:00:00 | 00:00:00 | 00:00:00 | |
| IW2NTF | 2026-08-30 12:54:44 | 45.65977 | 9.21676 | 47° | 16km/h | 19454m | -20.2m/s | -57°C | 4.9% | 0hPa | 2.5V | 08:21:58 | 02:20:29 | 00:00:00 | |
| DO3MHA-11 | 2026-08-30 12:54:42 | 45.65987 | 9.21688 | 40° | 15km/h | 19395m | -18.5m/s | -56.5°C | 4.8% | 0hPa | 2.7V | 08:21:00 | 02:20:32 | 00:00:00 | |
| IW2NTF | 2026-08-30 12:54:34 | 45.65966 | 9.21646 | 301° | 5km/h | 19646m | -20.8m/s | -55.3°C | 4.4% | 0hPa | 2.6V | 08:22:08 | 02:20:19 | 00:00:00 | |
| DO3MHA-11 | 2026-08-30 12:54:32 | 45.65967 | 9.21648 | 84° | 9km/h | 19587m | -20.6m/s | -55.9°C | 4.7% | 0hPa | 2.6V | 00:00:00 | 02:20:22 | 00:00:00 | |
| IW2NTF | 2026-08-30 12:54:23 | 45.65935 | 9.21669 | 349° | 16km/h | 19884m | -19.6m/s | -55.6°C | 4.6% | 0hPa | 2.6V | 08:22:19 | 02:20:08 | 00:00:00 | |
| DO3MHA-11 | 2026-08-30 12:54:22 | 45.65950 | 9.21662 | 329° | 16km/h | 19801m | -21.2m/s | -55.9°C | 4.7% | 0hPa | 2.7V | 00:00:00 | 02:20:12 | 00:00:00 | |
| DB0UT-7 | 2026-08-30 12:54:21 | 45.65946 | 9.21664 | 340° | 11km/h | 19823m | -21.8m/s | -55.8°C | 4.7% | 0hPa | 2.7V | 00:00:00 | 02:20:11 | 00:00:00 | |
| IW2NTF | 2026-08-30 12:54:13 | 45.65903 | 9.21658 | 19° | 7km/h | 20087m | -20.2m/s | -55.4°C | 4.6% | 0hPa | 2.7V | 08:22:29 | 02:19:58 | 00:00:00 | |
| NBG1-10 | 2026-08-30 12:54:13 | 45.65915 | 9.21664 | 23° | 7km/h | 19983m | -18.9m/s | -55.7°C | 4.7% | 0hPa | 2.6V | 00:00:00 | 02:20:03 | 00:00:00 | |
| DO3MHA-11 | 2026-08-30 12:54:12 | 45.65912 | 9.21662 | 21° | 9km/h | 20003m | -20.2m/s | -55.5°C | 4.7% | 0hPa | 2.6V | 00:00:00 | 02:20:02 | 00:00:00 | |
| IW2NTF | 2026-08-30 12:54:03 | 45.65876 | 9.21649 | 11° | 13km/h | 20300m | -20.6m/s | -54.9°C | 4.4% | 0hPa | 2.7V | 08:22:39 | 02:19:48 | 00:00:00 | |
| DO3MHA-11 | 2026-08-30 12:53:52 | 45.65864 | 9.21644 | 31° | 4km/h | 20433m | -22.2m/s | -54.4°C | 4.3% | 0hPa | 2.7V | 00:00:00 | 02:19:42 | 00:00:00 | |
| DB0UT-7 | 2026-08-30 12:53:51 | 45.65864 | 9.21644 | 328° | 11km/h | 20454m | -21.1m/s | -54.4°C | 4.3% | 0hPa | 2.7V | 00:00:00 | 00:00:00 | 00:00:00 | |
| IW2NTF | 2026-08-30 12:53:50 | 45.65869 | 9.21648 | 202° | 9km/h | 20564m | -17.5m/s | -54.3°C | 4.3% | 0hPa | 2.7V | 08:22:52 | 02:19:35 | 00:00:00 | |
| DO3MHA-11 | 2026-08-30 12:53:42 | 45.65873 | 9.21651 | 221° | 9km/h | 20625m | -20.9m/s | -54.1°C | 4.2% | 0hPa | 2.5V | 00:00:00 | 02:19:32 | 00:00:00 | |
| IW2NTF | 2026-08-30 12:53:40 | 45.65865 | 9.21667 | 307° | 13km/h | 20772m | -21.2m/s | -54.3°C | 4.3% | 0hPa | 2.7V | 08:23:02 | 02:19:25 | 00:00:00 | |
| NBG1-10 | 2026-08-30 12:53:40 | 45.65873 | 9.21654 | 299° | 13km/h | 20665m | -20.9m/s | -54.0°C | 4.2% | 0hPa | 2.7V | 08:22:00 | 02:19:30 | 00:00:00 | |
| DO3MHA-11 | 2026-08-30 12:53:32 | 45.65856 | 9.21679 | 317° | 18km/h | 20839m | -21.7m/s | -54.0°C | 4.2% | 0hPa | 2.7V | 00:00:00 | 02:19:22 | 00:00:00 | |
| IW2NTF | 2026-08-30 12:53:24 | 45.65822 | 9.21712 | 337° | 15km/h | 21036m | -23.6m/s | -54.3°C | 4.2% | 0hPa | 2.7V | 08:23:14 | 02:19:13 | 00:00:00 | |
| DO3MHA-11 | 2026-08-30 12:53:22 | 45.65819 | 9.21714 | 339° | 9km/h | 21059m | -20.8m/s | -54.3°C | 4.3% | 0hPa | 2.5V | 00:00:00 | 02:19:12 | 00:00:00 | |
| DB0UT-7 | 2026-08-30 12:53:21 | 45.65816 | 9.21715 | 337° | 7km/h | 21081m | -23.5m/s | -54.3°C | 4.3% | 0hPa | 2.5V | 08:23:00 | 02:19:11 | 00:00:00 | |
| IW2NTF | 2026-08-30 12:53:14 | 45.65797 | 9.21714 | 356° | 9km/h | 21262m | -22.2m/s | -54.9°C | 4.5% | 0hPa | 2.7V | 08:23:24 | 02:19:03 | 00:00:00 | |
| DO3MHA-11 | 2026-08-30 12:53:12 | 45.65795 | 9.21713 | 16° | 5km/h | 21283m | -20.8m/s | -54.9°C | 4.4% | 0hPa | 2.5V | 08:23:00 | 02:19:02 | 00:00:00 | |
| NBG1-10 | 2026-08-30 12:53:07 | 45.65790 | 9.21714 | 211° | 11km/h | 21391m | -24.0m/s | -54.2°C | 4.1% | 0hPa | 2.7V | 00:00:00 | 02:18:57 | 00:00:00 | |
| IW2NTF | 2026-08-30 12:53:05 | 45.65793 | 9.21717 | 234° | 7km/h | 21486m | -21.7m/s | -54.3°C | 4.2% | 0hPa | 2.7V | 08:23:34 | 02:18:53 | 00:00:00 | |
| DO3MHA-11 | 2026-08-30 12:53:02 | 45.65794 | 9.21719 | 253° | 5km/h | 21509m | -22.8m/s | -54.3°C | 4.2% | 0hPa | 2.5V | 00:00:00 | 02:18:52 | 00:00:00 | |
| IW2NTF | 2026-08-30 12:52:54 | 45.65795 | 9.21735 | 263° | 7km/h | 21714m | -21.3m/s | -54.7°C | 4.3% | 0hPa | 2.5V | 08:23:44 | 02:18:43 | 00:00:00 | |
| DO3MHA-11 | 2026-08-30 12:52:52 | 45.65795 | 9.21738 | 277° | 15km/h | 21734m | -17.9m/s | -54.7°C | 4.3% | 0hPa | 2.5V | 00:00:00 | 02:18:42 | 00:00:00 | |
| DB0UT-7 | 2026-08-30 12:52:51 | 45.65795 | 9.21743 | 266° | 20km/h | 21754m | -22.5m/s | -54.8°C | 4.4% | 0hPa | 2.5V | 00:00:00 | 00:00:00 | 00:00:00 | |
| IW2NTF | 2026-08-30 12:52:48 | 45.65789 | 9.21782 | 303° | 13km/h | 21928m | -20.8m/s | -55.2°C | 4.5% | 0hPa | 2.5V | 08:23:54 | 02:18:33 | 00:00:00 | |
| DO3MHA-11 | 2026-08-30 12:52:42 | 45.65788 | 9.21787 | 298° | 18km/h | 21950m | -21.7m/s | -55.0°C | 4.5% | 0hPa | 2.5V | 00:00:00 | 02:18:32 | 00:00:00 | |
| IW2NTF | 2026-08-30 12:52:34 | 45.65779 | 9.21842 | 272° | 24km/h | 22150m | -22.8m/s | -55.2°C | 4.7% | 0hPa | 2.5V | 08:24:04 | 02:18:23 | 00:00:00 | |
| NBG1-10 | 2026-08-30 12:52:34 | 45.65779 | 9.21834 | 275° | 27km/h | 22127m | -23.7m/s | -55.1°C | 4.6% | 0hPa | 2.5V | 00:00:00 | 02:18:24 | 00:00:00 | |
| DO3MHA-11 | 2026-08-30 12:52:32 | 45.65778 | 9.21851 | 282° | 27km/h | 22172m | -19.1m/s | -55.2°C | 4.8% | 0hPa | 2.5V | 00:00:00 | 02:18:22 | 00:00:00 | |
| IW2NTF | 2026-08-30 12:52:24 | 45.65748 | 9.21927 | 306° | 24km/h | 22374m | -23.6m/s | -54.6°C | 4.6% | 0hPa | 2.5V | 08:24:14 | 02:18:13 | 00:00:00 | |
| OE5DRO-10 | 2026-08-30 12:52:23 | 45.65748 | 9.21927 | 307° | 27km/h | 22374m | -23.6m/s | -54.6°C | 4.6% | 0hPa | 2.5V | 00:00:00 | 00:00:00 | 00:00:00 | |
| DO3MHA-11 | 2026-08-30 12:52:22 | 45.65745 | 9.21934 | 304° | 24km/h | 22397m | -22.4m/s | -54.3°C | 4.5% | 0hPa | 2.7V | 00:00:00 | 02:18:12 | 00:00:00 | |
| DB0UT-7 | 2026-08-30 12:52:21 | 45.65741 | 9.21941 | 309° | 26km/h | 22419m | -21.5m/s | -54.0°C | 4.3% | 0hPa | 2.7V | 00:00:00 | 02:18:11 | 00:00:00 | |
| IW2NTF | 2026-08-30 12:52:18 | 45.65711 | 9.21999 | 305° | 24km/h | 22603m | -25.5m/s | -53.4°C | 4.1% | 0hPa | 2.7V | 08:24:24 | 02:18:03 | 00:00:00 | |
| DO3MHA-11 | 2026-08-30 12:52:12 | 45.65708 | 9.22006 | 307° | 27km/h | 22629m | -26.4m/s | -53.2°C | 4.0% | 0hPa | 2.7V | 00:00:00 | 02:18:02 | 00:00:00 | |
| IW2NTF | 2026-08-30 12:52:08 | 45.65660 | 9.22066 | 332° | 31km/h | 22848m | -23.2m/s | -53.7°C | 4.2% | 0hPa | 2.5V | 08:24:34 | 02:17:53 | 00:00:00 | |
| DO3MHA-11 | 2026-08-30 12:52:02 | 45.65652 | 9.22071 | 342° | 26km/h | 22872m | -24.3m/s | -53.6°C | 4.1% | 0hPa | 2.7V | 00:00:00 | 02:17:52 | 00:00:00 | |
| NBG1-10 | 2026-08-30 12:52:01 | 45.65644 | 9.22074 | 341° | 16km/h | 22898m | -26.7m/s | -53.4°C | 4.1% | 0hPa | 2.7V | 00:00:00 | 02:17:51 | 00:00:00 | |
| OE5DRO-10 | 2026-08-30 12:51:58 | 45.65622 | 9.22082 | 355° | 15km/h | 22975m | -24.9m/s | -53.3°C | 4.0% | 0hPa | 2.5V | 00:00:00 | 00:00:00 | 00:00:00 | |
| IW2NTF | 2026-08-30 12:51:57 | 45.65593 | 9.22078 | 31° | 15km/h | 23100m | -24.5m/s | -53.6°C | 4.1% | 0hPa | 2.5V | 08:24:44 | 02:17:43 | 00:00:00 | |
| DO3MHA-11 | 2026-08-30 12:51:52 | 45.65590 | 9.22076 | 30° | 13km/h | 23125m | -25.3m/s | -53.6°C | 4.2% | 0hPa | 2.5V | 00:00:00 | 02:17:42 | 00:00:00 | |
| DB0UT-7 | 2026-08-30 12:51:51 | 45.65588 | 9.22074 | 38° | 15km/h | 23151m | -26.7m/s | -53.5°C | 4.1% | 0hPa | 2.5V | 00:00:00 | 00:00:00 | 00:00:00 | |
| IW2NTF | 2026-08-30 12:51:45 | 45.65566 | 9.22056 | 27° | 13km/h | 23335m | -21.9m/s | -53.9°C | 4.2% | 0hPa | 2.7V | 08:24:54 | 02:17:33 | 00:00:00 | |
| DO3MHA-11 | 2026-08-30 12:51:42 | 45.65563 | 9.22054 | 28° | 15km/h | 23358m | -22.5m/s | -53.9°C | 4.2% | 0hPa | 2.7V | 08:24:00 | 02:17:32 | 00:00:00 | |
| OE5DRO-10 | 2026-08-30 12:51:39 | 45.65557 | 9.22049 | 23° | 16km/h | 23437m | -27.7m/s | -53.7°C | 4.2% | 0hPa | 2.5V | 00:00:00 | 00:00:00 | 00:00:00 | |
| IW2NTF | 2026-08-30 12:51:35 | 45.65534 | 9.22046 | 357° | 18km/h | 23585m | -20.5m/s | -53.8°C | 4.3% | 0hPa | 2.5V | 08:25:04 | 02:17:23 | 00:00:00 | |
| DO3MHA-11 | 2026-08-30 12:51:32 | 45.65529 | 9.22047 | 358° | 18km/h | 23608m | -22.7m/s | -53.7°C | 4.2% | 0hPa | 2.7V | 00:00:00 | 02:17:22 | 00:00:00 | |
| IW2NTF | 2026-08-30 12:51:24 | 45.65483 | 9.22021 | 57° | 15km/h | 23888m | -22.6m/s | -53.4°C | 4.2% | 0hPa | 2.7V | 08:25:17 | 02:17:10 | 00:00:00 | |
| DO3MHA-11 | 2026-08-30 12:51:22 | 45.65488 | 9.22028 | 35° | 13km/h | 23843m | -23.6m/s | -53.6°C | 4.3% | 0hPa | 2.7V | 00:00:00 | 02:17:12 | 00:00:00 | |
| DB0UT-7 | 2026-08-30 12:51:21 | 45.65485 | 9.22025 | 41° | 13km/h | 23866m | -22.7m/s | -53.5°C | 4.3% | 0hPa | 2.7V | 00:00:00 | 02:17:11 | 00:00:00 | |
| OE5DRO-10 | 2026-08-30 12:51:20 | 45.65482 | 9.22021 | 58° | 13km/h | 23888m | -22.6m/s | -53.4°C | 4.2% | 0hPa | 2.7V | 00:00:00 | 00:00:00 | 00:00:00 | |
| IW2NTF | 2026-08-30 12:51:14 | 45.65484 | 9.22031 | 255° | 16km/h | 24182m | -21.8m/s | -53.4°C | 4.4% | 0hPa | 2.7V | 08:25:29 | 02:16:58 | 00:00:00 | |
| NBG1-10 | 2026-08-30 12:51:12 | 45.65482 | 9.22012 | 256° | 15km/h | 24086m | -26.2m/s | -53.4°C | 4.4% | 0hPa | 2.5V | 00:00:00 | 02:17:02 | 00:00:00 | |
| IW2NTF | 2026-08-30 12:51:03 | 45.65477 | 9.22081 | 313° | 13km/h | 24451m | -29.5m/s | -52°C | 4% | 0hPa | 2.5V | 08:25:39 | 02:16:48 | 00:00:00 | |
| OE5DRO-10 | 2026-08-30 12:51:00 | 45.65481 | 9.22073 | 289° | 18km/h | 24392m | -29.0m/s | -52.0°C | 4.0% | 0hPa | 2.7V | 00:00:00 | 00:00:00 | 00:00:00 | |
| IW2NTF | 2026-08-30 12:50:51 | 45.65442 | 9.22116 | 356° | 18km/h | 24699m | -24.4m/s | -52°C | 4.1% | 0hPa | 2.7V | 08:25:49 | 02:16:38 | 00:00:00 | |
| DB0UT-7 | 2026-08-30 12:50:51 | 45.65455 | 9.22110 | 328° | 16km/h | 24628m | -21.9m/s | -52.0°C | 4.1% | 0hPa | 2.7V | 00:00:00 | 00:00:00 | 00:00:00 | |
| OE5DRO-10 | 2026-08-30 12:50:41 | 45.65405 | 9.22120 | 358° | 13km/h | 24870m | -27.4m/s | -51.2°C | 3.9% | 0hPa | 2.7V | 00:00:00 | 00:00:00 | 00:00:00 | |
| IW2NTF | 2026-08-30 12:50:39 | 45.65393 | 9.22117 | 20° | 11km/h | 24945m | -25.2m/s | -50.9°C | 3.8% | 0hPa | 2.7V | 08:25:59 | 02:16:28 | 00:00:00 | |
| IW2NTF | 2026-08-30 12:50:33 | 45.65384 | 9.22108 | 303° | 15km/h | 25202m | -29.1m/s | -50.7°C | 3.7% | 0hPa | 2.5V | 08:26:09 | 02:16:18 | 00:00:00 | |
| NBG1-10 | 2026-08-30 12:50:30 | 45.65387 | 9.22102 | 345° | 18km/h | 25145m | -27.4m/s | -50.8°C | 3.8% | 0hPa | 2.5V | 00:00:00 | 02:16:20 | 00:00:00 | |
| OE5DXL-15 | 2026-08-30 12:50:27 | 45.65382 | 9.22112 | 310° | 29km/h | 25230m | -26.6m/s | -50.5°C | 3.7% | 0hPa | 2.5V | 00:00:00 | 00:00:00 | 00:00:00 | |
| OE5DRO-10 | 2026-08-30 12:50:22 | 45.65361 | 9.22141 | 315° | 15km/h | 25360m | -27.0m/s | -50.4°C | 3.6% | 0hPa | 2.5V | 08:26:00 | 00:00:00 | 00:00:00 | |
| IW2NTF | 2026-08-30 12:50:21 | 45.65344 | 9.22163 | 314° | 18km/h | 25475m | -29.6m/s | -50.5°C | 3.6% | 0hPa | 2.7V | 08:26:19 | 02:16:08 | 00:00:00 | |
| DB0UT-7 | 2026-08-30 12:50:21 | 45.65356 | 9.22147 | 321° | 20km/h | 25388m | -30.0m/s | -50.5°C | 3.6% | 0hPa | 2.5V | 00:00:00 | 02:16:11 | 00:00:00 | |
| DO3MHA-11 | 2026-08-30 12:50:11 | 45.65333 | 9.22186 | 275° | 16km/h | 25675m | -26.8m/s | -50.6°C | 3.7% | 0hPa | 2.5V | 00:00:00 | 02:16:01 | 00:00:00 | |
| IW2NTF | 2026-08-30 12:50:09 | 45.65334 | 9.22197 | 257° | 13km/h | 25763m | -29.8m/s | -50.6°C | 3.7% | 0hPa | 2.7V | 08:26:29 | 02:15:58 | 00:00:00 | |
| OE5DRO-10 | 2026-08-30 12:50:03 | 45.65333 | 9.22230 | 288° | 26km/h | 25903m | -27.1m/s | -50.3°C | 3.7% | 0hPa | 2.5V | 00:00:00 | 00:00:00 | 00:00:00 | |
| DO3MHA-11 | 2026-08-30 12:50:01 | 45.65329 | 9.22249 | 298° | 27km/h | 25955m | -27.1m/s | -50.5°C | 3.8% | 0hPa | 2.5V | 00:00:00 | 02:15:51 | 00:00:00 | |
| IW2NTF | 2026-08-30 12:49:59 | 45.65319 | 9.22277 | 306° | 31km/h | 26035m | -25.6m/s | -50.6°C | 3.8% | 0hPa | 2.5V | 08:26:39 | 02:15:48 | 00:00:00 | |
| NBG1-10 | 2026-08-30 12:49:57 | 45.65314 | 9.22285 | 313° | 15km/h | 26063m | -27.8m/s | -50.5°C | 3.8% | 0hPa | 2.7V | 00:00:00 | 02:15:47 | 00:00:00 | |
| DK5PH-5 | 2026-08-30 12:49:56 | 45.65309 | 9.22292 | 316° | 15km/h | 26092m | -30.0m/s | -50.4°C | 3.8% | 0hPa | 2.7V | 08:26:00 | 02:15:46 | 00:00:00 | |
| IW2NTF | 2026-08-30 12:49:53 | 45.65266 | 9.22318 | 2° | 20km/h | 26320m | -27.6m/s | -49.5°C | 3.5% | 0hPa | 2.7V | 08:26:49 | 02:15:38 | 00:00:00 | |
| DL1ZP-14 | 2026-08-30 12:49:52 | 45.65282 | 9.22316 | 344° | 26km/h | 26233m | -26.5m/s | -49.8°C | 1.0% | -1.0hPa | 2.5V | 00:00:00 | 00:00:00 | 00:00:00 | |
| DO3MHA-11 | 2026-08-30 12:49:51 | 45.65282 | 9.22316 | 345° | 18km/h | 26234m | -26.5m/s | -49.7°C | 3.6% | 0hPa | 2.5V | 00:00:00 | 02:15:41 | 00:00:00 | |
| OE5DRO-10 | 2026-08-30 12:49:44 | 45.65250 | 9.22310 | 51° | 11km/h | 26431m | -27.6m/s | -49.7°C | 3.6% | 0hPa | 2.5V | 00:00:00 | 00:00:00 | 00:00:00 | |
| IW2NTF | 2026-08-30 12:49:41 | 45.65249 | 9.22296 | 232° | 4km/h | 26595m | -24.7m/s | -49.9°C | 3.7% | 0hPa | 2.5V | 08:26:59 | 02:15:28 | 00:00:00 | |
| DO3MHA-11 | 2026-08-30 12:49:41 | 45.65247 | 9.22299 | 91° | 7km/h | 26515m | -28.2m/s | -49.8°C | 3.7% | 0hPa | 2.7V | 00:00:00 | 02:15:31 | 00:00:00 | |
| DO3MHA-11 | 2026-08-30 12:49:31 | 45.65244 | 9.22317 | 299° | 16km/h | 26818m | -34.3m/s | -49.4°C | 3.5% | 0hPa | 2.5V | 00:00:00 | 02:15:21 | 00:00:00 | |
| IW2NTF | 2026-08-30 12:49:29 | 45.65237 | 9.22329 | 300° | 16km/h | 26916m | -31.4m/s | -49.7°C | 3.6% | 0hPa | 2.5V | 08:27:09 | 02:15:18 | 00:00:00 | |
| DK5PH-5 | 2026-08-30 12:49:26 | 45.65232 | 9.22338 | 310° | 13km/h | 26974m | -25.8m/s | -49.7°C | 3.6% | 0hPa | 2.7V | 00:00:00 | 02:15:16 | 00:00:00 | |
| OE5DRO-10 | 2026-08-30 12:49:25 | 45.65228 | 9.22343 | 325° | 15km/h | 27003m | -32.4m/s | -49.6°C | 3.6% | 0hPa | 2.7V | 00:00:00 | 00:00:00 | 00:00:00 | |
| NBG1-10 | 2026-08-30 12:49:24 | 45.65221 | 9.22350 | 324° | 11km/h | 27066m | -29.8m/s | -49.7°C | 3.7% | 0hPa | 2.7V | 00:00:00 | 02:15:13 | 00:00:00 | |
| DO3MHA-11 | 2026-08-30 12:49:21 | 45.65213 | 9.22358 | 335° | 16km/h | 27126m | -29.3m/s | -49.6°C | 3.7% | 0hPa | 2.7V | 00:00:00 | 02:15:11 | 00:00:00 | |
| IW2NTF | 2026-08-30 12:49:17 | 45.65187 | 9.22362 | 4° | 15km/h | 27292m | -26.1m/s | -49.4°C | 3.6% | 0hPa | 2.7V | 08:27:22 | 02:15:05 | 00:00:00 | |
| DO3MHA-11 | 2026-08-30 12:49:11 | 45.65173 | 9.22362 | 10° | 9km/h | 27407m | -28.1m/s | -49.3°C | 3.7% | 0hPa | 2.5V | 08:27:00 | 02:15:01 | 00:00:00 | |
| IW2NTF | 2026-08-30 12:49:05 | 45.65157 | 9.22363 | 350° | 9km/h | 27564m | -27.2m/s | -49°C | 3.7% | 0hPa | 2.5V | 08:27:32 | 02:14:55 | 00:00:00 | |
| DO3MHA-11 | 2026-08-30 12:49:01 | 45.65157 | 9.22367 | 220° | 5km/h | 27684m | -28.2m/s | -48.7°C | 3.7% | 0hPa | 2.5V | 00:00:00 | 02:14:51 | 00:00:00 | |
| IW2NTF | 2026-08-30 12:48:59 | 45.65157 | 9.22376 | 326° | 4km/h | 27865m | -33.8m/s | -47.7°C | 3.3% | 0hPa | 2.5V | 08:27:42 | 02:14:45 | 00:00:00 | |
| DK5PH-5 | 2026-08-30 12:48:56 | 45.65158 | 9.22375 | 303° | 7km/h | 27834m | -30.4m/s | -47.7°C | 3.4% | 0hPa | 2.7V | 00:00:00 | 02:14:46 | 00:00:00 | |
| NBG1-10 | 2026-08-30 12:48:51 | 45.65151 | 9.22373 | 71° | 11km/h | 28024m | -29.3m/s | -47.6°C | 3.4% | 0hPa | 2.7V | 00:00:00 | 02:14:40 | 00:00:00 | |
| IW2NTF | 2026-08-30 12:48:47 | 45.65153 | 9.22370 | 337° | 2km/h | 28169m | -30.1m/s | -47.3°C | 3.4% | 0hPa | 2.7V | 08:27:52 | 02:14:35 | 00:00:00 | |
| DF7PN | 2026-08-30 12:48:44 | 45.65152 | 9.22372 | 320° | 4km/h | 28230m | -28.9m/s | 0°C | -1.0% | -1.0hPa | 2.5V | 00:00:00 | 00:00:00 | 00:00:00 | |
| DO3MHA-11 | 2026-08-30 12:48:41 | 45.65151 | 9.22375 | 314° | 9km/h | 28288m | -27.1m/s | -47.0°C | 3.2% | 0hPa | 2.5V | 00:00:00 | 02:14:31 | 00:00:00 | |
| IW2NTF | 2026-08-30 12:48:35 | 45.65137 | 9.22380 | 0° | 13km/h | 28479m | -33.7m/s | -47.1°C | 3.3% | 0hPa | 2.5V | 08:28:02 | 02:14:25 | 00:00:00 | |
| DO3MHA-11 | 2026-08-30 12:48:31 | 45.65127 | 9.22384 | 343° | 16km/h | 28611m | -32.8m/s | -47.2°C | 3.4% | 0hPa | 2.5V | 00:00:00 | 02:14:21 | 00:00:00 | |
| IW2NTF | 2026-08-30 12:48:30 | 45.65105 | 9.22398 | 335° | 20km/h | 28819m | -34.9m/s | -46.9°C | 3.4% | 0hPa | 2.5V | 08:28:12 | 02:14:15 | 00:00:00 | |
| OE5DRO-10 | 2026-08-30 12:48:28 | 45.65117 | 9.22390 | 340° | 20km/h | 28712m | -37.0m/s | -47.1°C | 3.5% | 0hPa | 2.7V | 00:00:00 | 00:00:00 | 00:00:00 | |
| DK5PH-5 | 2026-08-30 12:48:26 | 45.65110 | 9.22395 | 337° | 22km/h | 28784m | -34.7m/s | -47.0°C | 3.5% | 0hPa | 2.5V | 00:00:00 | 02:14:16 | 00:00:00 | |
| DO3MHA-11 | 2026-08-30 12:48:21 | 45.65086 | 9.22407 | 338° | 20km/h | 28955m | -33.1m/s | -46.3°C | 3.3% | 0hPa | 2.5V | 00:00:00 | 02:14:11 | 00:00:00 | |
| IW2NTF | 2026-08-30 12:48:20 | 45.65060 | 9.22423 | 338° | 20km/h | 29158m | -36.5m/s | -45.7°C | 3.2% | 0hPa | 2.5V | 08:28:22 | 02:14:05 | 00:00:00 | |
| NBG1-10 | 2026-08-30 12:48:17 | 45.65069 | 9.22417 | 337° | 26km/h | 29087m | -36.2m/s | -45.7°C | 3.2% | 0hPa | 2.5V | 08:28:00 | 02:14:07 | 00:00:00 | |
| DO3MHA-11 | 2026-08-30 12:48:11 | 45.65039 | 9.22438 | 330° | 26km/h | 29297m | -34.8m/s | -45.6°C | 3.3% | 0hPa | 2.5V | 00:00:00 | 02:14:01 | 00:00:00 | |
| OE5DRO-10 | 2026-08-30 12:48:09 | 45.65028 | 9.22445 | 348° | 27km/h | 29370m | -37.7m/s | -45.4°C | 3.2% | 0hPa | 2.5V | 00:00:00 | 00:00:00 | 00:00:00 | |
| IW2NTF | 2026-08-30 12:48:03 | 45.64977 | 9.22455 | 353° | 26km/h | 29662m | -33.7m/s | -44.2°C | 3.1% | 0hPa | 2.5V | 08:28:36 | 02:13:51 | 00:00:00 | |
| IW2NTF | 2026-08-30 12:47:56 | 45.64911 | 9.22424 | 26° | 29km/h | 30036m | -39.8m/s | -42.6°C | 2.6% | 0hPa | 2.7V | 08:28:46 | 02:13:41 | 00:00:00 | |
| DK5PH-5 | 2026-08-30 12:47:56 | 45.64945 | 9.22452 | 14° | 26km/h | 29841m | -37.0m/s | -43.0°C | 2.7% | 0hPa | 2.7V | 00:00:00 | 02:13:46 | 00:00:00 | |
| DO3MHA-11 | 2026-08-30 12:47:51 | 45.64910 | 9.22424 | 27° | 24km/h | 30037m | -39.8m/s | -42.6°C | 2.6% | 0hPa | 2.7V | 00:00:00 | 02:13:41 | 00:00:00 | |
| OE5DRO-10 | 2026-08-30 12:47:50 | 45.64905 | 9.22419 | 31° | 24km/h | 30075m | -38.3m/s | -42.5°C | 2.5% | 0hPa | 2.7V | 00:00:00 | 00:00:00 | 00:00:00 | |
| IW2NTF | 2026-08-30 12:47:45 | 45.64857 | 9.22428 | 349° | 22km/h | 30389m | -32.9m/s | -43.4°C | 2.8% | 0hPa | 2.7V | 08:28:56 | 02:13:31 | 00:00:00 | |
| DO3MHA-11 | 2026-08-30 12:47:41 | 45.64857 | 9.22428 | 350° | 24km/h | 30389m | -32.9m/s | -43.3°C | 2.8% | 0hPa | 2.7V | 08:28:00 | 02:13:31 | 00:00:00 | |
| IW2NTF | 2026-08-30 12:47:33 | 45.64804 | 9.22396 | 15° | 24km/h | 30758m | -39.1m/s | -43.3°C | 2.9% | 0hPa | 2.7V | 08:30:00 | 02:13:21 | 00:00:00 | |
| DO3MHA-11 | 2026-08-30 12:47:31 | 45.64803 | 9.22395 | 16° | 27km/h | 30759m | -39.0m/s | -43.3°C | 2.9% | 0hPa | 2.5V | 00:00:00 | 02:13:21 | 00:00:00 | |
| IW2NTF | 2026-08-30 12:47:26 | 45.64735 | 9.22365 | 19° | 33km/h | 31159m | -34.2m/s | -42.9°C | 2.9% | 0hPa | 2.5V | 08:30:00 | 02:13:11 | 00:00:00 | |
| DK5PH-5 | 2026-08-30 12:47:26 | 45.64771 | 9.22380 | 14° | 33km/h | 30976m | -43.4m/s | -43.0°C | 2.8% | 0hPa | 2.5V | 00:00:00 | 02:13:16 | 00:00:00 | |
| DO3MHA-11 | 2026-08-30 12:47:21 | 45.64734 | 9.22364 | 20° | 33km/h | 31160m | -34.2m/s | -42.8°C | 2.9% | 0hPa | 2.5V | 00:00:00 | 02:13:11 | 00:00:00 | |
| DL1ZP-14 | 2026-08-30 12:47:17 | 45.64706 | 9.22340 | 43° | 31km/h | 31292m | -34.2m/s | -42.3°C | 0.8% | -1.0hPa | 2.5V | 00:00:00 | 00:00:00 | 00:00:00 | |
| IW2NTF | 2026-08-30 12:47:15 | 45.64685 | 9.22275 | 80° | 38km/h | 31519m | -37.9m/s | -42.1°C | 2.8% | 0hPa | 2.5V | 08:30:00 | 02:13:01 | 00:00:00 | |
| OE5DRO-10 | 2026-08-30 12:47:12 | 45.64686 | 9.22287 | 78° | 33km/h | 31480m | -40.9m/s | -42.2°C | 2.8% | 0hPa | 2.5V | 00:00:00 | 00:00:00 | 00:00:00 | |
| DO3MHA-11 | 2026-08-30 12:47:11 | 45.64685 | 9.22275 | 81° | 37km/h | 31519m | -37.9m/s | -42.0°C | 2.8% | 0hPa | 2.5V | 00:00:00 | 02:13:01 | 00:00:00 | |
| IW2NTF | 2026-08-30 12:47:03 | 45.64649 | 9.22157 | 65° | 27km/h | 31915m | -38.4m/s | -41.2°C | 2.7% | 0hPa | 2.5V | 08:30:00 | 02:12:51 | 00:00:00 | |
| DO3MHA-11 | 2026-08-30 12:47:01 | 45.64649 | 9.22157 | 66° | 29km/h | 31915m | -38.4m/s | -41.2°C | 2.7% | 0hPa | 2.5V | 00:00:00 | 02:12:51 | 00:00:00 | |
| NBG1-10 | 2026-08-30 12:46:57 | 45.64645 | 9.22120 | 98° | 29km/h | 32049m | -28.6m/s | -40.5°C | 2.5% | 0hPa | 2.5V | 00:00:00 | 02:12:47 | 00:00:00 | |
| DK5PH-5 | 2026-08-30 12:46:56 | 45.64645 | 9.22111 | 85° | 26km/h | 32079m | -32.9m/s | -40.2°C | 2.4% | 0hPa | 2.5V | 00:00:00 | 02:12:46 | 00:00:00 | |
| OE5DRO-10 | 2026-08-30 12:46:53 | 45.64641 | 9.22077 | 72° | 35km/h | 32181m | -33.7m/s | -39.7°C | 2.4% | 0hPa | 2.7V | 00:00:00 | 00:00:00 | 00:00:00 | |
| IW2NTF | 2026-08-30 12:46:51 | 45.64636 | 9.22052 | 78° | 37km/h | 32246m | -32m/s | -39.5°C | 2.3% | 0hPa | 2.7V | 08:30:00 | 02:12:41 | 00:00:00 | |
| DL1ZP-14 | 2026-08-30 12:46:47 | 45.64637 | 9.21983 | 101° | 33km/h | 32401m | -25.4m/s | -40.0°C | 0.7% | -1.0hPa | 2.7V | 00:00:00 | 00:00:00 | 00:00:00 | |
| DO3MHA-11 | 2026-08-30 12:46:41 | 45.64648 | 9.21928 | 107° | 29km/h | 32565m | -36.9m/s | -39.2°C | 2.2% | 0hPa | 2.7V | 00:00:00 | 02:12:31 | 00:00:00 | |
| IW2NTF | 2026-08-30 12:46:39 | 45.64663 | 9.21889 | 131° | 31km/h | 32707m | -32.9m/s | -39.8°C | 2.3% | 0hPa | 2.7V | 08:30:00 | 02:12:27 | 00:00:00 | |
| OE5DRO-10 | 2026-08-30 12:46:34 | 45.64682 | 9.21875 | 176° | 24km/h | 32804m | -30.1m/s | -40.0°C | 2.5% | 0hPa | 2.5V | 00:00:00 | 00:00:00 | 00:00:00 | |
| DO3MHA-11 | 2026-08-30 12:46:31 | 45.64700 | 9.21878 | 211° | 22km/h | 32893m | -28.8m/s | -40.3°C | 2.7% | 0hPa | 2.5V | 00:00:00 | 02:12:21 | 00:00:00 | |
| IW2NTF | 2026-08-30 12:46:27 | 45.64701 | 9.21881 | 56° | 18km/h | 33020m | -38.1m/s | -40.2°C | 2.6% | 0hPa | 2.5V | 08:30:00 | 02:12:17 | 00:00:00 | |
| DK5PH-5 | 2026-08-30 12:46:26 | 45.64699 | 9.21875 | 64° | 33km/h | 33061m | -42.6m/s | -40.0°C | 2.5% | 0hPa | 2.7V | 00:00:00 | 02:12:16 | 00:00:00 | |
| NBG1-10 | 2026-08-30 12:46:24 | 45.64701 | 9.21858 | 115° | 31km/h | 33158m | -52.2m/s | -39.8°C | 2.5% | 0hPa | 2.7V | 00:00:00 | 02:12:14 | 00:00:00 | |
| IW2NTF | 2026-08-30 12:46:21 | 45.64740 | 9.21800 | 201° | 18km/h | 33521m | -67.2m/s | -38.3°C | 2.2% | 0hPa | 2.5V | 08:30:00 | 02:12:07 | 00:00:00 | |
| DB0UT-7 | 2026-08-30 12:46:21 | 45.64716 | 9.21825 | 129° | 33km/h | 33316m | -49.7m/s | -39.6°C | 2.4% | 0hPa | 2.7V | 00:00:00 | 02:12:11 | 00:00:00 | |
| OE5DRO-10 | 2026-08-30 12:46:15 | 45.64747 | 9.21807 | 223° | 29km/h | 33652m | -60.4m/s | -38.1°C | 2.2% | 0hPa | 2.7V | 00:00:00 | 00:00:00 | 00:00:00 | |
| IW2NTF | 2026-08-30 12:46:09 | 45.64772 | 9.21765 | 98° | 58km/h | 33915m | -1.5m/s | -37.9°C | 2.3% | 0hPa | 2.7V | 08:30:00 | 02:11:57 | 00:00:00 | |
| DO3MHA-11 | 2026-08-30 12:46:05 | 45.64778 | 9.21725 | 115° | 26km/h | 33906m | 2.8m/s | -37.9°C | 2.4% | 0hPa | 2.7V | 00:00:00 | 02:11:55 | 08:30:00 | |
| OE5DXL-15 | 2026-08-30 12:46:00 | 45.64817 | 9.21706 | 221° | 29km/h | 33876m | 5.5m/s | -38.1°C | 2.4% | 0hPa | 2.7V | 00:00:00 | 00:00:00 | 00:00:00 | |
| IW2NTF | 2026-08-30 12:45:57 | 45.64828 | 9.21715 | 117° | 13km/h | 33861m | 5.6m/s | -38.1°C | 2.4% | 0hPa | 2.6V | 08:30:00 | 02:11:47 | 00:00:00 | |
| OE5DRO-10 | 2026-08-30 12:45:56 | 45.64829 | 9.21708 | 99° | 31km/h | 33855m | 7.1m/s | -38.0°C | 2.4% | 0hPa | 2.7V | 00:00:00 | 00:00:00 | 00:00:00 | |
| DO3MHA-11 | 2026-08-30 12:45:55 | 45.64830 | 9.21696 | 99° | 44km/h | 33848m | 6.8m/s | -38.1°C | 2.4% | 0hPa | 2.7V | 00:00:00 | 02:11:45 | 00:00:00 | |
| IW2NTF | 2026-08-30 12:45:51 | 45.64880 | 9.21631 | 179° | 18km/h | 33804m | 6.1m/s | -38.2°C | 2.4% | 0hPa | 2.7V | 08:30:00 | 02:11:37 | 00:00:00 | |
| DL1ZP-14 | 2026-08-30 12:45:44 | 45.64884 | 9.21611 | 91° | 24km/h | 33781m | 4.1m/s | -38.3°C | 0.7% | -1.0hPa | 2.7V | 00:00:00 | 00:00:00 | 00:00:00 | |
| IW2NTF | 2026-08-30 12:45:39 | 45.64919 | 9.21587 | 168° | 35km/h | 33749m | 2.9m/s | -38.6°C | 2.4% | 0hPa | 2.6V | 08:30:00 | 02:11:27 | 00:00:00 | |
| OE5DRO-10 | 2026-08-30 12:45:37 | 45.64919 | 9.21587 | 169° | 31km/h | 33750m | 2.8m/s | -38.5°C | 2.4% | 0hPa | 2.6V | 00:00:00 | 00:00:00 | 00:00:00 | |
| IW2NTF | 2026-08-30 12:45:32 | 45.64954 | 9.21518 | 162° | 35km/h | 33695m | 4.2m/s | -39.2°C | 2.5% | 0hPa | 2.7V | 08:30:00 | 02:11:17 | 00:00:00 | |
| OE5DXL-15 | 2026-08-30 12:45:30 | 45.64936 | 9.21525 | 124° | 29km/h | 33712m | 5.9m/s | -39.0°C | 2.4% | 0hPa | 2.7V | 00:00:00 | 00:00:00 | 00:00:00 | |
| DO3MHA-11 | 2026-08-30 12:45:24 | 45.64975 | 9.21489 | 110° | 29km/h | 33678m | 6.3m/s | -39.3°C | 2.5% | 0hPa | 2.7V | 00:00:00 | 02:11:14 | 00:00:00 | |
| IW2NTF | 2026-08-30 12:45:21 | 45.64989 | 9.21441 | 171° | 22km/h | 33633m | 5.5m/s | -39.5°C | 2.6% | 0hPa | 2.7V | 08:30:00 | 02:11:06 | 00:00:00 | |
| DB0UT-7 | 2026-08-30 12:45:21 | 45.64977 | 9.21445 | 85° | 27km/h | 33664m | 5.3m/s | -39.5°C | 2.5% | 0hPa | 2.7V | 00:00:00 | 02:11:11 | 00:00:00 | |
| OE5DRO-10 | 2026-08-30 12:45:18 | 45.64980 | 9.21438 | 218° | 27km/h | 33643m | 5.6m/s | -39.4°C | 2.6% | 0hPa | 2.7V | 00:00:00 | 00:00:00 | 00:00:00 | |
| DO3MHA-11 | 2026-08-30 12:45:14 | 45.64999 | 9.21430 | 123° | 31km/h | 33621m | 6.5m/s | -39.4°C | 2.5% | 0hPa | 2.7V | 00:00:00 | 02:11:04 | 00:00:00 | |
| DL1ZP-14 | 2026-08-30 12:45:13 | 45.65008 | 9.21403 | 110° | 42km/h | 33609m | 5.5m/s | -39.4°C | 0.7% | -1.0hPa | 2.6V | 00:00:00 | 00:00:00 | 00:00:00 | |
| IW2NTF | 2026-08-30 12:45:09 | 45.65023 | 9.21354 | 93° | 18km/h | 33576m | 5.9m/s | -39.6°C | 2.5% | 0hPa | 2.7V | 08:30:00 | 02:10:56 | 00:00:00 | |
| DO3MHA-11 | 2026-08-30 12:45:04 | 45.65023 | 9.21336 | 86° | 35km/h | 33564m | 6.0m/s | -39.7°C | 2.6% | 0hPa | 2.7V | 00:00:00 | 02:10:54 | 00:00:00 | |
| IW2NTF | 2026-08-30 12:45:00 | 45.65065 | 9.21271 | 102° | 24km/h | 33513m | 8.5m/s | -39.9°C | 2.6% | 0hPa | 2.7V | 08:30:00 | 02:10:45 | 00:00:00 | |
| OE5DXL-15 | 2026-08-30 12:45:00 | 45.65033 | 9.21294 | 145° | 29km/h | 33542m | 7.6m/s | -39.8°C | 2.6% | 0hPa | 2.7V | 00:00:00 | 00:00:00 | 00:00:00 | |
| OE5DRO-10 | 2026-08-30 12:44:59 | 45.65040 | 9.21288 | 163° | 33km/h | 33534m | 7.2m/s | -39.8°C | 2.6% | 0hPa | 2.7V | 00:00:00 | 00:00:00 | 00:00:00 | |
| DB0UT-7 | 2026-08-30 12:44:51 | 45.65063 | 9.21223 | 106° | 35km/h | 33490m | 5.7m/s | -39.8°C | 2.6% | 0hPa | 2.7V | 00:00:00 | 00:00:00 | 00:00:00 | |
| IW2NTF | 2026-08-30 12:44:49 | 45.65102 | 9.21189 | 115° | 26km/h | 33455m | 6.9m/s | -39.9°C | 2.5% | 0hPa | 2.7V | 08:30:00 | 02:10:35 | 00:00:00 | |
| NBG1-10 | 2026-08-30 12:44:45 | 45.65102 | 9.21189 | 116° | 33km/h | 33455m | 6.8m/s | -39.9°C | 2.5% | 0hPa | 2.7V | 00:00:00 | 02:10:35 | 00:00:00 | |
| DL1ZP-14 | 2026-08-30 12:44:42 | 45.65099 | 9.21140 | 91° | 35km/h | 33432m | 5.2m/s | -40.0°C | 0.7% | -1.0hPa | 2.6V | 00:00:00 | 00:00:00 | 00:00:00 | |
| DO3MHA-11 | 2026-08-30 12:44:41 | 45.65099 | 9.21140 | 92° | 35km/h | 33433m | 5.2m/s | -40.0°C | 2.6% | 0hPa | 2.6V | 00:00:00 | 02:10:31 | 00:00:00 | |
| OE5DRO-10 | 2026-08-30 12:44:40 | 45.65101 | 9.21127 | 112° | 35km/h | 33427m | 6.9m/s | -40.0°C | 2.6% | 0hPa | 2.6V | 00:00:00 | 00:00:00 | 08:30:00 | |
| IW2NTF | 2026-08-30 12:44:38 | 45.65135 | 9.21081 | 117° | 29km/h | 33398m | 6.7m/s | -40.2°C | 2.6% | 0hPa | 2.6V | 08:30:00 | 02:10:25 | 00:00:00 | |
| DO3MHA-11 | 2026-08-30 12:44:31 | 45.65131 | 9.21042 | 78° | 33km/h | 33376m | 3.9m/s | -40.5°C | 2.6% | 0hPa | 2.7V | 00:00:00 | 02:10:21 | 00:00:00 | |
| IW2NTF | 2026-08-30 12:44:30 | 45.65161 | 9.20992 | 113° | 35km/h | 33344m | 6m/s | -40.7°C | 2.7% | 0hPa | 2.7V | 08:30:00 | 02:10:15 | 00:00:00 | |
| DO3MHA-11 | 2026-08-30 12:44:21 | 45.65149 | 9.20948 | 39° | 27km/h | 33319m | 4.1m/s | -40.7°C | 2.7% | 0hPa | 2.6V | 00:00:00 | 02:10:11 | 00:00:00 | |
| IW2NTF | 2026-08-30 12:44:19 | 45.65167 | 9.20917 | 124° | 38km/h | 33286m | 5.9m/s | -40.6°C | 2.7% | 0hPa | 2.6V | 08:30:00 | 02:10:05 | 00:00:00 | |
| NBG1-10 | 2026-08-30 12:44:12 | 45.65167 | 9.20877 | 58° | 22km/h | 33267m | 5.1m/s | -40.7°C | 2.7% | 0hPa | 2.6V | 00:00:00 | 02:10:02 | 00:00:00 | |
| DL1ZP-14 | 2026-08-30 12:44:11 | 45.65156 | 9.20862 | 26° | 16km/h | 33257m | 6.3m/s | -40.7°C | 0.8% | -1.0hPa | 2.6V | 00:00:00 | 00:00:00 | 00:00:00 | |
| IW2NTF | 2026-08-30 12:44:05 | 45.65174 | 9.20859 | 110° | 26km/h | 33221m | 7.3m/s | -40.7°C | 2.7% | 0hPa | 2.6V | 08:30:00 | 02:09:54 | 00:00:00 | |
| DK5PH-5 | 2026-08-30 12:44:02 | 45.65173 | 9.20838 | 70° | 18km/h | 33209m | 4.3m/s | -40.7°C | 2.7% | 0hPa | 2.7V | 00:00:00 | 02:09:52 | 08:30:00 | |
| DO3MHA-11 | 2026-08-30 12:44:00 | 45.65167 | 9.20820 | 58° | 20km/h | 33201m | 5.1m/s | -40.8°C | 2.7% | 0hPa | 2.6V | 00:00:00 | 02:09:50 | 00:00:00 | |
| IW2NTF | 2026-08-30 12:43:59 | 45.65186 | 9.20826 | 151° | 11km/h | 33165m | 6.1m/s | -40.8°C | 2.7% | 0hPa | 2.6V | 08:30:00 | 02:09:44 | 00:00:00 | |
| DB0UT-7 | 2026-08-30 12:43:51 | 45.65181 | 9.20805 | 66° | 18km/h | 33145m | 3.9m/s | -40.8°C | 2.7% | 0hPa | 2.7V | 00:00:00 | 00:00:00 | 00:00:00 | |
| DO3MHA-11 | 2026-08-30 12:43:50 | 45.65179 | 9.20796 | 72° | 18km/h | 33142m | 3.9m/s | -40.8°C | 2.7% | 0hPa | 2.7V | 00:00:00 | 02:09:40 | 00:00:00 | |
| IW2NTF | 2026-08-30 12:43:48 | 45.65195 | 9.20816 | 261° | 5km/h | 33099m | 5.2m/s | -40.6°C | 2.7% | 0hPa | 2.7V | 08:30:00 | 02:09:33 | 00:00:00 | |
| OE5DRO-10 | 2026-08-30 12:43:43 | 45.65195 | 9.20816 | 262° | 18km/h | 33099m | 5.1m/s | -40.6°C | 2.7% | 0hPa | 2.7V | 00:00:00 | 00:00:00 | 00:00:00 | |
| DL1ZP-14 | 2026-08-30 12:43:40 | 45.65199 | 9.20798 | 127° | 26km/h | 33074m | 6.7m/s | -40.8°C | 0.8% | -1.0hPa | 2.6V | 00:00:00 | 00:00:00 | 00:00:00 | |
| NBG1-10 | 2026-08-30 12:43:39 | 45.65199 | 9.20798 | 128° | 24km/h | 33074m | 6.7m/s | -40.7°C | 2.8% | 0hPa | 2.6V | 00:00:00 | 02:09:29 | 00:00:00 | |
| IW2NTF | 2026-08-30 12:43:37 | 45.65215 | 9.20794 | 265° | 11km/h | 33035m | 4m/s | -40.8°C | 2.8% | 0hPa | 2.6V | 08:30:00 | 02:09:22 | 00:00:00 | |
| DK5PH-5 | 2026-08-30 12:43:32 | 45.65215 | 9.20794 | 266° | 24km/h | 33035m | 4.0m/s | -40.8°C | 2.8% | 0hPa | 2.7V | 00:00:00 | 02:09:22 | 00:00:00 | |
| DO3MHA-11 | 2026-08-30 12:43:30 | 45.65219 | 9.20801 | 207° | 20km/h | 33024m | 7.1m/s | -40.7°C | 2.8% | 0hPa | 2.7V | 00:00:00 | 02:09:20 | 00:00:00 | |
| OE5DRO-10 | 2026-08-30 12:43:24 | 45.65251 | 9.20778 | 89° | 24km/h | 32987m | 5.7m/s | -40.6°C | 2.8% | 0hPa | 2.7V | 00:00:00 | 00:00:00 | 00:00:00 | |
| DB0UT-7 | 2026-08-30 12:43:21 | 45.65253 | 9.20777 | 214° | 26km/h | 32970m | 7.3m/s | -40.6°C | 2.8% | 0hPa | 2.7V | 00:00:00 | 02:09:11 | 00:00:00 | |
| IW2NTF | 2026-08-30 12:43:20 | 45.65276 | 9.20788 | 182° | 37km/h | 32953m | 3.2m/s | -40.5°C | 2.7% | 0hPa | 2.7V | 08:30:00 | 02:09:08 | 00:00:00 | |
| IW2NTF | 2026-08-30 12:43:13 | 45.65319 | 9.20738 | 188° | 27km/h | 32893m | 5.3m/s | -40.2°C | 2.7% | 0hPa | 2.7V | 08:30:00 | 02:08:58 | 00:00:00 | |
| DO3MHA-11 | 2026-08-30 12:43:10 | 45.65305 | 9.20737 | 172° | 26km/h | 32905m | 6.2m/s | -40.2°C | 2.7% | 0hPa | 2.6V | 00:00:00 | 02:09:00 | 00:00:00 | |
| NBG1-10 | 2026-08-30 12:43:06 | 45.65329 | 9.20739 | 165° | 33km/h | 32882m | 5.9m/s | -40.1°C | 2.7% | 0hPa | 2.6V | 00:00:00 | 02:08:56 | 08:30:00 | |
| OE5DRO-10 | 2026-08-30 12:43:05 | 45.65332 | 9.20736 | 126° | 29km/h | 32877m | 5.4m/s | -40.1°C | 2.6% | 0hPa | 2.6V | 00:00:00 | 00:00:00 | 00:00:00 | |
| DF7PN | 2026-08-30 12:43:03 | 45.65343 | 9.20714 | 133° | 31km/h | 32859m | 7.0m/s | 0°C | -1.0% | -1.0hPa | 2.6V | 00:00:00 | 00:00:00 | 00:00:00 | |
| DK5PH-5 | 2026-08-30 12:43:02 | 45.65343 | 9.20714 | 134° | 35km/h | 32859m | 6.9m/s | -40.1°C | 2.7% | 0hPa | 2.6V | 00:00:00 | 02:08:52 | 00:00:00 | |
| IW2NTF | 2026-08-30 12:43:01 | 45.65365 | 9.20684 | 126° | 22km/h | 32835m | 6.7m/s | -40.1°C | 2.6% | 0hPa | 2.6V | 08:30:00 | 02:08:48 | 00:00:00 | |
| DO3MHA-11 | 2026-08-30 12:43:00 | 45.65355 | 9.20698 | 142° | 26km/h | 32847m | 5.0m/s | -40.0°C | 2.6% | 0hPa | 2.7V | 00:00:00 | 02:08:50 | 00:00:00 | |
| DB0UT-7 | 2026-08-30 12:42:51 | 45.65385 | 9.20645 | 157° | 38km/h | 32792m | 7.2m/s | -39.9°C | 2.7% | 0hPa | 2.7V | 00:00:00 | 00:00:00 | 00:00:00 | |
| DO3MHA-11 | 2026-08-30 12:42:50 | 45.65396 | 9.20637 | 151° | 35km/h | 32787m | 3.6m/s | -39.9°C | 2.6% | 0hPa | 2.6V | 00:00:00 | 02:08:40 | 00:00:00 | |
| IW2NTF | 2026-08-30 12:42:49 | 45.65413 | 9.20615 | 121° | 40km/h | 32778m | 6m/s | -40°C | 2.6% | 0hPa | 2.6V | 08:30:00 | 02:08:38 | 00:00:00 | |
| OE5DXL-15 | 2026-08-30 12:42:49 | 45.65406 | 9.20627 | 138° | 37km/h | 32783m | 2.8m/s | -39.9°C | 2.6% | 0hPa | 2.6V | 00:00:00 | 00:00:00 | 08:30:00 | |
| OE5DRO-10 | 2026-08-30 12:42:46 | 45.65416 | 9.20590 | 74° | 37km/h | 32763m | 8.2m/s | -39.9°C | 2.6% | 0hPa | 2.7V | 00:00:00 | 00:00:00 | 00:00:00 | |
| DO3MHA-11 | 2026-08-30 12:42:40 | 45.65432 | 9.20549 | 155° | 44km/h | 32728m | 5.7m/s | -39.8°C | 2.6% | 0hPa | 2.7V | 00:00:00 | 02:08:30 | 08:30:00 | |
| IW2NTF | 2026-08-30 12:42:38 | 45.65463 | 9.20504 | 111° | 58km/h | 32710m | 6.8m/s | -39.8°C | 2.6% | 0hPa | 2.6V | 08:30:00 | 02:08:27 | 00:00:00 | |
| DL1ZP-14 | 2026-08-30 12:42:37 | 45.65461 | 9.20443 | 79° | 22km/h | 32685m | 6.6m/s | -39.7°C | 0.8% | -1.0hPa | 2.7V | 00:00:00 | 00:00:00 | 00:00:00 | |
| NBG1-10 | 2026-08-30 12:42:33 | 45.65461 | 9.20443 | 80° | 38km/h | 32686m | 6.5m/s | -39.6°C | 2.6% | 0hPa | 2.7V | 00:00:00 | 02:08:23 | 00:00:00 | |
| DK5PH-5 | 2026-08-30 12:42:32 | 45.65461 | 9.20437 | 113° | 38km/h | 32679m | 6.3m/s | -39.6°C | 2.6% | 0hPa | 2.7V | 00:00:00 | 02:08:22 | 00:00:00 | |
| IW2NTF | 2026-08-30 12:42:31 | 45.65495 | 9.20361 | 103° | 49km/h | 32636m | 5m/s | -39.4°C | 2.5% | 0hPa | 2.6V | 08:30:00 | 02:08:15 | 00:00:00 | |
| DF7PN | 2026-08-30 12:42:31 | 45.65469 | 9.20427 | 145° | 27km/h | 32667m | 5.7m/s | 0°C | -1.0% | -1.0hPa | 2.7V | 00:00:00 | 00:00:00 | 00:00:00 | |
| DO3MHA-11 | 2026-08-30 12:42:30 | 45.65469 | 9.20427 | 146° | 38km/h | 32667m | 5.7m/s | -39.5°C | 2.6% | 0hPa | 2.7V | 00:00:00 | 02:08:20 | 00:00:00 | |
| OE5DRO-10 | 2026-08-30 12:42:27 | 45.65487 | 9.20395 | 115° | 40km/h | 32648m | 6.6m/s | -39.4°C | 2.5% | 0hPa | 2.7V | 00:00:00 | 00:00:00 | 00:00:00 | |
| DB0UT-7 | 2026-08-30 12:42:21 | 45.65503 | 9.20313 | 106° | 40km/h | 32612m | 5.4m/s | -39.3°C | 2.5% | 0hPa | 2.7V | 00:00:00 | 02:08:11 | 00:00:00 | |
| IW2NTF | 2026-08-30 12:42:20 | 45.65516 | 9.20234 | 115° | 47km/h | 32575m | 7.6m/s | -39.4°C | 2.5% | 0hPa | 2.7V | 08:30:00 | 02:08:05 | 00:00:00 | |
| OE5DXL-15 | 2026-08-30 12:42:18 | 45.65506 | 9.20282 | 96° | 35km/h | 32593m | 5.9m/s | -39.4°C | 2.5% | 0hPa | 2.7V | 00:00:00 | 00:00:00 | 00:00:00 | |
| DO3MHA-11 | 2026-08-30 12:42:10 | 45.65532 | 9.20165 | 80° | 42km/h | 32546m | 8.1m/s | -39.4°C | 2.5% | 0hPa | 2.7V | 00:00:00 | 02:08:00 | 00:00:00 | |
| OE5DRO-10 | 2026-08-30 12:42:08 | 45.65525 | 9.20133 | 70° | 42km/h | 32533m | 4.3m/s | -39.5°C | 2.5% | 0hPa | 2.6V | 00:00:00 | 00:00:00 | 00:00:00 | |
| IW2NTF | 2026-08-30 12:42:07 | 45.65522 | 9.20093 | 114° | 33km/h | 32515m | 7.6m/s | -39.6°C | 2.5% | 0hPa | 2.6V | 08:30:00 | 02:07:55 | 00:00:00 | |
| DL1ZP-14 | 2026-08-30 12:42:06 | 45.65520 | 9.20105 | 91° | 35km/h | 32523m | 6.5m/s | -39.7°C | 0.7% | -1.0hPa | 2.6V | 00:00:00 | 00:00:00 | 00:00:00 | |
| DK5PH-5 | 2026-08-30 12:42:02 | 45.65539 | 9.20057 | 114° | 37km/h | 32501m | 3.6m/s | -39.8°C | 2.6% | 0hPa | 2.6V | 00:00:00 | 02:07:52 | 00:00:00 | |
| DO3MHA-11 | 2026-08-30 12:42:00 | 45.65542 | 9.20023 | 80° | 40km/h | 32489m | 7.4m/s | -40.0°C | 2.6% | 0hPa | 2.6V | 00:00:00 | 02:07:50 | 00:00:00 | |
| IW2NTF | 2026-08-30 12:41:55 | 45.65509 | 9.19952 | 59° | 18km/h | 32460m | 7.6m/s | -40.1°C | 2.5% | 0hPa | 2.6V | 08:30:00 | 02:07:45 | 00:00:00 | |
| DB0UT-7 | 2026-08-30 12:41:51 | 45.65521 | 9.19919 | 105° | 46km/h | 32438m | 5.4m/s | -40.1°C | 2.5% | 0hPa | 2.7V | 00:00:00 | 00:00:00 | 00:00:00 | |
| IW2NTF | 2026-08-30 12:41:50 | 45.65480 | 9.19829 | 14° | 24km/h | 32406m | 6.5m/s | -39.9°C | 2.5% | 0hPa | 2.7V | 08:30:00 | 02:07:35 | 00:00:00 | |
| OE5DRO-10 | 2026-08-30 12:41:49 | 45.65518 | 9.19881 | 69° | 46km/h | 32424m | 7.3m/s | -40.1°C | 2.5% | 0hPa | 2.6V | 00:00:00 | 00:00:00 | 08:30:00 | |
| DO3MHA-11 | 2026-08-30 12:41:40 | 45.65503 | 9.19791 | 107° | 57km/h | 32377m | 7.1m/s | -39.9°C | 2.5% | 0hPa | 2.7V | 00:00:00 | 02:07:30 | 00:00:00 | |
| IW2NTF | 2026-08-30 12:41:38 | 45.65469 | 9.19701 | 6° | 29km/h | 32347m | 7m/s | -39.8°C | 2.5% | 0hPa | 2.6V | 08:30:00 | 02:07:25 | 00:00:00 | |
| DL1ZP-14 | 2026-08-30 12:41:35 | 45.65464 | 9.19702 | 300° | 9km/h | 32340m | 6.6m/s | -39.7°C | 0.7% | -1.0hPa | 2.7V | 00:00:00 | 00:00:00 | 00:00:00 | |
| DK5PH-5 | 2026-08-30 12:41:32 | 45.65473 | 9.19701 | 154° | 35km/h | 32329m | 4.8m/s | -39.6°C | 2.5% | 0hPa | 2.5V | 00:00:00 | 02:07:22 | 00:00:00 | |
| OE5DRO-10 | 2026-08-30 12:41:30 | 45.65487 | 9.19673 | 108° | 37km/h | 32318m | 6.3m/s | -39.7°C | 2.5% | 0hPa | 2.5V | 00:00:00 | 00:00:00 | 00:00:00 | |
| IW2NTF | 2026-08-30 12:41:26 | 45.65462 | 9.19579 | 30° | 33km/h | 32287m | 5.8m/s | -39.6°C | 2.5% | 0hPa | 2.5V | 08:30:00 | 02:07:15 | 00:00:00 | |
| DO3MHA-11 | 2026-08-30 12:41:24 | 45.65457 | 9.19575 | 30° | 35km/h | 32282m | 6.3m/s | -39.5°C | 2.5% | 0hPa | 2.7V | 00:00:00 | 02:07:14 | 00:00:00 | |
| DB0UT-7 | 2026-08-30 12:41:21 | 45.65462 | 9.19561 | 128° | 37km/h | 32262m | 6.5m/s | -39.6°C | 2.5% | 0hPa | 2.7V | 00:00:00 | 02:07:11 | 00:00:00 | |
| IW2NTF | 2026-08-30 12:41:20 | 45.65464 | 9.19461 | 50° | 22km/h | 32218m | 6.4m/s | -39.8°C | 2.5% | 0hPa | 2.7V | 08:30:00 | 02:07:04 | 00:00:00 | |
| DO3MHA-11 | 2026-08-30 12:41:14 | 45.65464 | 9.19461 | 51° | 37km/h | 32218m | 6.3m/s | -39.8°C | 2.5% | 0hPa | 2.7V | 00:00:00 | 02:07:04 | 00:00:00 | |
| OE5DRO-10 | 2026-08-30 12:41:11 | 45.65455 | 9.19441 | 73° | 37km/h | 32203m | 5.1m/s | -39.9°C | 2.5% | 0hPa | 2.7V | 00:00:00 | 00:00:00 | 00:00:00 | |
| IW2NTF | 2026-08-30 12:41:08 | 45.65455 | 9.19341 | 58° | 9km/h | 32160m | 7m/s | -40.2°C | 2.5% | 0hPa | 2.7V | 08:30:00 | 02:06:54 | 00:00:00 | |
| DO3MHA-11 | 2026-08-30 12:41:04 | 45.65455 | 9.19340 | 59° | 38km/h | 32161m | 7.0m/s | -40.2°C | 2.5% | 0hPa | 2.7V | 00:00:00 | 02:06:54 | 08:30:00 | |
| DK5PH-5 | 2026-08-30 12:41:02 | 45.65445 | 9.19337 | 14° | 38km/h | 32150m | 4.8m/s | -40.3°C | 2.5% | 0hPa | 2.7V | 00:00:00 | 02:06:52 | 00:00:00 | |
| IW2NTF | 2026-08-30 12:40:55 | 45.65407 | 9.19242 | 267° | 2km/h | 32100m | 5.1m/s | -40.4°C | 2.5% | 0hPa | 2.6V | 08:30:00 | 02:06:44 | 00:00:00 | |
| DO3MHA-11 | 2026-08-30 12:40:54 | 45.65407 | 9.19242 | 268° | 38km/h | 32101m | 5.1m/s | -40.4°C | 2.5% | 0hPa | 2.7V | 00:00:00 | 02:06:44 | 00:00:00 | |
| NBG1-10 | 2026-08-30 12:40:53 | 45.65405 | 9.19243 | 349° | 38km/h | 32096m | 3.4m/s | -40.5°C | 2.5% | 0hPa | 2.7V | 00:00:00 | 02:06:43 | 00:00:00 | |
| OE5DRO-10 | 2026-08-30 12:40:52 | 45.65398 | 9.19243 | 8° | 38km/h | 32092m | 5.7m/s | -40.6°C | 2.5% | 0hPa | 2.7V | 00:00:00 | 00:00:00 | 00:00:00 | |
| DB0UT-7 | 2026-08-30 12:40:51 | 45.65388 | 9.19239 | 24° | 40km/h | 32085m | 8.4m/s | -40.7°C | 2.5% | 0hPa | 2.7V | 00:00:00 | 00:00:00 | 00:00:00 | |
| IW2NTF | 2026-08-30 12:40:45 | 45.65362 | 9.19149 | 221° | 5km/h | 32041m | 5m/s | -41°C | 2.6% | 0hPa | 2.7V | 08:30:00 | 02:06:34 | 00:00:00 | |
| DO3MHA-11 | 2026-08-30 12:40:44 | 45.65362 | 9.19149 | 222° | 38km/h | 32041m | 4.9m/s | -41.0°C | 2.6% | 0hPa | 2.7V | 00:00:00 | 02:06:34 | 00:00:00 | |
| IW2NTF | 2026-08-30 12:40:39 | 45.65314 | 9.19064 | 83° | 24km/h | 31977m | 5.2m/s | -41.2°C | 2.7% | 0hPa | 2.7V | 08:30:00 | 02:06:23 | 00:00:00 | |
| DO3MHA-11 | 2026-08-30 12:40:34 | 45.65313 | 9.19073 | 114° | 35km/h | 31981m | 3.0m/s | -41.1°C | 2.7% | 0hPa | 2.7V | 00:00:00 | 02:06:24 | 00:00:00 | |
| DL1ZP-14 | 2026-08-30 12:40:33 | 45.65314 | 9.19064 | 83° | 24km/h | 31977m | 5.2m/s | -41.2°C | 0.8% | -1.0hPa | 2.7V | 00:00:00 | 00:00:00 | 00:00:00 | |
| DK5PH-5 | 2026-08-30 12:40:32 | 45.65311 | 9.19055 | 50° | 37km/h | 31971m | 7.4m/s | -41.3°C | 2.7% | 0hPa | 2.6V | 00:00:00 | 02:06:22 | 00:00:00 | |
| OE5DRO-10 | 2026-08-30 12:40:31 | 45.65303 | 9.19047 | 32° | 37km/h | 31963m | 8.3m/s | -41.4°C | 2.7% | 0hPa | 2.6V | 00:00:00 | 00:00:00 | 00:00:00 | |
| IW2NTF | 2026-08-30 12:40:29 | 45.65261 | 9.18977 | 89° | 46km/h | 31914m | 6.2m/s | -41.4°C | 2.7% | 0hPa | 2.6V | 08:30:00 | 02:06:13 | 00:00:00 | |
| DO3MHA-11 | 2026-08-30 12:40:25 | 45.65260 | 9.18992 | 100° | 35km/h | 31921m | 6.0m/s | -41.3°C | 2.6% | 0hPa | 2.5V | 00:00:00 | 02:06:14 | 00:00:00 | |
| DB0UT-7 | 2026-08-30 12:40:21 | 45.65255 | 9.18943 | 61° | 38km/h | 31903m | 5.4m/s | -41.4°C | 2.7% | 0hPa | 2.5V | 00:00:00 | 02:06:11 | 00:00:00 | |
| IW2NTF | 2026-08-30 12:40:19 | 45.65215 | 9.18883 | 63° | 47km/h | 31855m | 7.6m/s | -41.6°C | 2.6% | 0hPa | 2.5V | 08:30:00 | 02:06:03 | 00:00:00 | |
| NBG1-10 | 2026-08-30 12:40:18 | 45.65235 | 9.18915 | 25° | 37km/h | 31885m | 7.4m/s | -41.4°C | 2.7% | 0hPa | 2.7V | 00:00:00 | 02:06:08 | 00:00:00 | |
| DO3MHA-11 | 2026-08-30 12:40:14 | 45.65220 | 9.18896 | 61° | 38km/h | 31863m | 7.5m/s | -41.5°C | 2.6% | 0hPa | 2.7V | 00:00:00 | 02:06:04 | 00:00:00 | |
| OE5DRO-10 | 2026-08-30 12:40:11 | 45.65204 | 9.18846 | 71° | 38km/h | 31843m | 4.8m/s | -41.6°C | 2.6% | 0hPa | 2.7V | 00:00:00 | 00:00:00 | 00:00:00 | |
| IW2NTF | 2026-08-30 12:40:07 | 45.65171 | 9.18743 | 46° | 62km/h | 31790m | 5.5m/s | -41.9°C | 2.7% | 0hPa | 2.7V | 08:30:00 | 02:05:52 | 00:00:00 | |
| DO3MHA-11 | 2026-08-30 12:40:04 | 45.65191 | 9.18767 | 37° | 38km/h | 31805m | 8.0m/s | -41.9°C | 2.7% | 0hPa | 2.7V | 00:00:00 | 02:05:54 | 00:00:00 | |
| DK5PH-5 | 2026-08-30 12:40:02 | 45.65171 | 9.18743 | 47° | 42km/h | 31790m | 5.4m/s | -41.9°C | 2.7% | 0hPa | 2.7V | 00:00:00 | 02:05:52 | 00:00:00 | |
| DO3MHA-11 | 2026-08-30 12:39:54 | 45.65149 | 9.18653 | 38° | 42km/h | 31743m | 7.3m/s | -41.8°C | 2.8% | 0hPa | 2.7V | 00:00:00 | 02:05:44 | 00:00:00 | |
| IW2NTF | 2026-08-30 12:39:52 | 45.65113 | 9.18593 | 72° | 46km/h | 31721m | 6.9m/s | -41.9°C | 2.7% | 0hPa | 2.7V | 08:30:00 | 02:05:40 | 00:00:00 | |
| DB0UT-7 | 2026-08-30 12:39:51 | 45.65119 | 9.18610 | 59° | 42km/h | 31728m | 4.1m/s | -41.9°C | 2.7% | 0hPa | 2.7V | 00:00:00 | 00:00:00 | 08:30:00 | |
| NBG1-10 | 2026-08-30 12:39:45 | 45.65113 | 9.18537 | 60° | 37km/h | 31691m | 6.4m/s | -41.8°C | 2.8% | 0hPa | 2.7V | 00:00:00 | 02:05:35 | 00:00:00 | |
| DO3MHA-11 | 2026-08-30 12:39:44 | 45.65106 | 9.18524 | 50° | 47km/h | 31685m | 5.6m/s | -41.9°C | 2.8% | 0hPa | 2.5V | 00:00:00 | 02:05:34 | 00:00:00 | |
| IW2NTF | 2026-08-30 12:39:41 | 45.65072 | 9.18418 | 77° | 42km/h | 31644m | 6m/s | -42°C | 2.8% | 0hPa | 2.5V | 08:30:00 | 02:05:27 | 00:00:00 | |
| DO3MHA-11 | 2026-08-30 12:39:34 | 45.65056 | 9.18373 | 56° | 42km/h | 31626m | 5.0m/s | -42.1°C | 2.8% | 0hPa | 2.7V | 00:00:00 | 02:05:24 | 08:30:00 | |
| OE5DRO-10 | 2026-08-30 12:39:33 | 45.65050 | 9.18359 | 61° | 38km/h | 31621m | 5.9m/s | -42.1°C | 2.8% | 0hPa | 2.7V | 00:00:00 | 00:00:00 | 00:00:00 | |
| IW2NTF | 2026-08-30 12:39:32 | 45.65031 | 9.18281 | 57° | 47km/h | 31584m | 6.5m/s | -42.2°C | 2.8% | 0hPa | 2.7V | 08:30:00 | 02:05:17 | 00:00:00 | |
| DL1ZP-14 | 2026-08-30 12:39:31 | 45.65043 | 9.18333 | 79° | 33km/h | 31608m | 6.0m/s | -42.1°C | 0.8% | -1.0hPa | 2.5V | 00:00:00 | 00:00:00 | 00:00:00 | |
| DO3MHA-11 | 2026-08-30 12:39:24 | 45.65013 | 9.18241 | 70° | 35km/h | 31569m | 6.3m/s | -42.2°C | 2.8% | 0hPa | 2.6V | 00:00:00 | 02:05:14 | 00:00:00 | |
| DB0UT-7 | 2026-08-30 12:39:21 | 45.65012 | 9.18214 | 94° | 35km/h | 31550m | 3.5m/s | -42.1°C | 2.8% | 0hPa | 2.6V | 00:00:00 | 02:05:11 | 00:00:00 | |
| IW2NTF | 2026-08-30 12:39:19 | 45.64990 | 9.18177 | 40° | 55km/h | 31525m | 4.4m/s | -42.3°C | 2.7% | 0hPa | 2.6V | 08:30:00 | 02:05:07 | 00:00:00 | |
| DO3MHA-11 | 2026-08-30 12:39:14 | 45.64969 | 9.18141 | 74° | 33km/h | 31510m | 8.1m/s | -42.3°C | 2.8% | 0hPa | 2.5V | 00:00:00 | 02:05:04 | 00:00:00 | |
| NBG1-10 | 2026-08-30 12:39:10 | 45.64966 | 9.18122 | 27° | 37km/h | 31488m | 6.9m/s | -42.4°C | 2.8% | 0hPa | 2.5V | 00:00:00 | 02:05:00 | 00:00:00 | |
| IW2NTF | 2026-08-30 12:39:09 | 45.64935 | 9.18099 | 36° | 55km/h | 31469m | 3.8m/s | -42.6°C | 2.8% | 0hPa | 2.5V | 08:30:00 | 02:04:57 | 00:00:00 | |
| DO3MHA-11 | 2026-08-30 12:39:04 | 45.64917 | 9.18061 | 92° | 38km/h | 31450m | 7.4m/s | -42.5°C | 2.8% | 0hPa | 2.7V | 00:00:00 | 02:04:54 | 00:00:00 | |
| IW2NTF | 2026-08-30 12:39:02 | 45.64872 | 9.18004 | 34° | 53km/h | 31412m | 4.2m/s | -42.6°C | 2.8% | 0hPa | 2.7V | 08:30:00 | 02:04:47 | 00:00:00 | |
| DL1ZP-14 | 2026-08-30 12:39:00 | 45.64909 | 9.18030 | 26° | 38km/h | 31429m | 8.3m/s | -42.5°C | 0.8% | -1.0hPa | 2.6V | 00:00:00 | 00:00:00 | 00:00:00 | |
| OE5DRO-10 | 2026-08-30 12:38:55 | 45.64857 | 9.17982 | 70° | 35km/h | 31399m | 7.8m/s | -42.4°C | 2.8% | 0hPa | 2.6V | 00:00:00 | 00:00:00 | 08:30:00 | |
| DO3MHA-11 | 2026-08-30 12:38:54 | 45.64856 | 9.17972 | 94° | 37km/h | 31392m | 5.6m/s | -42.3°C | 2.8% | 0hPa | 2.6V | 00:00:00 | 02:04:44 | 00:00:00 | |
| DB0UT-7 | 2026-08-30 12:38:51 | 45.64850 | 9.17953 | 29° | 37km/h | 31379m | 6.5m/s | -42.2°C | 2.7% | 0hPa | 2.6V | 00:00:00 | 00:00:00 | 00:00:00 | |
| IW2NTF | 2026-08-30 12:38:50 | 45.64801 | 9.17927 | 26° | 47km/h | 31356m | 3.7m/s | -42.4°C | 2.8% | 0hPa | 2.6V | 08:30:00 | 02:04:37 | 00:00:00 | |
| DO3MHA-11 | 2026-08-30 12:38:44 | 45.64787 | 9.17904 | 106° | 35km/h | 31335m | 5.6m/s | -42.4°C | 2.8% | 0hPa | 2.5V | 00:00:00 | 02:04:34 | 00:00:00 | |
| IW2NTF | 2026-08-30 12:38:40 | 45.64726 | 9.17893 | 9° | 47km/h | 31294m | 5.5m/s | -42.6°C | 2.8% | 0hPa | 2.5V | 08:30:00 | 02:04:27 | 00:00:00 | |
| OE5DRO-10 | 2026-08-30 12:38:36 | 45.64716 | 9.17890 | 17° | 31km/h | 31288m | 6.2m/s | -42.6°C | 2.9% | 0hPa | 2.7V | 00:00:00 | 00:00:00 | 00:00:00 | |
| NBG1-10 | 2026-08-30 12:38:35 | 45.64708 | 9.17886 | 24° | 29km/h | 31282m | 6.4m/s | -42.6°C | 2.8% | 0hPa | 2.7V | 00:00:00 | 02:04:25 | 00:00:00 | |
| DO3MHA-11 | 2026-08-30 12:38:34 | 45.64703 | 9.17883 | 21° | 33km/h | 31275m | 6.9m/s | -42.6°C | 2.9% | 0hPa | 2.7V | 00:00:00 | 02:04:24 | 00:00:00 | |
| DK5PH-5 | 2026-08-30 12:38:32 | 45.64692 | 9.17880 | 3° | 33km/h | 31263m | 5.2m/s | -42.6°C | 2.8% | 0hPa | 2.5V | 00:00:00 | 02:04:22 | 00:00:00 | |
| IW2NTF | 2026-08-30 12:38:30 | 45.64631 | 9.17881 | 357° | 46km/h | 31222m | 6.7m/s | -42.7°C | 2.8% | 0hPa | 2.5V | 08:30:00 | 02:04:15 | 00:00:00 | |
| DL1ZP-14 | 2026-08-30 12:38:29 | 45.64660 | 9.17880 | 0° | 33km/h | 31239m | 6.3m/s | -42.7°C | 0.8% | -1.0hPa | 2.7V | 00:00:00 | 00:00:00 | 00:00:00 | |
| DO3MHA-11 | 2026-08-30 12:38:24 | 45.64619 | 9.17881 | 359° | 35km/h | 31217m | 6.0m/s | -42.7°C | 2.8% | 0hPa | 2.7V | 00:00:00 | 02:04:14 | 00:00:00 | |
| DB0UT-7 | 2026-08-30 12:38:21 | 45.64590 | 9.17879 | 16° | 33km/h | 31201m | 8.4m/s | -42.7°C | 2.8% | 0hPa | 2.7V | 00:00:00 | 02:04:11 | 00:00:00 | |
| IW2NTF | 2026-08-30 12:38:19 | 45.64525 | 9.17853 | 0° | 44km/h | 31152m | 4.6m/s | -43°C | 2.8% | 0hPa | 2.5V | 08:30:00 | 02:04:03 | 00:00:00 | |
| OE5DRO-10 | 2026-08-30 12:38:17 | 45.64575 | 9.17862 | 25° | 33km/h | 31178m | 7.0m/s | -42.7°C | 2.8% | 0hPa | 2.7V | 00:00:00 | 00:00:00 | 00:00:00 | |
| DO3MHA-11 | 2026-08-30 12:38:14 | 45.64538 | 9.17853 | 2° | 37km/h | 31157m | 3.5m/s | -42.9°C | 2.8% | 0hPa | 2.7V | 00:00:00 | 02:04:04 | 00:00:00 | |
| IW2NTF | 2026-08-30 12:38:08 | 45.64442 | 9.17817 | 352° | 18km/h | 31085m | 7.2m/s | -43.1°C | 2.9% | 0hPa | 2.7V | 08:30:00 | 02:03:52 | 00:00:00 | |
| DO3MHA-11 | 2026-08-30 12:38:04 | 45.64459 | 9.17816 | 2° | 33km/h | 31098m | 4.6m/s | -43.1°C | 2.9% | 0hPa | 2.7V | 00:00:00 | 02:03:54 | 08:30:00 | |
| NBG1-10 | 2026-08-30 12:38:02 | 45.64442 | 9.17817 | 353° | 26km/h | 31086m | 7.2m/s | -43.1°C | 2.9% | 0hPa | 2.7V | 00:00:00 | 02:03:52 | 08:30:00 | |
| DK5PH-5 | 2026-08-30 12:38:01 | 45.64438 | 9.17817 | 13° | 22km/h | 31079m | 5.4m/s | -43.1°C | 2.9% | 0hPa | 2.6V | 00:00:00 | 02:03:51 | 00:00:00 | |
| IW2NTF | 2026-08-30 12:37:58 | 45.64378 | 9.17772 | 349° | 9km/h | 31026m | 7.5m/s | -43°C | 2.9% | 0hPa | 2.7V | 08:30:00 | 02:03:42 | 00:00:00 | |
| DO3MHA-11 | 2026-08-30 12:37:54 | 45.64389 | 9.17774 | 13° | 27km/h | 31040m | 5.7m/s | -43.1°C | 2.9% | 0hPa | 2.6V | 00:00:00 | 02:03:44 | 00:00:00 | |
| DB0UT-7 | 2026-08-30 12:37:51 | 45.64377 | 9.17773 | 330° | 26km/h | 31020m | 4.8m/s | -43.0°C | 2.8% | 0hPa | 2.6V | 00:00:00 | 00:00:00 | 00:00:00 | |
| IW2NTF | 2026-08-30 12:37:47 | 45.64314 | 9.17763 | 329° | 24km/h | 30962m | 6.8m/s | -43.2°C | 2.9% | 0hPa | 2.6V | 08:30:00 | 02:03:31 | 00:00:00 | |
| DO3MHA-11 | 2026-08-30 12:37:44 | 45.64325 | 9.17758 | 20° | 26km/h | 30979m | 6.0m/s | -43.1°C | 2.8% | 0hPa | 2.7V | 00:00:00 | 02:03:34 | 00:00:00 | |
| OE5DRO-10 | 2026-08-30 12:37:39 | 45.64298 | 9.17771 | 349° | 26km/h | 30949m | 5.5m/s | -43.4°C | 2.9% | 0hPa | 2.7V | 00:00:00 | 00:00:00 | 00:00:00 | |
| IW2NTF | 2026-08-30 12:37:36 | 45.64254 | 9.17752 | 349° | 44km/h | 30896m | 6.3m/s | -43.8°C | 3% | 0hPa | 2.7V | 08:30:00 | 02:03:20 | 00:00:00 | |
| DO3MHA-11 | 2026-08-30 12:37:34 | 45.64270 | 9.17753 | 108° | 26km/h | 30920m | 4.3m/s | -43.7°C | 3.0% | 0hPa | 2.7V | 00:00:00 | 02:03:24 | 00:00:00 | |
| DL1ZP-14 | 2026-08-30 12:37:27 | 45.64220 | 9.17751 | 55° | 15km/h | 30873m | 8.1m/s | -43.8°C | 0.9% | -1.0hPa | 2.7V | 00:00:00 | 00:00:00 | 00:00:00 | |
| IW2NTF | 2026-08-30 12:37:25 | 45.64191 | 9.17737 | 350° | 27km/h | 30829m | 5.9m/s | -43.5°C | 3% | 0hPa | 2.6V | 08:30:00 | 02:03:09 | 00:00:00 | |
| NBG1-10 | 2026-08-30 12:37:25 | 45.64219 | 9.17745 | 91° | 26km/h | 30866m | 6.1m/s | -43.6°C | 3.1% | 0hPa | 2.7V | 00:00:00 | 02:03:15 | 00:00:00 | |
| DO3MHA-11 | 2026-08-30 12:37:24 | 45.64219 | 9.17740 | 83° | 24km/h | 30860m | 5.2m/s | -43.6°C | 3.1% | 0hPa | 2.7V | 00:00:00 | 02:03:14 | 00:00:00 | |
| DB0UT-7 | 2026-08-30 12:37:21 | 45.64206 | 9.17733 | 354° | 29km/h | 30841m | 6.5m/s | -43.5°C | 3.1% | 0hPa | 2.7V | 00:00:00 | 02:03:11 | 00:00:00 | |
| OE5DRO-10 | 2026-08-30 12:37:20 | 45.64198 | 9.17735 | 349° | 27km/h | 30835m | 5.5m/s | -43.5°C | 3.1% | 0hPa | 2.7V | 00:00:00 | 00:00:00 | 00:00:00 | |
| DO3MHA-11 | 2026-08-30 12:37:14 | 45.64166 | 9.17720 | 27° | 27km/h | 30800m | 6.8m/s | -43.4°C | 3.0% | 0hPa | 2.7V | 00:00:00 | 02:03:04 | 00:00:00 | |
| IW2NTF | 2026-08-30 12:37:09 | 45.64130 | 9.17686 | 44° | 33km/h | 30755m | 6.3m/s | -43.5°C | 3.1% | 0hPa | 2.7V | 08:30:00 | 02:02:56 | 00:00:00 | |
| OE5DRO-10 | 2026-08-30 12:37:01 | 45.64080 | 9.17663 | 10° | 29km/h | 30726m | 8.5m/s | -43.4°C | 3.1% | 0hPa | 2.7V | 00:00:00 | 00:00:00 | 00:00:00 | |
| IW2NTF | 2026-08-30 12:37:00 | 45.64075 | 9.17632 | 49° | 42km/h | 30693m | 6.8m/s | -43.4°C | 3.1% | 0hPa | 2.6V | 08:30:00 | 02:02:46 | 00:00:00 | |
| DL1ZP-14 | 2026-08-30 12:36:55 | 45.64066 | 9.17621 | 36° | 49km/h | 30686m | 6.7m/s | -43.4°C | 0.9% | -1.0hPa | 2.7V | 00:00:00 | 00:00:00 | 00:00:00 | |
| DO3MHA-11 | 2026-08-30 12:36:54 | 45.64055 | 9.17611 | 28° | 29km/h | 30680m | 5.8m/s | -43.3°C | 3.1% | 0hPa | 2.6V | 00:00:00 | 02:02:44 | 00:00:00 | |
| DB0UT-7 | 2026-08-30 12:36:51 | 45.64030 | 9.17596 | 24° | 26km/h | 30663m | 6.1m/s | -43.2°C | 3.1% | 0hPa | 2.6V | 00:00:00 | 00:00:00 | 00:00:00 | |
| IW2NTF | 2026-08-30 12:36:50 | 45.64014 | 9.17563 | 46° | 35km/h | 30631m | 4.9m/s | -43.1°C | 3% | 0hPa | 2.5V | 08:30:00 | 02:02:36 | 00:00:00 | |
| DO3MHA-11 | 2026-08-30 12:36:44 | 45.64002 | 9.17549 | 27° | 24km/h | 30620m | 6.9m/s | -42.9°C | 3.0% | 0hPa | 2.7V | 00:00:00 | 02:02:34 | 00:00:00 | |
| OE5DRO-10 | 2026-08-30 12:36:42 | 45.63991 | 9.17547 | 352° | 26km/h | 30608m | 5.2m/s | -42.9°C | 2.9% | 0hPa | 2.7V | 00:00:00 | 00:00:00 | 00:00:00 | |
| IW2NTF | 2026-08-30 12:36:40 | 45.63955 | 9.17524 | 63° | 18km/h | 30572m | 6.7m/s | -43°C | 2.9% | 0hPa | 2.7V | 08:30:00 | 02:02:26 | 00:00:00 | |
| NBG1-10 | 2026-08-30 12:36:37 | 45.63958 | 9.17530 | 51° | 22km/h | 30579m | 4.6m/s | -42.9°C | 2.9% | 0hPa | 2.6V | 00:00:00 | 02:02:27 | 00:00:00 | |
| DO3MHA-11 | 2026-08-30 12:36:34 | 45.63953 | 9.17521 | 274° | 27km/h | 30559m | 4.9m/s | -42.9°C | 2.9% | 0hPa | 2.6V | 00:00:00 | 02:02:24 | 08:30:00 | |
| IW2NTF | 2026-08-30 12:36:30 | 45.63903 | 9.17524 | 257° | 16km/h | 30501m | 2.5m/s | -42.8°C | 2.9% | 0hPa | 2.7V | 08:30:00 | 02:02:14 | 00:00:00 | |
| DO3MHA-11 | 2026-08-30 12:36:24 | 45.63903 | 9.17524 | 258° | 26km/h | 30501m | 2.4m/s | -42.8°C | 2.9% | 0hPa | 2.7V | 00:00:00 | 02:02:14 | 00:00:00 | |
| OE5DRO-10 | 2026-08-30 12:36:23 | 45.63902 | 9.17530 | 308° | 26km/h | 30497m | 5.2m/s | -42.8°C | 2.9% | 0hPa | 2.7V | 00:00:00 | 00:00:00 | 00:00:00 | |
| DB0UT-7 | 2026-08-30 12:36:21 | 45.63887 | 9.17537 | 357° | 24km/h | 30481m | 8.1m/s | -42.8°C | 2.8% | 0hPa | 2.7V | 00:00:00 | 02:02:11 | 00:00:00 | |
| IW2NTF | 2026-08-30 12:36:19 | 45.63849 | 9.17544 | 315° | 22km/h | 30433m | 6.2m/s | -42.8°C | 2.9% | 0hPa | 2.7V | 08:30:00 | 02:02:03 | 00:00:00 | |
| DF7PN | 2026-08-30 12:36:18 | 45.63855 | 9.17532 | 13° | 24km/h | 30465m | 6.0m/s | 0°C | -1.0% | -1.0hPa | 2.6V | 00:00:00 | 00:00:00 | 00:00:00 | |
| DO3MHA-11 | 2026-08-30 12:36:14 | 45.63851 | 9.17539 | 286° | 26km/h | 30439m | 5.7m/s | -42.8°C | 2.9% | 0hPa | 2.6V | 00:00:00 | 02:02:04 | 00:00:00 | |
| IW2NTF | 2026-08-30 12:36:09 | 45.63795 | 9.17598 | 346° | 27km/h | 30373m | 4.9m/s | -43°C | 2.9% | 0hPa | 2.6V | 08:30:00 | 02:01:53 | 00:00:00 | |
| DO3MHA-11 | 2026-08-30 12:36:04 | 45.63801 | 9.17594 | 334° | 24km/h | 30379m | 5.9m/s | -43.0°C | 2.9% | 0hPa | 2.6V | 00:00:00 | 02:01:54 | 00:00:00 | |
| OE5DRO-10 | 2026-08-30 12:36:02 | 45.63789 | 9.17599 | 1° | 24km/h | 30368m | 6.6m/s | -42.9°C | 2.9% | 0hPa | 2.7V | 00:00:00 | 00:00:00 | 08:30:00 | |
| OE5DXL-15 | 2026-08-30 12:35:59 | 45.63780 | 9.17593 | 24° | 24km/h | 30349m | 4.1m/s | -42.7°C | 2.9% | 0hPa | 2.6V | 00:00:00 | 00:00:00 | 00:00:00 | |
| IW2NTF | 2026-08-30 12:35:58 | 45.63743 | 9.17610 | 331° | 11km/h | 30313m | 7.7m/s | -42.8°C | 2.9% | 0hPa | 2.6V | 08:30:00 | 02:01:43 | 00:00:00 | |
| DL1ZP-14 | 2026-08-30 12:35:53 | 45.63743 | 9.17610 | 331° | 11km/h | 30313m | 7.7m/s | -42.8°C | 0.9% | -1.0hPa | 2.6V | 00:00:00 | 00:00:00 | 00:00:00 | |
| DB0UT-7 | 2026-08-30 12:35:51 | 45.63742 | 9.17606 | 93° | 27km/h | 30300m | 3.9m/s | -42.6°C | 2.9% | 0hPa | 2.7V | 00:00:00 | 00:00:00 | 00:00:00 | |
| IW2NTF | 2026-08-30 12:35:49 | 45.63697 | 9.17605 | 68° | 18km/h | 30242m | 5.4m/s | -42.4°C | 2.8% | 0hPa | 2.7V | 08:30:00 | 02:01:31 | 00:00:00 | |
| DO3MHA-11 | 2026-08-30 12:35:44 | 45.63696 | 9.17611 | 310° | 26km/h | 30260m | 8.3m/s | -42.4°C | 2.9% | 0hPa | 2.6V | 00:00:00 | 02:01:34 | 00:00:00 | |
| OE5DRO-10 | 2026-08-30 12:35:43 | 45.63696 | 9.17612 | 173° | 24km/h | 30253m | 6.8m/s | -42.3°C | 2.9% | 0hPa | 2.6V | 00:00:00 | 00:00:00 | 00:00:00 | |
| IW2NTF | 2026-08-30 12:35:38 | 45.63641 | 9.17588 | 21° | 11km/h | 30192m | 4.8m/s | -41.8°C | 2.8% | 0hPa | 2.6V | 08:30:00 | 02:01:23 | 00:00:00 | |
| DO3MHA-11 | 2026-08-30 12:35:34 | 45.63644 | 9.17588 | 353° | 24km/h | 30197m | 5.2m/s | -41.9°C | 2.8% | 0hPa | 2.6V | 00:00:00 | 02:01:24 | 00:00:00 | |
| NBG1-10 | 2026-08-30 12:35:31 | 45.63632 | 9.17581 | 31° | 31km/h | 30179m | 7.5m/s | -41.7°C | 2.8% | 0hPa | 2.6V | 00:00:00 | 02:01:21 | 00:00:00 | |
| IW2NTF | 2026-08-30 12:35:29 | 45.63584 | 9.17556 | 12° | 29km/h | 30134m | 5.9m/s | -41.8°C | 2.6% | 0hPa | 2.6V | 08:30:00 | 02:01:13 | 00:00:00 | |
| DO3MHA-11 | 2026-08-30 12:35:24 | 45.63590 | 9.17556 | 359° | 35km/h | 30138m | 2.8m/s | -41.7°C | 2.6% | 0hPa | 2.7V | 00:00:00 | 02:01:14 | 00:00:00 | |
| OE5DRO-10 | 2026-08-30 12:35:23 | 45.63584 | 9.17556 | 13° | 35km/h | 30134m | 5.9m/s | -41.7°C | 2.6% | 0hPa | 2.7V | 00:00:00 | 00:00:00 | 00:00:00 | |
| DB0UT-7 | 2026-08-30 12:35:21 | 45.63564 | 9.17543 | 32° | 37km/h | 30118m | 7.4m/s | -41.7°C | 2.6% | 0hPa | 2.7V | 00:00:00 | 02:01:11 | 08:30:00 | |
| IW2NTF | 2026-08-30 12:35:19 | 45.63511 | 9.17491 | 7° | 51km/h | 30071m | 7.1m/s | -42°C | 2.6% | 0hPa | 2.6V | 08:30:00 | 02:01:03 | 00:00:00 | |
| DK5PH-5 | 2026-08-30 12:35:17 | 45.63532 | 9.17493 | 76° | 31km/h | 30095m | 7.0m/s | -41.8°C | 2.6% | 0hPa | 2.7V | 00:00:00 | 02:01:07 | 00:00:00 | |
| DO3MHA-11 | 2026-08-30 12:35:14 | 45.63521 | 9.17492 | 355° | 38km/h | 30079m | 6.9m/s | -41.9°C | 2.7% | 0hPa | 2.7V | 00:00:00 | 02:01:04 | 00:00:00 | |
| DO3MHA-11 | 2026-08-30 12:35:04 | 45.63448 | 9.17428 | 358° | 35km/h | 30018m | 6.7m/s | -41.9°C | 2.6% | 0hPa | 2.7V | 00:00:00 | 02:00:54 | 08:30:00 | |
| IW2NTF | 2026-08-30 12:35:02 | 45.63426 | 9.17428 | 4° | 42km/h | 30007m | 4.8m/s | -42°C | 2.7% | 0hPa | 2.6V | 08:30:00 | 02:00:52 | 00:00:00 | |
| OE5DXL-15 | 2026-08-30 12:34:59 | 45.63406 | 9.17413 | 65° | 31km/h | 29987m | 6.4m/s | -42.1°C | 2.6% | 0hPa | 2.6V | 00:00:00 | 00:00:00 | 00:00:00 | |
| NBG1-10 | 2026-08-30 12:34:58 | 45.63403 | 9.17403 | 65° | 31km/h | 29981m | 5.7m/s | -42.1°C | 2.6% | 0hPa | 2.6V | 00:00:00 | 02:00:48 | 00:00:00 | |
| IW2NTF | 2026-08-30 12:34:57 | 45.63359 | 9.17395 | 318° | 27km/h | 29946m | 4.1m/s | -42.3°C | 2.7% | 0hPa | 2.6V | 08:30:00 | 02:00:42 | 00:00:00 | |
| DO3MHA-11 | 2026-08-30 12:34:54 | 45.63373 | 9.17382 | 344° | 31km/h | 29960m | 8.1m/s | -42.3°C | 2.6% | 0hPa | 2.7V | 00:00:00 | 02:00:44 | 00:00:00 | |
| DB0UT-7 | 2026-08-30 12:34:51 | 45.63354 | 9.17399 | 345° | 33km/h | 29942m | 3.6m/s | -42.2°C | 2.7% | 0hPa | 2.7V | 00:00:00 | 00:00:00 | 00:00:00 | |
| DK5PH-5 | 2026-08-30 12:34:47 | 45.63324 | 9.17372 | 46° | 26km/h | 29920m | 1.3m/s | -42.2°C | 2.7% | 0hPa | 2.7V | 00:00:00 | 02:00:37 | 00:00:00 | |
| OE5DRO-10 | 2026-08-30 12:34:45 | 45.63314 | 9.17360 | 14° | 26km/h | 29910m | 8.8m/s | -42.3°C | 2.7% | 0hPa | 2.7V | 00:00:00 | 00:00:00 | 00:00:00 | |
| DO3MHA-11 | 2026-08-30 12:34:44 | 45.63312 | 9.17363 | 294° | 31km/h | 29902m | 7.8m/s | -42.2°C | 2.7% | 0hPa | 2.7V | 00:00:00 | 02:00:34 | 00:00:00 | |
| IW2NTF | 2026-08-30 12:34:43 | 45.63294 | 9.17385 | 351° | 38km/h | 29887m | 6.9m/s | -42.3°C | 2.6% | 0hPa | 2.7V | 08:30:00 | 02:00:31 | 00:00:00 | |
| IW2NTF | 2026-08-30 12:34:37 | 45.63233 | 9.17373 | 18° | 49km/h | 29827m | 7m/s | -42.6°C | 2.6% | 0hPa | 2.6V | 08:30:00 | 02:00:21 | 00:00:00 | |
| DO3MHA-11 | 2026-08-30 12:34:34 | 45.63259 | 9.17358 | 296° | 33km/h | 29845m | 3.7m/s | -42.4°C | 2.6% | 0hPa | 2.7V | 00:00:00 | 02:00:24 | 00:00:00 | |
| OE5DXL-15 | 2026-08-30 12:34:29 | 45.63215 | 9.17353 | 59° | 27km/h | 29817m | 4.4m/s | -42.5°C | 2.7% | 0hPa | 2.7V | 00:00:00 | 00:00:00 | 00:00:00 | |
| OE5DRO-10 | 2026-08-30 12:34:26 | 45.63212 | 9.17348 | 281° | 29km/h | 29798m | 5.1m/s | -42.5°C | 2.7% | 0hPa | 2.7V | 00:00:00 | 00:00:00 | 00:00:00 | |
| NBG1-10 | 2026-08-30 12:34:25 | 45.63208 | 9.17358 | 309° | 27km/h | 29794m | 4.2m/s | -42.6°C | 2.7% | 0hPa | 2.7V | 00:00:00 | 02:00:15 | 00:00:00 | |
| DO3MHA-11 | 2026-08-30 12:34:24 | 45.63201 | 9.17366 | 336° | 35km/h | 29788m | 6.6m/s | -42.6°C | 2.7% | 0hPa | 2.7V | 00:00:00 | 02:00:14 | 00:00:00 | |
| IW2NTF | 2026-08-30 12:34:20 | 45.63161 | 9.17340 | 100° | 7km/h | 29756m | 8.2m/s | -42.7°C | 2.6% | 0hPa | 2.7V | 08:30:00 | 02:00:09 | 00:00:00 | |
| DK5PH-5 | 2026-08-30 12:34:17 | 45.63162 | 9.17347 | 288° | 26km/h | 29745m | 3.6m/s | -42.7°C | 2.6% | 0hPa | 2.5V | 00:00:00 | 02:00:07 | 08:30:00 | |
| DO3MHA-11 | 2026-08-30 12:34:14 | 45.63137 | 9.17360 | 13° | 37km/h | 29727m | 7.0m/s | -42.9°C | 2.6% | 0hPa | 2.7V | 00:00:00 | 02:00:04 | 00:00:00 | |
| IW2NTF | 2026-08-30 12:34:10 | 45.63105 | 9.17340 | 289° | 26km/h | 29692m | 2.2m/s | -43.3°C | 2.6% | 0hPa | 2.7V | 08:30:00 | 01:59:58 | 00:00:00 | |
| OE5DRO-10 | 2026-08-30 12:34:07 | 45.63101 | 9.17348 | 323° | 29km/h | 29689m | 5.0m/s | -43.4°C | 2.7% | 0hPa | 2.7V | 00:00:00 | 00:00:00 | 00:00:00 | |
| DO3MHA-11 | 2026-08-30 12:34:04 | 45.63067 | 9.17346 | 27° | 35km/h | 29668m | 3.4m/s | -43.7°C | 2.7% | 0hPa | 2.6V | 00:00:00 | 01:59:54 | 00:00:00 | |
| IW2NTF | 2026-08-30 12:34:02 | 45.63033 | 9.17362 | 342° | 47km/h | 29627m | 6m/s | -44.4°C | 2.9% | 0hPa | 2.7V | 08:30:00 | 01:59:47 | 00:00:00 | |
| OE5DXL-15 | 2026-08-30 12:33:59 | 45.63047 | 9.17345 | 290° | 29km/h | 29638m | 5.1m/s | -44.1°C | 2.8% | 0hPa | 2.6V | 00:00:00 | 00:00:00 | 00:00:00 | |
| DO3MHA-11 | 2026-08-30 12:33:54 | 45.63002 | 9.17354 | 40° | 26km/h | 29611m | 7.5m/s | -44.4°C | 3.0% | 0hPa | 2.7V | 00:00:00 | 01:59:44 | 00:00:00 | |
| DB0UT-7 | 2026-08-30 12:33:51 | 45.62999 | 9.17349 | 286° | 24km/h | 29593m | 4.4m/s | -44.3°C | 2.9% | 0hPa | 2.7V | 00:00:00 | 00:00:00 | 00:00:00 | |
| IW2NTF | 2026-08-30 12:33:50 | 45.62968 | 9.17373 | 348° | 42km/h | 29568m | 3.6m/s | -44.6°C | 2.9% | 0hPa | 2.7V | 08:30:00 | 01:59:37 | 00:00:00 | |
| DK5PH-5 | 2026-08-30 12:33:47 | 45.62968 | 9.17373 | 349° | 22km/h | 29569m | 3.6m/s | -44.6°C | 2.9% | 0hPa | 2.7V | 00:00:00 | 01:59:37 | 00:00:00 | |
| OE5DRO-10 | 2026-08-30 12:33:45 | 45.62954 | 9.17375 | 12° | 20km/h | 29557m | 7.9m/s | -44.7°C | 2.9% | 0hPa | 2.7V | 00:00:00 | 00:00:00 | 00:00:00 | |
| DO3MHA-11 | 2026-08-30 12:33:44 | 45.62953 | 9.17373 | 115° | 20km/h | 29549m | 6.4m/s | -44.7°C | 2.9% | 0hPa | 2.7V | 00:00:00 | 01:59:34 | 00:00:00 | |
| IW2NTF | 2026-08-30 12:33:38 | 45.62912 | 9.17387 | 300° | 11km/h | 29503m | 6.8m/s | -45°C | 3% | 0hPa | 2.7V | 08:30:00 | 01:59:26 | 00:00:00 | |
| NBG1-10 | 2026-08-30 12:33:38 | 45.62921 | 9.17377 | 333° | 22km/h | 29516m | 4.6m/s | -44.9°C | 2.9% | 0hPa | 2.6V | 00:00:00 | 01:59:28 | 00:00:00 | |
| DO3MHA-11 | 2026-08-30 12:33:34 | 45.62910 | 9.17388 | 36° | 20km/h | 29492m | 6.3m/s | -45.1°C | 3.0% | 0hPa | 2.6V | 00:00:00 | 01:59:24 | 08:30:00 | |
| IW2NTF | 2026-08-30 12:33:32 | 45.62877 | 9.17412 | 350° | 15km/h | 29444m | 5.8m/s | -45.5°C | 3.1% | 0hPa | 2.7V | 08:30:00 | 01:59:16 | 00:00:00 | |
| OE5DRO-10 | 2026-08-30 12:33:26 | 45.62876 | 9.17412 | 351° | 24km/h | 29445m | 5.7m/s | -45.5°C | 3.1% | 0hPa | 2.7V | 00:00:00 | 00:00:00 | 00:00:00 | |
| DO3MHA-11 | 2026-08-30 12:33:24 | 45.62864 | 9.17408 | 13° | 27km/h | 29430m | 6.1m/s | -45.5°C | 3.0% | 0hPa | 2.7V | 00:00:00 | 01:59:14 | 00:00:00 | |
| DB0UT-7 | 2026-08-30 12:33:21 | 45.62843 | 9.17412 | 306° | 26km/h | 29415m | 9.0m/s | -45.5°C | 3.1% | 0hPa | 2.7V | 00:00:00 | 01:59:11 | 00:00:00 | |
| IW2NTF | 2026-08-30 12:33:19 | 45.62836 | 9.17437 | 5° | 35km/h | 29384m | 8.4m/s | -45.5°C | 3.1% | 0hPa | 2.7V | 08:30:00 | 01:59:06 | 00:00:00 | |
| DK5PH-5 | 2026-08-30 12:33:17 | 45.62842 | 9.17437 | 343° | 26km/h | 29392m | 7.4m/s | -45.6°C | 3.2% | 0hPa | 2.6V | 00:00:00 | 01:59:07 | 00:00:00 | |
| DO3MHA-11 | 2026-08-30 12:33:14 | 45.62815 | 9.17434 | 359° | 26km/h | 29373m | 3.8m/s | -45.6°C | 3.1% | 0hPa | 2.6V | 00:00:00 | 01:59:04 | 00:00:00 | |
| IW2NTF | 2026-08-30 12:33:10 | 45.62786 | 9.17458 | 356° | 33km/h | 29324m | 5m/s | -45.7°C | 3.1% | 0hPa | 2.6V | 08:30:00 | 01:58:56 | 00:00:00 | |
| OE5DRO-10 | 2026-08-30 12:33:05 | 45.62777 | 9.17460 | 337° | 24km/h | 29318m | 7.1m/s | -45.7°C | 3.1% | 0hPa | 2.7V | 00:00:00 | 00:00:00 | 08:30:00 | |
| DO3MHA-11 | 2026-08-30 12:33:04 | 45.62771 | 9.17467 | 309° | 26km/h | 29311m | 7.2m/s | -45.7°C | 3.1% | 0hPa | 2.7V | 00:00:00 | 01:58:54 | 00:00:00 | |
| IW2NTF | 2026-08-30 12:33:00 | 45.62740 | 9.17492 | 307° | 29km/h | 29265m | 9.4m/s | -45.9°C | 3.2% | 0hPa | 2.6V | 08:30:00 | 01:58:46 | 00:00:00 | |
| DO3MHA-11 | 2026-08-30 12:32:54 | 45.62735 | 9.17517 | 278° | 29km/h | 29252m | 2.7m/s | -45.9°C | 3.2% | 0hPa | 2.5V | 00:00:00 | 01:58:44 | 00:00:00 | |
| DB0UT-7 | 2026-08-30 12:32:51 | 45.62727 | 9.17530 | 38° | 27km/h | 29235m | 8.1m/s | -46.0°C | 3.2% | 0hPa | 2.5V | 00:00:00 | 00:00:00 | 00:00:00 | |
| IW2NTF | 2026-08-30 12:32:49 | 45.62703 | 9.17534 | 279° | 40km/h | 29204m | 6.6m/s | -45.9°C | 3.2% | 0hPa | 2.5V | 08:30:00 | 01:58:36 | 00:00:00 | |
| DK5PH-5 | 2026-08-30 12:32:47 | 45.62705 | 9.17522 | 298° | 29km/h | 29213m | 9.5m/s | -45.9°C | 3.2% | 0hPa | 2.5V | 00:00:00 | 01:58:37 | 00:00:00 | |
| OE5DRO-10 | 2026-08-30 12:32:46 | 45.62702 | 9.17534 | 280° | 29km/h | 29205m | 6.6m/s | -45.9°C | 3.2% | 0hPa | 2.5V | 00:00:00 | 00:00:00 | 00:00:00 | |
| DO3MHA-11 | 2026-08-30 12:32:44 | 45.62698 | 9.17559 | 299° | 27km/h | 29196m | 5.0m/s | -45.8°C | 3.1% | 0hPa | 2.5V | 00:00:00 | 01:58:34 | 00:00:00 | |
| IW2NTF | 2026-08-30 12:32:39 | 45.62661 | 9.17592 | 295° | 33km/h | 29149m | 4m/s | -45.6°C | 3% | 0hPa | 2.5V | 08:30:00 | 01:58:26 | 00:00:00 | |
| DO3MHA-11 | 2026-08-30 12:32:34 | 45.62652 | 9.17602 | 11° | 26km/h | 29137m | 7.6m/s | -45.7°C | 3.0% | 0hPa | 2.7V | 00:00:00 | 01:58:24 | 00:00:00 | |
| NBG1-10 | 2026-08-30 12:32:32 | 45.62641 | 9.17594 | 23° | 24km/h | 29125m | 4.4m/s | -45.7°C | 3.0% | 0hPa | 2.5V | 00:00:00 | 01:58:22 | 08:30:00 | |
| IW2NTF | 2026-08-30 12:32:27 | 45.62614 | 9.17624 | 4° | 22km/h | 29090m | 8.2m/s | -45.9°C | 3.1% | 0hPa | 2.5V | 08:30:00 | 01:58:16 | 00:00:00 | |
| DO3MHA-11 | 2026-08-30 12:32:24 | 45.62602 | 9.17617 | 30° | 26km/h | 29078m | 3.9m/s | -45.9°C | 3.1% | 0hPa | 2.5V | 00:00:00 | 01:58:14 | 00:00:00 | |
| IW2NTF | 2026-08-30 12:32:21 | 45.62551 | 9.17629 | 306° | 11km/h | 29020m | 8.3m/s | -46.3°C | 3.2% | 0hPa | 2.5V | 08:30:00 | 01:58:04 | 00:00:00 | |
| DK5PH-5 | 2026-08-30 12:32:17 | 45.62562 | 9.17639 | 35° | 20km/h | 29036m | 6.7m/s | -46.3°C | 3.2% | 0hPa | 2.5V | 00:00:00 | 01:58:07 | 00:00:00 | |
| DO3MHA-11 | 2026-08-30 12:32:14 | 45.62551 | 9.17629 | 307° | 24km/h | 29020m | 8.2m/s | -46.3°C | 3.2% | 0hPa | 2.5V | 00:00:00 | 01:58:04 | 00:00:00 | |
| IW2NTF | 2026-08-30 12:32:08 | 45.62510 | 9.17657 | 286° | 22km/h | 28959m | 4.6m/s | -46.2°C | 3.1% | 0hPa | 2.5V | 08:30:00 | 01:57:54 | 00:00:00 | |
| OE5DRO-10 | 2026-08-30 12:32:07 | 45.62517 | 9.17647 | 29° | 18km/h | 28977m | 4.9m/s | -46.4°C | 3.1% | 0hPa | 2.7V | 00:00:00 | 00:00:00 | 00:00:00 | |
| DO3MHA-11 | 2026-08-30 12:32:04 | 45.62510 | 9.17656 | 287° | 20km/h | 28960m | 4.6m/s | -46.2°C | 3.1% | 0hPa | 2.5V | 00:00:00 | 01:57:54 | 08:30:00 | |
| NBG1-10 | 2026-08-30 12:31:59 | 45.62491 | 9.17662 | 3° | 18km/h | 28932m | 4.8m/s | -46.3°C | 3.1% | 0hPa | 2.5V | 00:00:00 | 01:57:49 | 00:00:00 | |
| OE5DXL-15 | 2026-08-30 12:31:56 | 45.62482 | 9.17677 | 282° | 20km/h | 28912m | 4.4m/s | -46.2°C | 3.1% | 0hPa | 2.5V | 00:00:00 | 00:00:00 | 00:00:00 | |
| IW2NTF | 2026-08-30 12:31:55 | 45.62479 | 9.17686 | 357° | 11km/h | 28901m | 7.7m/s | -46.4°C | 3% | 0hPa | 2.5V | 08:30:00 | 01:57:44 | 00:00:00 | |
| DO3MHA-11 | 2026-08-30 12:31:54 | 45.62479 | 9.17686 | 358° | 16km/h | 28901m | 7.7m/s | -46.4°C | 3.0% | 0hPa | 2.6V | 00:00:00 | 01:57:44 | 00:00:00 | |
| DB0UT-7 | 2026-08-30 12:31:51 | 45.62465 | 9.17677 | 8° | 20km/h | 28884m | 5.3m/s | -46.6°C | 3.1% | 0hPa | 2.6V | 00:00:00 | 00:00:00 | 00:00:00 | |
| IW2NTF | 2026-08-30 12:31:48 | 45.62442 | 9.17699 | 315° | 27km/h | 28829m | 7.4m/s | -47°C | 3.3% | 0hPa | 2.6V | 08:30:00 | 01:57:32 | 00:00:00 | |
| OE5DRO-10 | 2026-08-30 12:31:48 | 45.62456 | 9.17691 | 269° | 20km/h | 28865m | 5.1m/s | -46.7°C | 3.2% | 0hPa | 2.7V | 00:00:00 | 00:00:00 | 00:00:00 | |
| DK5PH-5 | 2026-08-30 12:31:47 | 45.62457 | 9.17696 | 259° | 20km/h | 28859m | 6.1m/s | -46.8°C | 3.3% | 0hPa | 2.7V | 00:00:00 | 01:57:37 | 00:00:00 | |
| DO3MHA-11 | 2026-08-30 12:31:44 | 45.62452 | 9.17694 | 14° | 18km/h | 28841m | 4.5m/s | -46.9°C | 3.2% | 0hPa | 2.7V | 00:00:00 | 01:57:34 | 00:00:00 | |
| DO3MHA-11 | 2026-08-30 12:31:34 | 45.62425 | 9.17708 | 302° | 20km/h | 28783m | 8.2m/s | -47.2°C | 3.4% | 0hPa | 2.7V | 00:00:00 | 01:57:24 | 00:00:00 | |
| IW2NTF | 2026-08-30 12:31:33 | 45.62413 | 9.17734 | 325° | 26km/h | 28765m | 5.7m/s | -47.1°C | 3.3% | 0hPa | 2.5V | 08:30:00 | 01:57:21 | 00:00:00 | |
| NBG1-10 | 2026-08-30 12:31:26 | 45.62404 | 9.17722 | 257° | 20km/h | 28736m | 6.4m/s | -47.2°C | 3.3% | 0hPa | 2.7V | 00:00:00 | 01:57:16 | 00:00:00 | |
| OE5DXL-15 | 2026-08-30 12:31:25 | 45.62404 | 9.17727 | 288° | 22km/h | 28730m | 5.4m/s | -47.1°C | 3.4% | 0hPa | 2.7V | 00:00:00 | 00:00:00 | 00:00:00 | |
| IW2NTF | 2026-08-30 12:31:24 | 45.62379 | 9.17734 | 45° | 35km/h | 28706m | 5.4m/s | -47.2°C | 3.4% | 0hPa | 2.7V | 08:30:00 | 01:57:11 | 00:00:00 | |
| DB0UT-7 | 2026-08-30 12:31:21 | 45.62379 | 9.17734 | 46° | 22km/h | 28706m | 5.3m/s | -47.2°C | 3.4% | 0hPa | 2.7V | 00:00:00 | 01:57:11 | 00:00:00 | |
| DK5PH-5 | 2026-08-30 12:31:17 | 45.62374 | 9.17723 | 266° | 20km/h | 28683m | 6.5m/s | -47.1°C | 3.4% | 0hPa | 2.7V | 00:00:00 | 01:57:07 | 00:00:00 | |
| IW2NTF | 2026-08-30 12:31:15 | 45.62346 | 9.17721 | 269° | 22km/h | 28636m | 6.9m/s | -47.1°C | 3.4% | 0hPa | 2.6V | 08:30:00 | 01:56:59 | 00:00:00 | |
| DO3MHA-11 | 2026-08-30 12:31:14 | 45.62364 | 9.17739 | 12° | 24km/h | 28666m | 8.2m/s | -47.1°C | 3.3% | 0hPa | 2.7V | 00:00:00 | 01:57:04 | 00:00:00 | |
| OE5DRO-10 | 2026-08-30 12:31:07 | 45.62342 | 9.17739 | 306° | 20km/h | 28626m | 5.2m/s | -47.1°C | 3.4% | 0hPa | 2.7V | 00:00:00 | 00:00:00 | 00:00:00 | |
| DO3MHA-11 | 2026-08-30 12:31:04 | 45.62324 | 9.17740 | 30° | 20km/h | 28607m | 3.9m/s | -47.1°C | 3.4% | 0hPa | 2.5V | 00:00:00 | 01:56:54 | 00:00:00 | |
| IW2NTF | 2026-08-30 12:31:01 | 45.62314 | 9.17754 | 302° | 18km/h | 28578m | 4.8m/s | -47.4°C | 3.4% | 0hPa | 2.5V | 08:30:00 | 01:56:49 | 00:00:00 | |
| OE5DXL-15 | 2026-08-30 12:30:55 | 45.62294 | 9.17748 | 24° | 16km/h | 28555m | 4.6m/s | -47.3°C | 3.3% | 0hPa | 2.7V | 00:00:00 | 00:00:00 | 08:30:00 | |
| DO3MHA-11 | 2026-08-30 12:30:54 | 45.62291 | 9.17748 | 326° | 18km/h | 28549m | 7.4m/s | -47.2°C | 3.3% | 0hPa | 2.5V | 00:00:00 | 01:56:44 | 00:00:00 | |
| NBG1-10 | 2026-08-30 12:30:53 | 45.62290 | 9.17752 | 267° | 16km/h | 28542m | 6.6m/s | -47.1°C | 3.3% | 0hPa | 2.5V | 00:00:00 | 01:56:43 | 00:00:00 | |
| DB0UT-7 | 2026-08-30 12:30:51 | 45.62291 | 9.17768 | 283° | 18km/h | 28533m | 3.3m/s | -47.1°C | 3.3% | 0hPa | 2.6V | 00:00:00 | 00:00:00 | 08:30:00 | |
| IW2NTF | 2026-08-30 12:30:50 | 45.62284 | 9.17771 | 22° | 26km/h | 28520m | 8.3m/s | -47.2°C | 3.3% | 0hPa | 2.7V | 08:30:00 | 01:56:39 | 00:00:00 | |
| DK5PH-5 | 2026-08-30 12:30:47 | 45.62272 | 9.17760 | 31° | 15km/h | 28510m | 2.8m/s | -47.1°C | 3.3% | 0hPa | 2.5V | 00:00:00 | 01:56:37 | 00:00:00 | |
| OE5DRO-10 | 2026-08-30 12:30:46 | 45.62268 | 9.17758 | 13° | 15km/h | 28505m | 6.6m/s | -47.0°C | 3.3% | 0hPa | 2.5V | 00:00:00 | 00:00:00 | 00:00:00 | |
| DO3MHA-11 | 2026-08-30 12:30:44 | 45.62269 | 9.17765 | 243° | 16km/h | 28490m | 5.5m/s | -46.9°C | 3.3% | 0hPa | 2.5V | 00:00:00 | 01:56:34 | 00:00:00 | |
| IW2NTF | 2026-08-30 12:30:41 | 45.62255 | 9.17764 | 19° | 15km/h | 28457m | 5.9m/s | -46.9°C | 3.3% | 0hPa | 2.5V | 08:30:00 | 01:56:28 | 00:00:00 | |
| DO3MHA-11 | 2026-08-30 12:30:34 | 45.62253 | 9.17774 | 319° | 16km/h | 28434m | 5.8m/s | -46.8°C | 3.3% | 0hPa | 2.7V | 00:00:00 | 01:56:24 | 08:30:00 | |
| IW2NTF | 2026-08-30 12:30:30 | 45.62238 | 9.17775 | 246° | 20km/h | 28392m | 3.3m/s | -46.8°C | 3.2% | 0hPa | 2.7V | 08:30:00 | 01:56:17 | 00:00:00 | |
| OE5DRO-10 | 2026-08-30 12:30:26 | 45.62238 | 9.17780 | 280° | 11km/h | 28388m | 5.0m/s | -46.7°C | 3.2% | 0hPa | 2.5V | 00:00:00 | 00:00:00 | 00:00:00 | |
| OE5DXL-15 | 2026-08-30 12:30:25 | 45.62236 | 9.17782 | 356° | 13km/h | 28381m | 7.8m/s | -46.8°C | 3.2% | 0hPa | 2.5V | 00:00:00 | 00:00:00 | 00:00:00 | |
| DO3MHA-11 | 2026-08-30 12:30:24 | 45.62232 | 9.17780 | 28° | 18km/h | 28374m | 6.8m/s | -46.7°C | 3.2% | 0hPa | 2.5V | 00:00:00 | 01:56:14 | 00:00:00 | |
| IW2NTF | 2026-08-30 12:30:21 | 45.62228 | 9.17785 | 316° | 11km/h | 28334m | 7.7m/s | -46.9°C | 3.3% | 0hPa | 2.5V | 08:30:00 | 01:56:07 | 00:00:00 | |
| DB0UT-7 | 2026-08-30 12:30:21 | 45.62221 | 9.17767 | 142° | 15km/h | 28359m | 7.5m/s | -46.8°C | 3.3% | 0hPa | 2.5V | 00:00:00 | 01:56:11 | 00:00:00 | |
| NBG1-10 | 2026-08-30 12:30:20 | 45.62223 | 9.17769 | 220° | 15km/h | 28352m | 7.5m/s | -46.7°C | 3.3% | 0hPa | 2.5V | 00:00:00 | 01:56:10 | 00:00:00 | |
| DK5PH-5 | 2026-08-30 12:30:17 | 45.62229 | 9.17785 | 317° | 13km/h | 28335m | 7.7m/s | -46.9°C | 3.3% | 0hPa | 2.5V | 00:00:00 | 01:56:07 | 00:00:00 | |
| DO3MHA-11 | 2026-08-30 12:30:14 | 45.62216 | 9.17781 | 31° | 9km/h | 28315m | 6.3m/s | -46.8°C | 3.2% | 0hPa | 2.5V | 00:00:00 | 01:56:04 | 00:00:00 | |
| IW2NTF | 2026-08-30 12:30:10 | 45.62217 | 9.17781 | 309° | 7km/h | 28272m | 5.6m/s | -46.8°C | 3.2% | 0hPa | 2.5V | 08:30:00 | 01:55:57 | 00:00:00 | |
| OE5DRO-10 | 2026-08-30 12:30:07 | 45.62217 | 9.17781 | 310° | 15km/h | 28273m | 5.6m/s | -46.8°C | 3.2% | 0hPa | 2.5V | 00:00:00 | 00:00:00 | 08:30:00 | |
| DO3MHA-11 | 2026-08-30 12:30:04 | 45.62220 | 9.17790 | 192° | 16km/h | 28254m | 4.2m/s | -46.7°C | 3.2% | 0hPa | 2.5V | 00:00:00 | 01:55:54 | 00:00:00 | |
| IW2NTF | 2026-08-30 12:30:02 | 45.62213 | 9.17789 | 239° | 26km/h | 28211m | 3.9m/s | -46.8°C | 3.2% | 0hPa | 2.5V | 08:30:00 | 01:55:47 | 00:00:00 | |
| OE5DXL-15 | 2026-08-30 12:29:55 | 45.62219 | 9.17795 | 144° | 16km/h | 28204m | 6.3m/s | -46.8°C | 3.2% | 0hPa | 2.5V | 00:00:00 | 00:00:00 | 00:00:00 | |
| DO3MHA-11 | 2026-08-30 12:29:54 | 45.62219 | 9.17790 | 81° | 24km/h | 28196m | 10.5m/s | -46.9°C | 3.2% | 0hPa | 2.5V | 00:00:00 | 01:55:44 | 00:00:00 | |
| DB0UT-7 | 2026-08-30 12:29:51 | 45.62205 | 9.17764 | 26° | 18km/h | 28179m | 5.4m/s | -46.9°C | 3.2% | 0hPa | 2.5V | 00:00:00 | 00:00:00 | 00:00:00 | |
| IW2NTF | 2026-08-30 12:29:48 | 45.62207 | 9.17780 | 191° | 11km/h | 28156m | 4.2m/s | -46.9°C | 3.2% | 0hPa | 2.5V | 08:30:00 | 01:55:37 | 00:00:00 | |
| OE5DRO-10 | 2026-08-30 12:29:48 | 45.62204 | 9.17777 | 232° | 15km/h | 28160m | 3.1m/s | -46.9°C | 3.2% | 0hPa | 2.5V | 00:00:00 | 00:00:00 | 00:00:00 | |
| NBG1-10 | 2026-08-30 12:29:47 | 45.62207 | 9.17780 | 192° | 15km/h | 28156m | 4.1m/s | -46.9°C | 3.2% | 0hPa | 2.5V | 00:00:00 | 01:55:37 | 00:00:00 | |
| DO3MHA-11 | 2026-08-30 12:29:44 | 45.62203 | 9.17760 | 54° | 24km/h | 28135m | 4.0m/s | -47.1°C | 3.1% | 0hPa | 2.5V | 00:00:00 | 01:55:34 | 00:00:00 | |
| IW2NTF | 2026-08-30 12:29:42 | 45.62204 | 9.17755 | 85° | 22km/h | 28095m | 7.5m/s | -47.3°C | 3.3% | 0hPa | 2.5V | 08:30:00 | 01:55:27 | 00:00:00 | |
| DO3MHA-11 | 2026-08-30 12:29:34 | 45.62193 | 9.17729 | 35° | 16km/h | 28078m | 6.0m/s | -47.2°C | 3.3% | 0hPa | 2.6V | 00:00:00 | 01:55:24 | 00:00:00 | |
| IW2NTF | 2026-08-30 12:29:29 | 45.62182 | 9.17728 | 46° | 26km/h | 28036m | 3.7m/s | -47.3°C | 3.3% | 0hPa | 2.7V | 08:30:00 | 01:55:17 | 00:00:00 | |
| DO3MHA-11 | 2026-08-30 12:29:24 | 45.62174 | 9.17726 | 280° | 9km/h | 28017m | 6.8m/s | -47.3°C | 3.4% | 0hPa | 2.7V | 00:00:00 | 01:55:14 | 00:00:00 | |
| IW2NTF | 2026-08-30 12:29:22 | 45.62165 | 9.17739 | 341° | 7km/h | 27974m | 5.6m/s | -47.3°C | 3.3% | 0hPa | 2.7V | 08:30:00 | 01:55:07 | 00:00:00 | |
| OE5DXL-15 | 2026-08-30 12:29:22 | 45.62173 | 9.17736 | 285° | 13km/h | 28004m | 6.0m/s | -47.2°C | 3.3% | 0hPa | 2.6V | 00:00:00 | 00:00:00 | 00:00:00 | |
| DO3MHA-11 | 2026-08-30 12:29:14 | 45.62159 | 9.17734 | 52° | 15km/h | 27955m | 5.4m/s | -47.3°C | 3.2% | 0hPa | 2.7V | 00:00:00 | 01:55:04 | 00:00:00 | |
| NBG1-10 | 2026-08-30 12:29:12 | 45.62157 | 9.17733 | 270° | 15km/h | 27945m | 7.5m/s | -47.3°C | 3.3% | 0hPa | 2.7V | 00:00:00 | 01:55:02 | 00:00:00 | |
| DL1ZP-14 | 2026-08-30 12:29:10 | 45.62159 | 9.17753 | 272° | 7km/h | 27927m | 4.2m/s | -47.4°C | 1.0% | -1.0hPa | 2.5V | 00:00:00 | 00:00:00 | 00:00:00 | |
| IW2NTF | 2026-08-30 12:29:09 | 45.62157 | 9.17749 | 61° | 22km/h | 27912m | 8m/s | -47.5°C | 3.3% | 0hPa | 2.6V | 08:30:00 | 01:54:57 | 00:00:00 | |
| DO3MHA-11 | 2026-08-30 12:29:04 | 45.62151 | 9.17735 | 279° | 18km/h | 27896m | 7.7m/s | -47.3°C | 3.3% | 0hPa | 2.5V | 00:00:00 | 01:54:54 | 08:30:00 | |
| IW2NTF | 2026-08-30 12:29:02 | 45.62139 | 9.17747 | 57° | 16km/h | 27854m | 3.8m/s | -47.5°C | 3.2% | 0hPa | 2.7V | 08:30:00 | 01:54:47 | 00:00:00 | |
| DO3MHA-11 | 2026-08-30 12:28:54 | 45.62140 | 9.17754 | 246° | 16km/h | 27835m | 4.7m/s | -47.3°C | 3.3% | 0hPa | 2.7V | 00:00:00 | 01:54:44 | 00:00:00 | |
| OE5DXL-15 | 2026-08-30 12:28:52 | 45.62144 | 9.17766 | 273° | 13km/h | 27825m | 6.4m/s | -47.4°C | 3.3% | 0hPa | 2.7V | 00:00:00 | 00:00:00 | 00:00:00 | |
| DB0UT-7 | 2026-08-30 12:28:51 | 45.62142 | 9.17766 | 46° | 13km/h | 27818m | 7.4m/s | -47.4°C | 3.2% | 0hPa | 2.7V | 00:00:00 | 00:00:00 | 00:00:00 | |
| IW2NTF | 2026-08-30 12:28:49 | 45.62135 | 9.17758 | 255° | 15km/h | 27793m | 7.4m/s | -47.7°C | 3.2% | 0hPa | 2.7V | 08:30:00 | 01:54:37 | 00:00:00 | |
| DO3MHA-11 | 2026-08-30 12:28:44 | 45.62142 | 9.17773 | 204° | 11km/h | 27777m | 6.9m/s | -47.7°C | 3.3% | 0hPa | 2.6V | 00:00:00 | 01:54:34 | 00:00:00 | |
| IW2NTF | 2026-08-30 12:28:38 | 45.62138 | 9.17775 | 280° | 11km/h | 27733m | 6.1m/s | -48°C | 3.3% | 0hPa | 2.6V | 08:30:00 | 01:54:27 | 00:00:00 | |
| DO3MHA-11 | 2026-08-30 12:28:34 | 45.62134 | 9.17772 | 70° | 13km/h | 27715m | 5.2m/s | -48.2°C | 3.3% | 0hPa | 2.5V | 00:00:00 | 01:54:24 | 00:00:00 | |
| IW2NTF | 2026-08-30 12:28:32 | 45.62120 | 9.17775 | 21° | 24km/h | 27672m | 3.7m/s | -48.7°C | 3.4% | 0hPa | 2.7V | 08:30:00 | 01:54:17 | 00:00:00 | |
| OE5DRO-10 | 2026-08-30 12:28:29 | 45.62131 | 9.17777 | 342° | 16km/h | 27685m | 7.5m/s | -48.6°C | 3.4% | 0hPa | 2.7V | 00:00:00 | 00:00:00 | 00:00:00 | |
| DO3MHA-11 | 2026-08-30 12:28:24 | 45.62115 | 9.17775 | 242° | 16km/h | 27654m | 6.9m/s | -48.6°C | 3.5% | 0hPa | 2.7V | 00:00:00 | 01:54:14 | 00:00:00 | |
| IW2NTF | 2026-08-30 12:28:23 | 45.62099 | 9.17785 | 211° | 9km/h | 27612m | 8.1m/s | -48.6°C | 3.6% | 0hPa | 2.7V | 08:30:00 | 01:54:07 | 00:00:00 | |
| OE5DXL-15 | 2026-08-30 12:28:22 | 45.62116 | 9.17786 | 294° | 15km/h | 27643m | 5.9m/s | 0°C | 0% | 0hPa | 2.5V | 00:00:00 | 00:00:00 | 00:00:00 | |
| DB0UT-7 | 2026-08-30 12:28:21 | 45.62113 | 9.17790 | 346° | 16km/h | 27636m | 7.5m/s | -48.7°C | 3.6% | 0hPa | 2.5V | 00:00:00 | 01:54:11 | 00:00:00 | |
| DO3MHA-11 | 2026-08-30 12:28:14 | 45.62108 | 9.17796 | 265° | 15km/h | 27597m | 5.9m/s | -48.4°C | 3.6% | 0hPa | 2.5V | 00:00:00 | 01:54:04 | 00:00:00 | |
| IW2NTF | 2026-08-30 12:28:10 | 45.62091 | 9.17799 | 19° | 26km/h | 27535m | 6.1m/s | -48.7°C | 3.5% | 0hPa | 2.5V | 08:30:00 | 01:53:54 | 00:00:00 | |
| NBG1-10 | 2026-08-30 12:28:05 | 45.62096 | 9.17802 | 41° | 20km/h | 27542m | 7.8m/s | -48.6°C | 3.5% | 0hPa | 2.5V | 00:00:00 | 01:53:55 | 00:00:00 | |
| DO3MHA-11 | 2026-08-30 12:28:04 | 45.62091 | 9.17799 | 20° | 18km/h | 27535m | 6.0m/s | -48.6°C | 3.5% | 0hPa | 2.5V | 00:00:00 | 01:53:54 | 00:00:00 | |
| IW2NTF | 2026-08-30 12:27:55 | 45.62056 | 9.17806 | 343° | 13km/h | 27476m | 7.8m/s | -49°C | 3.6% | 0hPa | 2.5V | 08:30:00 | 01:53:44 | 00:00:00 | |
| DO3MHA-11 | 2026-08-30 12:27:54 | 45.62055 | 9.17806 | 344° | 18km/h | 27477m | 7.8m/s | -49.0°C | 3.6% | 0hPa | 2.7V | 00:00:00 | 01:53:44 | 00:00:00 | |
| OE5DXL-15 | 2026-08-30 12:27:52 | 45.62052 | 9.17814 | 293° | 31km/h | 27464m | 3.8m/s | 0°C | 0% | 0hPa | 2.7V | 00:00:00 | 00:00:00 | 00:00:00 | |
| DB0UT-7 | 2026-08-30 12:27:51 | 45.62049 | 9.17818 | 330° | 20km/h | 27459m | 5.7m/s | -49.1°C | 3.6% | 0hPa | 2.7V | 00:00:00 | 00:00:00 | 00:00:00 | |
| IW2NTF | 2026-08-30 12:27:49 | 45.62018 | 9.17819 | 314° | 7km/h | 27416m | 4.6m/s | -48.9°C | 3.5% | 0hPa | 2.5V | 08:30:00 | 01:53:34 | 00:00:00 | |
| DO3MHA-11 | 2026-08-30 12:27:44 | 45.62018 | 9.17819 | 315° | 20km/h | 27416m | 4.6m/s | -48.9°C | 3.5% | 0hPa | 2.5V | 00:00:00 | 01:53:34 | 00:00:00 | |
| IW2NTF | 2026-08-30 12:27:35 | 45.61971 | 9.17819 | 36° | 29km/h | 27356m | 5.6m/s | -49.1°C | 3.5% | 0hPa | 2.5V | 08:30:00 | 01:53:24 | 00:00:00 | |
| DO3MHA-11 | 2026-08-30 12:27:34 | 45.61971 | 9.17819 | 37° | 22km/h | 27357m | 5.5m/s | -49.1°C | 3.5% | 0hPa | 2.5V | 00:00:00 | 01:53:24 | 08:30:00 | |
| OE5DRO-10 | 2026-08-30 12:27:32 | 45.61961 | 9.17809 | 25° | 18km/h | 27347m | 6.3m/s | -49.1°C | 3.5% | 0hPa | 2.5V | 00:00:00 | 00:00:00 | 00:00:00 | |
| IW2NTF | 2026-08-30 12:27:29 | 45.61927 | 9.17809 | 22° | 5km/h | 27297m | 6.9m/s | -48.9°C | 3.6% | 0hPa | 2.5V | 08:30:00 | 01:53:14 | 00:00:00 | |
| DO3MHA-11 | 2026-08-30 12:27:24 | 45.61927 | 9.17809 | 23° | 16km/h | 27298m | 6.8m/s | -48.8°C | 3.6% | 0hPa | 2.5V | 00:00:00 | 01:53:14 | 00:00:00 | |
| NBG1-10 | 2026-08-30 12:27:23 | 45.61926 | 9.17810 | 312° | 26km/h | 27291m | 5.2m/s | -48.8°C | 3.6% | 0hPa | 2.5V | 00:00:00 | 01:53:13 | 08:30:00 | |
| DB0UT-7 | 2026-08-30 12:27:21 | 45.61920 | 9.17815 | 341° | 26km/h | 27279m | 6.5m/s | -48.8°C | 3.6% | 0hPa | 2.7V | 00:00:00 | 01:53:11 | 00:00:00 | |
| IW2NTF | 2026-08-30 12:27:20 | 45.61891 | 9.17831 | 36° | 13km/h | 27240m | 6.2m/s | -48.8°C | 3.5% | 0hPa | 2.7V | 08:30:00 | 01:53:04 | 00:00:00 | |
| OE5DRO-10 | 2026-08-30 12:27:14 | 45.61886 | 9.17827 | 24° | 29km/h | 27234m | 6.9m/s | -48.8°C | 3.5% | 0hPa | 2.5V | 00:00:00 | 00:00:00 | 08:30:00 | |
| IW2NTF | 2026-08-30 12:27:07 | 45.61849 | 9.17855 | 18° | 27km/h | 27181m | 4.3m/s | -49.2°C | 3.4% | 0hPa | 2.6V | 08:30:00 | 01:52:54 | 00:00:00 | |
| IW2NTF | 2026-08-30 12:26:55 | 45.61809 | 9.17906 | 293° | 24km/h | 27124m | 6.7m/s | -49.3°C | 3.6% | 0hPa | 2.5V | 08:30:00 | 01:52:44 | 00:00:00 | |
| DO3MHA-11 | 2026-08-30 12:26:54 | 45.61808 | 9.17906 | 294° | 29km/h | 27125m | 6.6m/s | -49.3°C | 3.6% | 0hPa | 2.7V | 00:00:00 | 01:52:44 | 00:00:00 | |
| S52SK | 2026-08-30 12:26:52 | 45.61805 | 9.17916 | 298° | 38km/h | 27119m | 5.7m/s | -49.3°C | 0% | 0hPa | 2.7V | 00:00:00 | 00:00:00 | 00:00:00 | |
| DB0UT-7 | 2026-08-30 12:26:51 | 45.61791 | 9.17938 | 329° | 24km/h | 27110m | 4.3m/s | -49.3°C | 3.6% | 0hPa | 2.7V | 00:00:00 | 00:00:00 | 00:00:00 | |
| NBG1-10 | 2026-08-30 12:26:50 | 45.61782 | 9.17943 | 351° | 22km/h | 27104m | 7.0m/s | -49.4°C | 3.6% | 0hPa | 2.7V | 00:00:00 | 01:52:40 | 00:00:00 | |
| IW2NTF | 2026-08-30 12:26:49 | 45.61768 | 9.17968 | 286° | 46km/h | 27069m | 3.1m/s | -49.4°C | 3.6% | 0hPa | 2.7V | 08:30:00 | 01:52:34 | 00:00:00 | |
| S52SK | 2026-08-30 12:26:47 | 45.61769 | 9.17939 | 46° | 15km/h | 27093m | 2.3m/s | -49.4°C | 0% | 0hPa | 2.7V | 00:00:00 | 00:00:00 | 00:00:00 | |
| OE5DRO-10 | 2026-08-30 12:26:46 | 45.61768 | 9.17941 | 256° | 22km/h | 27083m | 9.2m/s | -49.4°C | 3.6% | 0hPa | 2.7V | 00:00:00 | 00:00:00 | 00:00:00 | |
| DK5PH-5 | 2026-08-30 12:26:44 | 45.61768 | 9.17967 | 287° | 22km/h | 27070m | 3.1m/s | -49.3°C | 3.6% | 0hPa | 2.7V | 00:00:00 | 01:52:34 | 00:00:00 | |
| S52SK | 2026-08-30 12:26:42 | 45.61763 | 9.17981 | 309° | 38km/h | 27065m | 5.1m/s | -49.4°C | 0% | 0hPa | 2.5V | 00:00:00 | 00:00:00 | 00:00:00 | |
| IW2NTF | 2026-08-30 12:26:39 | 45.61728 | 9.18014 | 310° | 22km/h | 27012m | 5.9m/s | -49.3°C | 3.6% | 0hPa | 2.5V | 08:30:00 | 01:52:24 | 00:00:00 | |
| DO3MHA-11 | 2026-08-30 12:26:34 | 45.61727 | 9.18014 | 311° | 18km/h | 27013m | 5.9m/s | -49.3°C | 3.6% | 0hPa | 2.5V | 00:00:00 | 01:52:24 | 00:00:00 | |
| IW2NTF | 2026-08-30 12:26:28 | 45.61695 | 9.18052 | 297° | 16km/h | 26958m | 5.5m/s | -49.1°C | 3.6% | 0hPa | 2.7V | 08:30:00 | 01:52:14 | 00:00:00 | |
| OE5DRO-10 | 2026-08-30 12:26:27 | 45.61705 | 9.18047 | 332° | 18km/h | 26974m | 6.7m/s | -49.1°C | 3.6% | 0hPa | 2.5V | 00:00:00 | 00:00:00 | 00:00:00 | |
| DO3MHA-11 | 2026-08-30 12:26:24 | 45.61695 | 9.18052 | 298° | 20km/h | 26958m | 5.5m/s | -49.0°C | 3.6% | 0hPa | 2.5V | 00:00:00 | 01:52:14 | 00:00:00 | |
| DB0UT-7 | 2026-08-30 12:26:21 | 45.61693 | 9.18079 | 285° | 20km/h | 26941m | 3.5m/s | -49.0°C | 3.6% | 0hPa | 2.5V | 00:00:00 | 01:52:11 | 08:30:00 | |
| IW2NTF | 2026-08-30 12:26:19 | 45.61673 | 9.18102 | 264° | 40km/h | 26901m | 6.4m/s | -49.4°C | 3.6% | 0hPa | 2.7V | 08:30:00 | 01:52:04 | 00:00:00 | |
| NBG1-10 | 2026-08-30 12:26:17 | 45.61677 | 9.18083 | 15° | 16km/h | 26920m | 2.1m/s | -49.2°C | 3.5% | 0hPa | 2.7V | 00:00:00 | 01:52:07 | 00:00:00 | |
| DO3MHA-11 | 2026-08-30 12:26:14 | 45.61673 | 9.18101 | 265° | 26km/h | 26901m | 6.4m/s | -49.3°C | 3.6% | 0hPa | 2.7V | 00:00:00 | 01:52:04 | 00:00:00 | |
| IW2NTF | 2026-08-30 12:26:10 | 45.61659 | 9.18155 | 253° | 26km/h | 26846m | 5.1m/s | -49°C | 3.6% | 0hPa | 2.7V | 08:30:00 | 01:51:54 | 00:00:00 | |
| OE5DRO-10 | 2026-08-30 12:26:07 | 45.61655 | 9.18126 | 291° | 18km/h | 26864m | 7.0m/s | -49.1°C | 3.6% | 0hPa | 2.5V | 00:00:00 | 00:00:00 | 00:00:00 | |
| DO3MHA-11 | 2026-08-30 12:26:04 | 45.61659 | 9.18155 | 254° | 15km/h | 26846m | 5.0m/s | -48.9°C | 3.6% | 0hPa | 2.7V | 00:00:00 | 01:51:54 | 08:30:00 | |
| IW2NTF | 2026-08-30 12:25:59 | 45.61654 | 9.18191 | 243° | 16km/h | 26789m | 5.6m/s | -48.9°C | 3.5% | 0hPa | 2.7V | 08:30:00 | 01:51:44 | 00:00:00 | |
| S52SK | 2026-08-30 12:25:58 | 45.61650 | 9.18174 | 303° | 16km/h | 26818m | 5.2m/s | -48.9°C | 0% | 0hPa | 2.7V | 00:00:00 | 00:00:00 | 00:00:00 | |
| S52SK | 2026-08-30 12:25:54 | 45.61653 | 9.18191 | 244° | 16km/h | 26789m | 5.6m/s | -48.9°C | 0% | 0hPa | 2.7V | 00:00:00 | 00:00:00 | 00:00:00 | |
| DB0UT-7 | 2026-08-30 12:25:51 | 45.61652 | 9.18215 | 307° | 15km/h | 26774m | 4.3m/s | -48.9°C | 3.4% | 0hPa | 2.7V | 00:00:00 | 00:00:00 | 00:00:00 | |
| IW2NTF | 2026-08-30 12:25:49 | 45.61647 | 9.18238 | 269° | 24km/h | 26733m | 4m/s | -49°C | 3.5% | 0hPa | 2.7V | 08:30:00 | 01:51:34 | 00:00:00 | |
| OE5DRO-10 | 2026-08-30 12:25:48 | 45.61643 | 9.18217 | 63° | 13km/h | 26756m | 3.6m/s | -49.0°C | 3.5% | 0hPa | 2.5V | 00:00:00 | 00:00:00 | 00:00:00 | |
| IW2NTF | 2026-08-30 12:25:39 | 45.61647 | 9.18256 | 111° | 13km/h | 26677m | 5.3m/s | -49.3°C | 3.6% | 0hPa | 2.5V | 08:30:00 | 01:51:24 | 00:00:00 | |
| DO3MHA-11 | 2026-08-30 12:25:34 | 45.61646 | 9.18256 | 112° | 15km/h | 26678m | 5.3m/s | -49.3°C | 3.6% | 0hPa | 2.5V | 00:00:00 | 01:51:24 | 00:00:00 | |
| IW2NTF | 2026-08-30 12:25:29 | 45.61661 | 9.18247 | 173° | 7km/h | 26624m | 6.2m/s | -49.2°C | 3.5% | 0hPa | 2.5V | 08:30:00 | 01:51:14 | 00:00:00 | |
| OE5DRO-10 | 2026-08-30 12:25:29 | 45.61646 | 9.18265 | 232° | 13km/h | 26651m | 3.9m/s | -49.3°C | 3.6% | 0hPa | 2.6V | 00:00:00 | 00:00:00 | 00:00:00 | |
| DO3MHA-11 | 2026-08-30 12:25:24 | 45.61661 | 9.18247 | 174° | 15km/h | 26625m | 6.2m/s | -49.2°C | 3.5% | 0hPa | 2.6V | 00:00:00 | 01:51:14 | 00:00:00 | |
| DB0UT-7 | 2026-08-30 12:25:21 | 45.61662 | 9.18258 | 277° | 18km/h | 26610m | 3.6m/s | -49.3°C | 3.5% | 0hPa | 2.6V | 00:00:00 | 01:51:11 | 00:00:00 | |
| IW2NTF | 2026-08-30 12:25:17 | 45.61667 | 9.18232 | 278° | 11km/h | 26568m | 4.2m/s | -49.4°C | 3.6% | 0hPa | 2.6V | 08:30:00 | 01:51:04 | 00:00:00 | |
| DO3MHA-11 | 2026-08-30 12:25:14 | 45.61667 | 9.18232 | 279° | 13km/h | 26569m | 4.2m/s | -49.4°C | 3.6% | 0hPa | 2.5V | 00:00:00 | 01:51:04 | 00:00:00 | |
| NBG1-10 | 2026-08-30 12:25:11 | 45.61667 | 9.18227 | 95° | 18km/h | 26552m | 6.9m/s | -49.3°C | 3.7% | 0hPa | 2.5V | 00:00:00 | 01:51:01 | 00:00:00 | |
| OE5DRO-10 | 2026-08-30 12:25:10 | 45.61667 | 9.18218 | 87° | 18km/h | 26546m | 4.5m/s | -49.3°C | 3.6% | 0hPa | 2.5V | 00:00:00 | 00:00:00 | 00:00:00 | |
| DO3MHA-11 | 2026-08-30 12:25:04 | 45.61656 | 9.18207 | 91° | 22km/h | 26514m | 7.8m/s | -49.3°C | 3.6% | 0hPa | 2.5V | 00:00:00 | 01:50:54 | 00:00:00 | |
| IW2NTF | 2026-08-30 12:25:03 | 45.61655 | 9.18179 | 69° | 22km/h | 26499m | 3.5m/s | -49.4°C | 3.6% | 0hPa | 2.7V | 08:30:00 | 01:50:51 | 00:00:00 | |
| IW2NTF | 2026-08-30 12:24:56 | 45.61618 | 9.18156 | 6° | 16km/h | 26440m | 5.1m/s | -49.2°C | 3.5% | 0hPa | 2.7V | 08:30:00 | 01:50:41 | 00:00:00 | |
| DO3MHA-11 | 2026-08-30 12:24:54 | 45.61631 | 9.18174 | 64° | 16km/h | 26456m | 5.7m/s | -49.2°C | 3.5% | 0hPa | 2.7V | 00:00:00 | 01:50:44 | 00:00:00 | |
| DB0UT-7 | 2026-08-30 12:24:51 | 45.61619 | 9.18156 | 7° | 22km/h | 26440m | 5.0m/s | -49.1°C | 3.5% | 0hPa | 2.7V | 00:00:00 | 00:00:00 | 00:00:00 | |
| S52SK | 2026-08-30 12:24:50 | 45.61618 | 9.18156 | 8° | 16km/h | 26440m | 5.1m/s | -49.2°C | 0% | 0hPa | 2.5V | 00:00:00 | 00:00:00 | 00:00:00 | |
| DK5PH-5 | 2026-08-30 12:24:44 | 45.61596 | 9.18155 | 348° | 26km/h | 26400m | 5.8m/s | 0°C | 0% | 0hPa | 2.5V | 00:00:00 | 01:50:34 | 00:00:00 | |
| IW2NTF | 2026-08-30 12:24:42 | 45.61577 | 9.18140 | 82° | 4km/h | 26374m | 3.3m/s | -49.1°C | 3.5% | 0hPa | 2.5V | 08:30:00 | 01:50:29 | 00:00:00 | |
| NBG1-10 | 2026-08-30 12:24:38 | 45.61576 | 9.18141 | 305° | 27km/h | 26369m | 6.8m/s | -49.1°C | 3.5% | 0hPa | 2.7V | 00:00:00 | 01:50:28 | 00:00:00 | |
| DO3MHA-11 | 2026-08-30 12:24:34 | 45.61549 | 9.18160 | 10° | 27km/h | 26346m | 7.2m/s | -49.2°C | 3.4% | 0hPa | 2.7V | 00:00:00 | 01:50:24 | 08:30:00 | |
| OE5DRO-10 | 2026-08-30 12:24:32 | 45.61536 | 9.18149 | 47° | 27km/h | 26334m | 4.3m/s | -49.3°C | 3.5% | 0hPa | 2.7V | 00:00:00 | 00:00:00 | 00:00:00 | |
| IW2NTF | 2026-08-30 12:24:30 | 45.61526 | 9.18152 | 303° | 27km/h | 26316m | 5.6m/s | -49.3°C | 3.5% | 0hPa | 2.7V | 08:30:00 | 01:50:19 | 00:00:00 | |
| DO3MHA-11 | 2026-08-30 12:24:24 | 45.61494 | 9.18171 | 358° | 26km/h | 26289m | 5.2m/s | -49.2°C | 3.6% | 0hPa | 2.5V | 00:00:00 | 01:50:14 | 00:00:00 | |
| DB0UT-7 | 2026-08-30 12:24:21 | 45.61476 | 9.18184 | 314° | 29km/h | 26271m | 5.0m/s | -49.2°C | 3.6% | 0hPa | 2.5V | 00:00:00 | 01:50:11 | 00:00:00 | |
| IW2NTF | 2026-08-30 12:24:20 | 45.61468 | 9.18193 | 345° | 18km/h | 26260m | 6.5m/s | -49.4°C | 3.5% | 0hPa | 2.5V | 08:30:00 | 01:50:09 | 00:00:00 | |
| DO3MHA-11 | 2026-08-30 12:24:14 | 45.61442 | 9.18218 | 294° | 29km/h | 26231m | 4.2m/s | -49.4°C | 3.5% | 0hPa | 2.5V | 00:00:00 | 01:50:04 | 00:00:00 | |
| OE5DRO-10 | 2026-08-30 12:24:13 | 45.61439 | 9.18227 | 301° | 27km/h | 26227m | 4.3m/s | -49.4°C | 3.5% | 0hPa | 2.5V | 00:00:00 | 00:00:00 | 08:30:00 | |
| IW2NTF | 2026-08-30 12:24:10 | 45.61423 | 9.18235 | 329° | 27km/h | 26203m | 6m/s | -49.7°C | 3.5% | 0hPa | 2.7V | 08:30:00 | 01:49:59 | 00:00:00 | |
| NBG1-10 | 2026-08-30 12:24:05 | 45.61400 | 9.18283 | 304° | 31km/h | 26179m | 5.9m/s | -49.8°C | 3.6% | 0hPa | 2.7V | 00:00:00 | 01:49:55 | 00:00:00 | |
| DO3MHA-11 | 2026-08-30 12:24:04 | 45.61395 | 9.18292 | 318° | 29km/h | 26173m | 5.7m/s | -49.8°C | 3.6% | 0hPa | 2.5V | 00:00:00 | 01:49:54 | 00:00:00 | |
| IW2NTF | 2026-08-30 12:24:00 | 45.61367 | 9.18330 | 307° | 44km/h | 26145m | 4.8m/s | -50°C | 3.6% | 0hPa | 2.7V | 08:30:00 | 01:49:49 | 00:00:00 | |
| S52SK | 2026-08-30 12:23:56 | 45.61355 | 9.18349 | 319° | 29km/h | 26134m | 6.6m/s | -50.0°C | 0% | 0hPa | 2.7V | 00:00:00 | 00:00:00 | 00:00:00 | |
| DO3MHA-11 | 2026-08-30 12:23:54 | 45.61347 | 9.18369 | 277° | 33km/h | 26118m | 6.8m/s | -50.2°C | 3.8% | 0hPa | 2.7V | 00:00:00 | 01:49:44 | 00:00:00 | |
| DB0UT-7 | 2026-08-30 12:23:51 | 45.61339 | 9.18407 | 307° | 31km/h | 26102m | 5.4m/s | -50.2°C | 3.7% | 0hPa | 2.7V | 00:00:00 | 00:00:00 | 00:00:00 | |
| IW2NTF | 2026-08-30 12:23:50 | 45.61318 | 9.18425 | 332° | 24km/h | 26085m | 3.2m/s | -50.3°C | 3.6% | 0hPa | 2.7V | 08:30:00 | 01:49:38 | 00:00:00 | |
| DO3MHA-11 | 2026-08-30 12:23:44 | 45.61310 | 9.18469 | 277° | 31km/h | 26060m | 5.3m/s | -50.2°C | 3.7% | 0hPa | 2.7V | 00:00:00 | 01:49:34 | 00:00:00 | |
| OE5DXL-15 | 2026-08-30 12:23:41 | 45.61298 | 9.18499 | 326° | 27km/h | 26043m | 5.0m/s | 0°C | 0% | 0hPa | 2.7V | 00:00:00 | 00:00:00 | 00:00:00 | |
| IW2NTF | 2026-08-30 12:23:40 | 45.61287 | 9.18521 | 284° | 29km/h | 26026m | 5.4m/s | -50.3°C | 3.7% | 0hPa | 2.7V | 08:30:00 | 01:49:28 | 00:00:00 | |
| OE5DRO-10 | 2026-08-30 12:23:35 | 45.61279 | 9.18550 | 303° | 31km/h | 26009m | 5.5m/s | -50.4°C | 3.8% | 0hPa | 2.5V | 00:00:00 | 00:00:00 | 00:00:00 | |
| DO3MHA-11 | 2026-08-30 12:23:34 | 45.61275 | 9.18558 | 295° | 26km/h | 26004m | 4.6m/s | -50.3°C | 3.8% | 0hPa | 2.5V | 00:00:00 | 01:49:24 | 00:00:00 | |
| NBG1-10 | 2026-08-30 12:23:32 | 45.61273 | 9.18580 | 269° | 22km/h | 25991m | 6.0m/s | -50.4°C | 3.7% | 0hPa | 2.7V | 00:00:00 | 01:49:22 | 00:00:00 | |
| IW2NTF | 2026-08-30 12:23:31 | 45.61263 | 9.18617 | 303° | 22km/h | 25964m | 3.1m/s | -50.4°C | 3.8% | 0hPa | 2.7V | 08:30:00 | 01:49:17 | 00:00:00 | |
| IW2NTF | 2026-08-30 12:23:21 | 45.61255 | 9.18700 | 253° | 29km/h | 25906m | 6.6m/s | -50.3°C | 3.7% | 0hPa | 2.7V | 08:30:00 | 01:49:07 | 00:00:00 | |
| OE5DRO-10 | 2026-08-30 12:23:15 | 45.61262 | 9.18721 | 240° | 22km/h | 25895m | 5.1m/s | -50.3°C | 3.8% | 0hPa | 2.7V | 00:00:00 | 00:00:00 | 00:00:00 | |
| DK5PH-5 | 2026-08-30 12:23:14 | 45.61265 | 9.18728 | 245° | 18km/h | 25889m | 6.2m/s | 0°C | 0% | 0hPa | 2.7V | 00:00:00 | 01:49:04 | 00:00:00 | |
| IW2NTF | 2026-08-30 12:23:10 | 45.61265 | 9.18771 | 234° | 2km/h | 25842m | 7.2m/s | -50.7°C | 3.6% | 0hPa | 2.7V | 08:30:00 | 01:48:56 | 00:00:00 | |
| S52SK | 2026-08-30 12:23:06 | 45.61264 | 9.18768 | 239° | 16km/h | 25849m | 6.5m/s | -50.6°C | 0% | 0hPa | 2.6V | 00:00:00 | 00:00:00 | 00:00:00 | |
| IW2NTF | 2026-08-30 12:23:00 | 45.61259 | 9.18790 | 309° | 5km/h | 25789m | 4.7m/s | -50.7°C | 3.9% | 0hPa | 2.6V | 08:30:00 | 01:48:46 | 00:00:00 | |
| NBG1-10 | 2026-08-30 12:22:59 | 45.61263 | 9.18793 | 297° | 16km/h | 25804m | 7.2m/s | -50.7°C | 3.8% | 0hPa | 2.6V | 00:00:00 | 01:48:49 | 00:00:00 | |
| OE5DRO-10 | 2026-08-30 12:22:56 | 45.61259 | 9.18790 | 310° | 18km/h | 25789m | 4.6m/s | -50.6°C | 3.9% | 0hPa | 2.6V | 00:00:00 | 00:00:00 | 00:00:00 | |
| IW2NTF | 2026-08-30 12:22:51 | 45.61252 | 9.18835 | 259° | 33km/h | 25732m | 6.5m/s | -50.7°C | 3.8% | 0hPa | 2.6V | 08:30:00 | 01:48:36 | 00:00:00 | |
| DK5PH-5 | 2026-08-30 12:22:44 | 45.61253 | 9.18859 | 277° | 22km/h | 25722m | 4.5m/s | 0°C | 0% | 0hPa | 2.5V | 00:00:00 | 01:48:34 | 00:00:00 | |
| IW2NTF | 2026-08-30 12:22:40 | 45.61245 | 9.18891 | 273° | 18km/h | 25676m | 6m/s | -50.7°C | 3.9% | 0hPa | 2.5V | 08:30:00 | 01:48:26 | 00:00:00 | |
| OE5DRO-10 | 2026-08-30 12:22:37 | 45.61244 | 9.18883 | 265° | 18km/h | 25682m | 4.8m/s | -50.6°C | 3.9% | 0hPa | 2.7V | 00:00:00 | 00:00:00 | 00:00:00 | |
| IW2NTF | 2026-08-30 12:22:30 | 45.61227 | 9.18936 | 272° | 16km/h | 25619m | 6.6m/s | -50.7°C | 3.9% | 0hPa | 2.7V | 08:30:00 | 01:48:16 | 00:00:00 | |
| NBG1-10 | 2026-08-30 12:22:26 | 45.61227 | 9.18936 | 273° | 24km/h | 25619m | 6.6m/s | -50.6°C | 3.9% | 0hPa | 2.7V | 00:00:00 | 01:48:16 | 08:30:00 | |
| S52SK | 2026-08-30 12:22:24 | 45.61226 | 9.18944 | 282° | 27km/h | 25613m | 6.3m/s | -50.6°C | 0% | 0hPa | 2.7V | 00:00:00 | 00:00:00 | 00:00:00 | |
| DB0UT-7 | 2026-08-30 12:22:21 | 45.61208 | 9.18970 | 360° | 29km/h | 25590m | 5.2m/s | -50.7°C | 3.7% | 0hPa | 2.7V | 00:00:00 | 01:48:11 | 00:00:00 | |
| IW2NTF | 2026-08-30 12:22:20 | 45.61196 | 9.19002 | 288° | 29km/h | 25562m | 5.5m/s | -50.7°C | 3.7% | 0hPa | 2.7V | 08:30:00 | 01:48:06 | 00:00:00 | |
| S52SK | 2026-08-30 12:22:19 | 45.61200 | 9.18974 | 307° | 16km/h | 25581m | 6.8m/s | -50.7°C | 0% | 0hPa | 2.5V | 00:00:00 | 00:00:00 | 00:00:00 | |
| OE5DRO-10 | 2026-08-30 12:22:18 | 45.61199 | 9.18981 | 278° | 29km/h | 25574m | 7.1m/s | -50.6°C | 3.7% | 0hPa | 2.5V | 00:00:00 | 00:00:00 | 00:00:00 | |
| DK5PH-5 | 2026-08-30 12:22:11 | 45.61172 | 9.19025 | 305° | 29km/h | 25534m | 6.4m/s | 0°C | 0% | 0hPa | 2.6V | 00:00:00 | 01:48:01 | 00:00:00 | |
| IW2NTF | 2026-08-30 12:22:09 | 45.61152 | 9.19056 | 348° | 31km/h | 25505m | 4.1m/s | -50.7°C | 3.8% | 0hPa | 2.6V | 08:30:00 | 01:47:56 | 00:00:00 | |
| IW2NTF | 2026-08-30 12:21:59 | 45.61102 | 9.19145 | 307° | 33km/h | 25450m | 6.6m/s | -50.8°C | 3.8% | 0hPa | 2.6V | 08:30:00 | 01:47:46 | 00:00:00 | |
| DL1ZP-14 | 2026-08-30 12:21:54 | 45.61091 | 9.19189 | 305° | 20km/h | 25426m | 6.2m/s | -50.8°C | 1.1% | -1.0hPa | 2.5V | 00:00:00 | 00:00:00 | 00:00:00 | |
| NBG1-10 | 2026-08-30 12:21:53 | 45.61093 | 9.19181 | 285° | 20km/h | 25433m | 6.2m/s | -50.7°C | 3.8% | 0hPa | 2.6V | 00:00:00 | 01:47:43 | 00:00:00 | |
| DB0UT-7 | 2026-08-30 12:21:51 | 45.61087 | 9.19194 | 328° | 20km/h | 25421m | 5.0m/s | -50.7°C | 3.8% | 0hPa | 2.6V | 00:00:00 | 00:00:00 | 08:30:00 | |
| IW2NTF | 2026-08-30 12:21:49 | 45.61058 | 9.19246 | 358° | 13km/h | 25382m | 5.8m/s | -50.9°C | 3.9% | 0hPa | 2.5V | 08:30:00 | 01:47:34 | 00:00:00 | |
| DK5PH-5 | 2026-08-30 12:21:41 | 45.61049 | 9.19256 | 293° | 16km/h | 25366m | 7.1m/s | 0°C | 0% | 0hPa | 2.5V | 00:00:00 | 01:47:31 | 00:00:00 | |
| OE5DRO-10 | 2026-08-30 12:21:40 | 45.61046 | 9.19267 | 292° | 18km/h | 25360m | 4.7m/s | -50.8°C | 3.7% | 0hPa | 2.5V | 00:00:00 | 00:00:00 | 00:00:00 | |
| IW2NTF | 2026-08-30 12:21:39 | 45.61026 | 9.19286 | 230° | 9km/h | 25326m | 6m/s | -50.9°C | 3.7% | 0hPa | 2.5V | 08:30:00 | 01:47:24 | 00:00:00 | |
| IW2NTF | 2026-08-30 12:21:28 | 45.61007 | 9.19329 | 121° | 7km/h | 25270m | 6.5m/s | -51°C | 3.7% | 0hPa | 2.5V | 08:30:00 | 01:47:14 | 00:00:00 | |
| DL1ZP-14 | 2026-08-30 12:21:23 | 45.61007 | 9.19326 | 60° | 7km/h | 25264m | 5.6m/s | -51.1°C | 1.1% | -1.0hPa | 2.5V | 00:00:00 | 00:00:00 | 00:00:00 | |
| DB0UT-7 | 2026-08-30 12:21:21 | 45.61003 | 9.19326 | 311° | 20km/h | 25253m | 6.4m/s | -51.2°C | 3.7% | 0hPa | 2.7V | 00:00:00 | 01:47:11 | 00:00:00 | |
| NBG1-10 | 2026-08-30 12:21:20 | 45.61002 | 9.19330 | 278° | 16km/h | 25247m | 6.5m/s | -51.1°C | 3.8% | 0hPa | 2.7V | 00:00:00 | 01:47:10 | 00:00:00 | |
| S52SK | 2026-08-30 12:21:17 | 45.61001 | 9.19341 | 291° | 9km/h | 25237m | 4.4m/s | -51.2°C | 0% | 0hPa | 2.7V | 00:00:00 | 00:00:00 | 00:00:00 | |
| IW2NTF | 2026-08-30 12:21:16 | 45.60997 | 9.19330 | 117° | 11km/h | 25215m | 4.6m/s | -51.3°C | 3.8% | 0hPa | 2.7V | 08:30:00 | 01:47:04 | 00:00:00 | |
| DK5PH-5 | 2026-08-30 12:21:11 | 45.61003 | 9.19340 | 275° | 18km/h | 25198m | 2.6m/s | 0°C | 0% | 0hPa | 2.7V | 00:00:00 | 01:47:01 | 00:00:00 | |
| IW2NTF | 2026-08-30 12:21:04 | 45.60988 | 9.19328 | 231° | 24km/h | 25159m | 5.4m/s | -51.5°C | 3.9% | 0hPa | 2.7V | 08:30:00 | 01:46:54 | 00:00:00 | |
| OE5DRO-10 | 2026-08-30 12:21:02 | 45.60988 | 9.19345 | 312° | 18km/h | 25148m | 5.8m/s | -51.4°C | 3.8% | 0hPa | 2.7V | 00:00:00 | 00:00:00 | 00:00:00 | |
| IW2NTF | 2026-08-30 12:20:59 | 45.60963 | 9.19333 | 332° | 18km/h | 25102m | 6.8m/s | -51.5°C | 3.9% | 0hPa | 2.7V | 08:30:00 | 01:46:44 | 00:00:00 | |
| DL1ZP-14 | 2026-08-30 12:20:53 | 45.60946 | 9.19339 | 348° | 16km/h | 25086m | 5.7m/s | -51.5°C | 1.2% | -1.0hPa | 2.5V | 00:00:00 | 00:00:00 | 00:00:00 | |
| DB0UT-7 | 2026-08-30 12:20:51 | 45.60946 | 9.19339 | 349° | 22km/h | 25086m | 5.7m/s | -51.5°C | 3.8% | 0hPa | 2.7V | 00:00:00 | 00:00:00 | 00:00:00 | |
| NBG1-10 | 2026-08-30 12:20:47 | 45.60939 | 9.19342 | 356° | 24km/h | 25063m | 6.7m/s | -51.3°C | 3.9% | 0hPa | 2.7V | 00:00:00 | 01:46:37 | 00:00:00 | |
| IW2NTF | 2026-08-30 12:20:44 | 45.60916 | 9.19349 | 314° | 11km/h | 25034m | 4.7m/s | -51.4°C | 3.8% | 0hPa | 2.7V | 08:30:00 | 01:46:32 | 00:00:00 | |
| OE5DRO-10 | 2026-08-30 12:20:42 | 45.60916 | 9.19349 | 315° | 26km/h | 25035m | 4.7m/s | -51.3°C | 3.8% | 0hPa | 2.7V | 00:00:00 | 00:00:00 | 00:00:00 | |
| DK5PH-5 | 2026-08-30 12:20:41 | 45.60913 | 9.19352 | 330° | 27km/h | 25030m | 4.8m/s | 0°C | 0% | 0hPa | 2.7V | 00:00:00 | 01:46:31 | 00:00:00 | |
| S52SK | 2026-08-30 12:20:38 | 45.60901 | 9.19358 | 349° | 35km/h | 25017m | 6.5m/s | -51.4°C | 0% | 0hPa | 2.7V | 00:00:00 | 00:00:00 | 00:00:00 | |
| IW2NTF | 2026-08-30 12:20:37 | 45.60868 | 9.19371 | 346° | 35km/h | 24977m | 6.7m/s | -51.6°C | 3.9% | 0hPa | 2.7V | 08:30:00 | 01:46:22 | 00:00:00 | |
| S52SK | 2026-08-30 12:20:32 | 45.60875 | 9.19369 | 346° | 22km/h | 24984m | 6.6m/s | -51.5°C | 0% | 0hPa | 2.6V | 00:00:00 | 00:00:00 | 00:00:00 | |
| IW2NTF | 2026-08-30 12:20:24 | 45.60794 | 9.19408 | 339° | 26km/h | 24922m | 6.7m/s | -51.6°C | 3.9% | 0hPa | 2.6V | 08:30:00 | 01:46:12 | 00:00:00 | |
| OE5DXL-15 | 2026-08-30 12:20:23 | 45.60802 | 9.19405 | 346° | 20km/h | 24928m | 3.6m/s | 0°C | 0% | 0hPa | 2.7V | 00:00:00 | 01:46:13 | 00:00:00 | |
| DB0UT-7 | 2026-08-30 12:20:21 | 45.60790 | 9.19412 | 318° | 20km/h | 24916m | 7.5m/s | -51.5°C | 3.9% | 0hPa | 2.7V | 00:00:00 | 01:46:11 | 00:00:00 | |
| S52SK | 2026-08-30 12:20:20 | 45.60790 | 9.19412 | 318° | 13km/h | 24916m | 7.5m/s | -51.5°C | 0% | 0hPa | 2.7V | 00:00:00 | 00:00:00 | 00:00:00 | |
| IW2NTF | 2026-08-30 12:20:17 | 45.60747 | 9.19436 | 322° | 18km/h | 24863m | 6.2m/s | -51.8°C | 3.9% | 0hPa | 2.7V | 08:30:00 | 01:46:02 | 00:00:00 | |
| NBG1-10 | 2026-08-30 12:20:14 | 45.60754 | 9.19430 | 342° | 22km/h | 24875m | 5.8m/s | -51.6°C | 3.9% | 0hPa | 2.7V | 00:00:00 | 01:46:04 | 00:00:00 | |
| IW2NTF | 2026-08-30 12:20:04 | 45.60699 | 9.19454 | 330° | 20km/h | 24807m | 6.5m/s | -52.1°C | 4% | 0hPa | 2.7V | 08:30:00 | 01:45:52 | 00:00:00 | |
| OE5DRO-10 | 2026-08-30 12:20:04 | 45.60710 | 9.19447 | 347° | 24km/h | 24818m | 6.0m/s | -52.0°C | 3.9% | 0hPa | 2.7V | 00:00:00 | 00:00:00 | 00:00:00 | |
| IW2NTF | 2026-08-30 12:19:51 | 45.60656 | 9.19490 | 321° | 31km/h | 24744m | 7.1m/s | -52.4°C | 4% | 0hPa | 2.7V | 08:30:00 | 01:45:41 | 00:00:00 | |
| DB0UT-7 | 2026-08-30 12:19:51 | 45.60656 | 9.19490 | 322° | 22km/h | 24744m | 7.0m/s | -52.3°C | 4.0% | 0hPa | 2.7V | 00:00:00 | 00:00:00 | 00:00:00 | |
| OE5DRO-10 | 2026-08-30 12:19:45 | 45.60625 | 9.19538 | 302° | 20km/h | 24711m | 5.5m/s | -52.2°C | 4.0% | 0hPa | 2.7V | 00:00:00 | 00:00:00 | 00:00:00 | |
| IW2NTF | 2026-08-30 12:19:44 | 45.60609 | 9.19554 | 317° | 16km/h | 24688m | 6.9m/s | -52.2°C | 4% | 0hPa | 2.7V | 08:30:00 | 01:45:31 | 00:00:00 | |
| S52SK | 2026-08-30 12:19:43 | 45.60622 | 9.19543 | 325° | 20km/h | 24705m | 6.2m/s | -52.3°C | 0% | 0hPa | 2.7V | 00:00:00 | 00:00:00 | 00:00:00 | |
| NBG1-10 | 2026-08-30 12:19:41 | 45.60609 | 9.19554 | 318° | 18km/h | 24688m | 6.8m/s | -52.2°C | 4.0% | 0hPa | 2.7V | 00:00:00 | 01:45:31 | 00:00:00 | |
| IW2NTF | 2026-08-30 12:19:32 | 45.60579 | 9.19608 | 309° | 31km/h | 24623m | 6.9m/s | -52.3°C | 4.2% | 0hPa | 2.7V | 08:30:00 | 01:45:20 | 00:00:00 | |
| OE5DRO-10 | 2026-08-30 12:19:26 | 45.60562 | 9.19637 | 270° | 16km/h | 24602m | 6.5m/s | -52.2°C | 4.0% | 0hPa | 2.5V | 00:00:00 | 00:00:00 | 00:00:00 | |
| IW2NTF | 2026-08-30 12:19:21 | 45.60548 | 9.19669 | 295° | 24km/h | 24568m | 6.2m/s | -52.2°C | 4.1% | 0hPa | 2.6V | 08:30:00 | 01:45:10 | 00:00:00 | |
| DB0UT-7 | 2026-08-30 12:19:21 | 45.60552 | 9.19660 | 309° | 20km/h | 24574m | 4.4m/s | -52.2°C | 4.0% | 0hPa | 2.7V | 00:00:00 | 01:45:11 | 00:00:00 | |
| IW2NTF | 2026-08-30 12:19:15 | 45.60537 | 9.19718 | 265° | 20km/h | 24510m | 6m/s | -52.1°C | 4.1% | 0hPa | 2.7V | 08:30:00 | 01:45:00 | 00:00:00 | |
| NBG1-10 | 2026-08-30 12:19:08 | 45.60534 | 9.19736 | 303° | 18km/h | 24498m | 4.3m/s | -52.0°C | 4.1% | 0hPa | 2.5V | 00:00:00 | 01:44:58 | 00:00:00 | |
| OE5DRO-10 | 2026-08-30 12:19:07 | 45.60530 | 9.19743 | 306° | 18km/h | 24494m | 3.1m/s | -52.0°C | 4.0% | 0hPa | 2.7V | 00:00:00 | 00:00:00 | 00:00:00 | |
| IW2NTF | 2026-08-30 12:19:00 | 45.60529 | 9.19769 | 304° | 35km/h | 24455m | 4.4m/s | -52.1°C | 3.9% | 0hPa | 2.7V | 08:30:00 | 01:44:50 | 00:00:00 | |
| IW2NTF | 2026-08-30 12:18:55 | 45.60542 | 9.19830 | 222° | 11km/h | 24387m | 5.3m/s | -52.1°C | 3.9% | 0hPa | 2.7V | 08:30:00 | 01:44:38 | 00:00:00 | |
| DO3MHA-11 | 2026-08-30 12:18:55 | 45.60538 | 9.19798 | 197° | 16km/h | 24426m | 5.0m/s | -52.0°C | 4.0% | 0hPa | 2.6V | 00:00:00 | 01:44:45 | 00:00:00 | |
| DB0UT-7 | 2026-08-30 12:18:51 | 45.60540 | 9.19820 | 294° | 20km/h | 24404m | 5.7m/s | -52.2°C | 3.9% | 0hPa | 2.6V | 00:00:00 | 00:00:00 | 00:00:00 | |
| OE5DRO-10 | 2026-08-30 12:18:48 | 45.60542 | 9.19830 | 223° | 18km/h | 24388m | 5.3m/s | -52.1°C | 3.9% | 0hPa | 2.7V | 00:00:00 | 00:00:00 | 00:00:00 | |
| DO3MHA-11 | 2026-08-30 12:18:43 | 45.60552 | 9.19858 | 218° | 22km/h | 24359m | 6.6m/s | -52.1°C | 4.1% | 0hPa | 2.7V | 00:00:00 | 01:44:33 | 00:00:00 | |
| IW2NTF | 2026-08-30 12:18:41 | 45.60555 | 9.19878 | 296° | 16km/h | 24331m | 3.5m/s | -52.4°C | 3.9% | 0hPa | 2.7V | 08:30:00 | 01:44:28 | 00:00:00 | |
| NBG1-10 | 2026-08-30 12:18:35 | 45.60564 | 9.19895 | 213° | 24km/h | 24314m | 4.4m/s | -52.3°C | 4.0% | 0hPa | 2.5V | 00:00:00 | 01:44:25 | 00:00:00 | |
| IW2NTF | 2026-08-30 12:18:33 | 45.60572 | 9.19936 | 240° | 20km/h | 24275m | 4.8m/s | -52.4°C | 3.9% | 0hPa | 2.5V | 08:30:00 | 01:44:18 | 00:00:00 | |
| DO3MHA-11 | 2026-08-30 12:18:33 | 45.60575 | 9.19910 | 247° | 22km/h | 24304m | 6.2m/s | -52.3°C | 4.0% | 0hPa | 2.6V | 00:00:00 | 01:44:23 | 08:30:00 | |
| OE5DRO-10 | 2026-08-30 12:18:29 | 45.60571 | 9.19930 | 257° | 24km/h | 24280m | 5.0m/s | -52.3°C | 4.0% | 0hPa | 2.5V | 00:00:00 | 00:00:00 | 08:30:00 | |
| DB0UT-7 | 2026-08-30 12:18:21 | 45.60583 | 9.19989 | 161° | 18km/h | 24236m | 3.8m/s | -52.7°C | 4.0% | 0hPa | 2.5V | 00:00:00 | 01:44:11 | 00:00:00 | |
| IW2NTF | 2026-08-30 12:18:20 | 45.60584 | 9.20001 | 283° | 29km/h | 24219m | 5.6m/s | -52.9°C | 4% | 0hPa | 2.5V | 08:30:00 | 01:44:08 | 00:00:00 | |
| IW2NTF | 2026-08-30 12:18:13 | 45.60607 | 9.20062 | 93° | 0km/h | 24164m | 5.2m/s | -53.2°C | 4.2% | 0hPa | 2.7V | 08:30:00 | 01:43:58 | 00:00:00 | |
| DO3MHA-11 | 2026-08-30 12:18:11 | 45.60603 | 9.20053 | 239° | 20km/h | 24182m | 4.5m/s | -53.2°C | 4.2% | 0hPa | 2.7V | 00:00:00 | 01:44:01 | 00:00:00 | |
| OE5DRO-10 | 2026-08-30 12:18:10 | 45.60605 | 9.20059 | 244° | 15km/h | 24177m | 5.3m/s | -53.2°C | 4.2% | 0hPa | 2.7V | 00:00:00 | 00:00:00 | 00:00:00 | |
| NBG1-10 | 2026-08-30 12:18:02 | 45.60619 | 9.20095 | 197° | 13km/h | 24136m | 6.8m/s | -53.0°C | 4.1% | 0hPa | 2.7V | 00:00:00 | 01:43:52 | 00:00:00 | |
| IW2NTF | 2026-08-30 12:18:00 | 45.60625 | 9.20086 | 295° | 9km/h | 24112m | 7m/s | -53.1°C | 4% | 0hPa | 2.7V | 08:30:00 | 01:43:48 | 00:00:00 | |
| DO3MHA-11 | 2026-08-30 12:17:59 | 45.60625 | 9.20085 | 82° | 15km/h | 24119m | 4.5m/s | -53.0°C | 4.0% | 0hPa | 2.7V | 00:00:00 | 01:43:49 | 00:00:00 | |
| IW2NTF | 2026-08-30 12:17:53 | 45.60640 | 9.20108 | 218° | 4km/h | 24054m | 6m/s | -53.4°C | 4.3% | 0hPa | 2.5V | 08:30:00 | 01:43:37 | 00:00:00 | |
| DB0UT-7 | 2026-08-30 12:17:51 | 45.60632 | 9.20103 | 136° | 11km/h | 24075m | 4.9m/s | -53.3°C | 4.2% | 0hPa | 2.7V | 00:00:00 | 00:00:00 | 00:00:00 | |
| OE5DRO-10 | 2026-08-30 12:17:50 | 45.60635 | 9.20101 | 186° | 9km/h | 24070m | 5.5m/s | -53.4°C | 4.2% | 0hPa | 2.7V | 00:00:00 | 00:00:00 | 00:00:00 | |
| DO3MHA-11 | 2026-08-30 12:17:47 | 45.60640 | 9.20108 | 219° | 7km/h | 24054m | 6.0m/s | -53.4°C | 4.3% | 0hPa | 2.7V | 00:00:00 | 01:43:37 | 00:00:00 | |
| IW2NTF | 2026-08-30 12:17:36 | 45.60637 | 9.20092 | 250° | 7km/h | 23990m | 3.9m/s | -53.4°C | 4.2% | 0hPa | 2.7V | 08:30:00 | 01:43:25 | 00:00:00 | |
| DO3MHA-11 | 2026-08-30 12:17:36 | 45.60636 | 9.20089 | 235° | 9km/h | 23995m | 5.1m/s | -53.3°C | 4.2% | 0hPa | 2.6V | 00:00:00 | 01:43:26 | 00:00:00 | |
| OE5DRO-10 | 2026-08-30 12:17:31 | 45.60630 | 9.20082 | 39° | 16km/h | 23971m | 4.9m/s | -53.4°C | 4.2% | 0hPa | 2.6V | 00:00:00 | 00:00:00 | 00:00:00 | |
| NBG1-10 | 2026-08-30 12:17:29 | 45.60627 | 9.20082 | 286° | 22km/h | 23960m | 5.7m/s | -53.5°C | 4.2% | 0hPa | 2.7V | 00:00:00 | 01:43:19 | 08:30:00 | |
| IW2NTF | 2026-08-30 12:17:27 | 45.60623 | 9.20076 | 62° | 27km/h | 23939m | 5m/s | -53.6°C | 4.2% | 0hPa | 2.5V | 08:30:00 | 01:43:15 | 00:00:00 | |
| DO3MHA-11 | 2026-08-30 12:17:26 | 45.60625 | 9.20083 | 70° | 20km/h | 23945m | 7.5m/s | -53.5°C | 4.2% | 0hPa | 2.5V | 00:00:00 | 01:43:16 | 00:00:00 | |
| DB0UT-7 | 2026-08-30 12:17:21 | 45.60607 | 9.20068 | 305° | 22km/h | 23919m | 4.3m/s | -53.6°C | 4.1% | 0hPa | 2.7V | 00:00:00 | 01:43:11 | 08:30:00 | |
| IW2NTF | 2026-08-30 12:17:17 | 45.60592 | 9.20047 | 36° | 18km/h | 23889m | 5.9m/s | -54°C | 4.2% | 0hPa | 2.5V | 08:30:00 | 01:43:05 | 00:00:00 | |
| DO3MHA-11 | 2026-08-30 12:17:16 | 45.60595 | 9.20053 | 58° | 20km/h | 23894m | 2.9m/s | -53.8°C | 4.2% | 0hPa | 2.7V | 00:00:00 | 01:43:06 | 00:00:00 | |
| OE5DRO-10 | 2026-08-30 12:17:12 | 45.60580 | 9.20055 | 323° | 22km/h | 23873m | 4.7m/s | -54.0°C | 0% | 0hPa | 2.7V | 00:00:00 | 00:00:00 | 00:00:00 | |
| IW2NTF | 2026-08-30 12:17:06 | 45.60555 | 9.20045 | 317° | 16km/h | 23837m | 4.2m/s | -54.5°C | 4.4% | 0hPa | 2.7V | 08:30:00 | 01:42:55 | 00:00:00 | |
| DO3MHA-11 | 2026-08-30 12:17:06 | 45.60558 | 9.20041 | 321° | 22km/h | 23842m | 5.6m/s | -54.4°C | 4.4% | 0hPa | 2.6V | 00:00:00 | 01:42:56 | 00:00:00 | |
| IW2NTF | 2026-08-30 12:16:57 | 45.60501 | 9.20051 | 342° | 26km/h | 23782m | 5.5m/s | -54.7°C | 4.4% | 0hPa | 2.6V | 08:30:00 | 01:42:45 | 00:00:00 | |
| DO3MHA-11 | 2026-08-30 12:16:56 | 45.60507 | 9.20049 | 351° | 24km/h | 23788m | 4.5m/s | -54.6°C | 4.4% | 0hPa | 2.6V | 00:00:00 | 01:42:46 | 08:30:00 | |
| OE5DRO-10 | 2026-08-30 12:16:52 | 45.60482 | 9.20061 | 356° | 22km/h | 23768m | 4.6m/s | -54.5°C | 4.4% | 0hPa | 2.5V | 00:00:00 | 00:00:00 | 00:00:00 | |
| DB0UT-7 | 2026-08-30 12:16:51 | 45.60475 | 9.20060 | 14° | 20km/h | 23762m | 7.0m/s | -54.4°C | 4.4% | 0hPa | 2.5V | 00:00:00 | 00:00:00 | 00:00:00 | |
| IW2NTF | 2026-08-30 12:16:46 | 45.60448 | 9.20073 | 321° | 22km/h | 23731m | 5m/s | -54.4°C | 4.4% | 0hPa | 2.5V | 08:30:00 | 01:42:35 | 00:00:00 | |
| DO3MHA-11 | 2026-08-30 12:16:46 | 45.60452 | 9.20067 | 300° | 22km/h | 23735m | 3.1m/s | -54.4°C | 4.4% | 0hPa | 2.7V | 00:00:00 | 01:42:36 | 00:00:00 | |
| NBG1-10 | 2026-08-30 12:16:37 | 45.60409 | 9.20076 | 356° | 18km/h | 23688m | 5.9m/s | -54.6°C | 4.3% | 0hPa | 2.7V | 00:00:00 | 01:42:27 | 00:00:00 | |
| IW2NTF | 2026-08-30 12:16:36 | 45.60400 | 9.20074 | 9° | 24km/h | 23677m | 4.5m/s | -54.7°C | 4.4% | 0hPa | 2.7V | 08:30:00 | 01:42:25 | 00:00:00 | |
| DO3MHA-11 | 2026-08-30 12:16:36 | 45.60405 | 9.20075 | 17° | 18km/h | 23682m | 4.7m/s | -54.6°C | 4.3% | 0hPa | 2.5V | 00:00:00 | 01:42:26 | 00:00:00 | |
| OE5DRO-10 | 2026-08-30 12:16:33 | 45.60388 | 9.20075 | 335° | 16km/h | 23667m | 5.3m/s | -54.6°C | 4.5% | 0hPa | 2.5V | 00:00:00 | 00:00:00 | 00:00:00 | |
| IW2NTF | 2026-08-30 12:16:26 | 45.60359 | 9.20082 | 319° | 27km/h | 23624m | 4.2m/s | -54.7°C | 4.3% | 0hPa | 2.7V | 08:30:00 | 01:42:15 | 00:00:00 | |
| DO3MHA-11 | 2026-08-30 12:16:26 | 45.60364 | 9.20075 | 317° | 18km/h | 23629m | 6.5m/s | -54.7°C | 4.3% | 0hPa | 2.5V | 00:00:00 | 01:42:16 | 00:00:00 | |
| DB0UT-7 | 2026-08-30 12:16:21 | 45.60342 | 9.20077 | 56° | 18km/h | 23602m | 5.2m/s | -54.9°C | 4.4% | 0hPa | 2.5V | 00:00:00 | 01:42:11 | 00:00:00 | |
| IW2NTF | 2026-08-30 12:16:20 | 45.60326 | 9.20079 | 347° | 18km/h | 23570m | 4.5m/s | -55.1°C | 4.6% | 0hPa | 2.5V | 08:30:00 | 01:42:05 | 00:00:00 | |
| DO3MHA-11 | 2026-08-30 12:16:16 | 45.60330 | 9.20078 | 351° | 18km/h | 23575m | 4.9m/s | -55.0°C | 4.5% | 0hPa | 2.7V | 00:00:00 | 01:42:06 | 00:00:00 | |
| OE5DRO-10 | 2026-08-30 12:16:14 | 45.60321 | 9.20081 | 338° | 18km/h | 23565m | 5.8m/s | -55.1°C | 4.5% | 0hPa | 2.7V | 00:00:00 | 00:00:00 | 00:00:00 | |
| IW2NTF | 2026-08-30 12:16:10 | 45.60286 | 9.20086 | 312° | 26km/h | 23517m | 2.6m/s | -55.3°C | 4.7% | 0hPa | 2.7V | 08:30:00 | 01:41:55 | 00:00:00 | |
| DO3MHA-11 | 2026-08-30 12:16:06 | 45.60290 | 9.20080 | 301° | 20km/h | 23521m | 5.3m/s | -55.2°C | 4.8% | 0hPa | 2.7V | 00:00:00 | 01:41:56 | 00:00:00 | |
| NBG1-10 | 2026-08-30 12:16:04 | 45.60282 | 9.20091 | 340° | 18km/h | 23514m | 5.0m/s | -55.3°C | 4.6% | 0hPa | 2.7V | 00:00:00 | 01:41:54 | 00:00:00 | |
| IW2NTF | 2026-08-30 12:16:00 | 45.60248 | 9.20076 | 20° | 15km/h | 23463m | 4.9m/s | -55°C | 4.5% | 0hPa | 2.7V | 08:30:00 | 01:41:45 | 00:00:00 | |
| DO3MHA-11 | 2026-08-30 12:15:56 | 45.60251 | 9.20077 | 355° | 16km/h | 23469m | 5.7m/s | -55.0°C | 4.5% | 0hPa | 2.7V | 00:00:00 | 01:41:46 | 00:00:00 | |
| OE5DRO-10 | 2026-08-30 12:15:55 | 45.60248 | 9.20076 | 21° | 16km/h | 23464m | 4.9m/s | -54.9°C | 4.5% | 0hPa | 2.5V | 00:00:00 | 00:00:00 | 00:00:00 | |
| DB0UT-7 | 2026-08-30 12:15:51 | 45.60233 | 9.20065 | 42° | 18km/h | 23442m | 6.0m/s | -55.0°C | 4.5% | 0hPa | 2.5V | 00:00:00 | 00:00:00 | 00:00:00 | |
| IW2NTF | 2026-08-30 12:15:50 | 45.60215 | 9.20063 | 340° | 13km/h | 23411m | 2.6m/s | -55°C | 4.6% | 0hPa | 2.7V | 08:30:00 | 01:41:35 | 00:00:00 | |
| DO3MHA-11 | 2026-08-30 12:15:46 | 45.60218 | 9.20060 | 296° | 18km/h | 23415m | 3.6m/s | -55.0°C | 4.7% | 0hPa | 2.5V | 00:00:00 | 01:41:36 | 00:00:00 | |
| IW2NTF | 2026-08-30 12:15:40 | 45.60181 | 9.20036 | 28° | 16km/h | 23356m | 5.2m/s | -54.9°C | 4.4% | 0hPa | 2.5V | 08:30:00 | 01:41:25 | 00:00:00 | |
| DO3MHA-11 | 2026-08-30 12:15:37 | 45.60185 | 9.20037 | 9° | 16km/h | 23361m | 5.3m/s | -54.8°C | 4.5% | 0hPa | 2.7V | 00:00:00 | 01:41:26 | 00:00:00 | |
| IW2NTF | 2026-08-30 12:15:30 | 45.60139 | 9.20026 | 332° | 26km/h | 23299m | 2.6m/s | -54.7°C | 4.4% | 0hPa | 2.7V | 08:30:00 | 01:41:15 | 00:00:00 | |
| NBG1-10 | 2026-08-30 12:15:30 | 45.60164 | 9.20023 | 46° | 29km/h | 23327m | 6.8m/s | -54.7°C | 4.6% | 0hPa | 2.5V | 00:00:00 | 01:41:20 | 00:00:00 | |
| DB0UT-7 | 2026-08-30 12:15:21 | 45.60127 | 9.20014 | 64° | 29km/h | 23278m | 2.8m/s | -54.7°C | 4.4% | 0hPa | 2.7V | 00:00:00 | 01:41:11 | 00:00:00 | |
| IW2NTF | 2026-08-30 12:15:20 | 45.60085 | 9.20024 | 27° | 31km/h | 23245m | 6.6m/s | -54.7°C | 4.5% | 0hPa | 2.7V | 08:30:00 | 01:41:05 | 00:00:00 | |
| DO3MHA-11 | 2026-08-30 12:15:16 | 45.60092 | 9.20027 | 360° | 27km/h | 23252m | 5.7m/s | -54.6°C | 4.5% | 0hPa | 2.5V | 00:00:00 | 01:41:06 | 00:00:00 | |
| IW2NTF | 2026-08-30 12:15:11 | 45.60026 | 9.20027 | 9° | 37km/h | 23190m | 5.6m/s | -54.9°C | 4.5% | 0hPa | 2.5V | 08:30:00 | 01:40:55 | 00:00:00 | |
| DO3MHA-11 | 2026-08-30 12:15:06 | 45.60034 | 9.20030 | 20° | 38km/h | 23196m | 5.1m/s | -54.8°C | 4.4% | 0hPa | 2.5V | 00:00:00 | 01:40:56 | 00:00:00 | |
| IW2NTF | 2026-08-30 12:15:00 | 45.59944 | 9.20062 | 354° | 33km/h | 23136m | 7m/s | -54.5°C | 4.4% | 0hPa | 2.5V | 08:30:00 | 01:40:45 | 00:00:00 | |
| OE5DRO-10 | 2026-08-30 12:14:57 | 45.59965 | 9.20057 | 345° | 33km/h | 23146m | 5.1m/s | -54.5°C | 4.5% | 0hPa | 2.7V | 00:00:00 | 00:00:00 | 00:00:00 | |
| DO3MHA-11 | 2026-08-30 12:14:56 | 45.59953 | 9.20060 | 351° | 35km/h | 23141m | 3.8m/s | -54.6°C | 4.5% | 0hPa | 2.7V | 00:00:00 | 01:40:46 | 00:00:00 | |
| DB0UT-7 | 2026-08-30 12:14:51 | 45.59925 | 9.20075 | 324° | 35km/h | 23113m | 6.7m/s | -54.3°C | 4.4% | 0hPa | 2.7V | 00:00:00 | 00:00:00 | 00:00:00 | |
| IW2NTF | 2026-08-30 12:14:50 | 45.59869 | 9.20098 | 341° | 27km/h | 23079m | 5.8m/s | -54.2°C | 4.4% | 0hPa | 2.7V | 08:30:00 | 01:40:35 | 00:00:00 | |
| DO3MHA-11 | 2026-08-30 12:14:46 | 45.59876 | 9.20096 | 357° | 33km/h | 23084m | 4.6m/s | -54.2°C | 4.4% | 0hPa | 2.6V | 00:00:00 | 01:40:36 | 00:00:00 | |
| IW2NTF | 2026-08-30 12:14:41 | 45.59791 | 9.20160 | 315° | 47km/h | 23024m | 3.6m/s | -54.3°C | 4.3% | 0hPa | 2.6V | 08:30:00 | 01:40:25 | 00:00:00 | |
| OE5DRO-10 | 2026-08-30 12:14:38 | 45.59819 | 9.20132 | 342° | 35km/h | 23042m | 4.5m/s | -54.2°C | 4.3% | 0hPa | 2.7V | 00:00:00 | 00:00:00 | 00:00:00 | |
| DO3MHA-11 | 2026-08-30 12:14:36 | 45.59800 | 9.20148 | 320° | 38km/h | 23029m | 5.8m/s | -54.2°C | 4.3% | 0hPa | 2.5V | 00:00:00 | 01:40:26 | 00:00:00 | |
| IW2NTF | 2026-08-30 12:14:30 | 45.59720 | 9.20230 | 327° | 18km/h | 22968m | 6.1m/s | -54.4°C | 4.5% | 0hPa | 2.5V | 08:30:00 | 01:40:15 | 00:00:00 | |
| DO3MHA-11 | 2026-08-30 12:14:26 | 45.59725 | 9.20225 | 324° | 29km/h | 22975m | 6.7m/s | -54.3°C | 4.5% | 0hPa | 2.5V | 00:00:00 | 01:40:16 | 00:00:00 | |
| NBG1-10 | 2026-08-30 12:14:23 | 45.59712 | 9.20238 | 318° | 29km/h | 22958m | 6.0m/s | -54.3°C | 4.4% | 0hPa | 2.7V | 00:00:00 | 01:40:13 | 00:00:00 | |
| DB0UT-7 | 2026-08-30 12:14:21 | 45.59699 | 9.20257 | 315° | 27km/h | 22947m | 4.0m/s | -54.3°C | 4.4% | 0hPa | 2.7V | 00:00:00 | 01:40:11 | 00:00:00 | |
| IW2NTF | 2026-08-30 12:14:20 | 45.59665 | 9.20299 | 306° | 33km/h | 22913m | 5.4m/s | -54.3°C | 4.4% | 0hPa | 2.7V | 08:30:00 | 01:40:05 | 00:00:00 | |
| OE5DRO-10 | 2026-08-30 12:14:19 | 45.59684 | 9.20275 | 322° | 27km/h | 22937m | 6.5m/s | -54.3°C | 4.3% | 0hPa | 2.7V | 00:00:00 | 00:00:00 | 00:00:00 | |
| DO3MHA-11 | 2026-08-30 12:14:16 | 45.59670 | 9.20291 | 317° | 31km/h | 22919m | 6.2m/s | -54.3°C | 4.4% | 0hPa | 2.7V | 00:00:00 | 01:40:06 | 00:00:00 | |
| IW2NTF | 2026-08-30 12:14:10 | 45.59623 | 9.20391 | 299° | 15km/h | 22857m | 7m/s | -54.1°C | 4.4% | 0hPa | 2.7V | 08:30:00 | 01:39:55 | 00:00:00 | |
| DO3MHA-11 | 2026-08-30 12:14:06 | 45.59626 | 9.20384 | 304° | 26km/h | 22865m | 6.4m/s | -54.1°C | 4.4% | 0hPa | 2.5V | 00:00:00 | 01:39:56 | 00:00:00 | |
| IW2NTF | 2026-08-30 12:14:01 | 45.59590 | 9.20467 | 287° | 27km/h | 22802m | 5.8m/s | -54°C | 4.3% | 0hPa | 2.5V | 08:30:00 | 01:39:45 | 00:00:00 | |
| OE5DRO-10 | 2026-08-30 12:14:00 | 45.59610 | 9.20430 | 306° | 26km/h | 22830m | 5.5m/s | -54.0°C | 4.3% | 0hPa | 2.5V | 00:00:00 | 00:00:00 | 00:00:00 | |
| DO3MHA-11 | 2026-08-30 12:13:56 | 45.59593 | 9.20458 | 299° | 26km/h | 22808m | 6.3m/s | -54.0°C | 4.2% | 0hPa | 2.5V | 00:00:00 | 01:39:46 | 08:30:00 | |
| DB0UT-7 | 2026-08-30 12:13:51 | 45.59584 | 9.20501 | 298° | 24km/h | 22780m | 4.8m/s | -54.0°C | 4.3% | 0hPa | 2.5V | 00:00:00 | 00:00:00 | 00:00:00 | |
| IW2NTF | 2026-08-30 12:13:50 | 45.59570 | 9.20546 | 278° | 15km/h | 22747m | 3.5m/s | -54.2°C | 4.4% | 0hPa | 2.5V | 08:30:00 | 01:39:35 | 00:00:00 | |
| NBG1-10 | 2026-08-30 12:13:50 | 45.59581 | 9.20509 | 299° | 24km/h | 22774m | 6.3m/s | -54.0°C | 4.3% | 0hPa | 2.5V | 00:00:00 | 01:39:40 | 00:00:00 | |
| DO3MHA-11 | 2026-08-30 12:13:46 | 45.59571 | 9.20542 | 275° | 20km/h | 22752m | 5.4m/s | -54.2°C | 4.4% | 0hPa | 2.7V | 00:00:00 | 01:39:36 | 00:00:00 | |
| OE5DRO-10 | 2026-08-30 12:13:41 | 45.59556 | 9.20581 | 308° | 22km/h | 22726m | 4.8m/s | 0°C | 0% | 0hPa | 2.7V | 00:00:00 | 00:00:00 | 00:00:00 | |
| IW2NTF | 2026-08-30 12:13:40 | 45.59545 | 9.20620 | 292° | 37km/h | 22692m | 4.8m/s | -54.2°C | 4.3% | 0hPa | 2.7V | 08:30:00 | 01:39:25 | 00:00:00 | |
| DO3MHA-11 | 2026-08-30 12:13:36 | 45.59548 | 9.20609 | 288° | 27km/h | 22698m | 6.6m/s | -54.1°C | 4.3% | 0hPa | 2.6V | 00:00:00 | 01:39:26 | 00:00:00 | |
| IW2NTF | 2026-08-30 12:13:31 | 45.59526 | 9.20706 | 273° | 13km/h | 22639m | 4.5m/s | -54.3°C | 4.4% | 0hPa | 2.6V | 08:30:00 | 01:39:15 | 00:00:00 | |
| DO3MHA-11 | 2026-08-30 12:13:26 | 45.59527 | 9.20701 | 287° | 20km/h | 22645m | 6.9m/s | -54.3°C | 4.4% | 0hPa | 2.5V | 00:00:00 | 01:39:16 | 00:00:00 | |
| OE5DRO-10 | 2026-08-30 12:13:22 | 45.59524 | 9.20729 | 285° | 22km/h | 22623m | 5.7m/s | 0°C | 0% | 0hPa | 2.7V | 00:00:00 | 00:00:00 | 00:00:00 | |
| DB0UT-7 | 2026-08-30 12:13:21 | 45.59521 | 9.20741 | 292° | 22km/h | 22618m | 3.9m/s | -54.3°C | 4.4% | 0hPa | 2.7V | 00:00:00 | 01:39:11 | 00:00:00 | |
| IW2NTF | 2026-08-30 12:13:20 | 45.59508 | 9.20771 | 295° | 27km/h | 22587m | 6.5m/s | -54.4°C | 4.3% | 0hPa | 2.7V | 08:30:00 | 01:39:05 | 00:00:00 | |
| NBG1-10 | 2026-08-30 12:13:17 | 45.59512 | 9.20761 | 335° | 26km/h | 22598m | 3.3m/s | -54.3°C | 4.3% | 0hPa | 2.7V | 00:00:00 | 01:39:07 | 00:00:00 | |
| DO3MHA-11 | 2026-08-30 12:13:16 | 45.59510 | 9.20764 | 304° | 20km/h | 22593m | 5.4m/s | -54.3°C | 4.3% | 0hPa | 2.7V | 00:00:00 | 01:39:06 | 00:00:00 | |
| IW2NTF | 2026-08-30 12:13:10 | 45.59483 | 9.20845 | 281° | 22km/h | 22535m | 6m/s | -54.4°C | 4.4% | 0hPa | 2.7V | 08:30:00 | 01:38:55 | 00:00:00 | |
| DO3MHA-11 | 2026-08-30 12:13:06 | 45.59485 | 9.20836 | 295° | 20km/h | 22541m | 5.4m/s | -54.3°C | 4.3% | 0hPa | 2.7V | 00:00:00 | 01:38:56 | 00:00:00 | |
| OE5DRO-10 | 2026-08-30 12:13:03 | 45.59482 | 9.20858 | 293° | 24km/h | 22525m | 4.9m/s | 0°C | 0% | 0hPa | 2.7V | 00:00:00 | 00:00:00 | 00:00:00 | |
| IW2NTF | 2026-08-30 12:13:00 | 45.59455 | 9.20904 | 301° | 35km/h | 22481m | 5.1m/s | -54.5°C | 4.3% | 0hPa | 2.7V | 08:30:00 | 01:38:45 | 00:00:00 | |
| DO3MHA-11 | 2026-08-30 12:12:56 | 45.59458 | 9.20895 | 300° | 29km/h | 22487m | 6.5m/s | -54.5°C | 4.3% | 0hPa | 2.5V | 00:00:00 | 01:38:46 | 00:00:00 | |
| DB0UT-7 | 2026-08-30 12:12:51 | 45.59443 | 9.20937 | 283° | 29km/h | 22460m | 4.1m/s | -54.6°C | 4.3% | 0hPa | 2.5V | 00:00:00 | 00:00:00 | 08:30:00 | |
| IW2NTF | 2026-08-30 12:12:50 | 45.59422 | 9.20992 | 291° | 16km/h | 22427m | 5.5m/s | -54.9°C | 4.5% | 0hPa | 2.5V | 08:30:00 | 01:38:35 | 00:00:00 | |
| DO3MHA-11 | 2026-08-30 12:12:46 | 45.59425 | 9.20985 | 299° | 29km/h | 22434m | 6.5m/s | -54.9°C | 4.5% | 0hPa | 2.7V | 00:00:00 | 01:38:36 | 00:00:00 | |
| OE5DRO-10 | 2026-08-30 12:12:44 | 45.59421 | 9.20997 | 296° | 31km/h | 22423m | 4.1m/s | 0°C | 0% | 0hPa | 2.7V | 00:00:00 | 00:00:00 | 00:00:00 | |
| IW2NTF | 2026-08-30 12:12:40 | 45.59398 | 9.21093 | 296° | 22km/h | 22376m | 4.5m/s | -55.1°C | 4.5% | 0hPa | 2.7V | 08:30:00 | 01:38:25 | 00:00:00 | |
| DO3MHA-11 | 2026-08-30 12:12:36 | 45.59401 | 9.21085 | 302° | 29km/h | 22381m | 4.6m/s | -55.1°C | 4.4% | 0hPa | 2.5V | 00:00:00 | 01:38:26 | 00:00:00 | |
| NBG1-10 | 2026-08-30 12:12:31 | 45.59398 | 9.21126 | 277° | 22km/h | 22356m | 6.9m/s | -55.1°C | 4.6% | 0hPa | 2.5V | 00:00:00 | 01:38:21 | 00:00:00 | |
| IW2NTF | 2026-08-30 12:12:30 | 45.59394 | 9.21193 | 231° | 16km/h | 22324m | 5.1m/s | -55.5°C | 4.5% | 0hPa | 2.5V | 08:30:00 | 01:38:15 | 00:00:00 | |
| DO3MHA-11 | 2026-08-30 12:12:26 | 45.59391 | 9.21187 | 235° | 27km/h | 22329m | 5.1m/s | -55.4°C | 4.6% | 0hPa | 2.5V | 00:00:00 | 01:38:16 | 08:30:00 | |
| DB0UT-7 | 2026-08-30 12:12:21 | 45.59393 | 9.21224 | 268° | 24km/h | 22303m | 6.1m/s | -55.3°C | 4.6% | 0hPa | 2.5V | 00:00:00 | 01:38:11 | 00:00:00 | |
| IW2NTF | 2026-08-30 12:12:20 | 45.59401 | 9.21284 | 247° | 11km/h | 22272m | 6.6m/s | -55.4°C | 4.7% | 0hPa | 2.5V | 08:30:00 | 01:38:05 | 00:00:00 | |
| DO3MHA-11 | 2026-08-30 12:12:16 | 45.59400 | 9.21279 | 269° | 22km/h | 22278m | 4.2m/s | -55.4°C | 4.7% | 0hPa | 2.5V | 00:00:00 | 01:38:06 | 00:00:00 | |
| IW2NTF | 2026-08-30 12:12:10 | 45.59415 | 9.21354 | 273° | 13km/h | 22221m | 6.2m/s | -55.1°C | 4.5% | 0hPa | 2.5V | 08:30:00 | 01:37:55 | 00:00:00 | |
| DO3MHA-11 | 2026-08-30 12:12:06 | 45.59413 | 9.21349 | 228° | 24km/h | 22227m | 5.0m/s | -55.1°C | 4.5% | 0hPa | 2.7V | 00:00:00 | 01:37:56 | 00:00:00 | |
| IW2NTF | 2026-08-30 12:11:59 | 45.59424 | 9.21427 | 272° | 13km/h | 22171m | 5.8m/s | -55.2°C | 4.5% | 0hPa | 2.7V | 08:30:00 | 01:37:45 | 00:00:00 | |
| DO3MHA-11 | 2026-08-30 12:11:56 | 45.59425 | 9.21422 | 302° | 20km/h | 22176m | 4.7m/s | -55.1°C | 4.5% | 0hPa | 2.6V | 00:00:00 | 01:37:46 | 00:00:00 | |
| NBG1-10 | 2026-08-30 12:11:54 | 45.59425 | 9.21432 | 237° | 20km/h | 22166m | 5.1m/s | -55.1°C | 4.6% | 0hPa | 2.7V | 00:00:00 | 01:37:44 | 08:30:00 | |
| DB0UT-7 | 2026-08-30 12:11:51 | 45.59433 | 9.21453 | 265° | 18km/h | 22151m | 6.0m/s | -55.0°C | 4.5% | 0hPa | 2.5V | 00:00:00 | 00:00:00 | 00:00:00 | |
| IW2NTF | 2026-08-30 12:11:49 | 45.59439 | 9.21493 | 228° | 20km/h | 22121m | 4.2m/s | -54.9°C | 4.5% | 0hPa | 2.5V | 08:30:00 | 01:37:35 | 00:00:00 | |
| DO3MHA-11 | 2026-08-30 12:11:46 | 45.59436 | 9.21488 | 222° | 16km/h | 22126m | 4.1m/s | -54.9°C | 4.5% | 0hPa | 2.5V | 00:00:00 | 01:37:36 | 00:00:00 | |
| IW2NTF | 2026-08-30 12:11:39 | 45.59444 | 9.21542 | 233° | 26km/h | 22069m | 3.7m/s | -55°C | 4.8% | 0hPa | 2.5V | 08:30:00 | 01:37:25 | 00:00:00 | |
| DO3MHA-11 | 2026-08-30 12:11:36 | 45.59441 | 9.21536 | 228° | 20km/h | 22074m | 6.6m/s | -55.1°C | 4.7% | 0hPa | 2.7V | 00:00:00 | 01:37:26 | 00:00:00 | |
| IW2NTF | 2026-08-30 12:11:30 | 45.59446 | 9.21589 | 288° | 22km/h | 22019m | 5.5m/s | -54.7°C | 4.4% | 0hPa | 2.7V | 08:30:00 | 01:37:15 | 00:00:00 | |
| DO3MHA-11 | 2026-08-30 12:11:26 | 45.59445 | 9.21581 | 249° | 18km/h | 22025m | 4.9m/s | -54.7°C | 4.5% | 0hPa | 2.7V | 00:00:00 | 01:37:16 | 00:00:00 | |
| DB0UT-7 | 2026-08-30 12:11:21 | 45.59432 | 9.21608 | 267° | 16km/h | 22000m | 5.2m/s | -54.5°C | 4.5% | 0hPa | 2.7V | 00:00:00 | 01:37:11 | 00:00:00 | |
| IW2NTF | 2026-08-30 12:11:20 | 45.59438 | 9.21638 | 270° | 9km/h | 21970m | 5.3m/s | -54.5°C | 4.4% | 0hPa | 2.5V | 08:30:00 | 01:37:05 | 00:00:00 | |
| DO3MHA-11 | 2026-08-30 12:11:16 | 45.59438 | 9.21634 | 291° | 16km/h | 21975m | 4.0m/s | -54.4°C | 4.4% | 0hPa | 2.5V | 00:00:00 | 01:37:06 | 00:00:00 | |
| IW2NTF | 2026-08-30 12:11:11 | 45.59444 | 9.21691 | 278° | 11km/h | 21919m | 6.2m/s | -54.5°C | 4.4% | 0hPa | 2.5V | 08:30:00 | 01:36:55 | 00:00:00 | |
| DO3MHA-11 | 2026-08-30 12:11:06 | 45.59443 | 9.21688 | 224° | 16km/h | 21925m | 4.3m/s | -54.4°C | 4.4% | 0hPa | 2.5V | 00:00:00 | 01:36:56 | 00:00:00 | |
| IW2NTF | 2026-08-30 12:11:00 | 45.59432 | 9.21746 | 267° | 15km/h | 21869m | 6.3m/s | -54.5°C | 4.4% | 0hPa | 2.5V | 08:30:00 | 01:36:45 | 00:00:00 | |
| DO3MHA-11 | 2026-08-30 12:10:56 | 45.59433 | 9.21741 | 310° | 18km/h | 21874m | 3.3m/s | -54.4°C | 4.4% | 0hPa | 2.7V | 00:00:00 | 01:36:46 | 08:30:00 | |
| DB0UT-7 | 2026-08-30 12:10:51 | 45.59435 | 9.21776 | 313° | 15km/h | 21849m | 6.4m/s | -54.6°C | 4.4% | 0hPa | 2.7V | 00:00:00 | 00:00:00 | 00:00:00 | |
| IW2NTF | 2026-08-30 12:10:48 | 45.59421 | 9.21806 | 290° | 29km/h | 21807m | 3.9m/s | -54.7°C | 4.3% | 0hPa | 2.7V | 08:30:00 | 01:36:33 | 00:00:00 | |
| DO3MHA-11 | 2026-08-30 12:10:46 | 45.59422 | 9.21780 | 240° | 15km/h | 21824m | 4.5m/s | -54.5°C | 4.5% | 0hPa | 2.7V | 00:00:00 | 01:36:36 | 00:00:00 | |
| NBG1-10 | 2026-08-30 12:10:45 | 45.59423 | 9.21786 | 264° | 15km/h | 21818m | 6.4m/s | -54.5°C | 4.4% | 0hPa | 2.7V | 00:00:00 | 01:36:35 | 00:00:00 | |
| IW2NTF | 2026-08-30 12:10:39 | 45.59420 | 9.21848 | 294° | 20km/h | 21755m | 6.2m/s | -54.8°C | 4.4% | 0hPa | 2.7V | 08:30:00 | 01:36:23 | 00:00:00 | |
| DO3MHA-11 | 2026-08-30 12:10:36 | 45.59420 | 9.21827 | 264° | 13km/h | 21771m | 6.4m/s | -54.7°C | 4.4% | 0hPa | 2.7V | 00:00:00 | 01:36:26 | 00:00:00 | |
| IW2NTF | 2026-08-30 12:10:28 | 45.59408 | 9.21874 | 265° | 5km/h | 21705m | 5.7m/s | -54.9°C | 4.5% | 0hPa | 2.7V | 08:30:00 | 01:36:13 | 00:00:00 | |
| DO3MHA-11 | 2026-08-30 12:10:26 | 45.59416 | 9.21856 | 301° | 15km/h | 21719m | 5.6m/s | -54.9°C | 4.6% | 0hPa | 2.5V | 00:00:00 | 01:36:16 | 00:00:00 | |
| IW2NTF | 2026-08-30 12:10:18 | 45.59412 | 9.21884 | 194° | 9km/h | 21654m | 5.3m/s | -54.6°C | 4.7% | 0hPa | 2.5V | 08:30:00 | 01:36:03 | 00:00:00 | |
| DO3MHA-11 | 2026-08-30 12:10:16 | 45.59403 | 9.21877 | 262° | 11km/h | 21670m | 6.2m/s | -54.7°C | 4.6% | 0hPa | 2.5V | 00:00:00 | 01:36:06 | 00:00:00 | |
| NBG1-10 | 2026-08-30 12:10:12 | 45.59413 | 9.21885 | 305° | 7km/h | 21649m | 5.4m/s | -54.5°C | 4.6% | 0hPa | 2.5V | 00:00:00 | 01:36:02 | 00:00:00 | |
| IW2NTF | 2026-08-30 12:10:08 | 45.59413 | 9.21896 | 249° | 5km/h | 21603m | 5.7m/s | -54.3°C | 4.3% | 0hPa | 2.7V | 08:30:00 | 01:35:53 | 00:00:00 | |
| DO3MHA-11 | 2026-08-30 12:10:06 | 45.59412 | 9.21883 | 232° | 9km/h | 21618m | 6.1m/s | -54.4°C | 4.4% | 0hPa | 2.5V | 00:00:00 | 01:35:56 | 00:00:00 | |
| IW2NTF | 2026-08-30 12:09:58 | 45.59416 | 9.21898 | 20° | 9km/h | 21550m | 3.5m/s | -54.2°C | 4.4% | 0hPa | 2.5V | 08:30:00 | 01:35:43 | 00:00:00 | |
| DO3MHA-11 | 2026-08-30 12:09:56 | 45.59418 | 9.21892 | 232° | 11km/h | 21565m | 4.7m/s | -54.0°C | 4.5% | 0hPa | 2.7V | 00:00:00 | 01:35:46 | 00:00:00 | |
| DB0UT-7 | 2026-08-30 12:09:51 | 45.59414 | 9.21891 | 105° | 13km/h | 21539m | 5.7m/s | -54.3°C | 4.4% | 0hPa | 2.7V | 00:00:00 | 00:00:00 | 00:00:00 | |
| IW2NTF | 2026-08-30 12:09:48 | 45.59420 | 9.21890 | 77° | 16km/h | 21496m | 5.7m/s | -54.2°C | 4.3% | 0hPa | 2.5V | 08:30:00 | 01:35:33 | 00:00:00 | |
| DO3MHA-11 | 2026-08-30 12:09:46 | 45.59420 | 9.21896 | 262° | 9km/h | 21512m | 5.1m/s | -54.1°C | 4.4% | 0hPa | 2.5V | 00:00:00 | 01:35:36 | 00:00:00 | |
| IW2NTF | 2026-08-30 12:09:39 | 45.59417 | 9.21884 | 67° | 16km/h | 21444m | 6.3m/s | -54.1°C | 4.4% | 0hPa | 2.5V | 08:30:00 | 01:35:23 | 00:00:00 | |
| DO3MHA-11 | 2026-08-30 12:09:36 | 45.59425 | 9.21889 | 308° | 13km/h | 21460m | 5.9m/s | -54.1°C | 4.4% | 0hPa | 2.7V | 00:00:00 | 01:35:26 | 00:00:00 | |
| IW2NTF | 2026-08-30 12:09:29 | 45.59411 | 9.21866 | 56° | 13km/h | 21395m | 5.1m/s | -54.1°C | 4.2% | 0hPa | 2.7V | 08:30:00 | 01:35:13 | 00:00:00 | |
| DO3MHA-11 | 2026-08-30 12:09:26 | 45.59418 | 9.21888 | 50° | 15km/h | 21410m | 7.4m/s | -54.1°C | 4.3% | 0hPa | 2.5V | 00:00:00 | 01:35:16 | 08:30:00 | |
| DB0UT-7 | 2026-08-30 12:09:21 | 45.59408 | 9.21870 | 284° | 15km/h | 21383m | 5.5m/s | -54.1°C | 4.4% | 0hPa | 2.6V | 00:00:00 | 01:35:11 | 00:00:00 | |
| IW2NTF | 2026-08-30 12:09:19 | 45.59394 | 9.21878 | 345° | 22km/h | 21342m | 4.3m/s | -54.1°C | 4.3% | 0hPa | 2.6V | 08:30:00 | 01:35:03 | 00:00:00 | |
| DO3MHA-11 | 2026-08-30 12:09:16 | 45.59406 | 9.21879 | 56° | 13km/h | 21358m | 5.1m/s | -54.0°C | 4.3% | 0hPa | 2.5V | 00:00:00 | 01:35:06 | 00:00:00 | |
| IW2NTF | 2026-08-30 12:09:08 | 45.59367 | 9.21877 | 352° | 24km/h | 21289m | 6.2m/s | -54.1°C | 4.2% | 0hPa | 2.5V | 08:30:00 | 01:34:53 | 00:00:00 | |
| DO3MHA-11 | 2026-08-30 12:09:06 | 45.59380 | 9.21885 | 60° | 15km/h | 21306m | 6.8m/s | -53.9°C | 4.3% | 0hPa | 2.7V | 00:00:00 | 01:34:56 | 00:00:00 | |
| NBG1-10 | 2026-08-30 12:09:05 | 45.59378 | 9.21882 | 40° | 15km/h | 21300m | 5.2m/s | -53.9°C | 4.3% | 0hPa | 2.7V | 00:00:00 | 01:34:55 | 00:00:00 | |
| IW2NTF | 2026-08-30 12:08:58 | 45.59345 | 9.21876 | 7° | 22km/h | 21238m | 6m/s | -54.2°C | 4.3% | 0hPa | 2.7V | 08:30:00 | 01:34:43 | 00:00:00 | |
| DO3MHA-11 | 2026-08-30 12:08:56 | 45.59358 | 9.21875 | 26° | 13km/h | 21254m | 5.8m/s | -54.1°C | 4.4% | 0hPa | 2.5V | 00:00:00 | 01:34:46 | 00:00:00 | |
| DB0UT-7 | 2026-08-30 12:08:51 | 45.59335 | 9.21870 | 32° | 13km/h | 21228m | 4.2m/s | -54.1°C | 4.3% | 0hPa | 2.7V | 00:00:00 | 00:00:00 | 00:00:00 | |
| DO3MHA-11 | 2026-08-30 12:08:46 | 45.59327 | 9.21869 | 65° | 13km/h | 21202m | 5.6m/s | -54.0°C | 4.3% | 0hPa | 2.7V | 00:00:00 | 01:34:36 | 00:00:00 | |
| IW2NTF | 2026-08-30 12:08:45 | 45.59313 | 9.21872 | 333° | 15km/h | 21176m | 5.2m/s | -54°C | 4.4% | 0hPa | 2.7V | 08:30:00 | 01:34:31 | 00:00:00 | |
| IW2NTF | 2026-08-30 12:08:36 | 45.59284 | 9.21868 | 17° | 11km/h | 21123m | 5.1m/s | -53.9°C | 4.3% | 0hPa | 2.6V | 08:30:00 | 01:34:21 | 00:00:00 | |
| DO3MHA-11 | 2026-08-30 12:08:36 | 45.59300 | 9.21866 | 327° | 15km/h | 21149m | 5.5m/s | -54.0°C | 4.2% | 0hPa | 2.5V | 00:00:00 | 01:34:26 | 00:00:00 | |
| NBG1-10 | 2026-08-30 12:08:32 | 45.59286 | 9.21870 | 37° | 16km/h | 21128m | 4.3m/s | -53.8°C | 4.3% | 0hPa | 2.5V | 00:00:00 | 01:34:22 | 00:00:00 | |
| DO3MHA-11 | 2026-08-30 12:08:26 | 45.59275 | 9.21885 | 287° | 16km/h | 21096m | 4.7m/s | -53.8°C | 4.2% | 0hPa | 2.6V | 00:00:00 | 01:34:16 | 00:00:00 | |
| IW2NTF | 2026-08-30 12:08:20 | 45.59254 | 9.21905 | 324° | 7km/h | 21064m | 4.9m/s | -54°C | 4.3% | 0hPa | 2.5V | 08:30:00 | 01:34:10 | 00:00:00 | |
| DO3MHA-11 | 2026-08-30 12:08:16 | 45.59240 | 9.21925 | 321° | 15km/h | 21044m | 5.0m/s | -53.8°C | 4.4% | 0hPa | 2.7V | 00:00:00 | 01:34:06 | 00:00:00 | |
| IW2NTF | 2026-08-30 12:08:10 | 45.59221 | 9.21948 | 314° | 7km/h | 21012m | 6.2m/s | -53.9°C | 4.4% | 0hPa | 2.7V | 08:30:00 | 01:34:00 | 00:00:00 | |
| DO3MHA-11 | 2026-08-30 12:08:06 | 45.59212 | 9.21962 | 310° | 16km/h | 20991m | 5.9m/s | -53.9°C | 4.3% | 0hPa | 2.6V | 00:00:00 | 01:33:56 | 00:00:00 | |
| IW2NTF | 2026-08-30 12:08:00 | 45.59194 | 9.21982 | 334° | 16km/h | 20960m | 4.9m/s | -53.8°C | 4.2% | 0hPa | 2.6V | 08:30:00 | 01:33:50 | 00:00:00 | |
| NBG1-10 | 2026-08-30 12:07:59 | 45.59190 | 9.21984 | 331° | 18km/h | 20955m | 5.1m/s | -53.7°C | 4.2% | 0hPa | 2.6V | 00:00:00 | 01:33:49 | 00:00:00 | |
| DO3MHA-11 | 2026-08-30 12:07:56 | 45.59179 | 9.21993 | 321° | 18km/h | 20939m | 3.6m/s | -53.7°C | 4.4% | 0hPa | 2.6V | 00:00:00 | 01:33:46 | 08:30:00 | |
| IW2NTF | 2026-08-30 12:07:55 | 45.59161 | 9.22018 | 21° | 9km/h | 20908m | 3.9m/s | -53.5°C | 4.1% | 0hPa | 2.6V | 08:30:00 | 01:33:40 | 00:00:00 | |
| DB0UT-7 | 2026-08-30 12:07:51 | 45.59164 | 9.22019 | 8° | 18km/h | 20914m | 6.4m/s | -53.5°C | 4.2% | 0hPa | 2.7V | 00:00:00 | 00:00:00 | 00:00:00 | |
| DO3MHA-11 | 2026-08-30 12:07:46 | 45.59151 | 9.22037 | 295° | 16km/h | 20888m | 5.3m/s | -53.6°C | 4.1% | 0hPa | 2.7V | 00:00:00 | 01:33:36 | 00:00:00 | |
| IW2NTF | 2026-08-30 12:07:45 | 45.59133 | 9.22065 | 319° | 16km/h | 20857m | 4.8m/s | -53.8°C | 4.3% | 0hPa | 2.7V | 08:30:00 | 01:33:30 | 00:00:00 | |
| DO3MHA-11 | 2026-08-30 12:07:36 | 45.59121 | 9.22082 | 308° | 20km/h | 20837m | 6.8m/s | -53.7°C | 4.3% | 0hPa | 2.7V | 00:00:00 | 01:33:26 | 00:00:00 | |
| IW2NTF | 2026-08-30 12:07:35 | 45.59101 | 9.22106 | 215° | 4km/h | 20806m | 5m/s | -53.8°C | 4.2% | 0hPa | 2.7V | 08:30:00 | 01:33:20 | 00:00:00 | |
| DO3MHA-11 | 2026-08-30 12:07:26 | 45.59094 | 9.22130 | 319° | 13km/h | 20787m | 5.2m/s | -53.8°C | 4.2% | 0hPa | 2.6V | 00:00:00 | 01:33:16 | 00:00:00 | |
| IW2NTF | 2026-08-30 12:07:25 | 45.59076 | 9.22147 | 260° | 2km/h | 20758m | 5.6m/s | -54°C | 4.3% | 0hPa | 2.5V | 08:30:00 | 01:33:10 | 00:00:00 | |
| NBG1-10 | 2026-08-30 12:07:25 | 45.59089 | 9.22134 | 336° | 11km/h | 20782m | 4.2m/s | -53.8°C | 4.2% | 0hPa | 2.7V | 00:00:00 | 01:33:15 | 00:00:00 | |
| DB0UT-7 | 2026-08-30 12:07:21 | 45.59076 | 9.22145 | 299° | 9km/h | 20763m | 4.4m/s | -53.9°C | 4.3% | 0hPa | 2.7V | 00:00:00 | 01:33:11 | 00:00:00 | |
| DO3MHA-11 | 2026-08-30 12:07:16 | 45.59070 | 9.22148 | 320° | 15km/h | 20737m | 7.0m/s | -54.0°C | 4.3% | 0hPa | 2.7V | 00:00:00 | 01:33:06 | 00:00:00 | |
| IW2NTF | 2026-08-30 12:07:15 | 45.59063 | 9.22159 | 150° | 9km/h | 20707m | 4.8m/s | -54°C | 4.2% | 0hPa | 2.7V | 08:30:00 | 01:33:00 | 00:00:00 | |
| DO3MHA-11 | 2026-08-30 12:07:06 | 45.59060 | 9.22167 | 337° | 7km/h | 20687m | 5.3m/s | -53.8°C | 4.3% | 0hPa | 2.6V | 00:00:00 | 01:32:56 | 00:00:00 | |
| IW2NTF | 2026-08-30 12:07:03 | 45.59063 | 9.22168 | 136° | 5km/h | 20657m | 4.9m/s | -53.9°C | 4.2% | 0hPa | 2.6V | 08:30:00 | 01:32:50 | 00:00:00 | |
| DO3MHA-11 | 2026-08-30 12:06:56 | 45.59066 | 9.22158 | 252° | 9km/h | 20636m | 5.6m/s | -53.9°C | 4.2% | 0hPa | 2.6V | 00:00:00 | 01:32:46 | 00:00:00 | |
| IW2NTF | 2026-08-30 12:06:55 | 45.59073 | 9.22156 | 119° | 5km/h | 20608m | 5.5m/s | -54°C | 4.4% | 0hPa | 2.5V | 08:30:00 | 01:32:40 | 00:00:00 | |
| NBG1-10 | 2026-08-30 12:06:52 | 45.59071 | 9.22163 | 120° | 9km/h | 20618m | 4.7m/s | -53.9°C | 4.4% | 0hPa | 2.7V | 00:00:00 | 01:32:42 | 08:30:00 | |
| DB0UT-7 | 2026-08-30 12:06:51 | 45.59072 | 9.22159 | 113° | 9km/h | 20613m | 3.6m/s | -53.9°C | 4.4% | 0hPa | 2.5V | 00:00:00 | 00:00:00 | 00:00:00 | |
| DO3MHA-11 | 2026-08-30 12:06:46 | 45.59077 | 9.22165 | 164° | 9km/h | 20589m | 5.9m/s | -53.9°C | 4.2% | 0hPa | 2.7V | 00:00:00 | 01:32:36 | 00:00:00 | |
| IW2NTF | 2026-08-30 12:06:45 | 45.59082 | 9.22162 | 252° | 5km/h | 20560m | 4.2m/s | -54°C | 4.2% | 0hPa | 2.7V | 08:30:00 | 01:32:30 | 00:00:00 | |
| DO3MHA-11 | 2026-08-30 12:06:36 | 45.59088 | 9.22156 | 113° | 5km/h | 20541m | 5.3m/s | -54.0°C | 4.2% | 0hPa | 2.6V | 00:00:00 | 01:32:26 | 00:00:00 | |
| IW2NTF | 2026-08-30 12:06:30 | 45.59082 | 9.22157 | 241° | 5km/h | 20512m | 6.1m/s | -54.1°C | 4.3% | 0hPa | 2.6V | 08:30:00 | 01:32:20 | 00:00:00 | |
| DO3MHA-11 | 2026-08-30 12:06:26 | 45.59083 | 9.22156 | 74° | 11km/h | 20492m | 4.6m/s | -54.2°C | 4.4% | 0hPa | 2.5V | 00:00:00 | 01:32:16 | 08:30:00 | |
| IW2NTF | 2026-08-30 12:06:25 | 45.59068 | 9.22159 | 220° | 2km/h | 20463m | 5.1m/s | -54.4°C | 4.2% | 0hPa | 2.6V | 08:30:00 | 01:32:10 | 00:00:00 | |
| DB0UT-7 | 2026-08-30 12:06:21 | 45.59069 | 9.22157 | 296° | 16km/h | 20468m | 5.0m/s | -54.3°C | 4.2% | 0hPa | 2.7V | 00:00:00 | 01:32:11 | 00:00:00 | |
| NBG1-10 | 2026-08-30 12:06:19 | 45.59069 | 9.22159 | 153° | 11km/h | 20458m | 4.4m/s | -54.3°C | 4.2% | 0hPa | 2.7V | 00:00:00 | 01:32:09 | 00:00:00 | |
| DO3MHA-11 | 2026-08-30 12:06:16 | 45.59068 | 9.22157 | 10° | 16km/h | 20444m | 4.8m/s | -54.4°C | 4.3% | 0hPa | 2.7V | 00:00:00 | 01:32:06 | 00:00:00 | |
| IW2NTF | 2026-08-30 12:06:15 | 45.59045 | 9.22163 | 279° | 11km/h | 20416m | 2.8m/s | -54.4°C | 4.4% | 0hPa | 2.7V | 08:30:00 | 01:32:00 | 00:00:00 | |
| DO3MHA-11 | 2026-08-30 12:06:06 | 45.59034 | 9.22152 | 21° | 20km/h | 20397m | 5.6m/s | -54.4°C | 4.1% | 0hPa | 2.7V | 00:00:00 | 01:31:56 | 00:00:00 | |
| IW2NTF | 2026-08-30 12:06:05 | 45.59013 | 9.22161 | 70° | 7km/h | 20368m | 3.1m/s | -54.6°C | 4.3% | 0hPa | 2.7V | 08:30:00 | 01:31:50 | 00:00:00 | |
| DO3MHA-11 | 2026-08-30 12:05:56 | 45.58989 | 9.22156 | 9° | 18km/h | 20349m | 4.3m/s | -54.6°C | 4.4% | 0hPa | 2.6V | 00:00:00 | 01:31:46 | 00:00:00 | |
| IW2NTF | 2026-08-30 12:05:55 | 45.58962 | 9.22146 | 7° | 13km/h | 20320m | 4.7m/s | -54.9°C | 4.3% | 0hPa | 2.5V | 08:30:00 | 01:31:40 | 00:00:00 | |
| DB0UT-7 | 2026-08-30 12:05:51 | 45.58966 | 9.22147 | 359° | 13km/h | 20324m | 4.4m/s | -54.8°C | 4.4% | 0hPa | 2.7V | 00:00:00 | 00:00:00 | 00:00:00 | |
| DO3MHA-11 | 2026-08-30 12:05:46 | 45.58947 | 9.22139 | 3° | 16km/h | 20300m | 5.6m/s | -54.9°C | 4.2% | 0hPa | 2.7V | 00:00:00 | 01:31:36 | 00:00:00 | |
| IW2NTF | 2026-08-30 12:05:45 | 45.58929 | 9.22140 | 4° | 11km/h | 20270m | 5.8m/s | -54.8°C | 4.4% | 0hPa | 2.7V | 08:30:00 | 01:31:30 | 00:00:00 | |
| DO3MHA-11 | 2026-08-30 12:05:36 | 45.58912 | 9.22145 | 354° | 9km/h | 20250m | 5.4m/s | -55.0°C | 4.4% | 0hPa | 2.7V | 00:00:00 | 01:31:26 | 00:00:00 | |
| IW2NTF | 2026-08-30 12:05:33 | 45.58901 | 9.22150 | 270° | 11km/h | 20212m | 3.5m/s | -55.4°C | 4.5% | 0hPa | 2.7V | 08:30:00 | 01:31:18 | 00:00:00 | |
| IW2NTF | 2026-08-30 12:05:23 | 45.58888 | 9.22156 | 4° | 22km/h | 20162m | 3.9m/s | -55.8°C | 4.4% | 0hPa | 2.6V | 08:30:00 | 01:31:08 | 00:00:00 | |
| DB0UT-7 | 2026-08-30 12:05:21 | 45.58893 | 9.22154 | 199° | 15km/h | 20177m | 4.3m/s | -55.5°C | 4.5% | 0hPa | 2.7V | 00:00:00 | 01:31:11 | 00:00:00 | |
| DO3MHA-11 | 2026-08-30 12:05:16 | 45.58878 | 9.22153 | 30° | 11km/h | 20152m | 5.2m/s | -55.8°C | 4.6% | 0hPa | 2.7V | 00:00:00 | 01:31:06 | 00:00:00 | |
| IW2NTF | 2026-08-30 12:05:13 | 45.58855 | 9.22141 | 32° | 5km/h | 20112m | 4.8m/s | -55.9°C | 4.6% | 0hPa | 2.7V | 08:30:00 | 01:30:58 | 00:00:00 | |
| NBG1-10 | 2026-08-30 12:05:11 | 45.58866 | 9.22144 | 12° | 11km/h | 20127m | 4.4m/s | -55.8°C | 4.5% | 0hPa | 2.6V | 00:00:00 | 01:31:01 | 00:00:00 | |
| DO3MHA-11 | 2026-08-30 12:05:06 | 45.58851 | 9.22138 | 25° | 16km/h | 20102m | 5.5m/s | -55.9°C | 4.6% | 0hPa | 2.6V | 00:00:00 | 01:30:56 | 00:00:00 | |
| IW2NTF | 2026-08-30 12:04:59 | 45.58819 | 9.22136 | 24° | 20km/h | 20061m | 4.5m/s | -56.2°C | 4.5% | 0hPa | 2.6V | 08:30:00 | 01:30:48 | 00:00:00 | |
| DO3MHA-11 | 2026-08-30 12:04:56 | 45.58812 | 9.22130 | 16° | 15km/h | 20051m | 4.5m/s | -56.2°C | 4.6% | 0hPa | 2.7V | 00:00:00 | 01:30:46 | 08:30:00 | |
| DB0UT-7 | 2026-08-30 12:04:51 | 45.58789 | 9.22141 | 329° | 16km/h | 20027m | 6.6m/s | -56.2°C | 4.8% | 0hPa | 2.6V | 00:00:00 | 00:00:00 | 00:00:00 | |
| IW2NTF | 2026-08-30 12:04:49 | 45.58778 | 9.22146 | 338° | 35km/h | 20000m | 4.5m/s | -56.3°C | 4.6% | 0hPa | 2.6V | 08:30:00 | 01:30:36 | 00:00:00 | |
| DO3MHA-11 | 2026-08-30 12:04:46 | 45.58778 | 9.22145 | 339° | 18km/h | 20001m | 4.5m/s | -56.2°C | 4.6% | 0hPa | 2.7V | 00:00:00 | 01:30:36 | 00:00:00 | |
| IW2NTF | 2026-08-30 12:04:37 | 45.58743 | 9.22175 | 321° | 20km/h | 19950m | 4m/s | -56.2°C | 4.9% | 0hPa | 2.7V | 08:30:00 | 01:30:26 | 00:00:00 | |
| DO3MHA-11 | 2026-08-30 12:04:36 | 45.58743 | 9.22175 | 322° | 20km/h | 19950m | 4.0m/s | -56.2°C | 4.9% | 0hPa | 2.7V | 00:00:00 | 01:30:26 | 00:00:00 | |
| IW2NTF | 2026-08-30 12:04:31 | 45.58707 | 9.22218 | 312° | 29km/h | 19899m | 5m/s | -56.5°C | 4.8% | 0hPa | 2.7V | 08:30:00 | 01:30:16 | 00:00:00 | |
| DO3MHA-11 | 2026-08-30 12:04:26 | 45.58707 | 9.22218 | 313° | 15km/h | 19900m | 5.0m/s | -56.4°C | 4.8% | 0hPa | 2.7V | 00:00:00 | 01:30:16 | 00:00:00 | |
| DB0UT-7 | 2026-08-30 12:04:21 | 45.58706 | 9.22243 | 315° | 13km/h | 19874m | 5.0m/s | -56.3°C | 4.8% | 0hPa | 2.6V | 00:00:00 | 01:30:11 | 00:00:00 | |
| IW2NTF | 2026-08-30 12:04:17 | 45.58693 | 9.22257 | 322° | 11km/h | 19849m | 6.1m/s | -56.2°C | 4.6% | 0hPa | 2.6V | 08:30:00 | 01:30:06 | 00:00:00 | |
| DO3MHA-11 | 2026-08-30 12:04:16 | 45.58692 | 9.22257 | 323° | 15km/h | 19849m | 6.0m/s | -56.2°C | 4.6% | 0hPa | 2.5V | 00:00:00 | 01:30:06 | 00:00:00 | |
| IW2NTF | 2026-08-30 12:04:11 | 45.58683 | 9.22293 | 239° | 16km/h | 19800m | 5.7m/s | -56°C | 4.7% | 0hPa | 2.5V | 08:30:00 | 01:29:56 | 00:00:00 | |
| DO3MHA-11 | 2026-08-30 12:04:06 | 45.58684 | 9.22293 | 240° | 11km/h | 19801m | 5.7m/s | -55.9°C | 4.7% | 0hPa | 2.6V | 00:00:00 | 01:29:56 | 00:00:00 | |
| IW2NTF | 2026-08-30 12:04:01 | 45.58690 | 9.22320 | 244° | 7km/h | 19748m | 4.3m/s | -55.9°C | 4.5% | 0hPa | 2.6V | 08:30:00 | 01:29:46 | 00:00:00 | |
| DO3MHA-11 | 2026-08-30 12:03:56 | 45.58690 | 9.22319 | 245° | 11km/h | 19748m | 4.3m/s | -55.8°C | 4.5% | 0hPa | 2.6V | 00:00:00 | 01:29:46 | 00:00:00 | |
| DB0UT-7 | 2026-08-30 12:03:51 | 45.58700 | 9.22314 | 356° | 13km/h | 19723m | 5.7m/s | -55.8°C | 4.6% | 0hPa | 2.6V | 00:00:00 | 00:00:00 | 08:30:00 | |
| IW2NTF | 2026-08-30 12:03:47 | 45.58704 | 9.22312 | 154° | 22km/h | 19697m | 4.2m/s | -55.8°C | 4.6% | 0hPa | 2.6V | 08:30:00 | 01:29:36 | 00:00:00 | |
| DO3MHA-11 | 2026-08-30 12:03:46 | 45.58704 | 9.22312 | 155° | 11km/h | 19698m | 4.1m/s | -55.8°C | 4.6% | 0hPa | 2.7V | 00:00:00 | 01:29:36 | 00:00:00 | |
| IW2NTF | 2026-08-30 12:03:41 | 45.58716 | 9.22283 | 116° | 16km/h | 19647m | 5.2m/s | -56.4°C | 4.8% | 0hPa | 2.7V | 08:30:00 | 01:29:26 | 00:00:00 | |
| DO3MHA-11 | 2026-08-30 12:03:36 | 45.58716 | 9.22283 | 117° | 16km/h | 19647m | 5.1m/s | -56.3°C | 4.8% | 0hPa | 2.7V | 00:00:00 | 01:29:26 | 00:00:00 | |
| IW2NTF | 2026-08-30 12:03:31 | 45.58720 | 9.22233 | 88° | 15km/h | 19598m | 5.4m/s | -56.1°C | 4.7% | 0hPa | 2.7V | 08:30:00 | 01:29:16 | 00:00:00 | |
| DO3MHA-11 | 2026-08-30 12:03:26 | 45.58720 | 9.22233 | 89° | 13km/h | 19598m | 5.4m/s | -56.0°C | 4.7% | 0hPa | 2.7V | 00:00:00 | 01:29:16 | 08:30:00 | |
| IW2NTF | 2026-08-30 12:03:22 | 45.58709 | 9.22196 | 93° | 11km/h | 19548m | 4.7m/s | -56°C | 4.6% | 0hPa | 2.6V | 08:30:00 | 01:29:06 | 00:00:00 | |
| DB0UT-7 | 2026-08-30 12:03:21 | 45.58715 | 9.22212 | 90° | 15km/h | 19574m | 3.4m/s | -56.0°C | 4.5% | 0hPa | 2.7V | 00:00:00 | 01:29:11 | 00:00:00 | |
| DO3MHA-11 | 2026-08-30 12:03:16 | 45.58710 | 9.22196 | 94° | 16km/h | 19548m | 4.7m/s | -55.9°C | 4.6% | 0hPa | 2.7V | 00:00:00 | 01:29:06 | 00:00:00 | |
| IW2NTF | 2026-08-30 12:03:08 | 45.58691 | 9.22149 | 347° | 15km/h | 19500m | 4.2m/s | -56.3°C | 4.5% | 0hPa | 2.7V | 08:30:00 | 01:28:56 | 00:00:00 | |
| DO3MHA-11 | 2026-08-30 12:03:06 | 45.58691 | 9.22149 | 348° | 15km/h | 19500m | 4.2m/s | -56.3°C | 4.5% | 0hPa | 2.6V | 00:00:00 | 01:28:56 | 00:00:00 | |
| NBG1-10 | 2026-08-30 12:03:03 | 45.58686 | 9.22141 | 89° | 16km/h | 19486m | 4.1m/s | -56.7°C | 4.9% | 0hPa | 2.6V | 00:00:00 | 01:28:53 | 00:00:00 | |
| IW2NTF | 2026-08-30 12:03:02 | 45.58670 | 9.22116 | 356° | 9km/h | 19453m | 4.1m/s | -56.7°C | 5% | 0hPa | 2.6V | 08:30:00 | 01:28:46 | 00:00:00 | |
| DO3MHA-11 | 2026-08-30 12:02:56 | 45.58670 | 9.22116 | 357° | 16km/h | 19453m | 4.0m/s | -56.7°C | 5.0% | 0hPa | 2.6V | 00:00:00 | 01:28:46 | 00:00:00 | |
| DB0UT-7 | 2026-08-30 12:02:51 | 45.58651 | 9.22103 | 93° | 16km/h | 19428m | 5.4m/s | -56.6°C | 4.8% | 0hPa | 2.6V | 00:00:00 | 00:00:00 | 00:00:00 | |
| IW2NTF | 2026-08-30 12:02:47 | 45.58636 | 9.22099 | 3° | 27km/h | 19405m | 4.3m/s | -56.5°C | 4.8% | 0hPa | 2.6V | 08:30:00 | 01:28:36 | 00:00:00 | |
| DO3MHA-11 | 2026-08-30 12:02:46 | 45.58636 | 9.22099 | 4° | 18km/h | 19406m | 4.3m/s | -56.5°C | 4.8% | 0hPa | 2.7V | 00:00:00 | 01:28:36 | 00:00:00 | |
| IW2NTF | 2026-08-30 12:02:41 | 45.58600 | 9.22075 | 4° | 18km/h | 19357m | 3.9m/s | -56.1°C | 4.6% | 0hPa | 2.7V | 08:30:00 | 01:28:26 | 00:00:00 | |
| DO3MHA-11 | 2026-08-30 12:02:36 | 45.58600 | 9.22075 | 5° | 16km/h | 19358m | 3.9m/s | -56.1°C | 4.6% | 0hPa | 2.6V | 00:00:00 | 01:28:26 | 00:00:00 | |
| NBG1-10 | 2026-08-30 12:02:30 | 45.58587 | 9.22058 | 4° | 18km/h | 19330m | 4.0m/s | -56.1°C | 4.5% | 0hPa | 2.6V | 00:00:00 | 01:28:20 | 00:00:00 | |
| IW2NTF | 2026-08-30 12:02:27 | 45.58567 | 9.22058 | 36° | 5km/h | 19312m | 4.3m/s | -56.3°C | 4.6% | 0hPa | 2.6V | 08:30:00 | 01:28:16 | 00:00:00 | |
| DO3MHA-11 | 2026-08-30 12:02:26 | 45.58568 | 9.22058 | 37° | 15km/h | 19312m | 4.2m/s | -56.3°C | 4.6% | 0hPa | 2.6V | 00:00:00 | 01:28:16 | 00:00:00 | |
| IW2NTF | 2026-08-30 12:02:21 | 45.58532 | 9.22066 | 328° | 20km/h | 19263m | 4.2m/s | -56.9°C | 4.8% | 0hPa | 2.7V | 08:30:00 | 01:28:06 | 00:00:00 | |
| DB0UT-7 | 2026-08-30 12:02:21 | 45.58547 | 9.22054 | 7° | 18km/h | 19288m | 5.1m/s | -56.9°C | 4.8% | 0hPa | 2.6V | 00:00:00 | 01:28:11 | 00:00:00 | |
| DO3MHA-11 | 2026-08-30 12:02:16 | 45.58532 | 9.22066 | 329° | 16km/h | 19264m | 4.1m/s | -56.9°C | 4.8% | 0hPa | 2.6V | 00:00:00 | 01:28:06 | 00:00:00 | |
| IW2NTF | 2026-08-30 12:02:11 | 45.58491 | 9.22080 | 344° | 22km/h | 19218m | 5.5m/s | -57°C | 4.9% | 0hPa | 2.6V | 08:30:00 | 01:27:56 | 00:00:00 | |
| DO3MHA-11 | 2026-08-30 12:02:06 | 45.58491 | 9.22080 | 345° | 22km/h | 19218m | 5.5m/s | -56.9°C | 4.9% | 0hPa | 2.6V | 00:00:00 | 01:27:56 | 00:00:00 | |
| IW2NTF | 2026-08-30 12:02:01 | 45.58443 | 9.22103 | 336° | 29km/h | 19170m | 5.5m/s | -56.8°C | 4.8% | 0hPa | 2.6V | 08:30:00 | 01:27:46 | 00:00:00 | |
| NBG1-10 | 2026-08-30 12:01:58 | 45.58449 | 9.22098 | 330° | 15km/h | 19175m | 4.7m/s | -56.8°C | 4.9% | 0hPa | 2.6V | 00:00:00 | 01:27:47 | 00:00:00 | |
| DO3MHA-11 | 2026-08-30 12:01:56 | 45.58443 | 9.22103 | 337° | 16km/h | 19170m | 5.5m/s | -56.8°C | 4.8% | 0hPa | 2.6V | 00:00:00 | 01:27:46 | 08:30:00 | |
| IW2NTF | 2026-08-30 12:01:52 | 45.58405 | 9.22115 | 330° | 24km/h | 19122m | 5.7m/s | -56.8°C | 4.9% | 0hPa | 2.7V | 08:30:00 | 01:27:36 | 00:00:00 | |
| DB0UT-7 | 2026-08-30 12:01:51 | 45.58424 | 9.22113 | 320° | 15km/h | 19145m | 3.7m/s | -56.7°C | 4.9% | 0hPa | 2.6V | 00:00:00 | 00:00:00 | 00:00:00 | |
| DO3MHA-11 | 2026-08-30 12:01:46 | 45.58405 | 9.22115 | 331° | 16km/h | 19122m | 5.6m/s | -56.7°C | 4.9% | 0hPa | 2.6V | 00:00:00 | 01:27:36 | 00:00:00 | |
| IW2NTF | 2026-08-30 12:01:41 | 45.58381 | 9.22142 | 279° | 16km/h | 19073m | 4.7m/s | -56.5°C | 4.8% | 0hPa | 2.6V | 08:30:00 | 01:27:26 | 00:00:00 | |
| DO3MHA-11 | 2026-08-30 12:01:36 | 45.58381 | 9.22142 | 280° | 11km/h | 19074m | 4.6m/s | -56.4°C | 4.8% | 0hPa | 2.7V | 00:00:00 | 01:27:26 | 00:00:00 | |
| IW2NTF | 2026-08-30 12:01:31 | 45.58368 | 9.22173 | 300° | 24km/h | 19025m | 2.8m/s | -56.2°C | 4.7% | 0hPa | 2.7V | 08:30:00 | 01:27:16 | 00:00:00 | |
| DO3MHA-11 | 2026-08-30 12:01:26 | 45.58368 | 9.22173 | 301° | 15km/h | 19025m | 2.7m/s | -56.2°C | 4.7% | 0hPa | 2.7V | 00:00:00 | 01:27:16 | 00:00:00 | |
| NBG1-10 | 2026-08-30 12:01:24 | 45.58366 | 9.22182 | 197° | 11km/h | 19016m | 5.6m/s | -56.1°C | 4.8% | 0hPa | 2.6V | 00:00:00 | 01:27:14 | 00:00:00 | |
| DB0UT-7 | 2026-08-30 12:01:21 | 45.58368 | 9.22173 | 55° | 11km/h | 19001m | 3.6m/s | -56.0°C | 4.7% | 0hPa | 2.6V | 00:00:00 | 01:27:11 | 00:00:00 | |
| IW2NTF | 2026-08-30 12:01:19 | 45.58365 | 9.22202 | 34° | 16km/h | 18968m | 4.9m/s | -56.1°C | 4.6% | 0hPa | 2.6V | 08:30:00 | 01:27:04 | 00:00:00 | |
| DO3MHA-11 | 2026-08-30 12:01:16 | 45.58369 | 9.22199 | 278° | 13km/h | 18978m | 4.0m/s | -56.1°C | 4.7% | 0hPa | 2.6V | 00:00:00 | 01:27:06 | 00:00:00 | |
| IW2NTF | 2026-08-30 12:01:09 | 45.58370 | 9.22199 | 166° | 13km/h | 18918m | 5.7m/s | -56.1°C | 4.7% | 0hPa | 2.6V | 08:30:00 | 01:26:54 | 00:00:00 | |
| DO3MHA-11 | 2026-08-30 12:01:06 | 45.58367 | 9.22202 | 73° | 9km/h | 18930m | 4.1m/s | -56.0°C | 4.6% | 0hPa | 2.6V | 00:00:00 | 01:26:56 | 00:00:00 | |
| IW2NTF | 2026-08-30 12:01:00 | 45.58376 | 9.22177 | 49° | 15km/h | 18869m | 4.5m/s | -56.1°C | 4.6% | 0hPa | 2.6V | 08:30:00 | 01:26:44 | 00:00:00 | |
| DO3MHA-11 | 2026-08-30 12:00:56 | 45.58378 | 9.22182 | 137° | 13km/h | 18880m | 5.0m/s | -56.1°C | 4.6% | 0hPa | 2.7V | 00:00:00 | 01:26:46 | 00:00:00 | |
| DB0UT-7 | 2026-08-30 12:00:51 | 45.58375 | 9.22167 | 151° | 16km/h | 18855m | 4.7m/s | -56.1°C | 4.7% | 0hPa | 2.7V | 00:00:00 | 00:00:00 | 00:00:00 | |
| IW2NTF | 2026-08-30 12:00:49 | 45.58381 | 9.22134 | 99° | 15km/h | 18822m | 4.2m/s | -56.4°C | 4.7% | 0hPa | 2.7V | 08:30:00 | 01:26:34 | 00:00:00 | |
| DO3MHA-11 | 2026-08-30 12:00:46 | 45.58380 | 9.22143 | 86° | 16km/h | 18831m | 5.1m/s | -56.4°C | 4.8% | 0hPa | 2.7V | 00:00:00 | 01:26:36 | 00:00:00 | |
| IW2NTF | 2026-08-30 12:00:39 | 45.58387 | 9.22073 | 74° | 18km/h | 18771m | 4.6m/s | -56.3°C | 4.8% | 0hPa | 2.7V | 08:30:00 | 01:26:24 | 00:00:00 | |
| DO3MHA-11 | 2026-08-30 12:00:36 | 45.58388 | 9.22086 | 96° | 15km/h | 18781m | 4.2m/s | -56.3°C | 4.8% | 0hPa | 2.6V | 00:00:00 | 01:26:26 | 00:00:00 | |
| IW2NTF | 2026-08-30 12:00:29 | 45.58379 | 9.22018 | 72° | 31km/h | 18724m | 3.3m/s | -56.4°C | 4.7% | 0hPa | 2.6V | 08:30:00 | 01:26:14 | 00:00:00 | |
| DO3MHA-11 | 2026-08-30 12:00:26 | 45.58382 | 9.22037 | 81° | 18km/h | 18734m | 6.2m/s | -56.5°C | 4.8% | 0hPa | 2.7V | 00:00:00 | 01:26:16 | 08:30:00 | |
| DB0UT-7 | 2026-08-30 12:00:21 | 45.58370 | 9.22003 | 346° | 18km/h | 18710m | 3.6m/s | -56.3°C | 4.6% | 0hPa | 2.7V | 00:00:00 | 01:26:11 | 00:00:00 | |
| IW2NTF | 2026-08-30 12:00:19 | 45.58362 | 9.21969 | 32° | 13km/h | 18676m | 4.4m/s | -56.3°C | 4.8% | 0hPa | 2.7V | 08:30:00 | 01:26:04 | 00:00:00 | |
| NBG1-10 | 2026-08-30 12:00:18 | 45.58368 | 9.21995 | 93° | 20km/h | 18696m | 5.7m/s | -56.2°C | 4.7% | 0hPa | 2.7V | 00:00:00 | 01:26:08 | 08:30:00 | |
| DO3MHA-11 | 2026-08-30 12:00:17 | 45.58367 | 9.21978 | 73° | 18km/h | 18685m | 5.4m/s | -56.2°C | 4.8% | 0hPa | 2.6V | 00:00:00 | 01:26:06 | 00:00:00 | |
| IW2NTF | 2026-08-30 12:00:09 | 45.58338 | 9.21919 | 344° | 13km/h | 18626m | 5.1m/s | -56.7°C | 4.8% | 0hPa | 2.6V | 08:30:00 | 01:25:54 | 00:00:00 | |
| DO3MHA-11 | 2026-08-30 12:00:06 | 45.58341 | 9.21923 | 81° | 20km/h | 18637m | 3.5m/s | -56.4°C | 4.6% | 0hPa | 2.6V | 00:00:00 | 01:25:56 | 00:00:00 | |
| IW2NTF | 2026-08-30 11:59:59 | 45.58302 | 9.21870 | 50° | 18km/h | 18576m | 4.3m/s | -56.6°C | 4.8% | 0hPa | 2.6V | 08:30:00 | 01:25:44 | 00:00:00 | |
| DO3MHA-11 | 2026-08-30 11:59:56 | 45.58306 | 9.21880 | 53° | 20km/h | 18586m | 5.7m/s | -56.6°C | 4.8% | 0hPa | 2.7V | 00:00:00 | 01:25:46 | 00:00:00 | |
| DB0UT-7 | 2026-08-30 11:59:51 | 45.58290 | 9.21857 | 51° | 24km/h | 18561m | 4.9m/s | -56.6°C | 4.8% | 0hPa | 2.7V | 00:00:00 | 00:00:00 | 00:00:00 | |
| IW2NTF | 2026-08-30 11:59:50 | 45.58276 | 9.21814 | 68° | 18km/h | 18527m | 5.7m/s | -56.8°C | 4.8% | 0hPa | 2.7V | 08:30:00 | 01:25:34 | 00:00:00 | |
| NBG1-10 | 2026-08-30 11:59:45 | 45.58278 | 9.21819 | 42° | 29km/h | 18532m | 3.6m/s | -56.7°C | 4.7% | 0hPa | 2.6V | 00:00:00 | 01:25:35 | 00:00:00 | |
| IW2NTF | 2026-08-30 11:59:40 | 45.58263 | 9.21734 | 60° | 29km/h | 18477m | 5.9m/s | -56.7°C | 4.6% | 0hPa | 2.6V | 08:30:00 | 01:25:24 | 00:00:00 | |
| DO3MHA-11 | 2026-08-30 11:59:36 | 45.58266 | 9.21753 | 94° | 27km/h | 18487m | 3.9m/s | -56.7°C | 4.9% | 0hPa | 2.6V | 00:00:00 | 01:25:26 | 00:00:00 | |
| IW2NTF | 2026-08-30 11:59:27 | 45.58252 | 9.21621 | 91° | 38km/h | 18418m | 5.8m/s | -57.2°C | 5.1% | 0hPa | 2.6V | 08:30:00 | 01:25:12 | 00:00:00 | |
| DO3MHA-11 | 2026-08-30 11:59:26 | 45.58254 | 9.21663 | 59° | 33km/h | 18437m | 4.8m/s | -56.9°C | 4.7% | 0hPa | 2.7V | 00:00:00 | 01:25:16 | 00:00:00 | |
| DB0UT-7 | 2026-08-30 11:59:21 | 45.58251 | 9.21607 | 84° | 33km/h | 18412m | 6.4m/s | -57.2°C | 5.0% | 0hPa | 2.6V | 00:00:00 | 01:25:11 | 08:30:00 | |
| IW2NTF | 2026-08-30 11:59:17 | 45.58234 | 9.21491 | 90° | 24km/h | 18366m | 4.4m/s | -57.1°C | 5% | 0hPa | 2.7V | 08:30:00 | 01:25:02 | 00:00:00 | |
| DO3MHA-11 | 2026-08-30 11:59:16 | 45.58244 | 9.21542 | 73° | 35km/h | 18386m | 6.0m/s | -57.2°C | 5.0% | 0hPa | 2.6V | 00:00:00 | 01:25:06 | 00:00:00 | |
| NBG1-10 | 2026-08-30 11:59:12 | 45.58234 | 9.21491 | 91° | 31km/h | 18366m | 4.3m/s | -57.1°C | 5.0% | 0hPa | 2.6V | 00:00:00 | 01:25:02 | 00:00:00 | |
| IW2NTF | 2026-08-30 11:59:07 | 45.58204 | 9.21382 | 61° | 27km/h | 18319m | 4.3m/s | -57°C | 5% | 0hPa | 2.6V | 08:30:00 | 01:24:52 | 00:00:00 | |
| DO3MHA-11 | 2026-08-30 11:59:06 | 45.58217 | 9.21424 | 80° | 33km/h | 18338m | 4.3m/s | -57.0°C | 5.0% | 0hPa | 2.6V | 00:00:00 | 01:24:56 | 00:00:00 | |
| IW2NTF | 2026-08-30 11:58:57 | 45.58175 | 9.21280 | 78° | 24km/h | 18271m | 5.6m/s | -56.9°C | 5% | 0hPa | 2.6V | 08:30:00 | 01:24:42 | 00:00:00 | |
| DO3MHA-11 | 2026-08-30 11:58:56 | 45.58185 | 9.21317 | 53° | 29km/h | 18291m | 3.2m/s | -57.0°C | 4.9% | 0hPa | 2.6V | 00:00:00 | 01:24:46 | 08:30:00 | |
| DB0UT-7 | 2026-08-30 11:58:51 | 45.58173 | 9.21270 | 66° | 26km/h | 18266m | 4.9m/s | -56.7°C | 5.0% | 0hPa | 2.7V | 00:00:00 | 00:00:00 | 00:00:00 | |
| IW2NTF | 2026-08-30 11:58:48 | 45.58144 | 9.21188 | 80° | 20km/h | 18225m | 6.1m/s | -56.5°C | 4.8% | 0hPa | 2.7V | 08:30:00 | 01:24:32 | 00:00:00 | |
| DO3MHA-11 | 2026-08-30 11:58:46 | 45.58159 | 9.21219 | 65° | 27km/h | 18243m | 4.5m/s | -56.6°C | 4.9% | 0hPa | 2.6V | 00:00:00 | 01:24:36 | 00:00:00 | |
| NBG1-10 | 2026-08-30 11:58:38 | 45.58137 | 9.21151 | 55° | 22km/h | 18206m | 5.0m/s | -56.5°C | 4.9% | 0hPa | 2.6V | 00:00:00 | 01:24:28 | 00:00:00 | |
| IW2NTF | 2026-08-30 11:58:37 | 45.58117 | 9.21098 | 47° | 20km/h | 18178m | 4.1m/s | -56.3°C | 4.8% | 0hPa | 2.6V | 08:30:00 | 01:24:22 | 00:00:00 | |
| DO3MHA-11 | 2026-08-30 11:58:36 | 45.58128 | 9.21130 | 63° | 22km/h | 18196m | 4.6m/s | -56.4°C | 4.9% | 0hPa | 2.6V | 00:00:00 | 01:24:26 | 00:00:00 | |
| IW2NTF | 2026-08-30 11:58:27 | 45.58091 | 9.21030 | 98° | 15km/h | 18129m | 5.4m/s | -56°C | 4.8% | 0hPa | 2.6V | 08:30:00 | 01:24:12 | 00:00:00 | |
| DO3MHA-11 | 2026-08-30 11:58:26 | 45.58103 | 9.21058 | 49° | 20km/h | 18150m | 4.3m/s | -56.1°C | 4.7% | 0hPa | 2.6V | 00:00:00 | 01:24:16 | 00:00:00 | |
| DB0UT-7 | 2026-08-30 11:58:21 | 45.58092 | 9.21025 | 93° | 18km/h | 18124m | 4.7m/s | -55.9°C | 4.7% | 0hPa | 2.7V | 00:00:00 | 01:24:11 | 00:00:00 | |
| IW2NTF | 2026-08-30 11:58:17 | 45.58065 | 9.20964 | 57° | 9km/h | 18082m | 5.5m/s | -56°C | 4.6% | 0hPa | 2.7V | 08:30:00 | 01:24:02 | 00:00:00 | |
| DO3MHA-11 | 2026-08-30 11:58:16 | 45.58079 | 9.20996 | 45° | 20km/h | 18102m | 4.7m/s | -55.9°C | 4.5% | 0hPa | 2.6V | 00:00:00 | 01:24:06 | 00:00:00 | |
| IW2NTF | 2026-08-30 11:58:07 | 45.58041 | 9.20926 | 99° | 15km/h | 18035m | 3.2m/s | -56.4°C | 4.7% | 0hPa | 2.6V | 08:30:00 | 01:23:52 | 00:00:00 | |
| DO3MHA-11 | 2026-08-30 11:58:06 | 45.58051 | 9.20942 | 26° | 18km/h | 18054m | 5.1m/s | -56.0°C | 4.6% | 0hPa | 2.7V | 00:00:00 | 01:23:56 | 00:00:00 | |
| NBG1-10 | 2026-08-30 11:58:05 | 45.58046 | 9.20938 | 28° | 18km/h | 18049m | 3.4m/s | -56.0°C | 4.6% | 0hPa | 2.7V | 00:00:00 | 01:23:55 | 00:00:00 | |
| IW2NTF | 2026-08-30 11:57:57 | 45.58011 | 9.20901 | 9° | 7km/h | 17989m | 4.5m/s | -56.6°C | 4.8% | 0hPa | 2.7V | 08:30:00 | 01:23:42 | 00:00:00 | |
| DO3MHA-11 | 2026-08-30 11:57:56 | 45.58019 | 9.20914 | 57° | 18km/h | 18007m | 3.8m/s | -56.4°C | 4.6% | 0hPa | 2.6V | 00:00:00 | 01:23:46 | 00:00:00 | |
| DB0UT-7 | 2026-08-30 11:57:51 | 45.58010 | 9.20899 | 60° | 24km/h | 17984m | 5.1m/s | -56.6°C | 4.9% | 0hPa | 2.7V | 00:00:00 | 00:00:00 | 00:00:00 | |
| IW2NTF | 2026-08-30 11:57:47 | 45.57981 | 9.20856 | 60° | 31km/h | 17941m | 5.4m/s | -57.1°C | 4.9% | 0hPa | 2.7V | 08:30:00 | 01:23:32 | 00:00:00 | |
| DO3MHA-11 | 2026-08-30 11:57:46 | 45.57988 | 9.20873 | 354° | 26km/h | 17960m | 4.8m/s | -56.8°C | 4.9% | 0hPa | 2.6V | 00:00:00 | 01:23:36 | 00:00:00 | |
| IW2NTF | 2026-08-30 11:57:37 | 45.57928 | 9.20809 | 36° | 29km/h | 17895m | 4.8m/s | -57°C | 5% | 0hPa | 2.6V | 08:30:00 | 01:23:22 | 00:00:00 | |
| DO3MHA-11 | 2026-08-30 11:57:36 | 45.57942 | 9.20826 | 67° | 24km/h | 17912m | 4.5m/s | -57.0°C | 5.0% | 0hPa | 2.7V | 00:00:00 | 01:23:26 | 00:00:00 | |
| NBG1-10 | 2026-08-30 11:57:32 | 45.57928 | 9.20809 | 37° | 24km/h | 17895m | 4.7m/s | -56.9°C | 5.0% | 0hPa | 2.7V | 00:00:00 | 01:23:22 | 00:00:00 | |
| IW2NTF | 2026-08-30 11:57:27 | 45.57879 | 9.20756 | 24° | 37km/h | 17845m | 6m/s | -56.9°C | 5% | 0hPa | 2.7V | 08:30:00 | 01:23:12 | 00:00:00 | |
| DO3MHA-11 | 2026-08-30 11:57:26 | 45.57893 | 9.20780 | 34° | 22km/h | 17866m | 6.3m/s | -57.0°C | 5.1% | 0hPa | 2.6V | 00:00:00 | 01:23:16 | 08:30:00 | |
| DB0UT-7 | 2026-08-30 11:57:21 | 45.57870 | 9.20752 | 13° | 24km/h | 17840m | 2.7m/s | -56.9°C | 5.0% | 0hPa | 2.6V | 00:00:00 | 01:23:11 | 00:00:00 | |
| IW2NTF | 2026-08-30 11:57:17 | 45.57840 | 9.20711 | 46° | 38km/h | 17797m | 4.1m/s | -56.5°C | 4.6% | 0hPa | 2.6V | 08:30:00 | 01:23:02 | 00:00:00 | |
| DO3MHA-11 | 2026-08-30 11:57:16 | 45.57865 | 9.20734 | 111° | 22km/h | 17818m | 3.6m/s | -56.6°C | 5.0% | 0hPa | 2.6V | 00:00:00 | 01:23:06 | 00:00:00 | |
| IW2NTF | 2026-08-30 11:57:07 | 45.57817 | 9.20646 | 50° | 16km/h | 17749m | 5.8m/s | -56.3°C | 4.6% | 0hPa | 2.6V | 08:30:00 | 01:22:52 | 00:00:00 | |
| DO3MHA-11 | 2026-08-30 11:57:06 | 45.57827 | 9.20677 | 47° | 24km/h | 17769m | 4.6m/s | -56.3°C | 4.7% | 0hPa | 2.7V | 00:00:00 | 01:22:56 | 00:00:00 | |
| NBG1-10 | 2026-08-30 11:56:59 | 45.57806 | 9.20634 | 67° | 31km/h | 17734m | 5.8m/s | -56.3°C | 4.6% | 0hPa | 2.7V | 00:00:00 | 01:22:49 | 00:00:00 | |
| DO3MHA-11 | 2026-08-30 11:56:56 | 45.57805 | 9.20598 | 86° | 27km/h | 17718m | 4.8m/s | -56.6°C | 4.6% | 0hPa | 2.6V | 00:00:00 | 01:22:46 | 00:00:00 | |
| IW2NTF | 2026-08-30 11:56:51 | 45.57792 | 9.20564 | 88° | 35km/h | 17693m | 4.9m/s | -57.2°C | 4.8% | 0hPa | 2.6V | 08:30:00 | 01:22:41 | 00:00:00 | |
| DB0UT-7 | 2026-08-30 11:56:51 | 45.57792 | 9.20564 | 89° | 33km/h | 17693m | 4.9m/s | -57.1°C | 4.8% | 0hPa | 2.7V | 00:00:00 | 00:00:00 | 00:00:00 | |
| DO3MHA-11 | 2026-08-30 11:56:46 | 45.57780 | 9.20513 | 38° | 31km/h | 17669m | 4.9m/s | -57.4°C | 5.0% | 0hPa | 2.7V | 00:00:00 | 01:22:36 | 00:00:00 | |
| IW2NTF | 2026-08-30 11:56:41 | 45.57762 | 9.20462 | 61° | 38km/h | 17645m | 3.6m/s | -57.5°C | 5% | 0hPa | 2.7V | 08:30:00 | 01:22:31 | 00:00:00 | |
| DO3MHA-11 | 2026-08-30 11:56:36 | 45.57750 | 9.20410 | 55° | 37km/h | 17623m | 6.1m/s | -57.4°C | 5.0% | 0hPa | 2.6V | 00:00:00 | 01:22:26 | 00:00:00 | |
| IW2NTF | 2026-08-30 11:56:31 | 45.57725 | 9.20367 | 93° | 33km/h | 17598m | 4m/s | -58.1°C | 5.2% | 0hPa | 2.6V | 08:30:00 | 01:22:21 | 00:00:00 | |
| DO3MHA-11 | 2026-08-30 11:56:26 | 45.57701 | 9.20315 | 34° | 26km/h | 17576m | 4.9m/s | -58.2°C | 5.1% | 0hPa | 2.6V | 00:00:00 | 01:22:16 | 00:00:00 | |
| IW2NTF | 2026-08-30 11:56:21 | 45.57692 | 9.20270 | 57° | 38km/h | 17553m | 4m/s | -58.3°C | 5.3% | 0hPa | 2.7V | 08:30:00 | 01:22:11 | 00:00:00 | |
| DB0UT-7 | 2026-08-30 11:56:21 | 45.57691 | 9.20270 | 58° | 22km/h | 17553m | 4.0m/s | -58.3°C | 5.3% | 0hPa | 2.7V | 00:00:00 | 01:22:11 | 00:00:00 | |
| DO3MHA-11 | 2026-08-30 11:56:16 | 45.57671 | 9.20244 | 41° | 24km/h | 17531m | 4.6m/s | -58.2°C | 5.4% | 0hPa | 2.7V | 00:00:00 | 01:22:06 | 00:00:00 | |
| IW2NTF | 2026-08-30 11:56:13 | 45.57663 | 9.20200 | 67° | 16km/h | 17507m | 5.2m/s | -58.1°C | 5.3% | 0hPa | 2.7V | 08:30:00 | 01:22:01 | 00:00:00 | |
| DO3MHA-11 | 2026-08-30 11:56:06 | 45.57642 | 9.20181 | 94° | 22km/h | 17481m | 5.8m/s | -58.0°C | 5.2% | 0hPa | 2.6V | 00:00:00 | 01:21:56 | 00:00:00 | |
| IW2NTF | 2026-08-30 11:56:01 | 45.57630 | 9.20144 | 14° | 16km/h | 17459m | 5.3m/s | -57.9°C | 5.4% | 0hPa | 2.6V | 08:30:00 | 01:21:51 | 00:00:00 | |
| DO3MHA-11 | 2026-08-30 11:55:56 | 45.57615 | 9.20116 | 63° | 20km/h | 17436m | 3.6m/s | -57.7°C | 5.2% | 0hPa | 2.6V | 00:00:00 | 01:21:46 | 08:30:00 | |
| NBG1-10 | 2026-08-30 11:55:53 | 45.57610 | 9.20101 | 322° | 20km/h | 17421m | 4.5m/s | -57.6°C | 5.2% | 0hPa | 2.6V | 00:00:00 | 01:21:43 | 00:00:00 | |
| IW2NTF | 2026-08-30 11:55:51 | 45.57604 | 9.20103 | 14° | 22km/h | 17411m | 3.4m/s | -57.6°C | 5.2% | 0hPa | 2.6V | 08:30:00 | 01:21:41 | 00:00:00 | |
| DB0UT-7 | 2026-08-30 11:55:51 | 45.57604 | 9.20103 | 15° | 20km/h | 17412m | 3.4m/s | -57.5°C | 5.2% | 0hPa | 2.7V | 00:00:00 | 00:00:00 | 00:00:00 | |
| DO3MHA-11 | 2026-08-30 11:55:46 | 45.57592 | 9.20065 | 70° | 20km/h | 17389m | 3.4m/s | -57.3°C | 5.1% | 0hPa | 2.7V | 00:00:00 | 01:21:36 | 00:00:00 | |
| IW2NTF | 2026-08-30 11:55:41 | 45.57575 | 9.20049 | 100° | 13km/h | 17367m | 3.8m/s | -57.2°C | 5% | 0hPa | 2.7V | 08:30:00 | 01:21:31 | 00:00:00 | |
| IW2NTF | 2026-08-30 11:55:36 | 45.57551 | 9.19992 | 40° | 24km/h | 17320m | 3m/s | -57.2°C | 5.1% | 0hPa | 2.6V | 08:30:00 | 01:21:21 | 00:00:00 | |
| DO3MHA-11 | 2026-08-30 11:55:35 | 45.57563 | 9.20010 | 55° | 18km/h | 17339m | 4.7m/s | -57.2°C | 5.1% | 0hPa | 2.6V | 00:00:00 | 01:21:25 | 00:00:00 | |
| IW2NTF | 2026-08-30 11:55:26 | 45.57531 | 9.19945 | 104° | 16km/h | 17274m | 4.9m/s | -57.3°C | 5.1% | 0hPa | 2.6V | 08:30:00 | 01:21:11 | 00:00:00 | |
| DO3MHA-11 | 2026-08-30 11:55:25 | 45.57545 | 9.19956 | 39° | 24km/h | 17292m | 4.5m/s | -57.2°C | 5.0% | 0hPa | 2.6V | 00:00:00 | 01:21:15 | 00:00:00 | |
| DB0UT-7 | 2026-08-30 11:55:21 | 45.57531 | 9.19945 | 105° | 29km/h | 17275m | 4.8m/s | -57.3°C | 5.1% | 0hPa | 2.6V | 00:00:00 | 01:21:11 | 00:00:00 | |
| NBG1-10 | 2026-08-30 11:55:20 | 45.57532 | 9.19937 | 102° | 29km/h | 17269m | 6.6m/s | -57.3°C | 5.0% | 0hPa | 2.6V | 00:00:00 | 01:21:10 | 08:30:00 | |
| DO3MHA-11 | 2026-08-30 11:55:15 | 45.57528 | 9.19891 | 98° | 24km/h | 17245m | 3.8m/s | -57.1°C | 4.9% | 0hPa | 2.7V | 00:00:00 | 01:21:05 | 00:00:00 | |
| IW2NTF | 2026-08-30 11:55:09 | 45.57522 | 9.19834 | 66° | 24km/h | 17217m | 4.2m/s | -57.4°C | 5% | 0hPa | 2.7V | 08:30:00 | 01:20:59 | 00:00:00 | |
| DO3MHA-11 | 2026-08-30 11:55:05 | 45.57521 | 9.19804 | 111° | 29km/h | 17198m | 3.9m/s | -57.6°C | 5.2% | 0hPa | 2.7V | 00:00:00 | 01:20:55 | 00:00:00 | |
| IW2NTF | 2026-08-30 11:54:59 | 45.57513 | 9.19737 | 81° | 35km/h | 17171m | 4.4m/s | -58.1°C | 5.3% | 0hPa | 2.7V | 08:30:00 | 01:20:49 | 00:00:00 | |
| DO3MHA-11 | 2026-08-30 11:54:55 | 45.57521 | 9.19703 | 87° | 33km/h | 17153m | 4.7m/s | -58.1°C | 5.4% | 0hPa | 2.6V | 00:00:00 | 01:20:45 | 00:00:00 | |
| DB0UT-7 | 2026-08-30 11:54:51 | 45.57508 | 9.19652 | 86° | 33km/h | 17133m | 5.3m/s | -58.1°C | 5.2% | 0hPa | 2.7V | 00:00:00 | 00:00:00 | 08:30:00 | |
| IW2NTF | 2026-08-30 11:54:49 | 45.57510 | 9.19629 | 101° | 31km/h | 17124m | 4.5m/s | -58.1°C | 5.3% | 0hPa | 2.6V | 08:30:00 | 01:20:39 | 00:00:00 | |
| NBG1-10 | 2026-08-30 11:54:47 | 45.57509 | 9.19609 | 72° | 35km/h | 17115m | 4.7m/s | -58.0°C | 5.2% | 0hPa | 2.6V | 00:00:00 | 01:20:37 | 00:00:00 | |
| DO3MHA-11 | 2026-08-30 11:54:45 | 45.57506 | 9.19590 | 82° | 29km/h | 17104m | 5.7m/s | -58.0°C | 5.2% | 0hPa | 2.6V | 00:00:00 | 01:20:35 | 00:00:00 | |
| IW2NTF | 2026-08-30 11:54:39 | 45.57495 | 9.19535 | 90° | 26km/h | 17072m | 4.2m/s | -58.2°C | 5.3% | 0hPa | 2.6V | 08:30:00 | 01:20:29 | 00:00:00 | |
| DO3MHA-11 | 2026-08-30 11:54:35 | 45.57485 | 9.19488 | 69° | 37km/h | 17051m | 6.3m/s | -58.7°C | 5.5% | 0hPa | 2.7V | 00:00:00 | 01:20:25 | 00:00:00 | |
| IW2NTF | 2026-08-30 11:54:29 | 45.57468 | 9.19422 | 80° | 35km/h | 17019m | 6m/s | -59°C | 5.6% | 0hPa | 2.7V | 08:30:00 | 01:20:19 | 00:00:00 | |
| DO3MHA-11 | 2026-08-30 11:54:25 | 45.57451 | 9.19368 | 45° | 38km/h | 17001m | 4.2m/s | -59.0°C | 5.4% | 0hPa | 2.6V | 00:00:00 | 01:20:15 | 08:30:00 | |
| IW2NTF | 2026-08-30 11:54:24 | 45.57428 | 9.19302 | 64° | 46km/h | 16971m | 5m/s | -59°C | 5.5% | 0hPa | 2.6V | 08:30:00 | 01:20:09 | 00:00:00 | |
| DB0UT-7 | 2026-08-30 11:54:21 | 45.57434 | 9.19329 | 83° | 46km/h | 16981m | 4.9m/s | -58.9°C | 5.5% | 0hPa | 2.6V | 00:00:00 | 01:20:11 | 00:00:00 | |
| IW2NTF | 2026-08-30 11:54:15 | 45.57379 | 9.19171 | 66° | 53km/h | 16921m | 5.3m/s | -60.2°C | 6% | 0hPa | 2.6V | 08:30:00 | 01:19:59 | 00:00:00 | |
| NBG1-10 | 2026-08-30 11:54:14 | 45.57400 | 9.19240 | 50° | 47km/h | 16945m | 5.2m/s | -59.7°C | 5.6% | 0hPa | 2.7V | 00:00:00 | 01:20:04 | 00:00:00 | |
| DO3MHA-11 | 2026-08-30 11:54:05 | 45.57347 | 9.19108 | 58° | 47km/h | 16902m | 4.7m/s | -60.5°C | 6.3% | 0hPa | 2.7V | 00:00:00 | 01:19:55 | 00:00:00 | |
| IW2NTF | 2026-08-30 11:54:04 | 45.57310 | 9.19019 | 50° | 40km/h | 16873m | 4.5m/s | -60.5°C | 6.4% | 0hPa | 2.7V | 08:30:00 | 01:19:49 | 00:00:00 | |
| DO3MHA-11 | 2026-08-30 11:53:55 | 45.57277 | 9.18966 | 58° | 44km/h | 16857m | 3.4m/s | -60.4°C | 6.4% | 0hPa | 2.7V | 00:00:00 | 01:19:45 | 00:00:00 | |
| IW2NTF | 2026-08-30 11:53:54 | 45.57239 | 9.18880 | 49° | 60km/h | 16831m | 1.8m/s | -60.4°C | 6.1% | 0hPa | 2.7V | 08:30:00 | 01:19:39 | 00:00:00 | |
| DB0UT-7 | 2026-08-30 11:53:51 | 45.57258 | 9.18912 | 54° | 42km/h | 16839m | 5.3m/s | -60.3°C | 6.3% | 0hPa | 2.6V | 00:00:00 | 00:00:00 | 00:00:00 | |
| DO3MHA-11 | 2026-08-30 11:53:45 | 45.57219 | 9.18832 | 69° | 44km/h | 16812m | 4.2m/s | -60.2°C | 6.3% | 0hPa | 2.6V | 00:00:00 | 01:19:35 | 00:00:00 | |
| IW2NTF | 2026-08-30 11:53:44 | 45.57175 | 9.18759 | 56° | 37km/h | 16784m | 4.7m/s | -60.1°C | 6.3% | 0hPa | 2.6V | 08:30:00 | 01:19:29 | 00:00:00 | |
| NBG1-10 | 2026-08-30 11:53:41 | 45.57188 | 9.18780 | 44° | 35km/h | 16793m | 4.7m/s | -60.1°C | 6.2% | 0hPa | 2.6V | 00:00:00 | 01:19:31 | 00:00:00 | |
| DO3MHA-11 | 2026-08-30 11:53:35 | 45.57153 | 9.18706 | 60° | 37km/h | 16766m | 6.1m/s | -60.0°C | 6.4% | 0hPa | 2.6V | 00:00:00 | 01:19:25 | 00:00:00 | |
| IW2NTF | 2026-08-30 11:53:34 | 45.57115 | 9.18633 | 61° | 46km/h | 16738m | 3.5m/s | -60°C | 6.3% | 0hPa | 2.6V | 08:30:00 | 01:19:19 | 00:00:00 | |
| DO3MHA-11 | 2026-08-30 11:53:25 | 45.57096 | 9.18608 | 26° | 37km/h | 16721m | 4.5m/s | -60.0°C | 6.2% | 0hPa | 2.7V | 00:00:00 | 01:19:15 | 00:00:00 | |
| IW2NTF | 2026-08-30 11:53:24 | 45.57062 | 9.18545 | 49° | 27km/h | 16692m | 5m/s | -60.4°C | 6.5% | 0hPa | 2.7V | 08:30:00 | 01:19:09 | 00:00:00 | |
| DB0UT-7 | 2026-08-30 11:53:21 | 45.57068 | 9.18562 | 73° | 27km/h | 16701m | 4.4m/s | -60.1°C | 6.3% | 0hPa | 2.6V | 00:00:00 | 01:19:11 | 00:00:00 | |
| DO3MHA-11 | 2026-08-30 11:53:15 | 45.57037 | 9.18519 | 46° | 27km/h | 16673m | 4.2m/s | -60.3°C | 6.7% | 0hPa | 2.7V | 00:00:00 | 01:19:05 | 00:00:00 | |
| IW2NTF | 2026-08-30 11:53:14 | 45.57011 | 9.18476 | 63° | 18km/h | 16646m | 3.5m/s | -60.3°C | 6.6% | 0hPa | 2.7V | 08:30:00 | 01:18:59 | 00:00:00 | |
| NBG1-10 | 2026-08-30 11:53:08 | 45.57008 | 9.18470 | 57° | 29km/h | 16643m | 3.8m/s | -60.3°C | 6.5% | 0hPa | 2.6V | 00:00:00 | 01:18:58 | 00:00:00 | |
| DO3MHA-11 | 2026-08-30 11:53:05 | 45.56992 | 9.18442 | 53° | 27km/h | 16629m | 5.9m/s | -60.3°C | 6.4% | 0hPa | 2.6V | 00:00:00 | 01:18:55 | 00:00:00 | |
| IW2NTF | 2026-08-30 11:53:04 | 45.56966 | 9.18401 | 60° | 20km/h | 16604m | 4.9m/s | -60.3°C | 6.5% | 0hPa | 2.6V | 08:30:00 | 01:18:49 | 00:00:00 | |
| DO3MHA-11 | 2026-08-30 11:52:55 | 45.56956 | 9.18364 | 47° | 27km/h | 16588m | 3.2m/s | -60.3°C | 6.6% | 0hPa | 2.6V | 00:00:00 | 01:18:45 | 08:30:00 | |
| IW2NTF | 2026-08-30 11:52:54 | 45.56940 | 9.18318 | 56° | 40km/h | 16559m | 5.6m/s | -60.8°C | 6.7% | 0hPa | 2.8V | 08:30:00 | 01:18:39 | 00:00:00 | |
| DB0UT-7 | 2026-08-30 11:52:51 | 45.56945 | 9.18337 | 94° | 37km/h | 16570m | 3.5m/s | -60.5°C | 6.9% | 0hPa | 2.6V | 00:00:00 | 00:00:00 | 00:00:00 | |
| DO3MHA-11 | 2026-08-30 11:52:45 | 45.56923 | 9.18284 | 108° | 33km/h | 16541m | 4.5m/s | -60.7°C | 6.7% | 0hPa | 2.6V | 00:00:00 | 01:18:35 | 00:00:00 | |
| IW2NTF | 2026-08-30 11:52:44 | 45.56913 | 9.18211 | 73° | 29km/h | 16514m | 3.7m/s | -60.6°C | 6.9% | 0hPa | 2.6V | 08:30:00 | 01:18:29 | 00:00:00 | |
| DO3MHA-11 | 2026-08-30 11:52:35 | 45.56903 | 9.18168 | 80° | 38km/h | 16496m | 3.6m/s | -60.4°C | 6.9% | 0hPa | 2.6V | 00:00:00 | 01:18:25 | 00:00:00 | |
| IW2NTF | 2026-08-30 11:52:32 | 45.56890 | 9.18084 | 60° | 38km/h | 16470m | 4.8m/s | -60.5°C | 6.5% | 0hPa | 2.6V | 08:30:00 | 01:18:19 | 00:00:00 | |
| DO3MHA-11 | 2026-08-30 11:52:25 | 45.56888 | 9.18032 | 82° | 44km/h | 16452m | 6.0m/s | -60.5°C | 6.5% | 0hPa | 2.7V | 00:00:00 | 01:18:15 | 00:00:00 | |
| IW2NTF | 2026-08-30 11:52:21 | 45.56869 | 9.17898 | 83° | 44km/h | 16413m | 4.6m/s | -61°C | 7% | 0hPa | 2.8V | 08:30:00 | 01:18:06 | 00:00:00 | |
| DB0UT-7 | 2026-08-30 11:52:21 | 45.56874 | 9.17966 | 81° | 46km/h | 16434m | 3.8m/s | -60.7°C | 6.8% | 0hPa | 2.6V | 00:00:00 | 01:18:11 | 00:00:00 | |
| DO3MHA-11 | 2026-08-30 11:52:15 | 45.56868 | 9.17884 | 92° | 44km/h | 16409m | 5.0m/s | -61.0°C | 7.0% | 0hPa | 2.6V | 00:00:00 | 01:18:05 | 00:00:00 | |
| IW2NTF | 2026-08-30 11:52:11 | 45.56860 | 9.17744 | 66° | 46km/h | 16368m | 3.7m/s | -60.9°C | 7% | 0hPa | 2.6V | 08:30:00 | 01:17:56 | 00:00:00 | |
| DO3MHA-11 | 2026-08-30 11:52:05 | 45.56855 | 9.17730 | 64° | 44km/h | 16366m | 2.8m/s | -60.8°C | 7.1% | 0hPa | 2.6V | 00:00:00 | 01:17:55 | 00:00:00 | |
| NBG1-10 | 2026-08-30 11:52:02 | 45.56856 | 9.17685 | 102° | 53km/h | 16354m | 3.2m/s | -60.7°C | 7.1% | 0hPa | 2.6V | 00:00:00 | 01:17:52 | 00:00:00 | |
| IW2NTF | 2026-08-30 11:52:01 | 45.56845 | 9.17588 | 101° | 40km/h | 16328m | 3.7m/s | -60.6°C | 6.9% | 0hPa | 2.6V | 08:30:00 | 01:17:46 | 00:00:00 | |
| DO3MHA-11 | 2026-08-30 11:51:55 | 45.56847 | 9.17572 | 98° | 53km/h | 16323m | 5.0m/s | -60.6°C | 6.8% | 0hPa | 2.6V | 00:00:00 | 01:17:45 | 00:00:00 | |
| IW2NTF | 2026-08-30 11:51:51 | 45.56839 | 9.17402 | 87° | 55km/h | 16281m | 4.3m/s | -60.4°C | 7% | 0hPa | 2.6V | 08:30:00 | 01:17:36 | 00:00:00 | |
| DB0UT-7 | 2026-08-30 11:51:51 | 45.56843 | 9.17482 | 80° | 55km/h | 16305m | 5.9m/s | -60.6°C | 6.7% | 0hPa | 2.6V | 00:00:00 | 00:00:00 | 00:00:00 | |
| DO3MHA-11 | 2026-08-30 11:51:45 | 45.56838 | 9.17383 | 82° | 55km/h | 16277m | 4.8m/s | -60.4°C | 7.0% | 0hPa | 2.6V | 00:00:00 | 01:17:35 | 00:00:00 | |
| IW2NTF | 2026-08-30 11:51:41 | 45.56810 | 9.17210 | 83° | 68km/h | 16235m | 4.3m/s | -60.1°C | 6.6% | 0hPa | 2.6V | 08:30:00 | 01:17:26 | 00:00:00 | |
| DO3MHA-11 | 2026-08-30 11:51:35 | 45.56808 | 9.17186 | 85° | 55km/h | 16232m | 2.5m/s | -60.0°C | 6.6% | 0hPa | 2.8V | 00:00:00 | 01:17:25 | 00:00:00 | |
| IW2NTF | 2026-08-30 11:51:32 | 45.56782 | 9.17013 | 76° | 60km/h | 16191m | 3.7m/s | -59.9°C | 6.8% | 0hPa | 2.8V | 08:30:00 | 01:17:16 | 00:00:00 | |
| NBG1-10 | 2026-08-30 11:51:29 | 45.56789 | 9.17075 | 84° | 57km/h | 16205m | 4.3m/s | -59.9°C | 6.7% | 0hPa | 2.6V | 00:00:00 | 01:17:19 | 00:00:00 | |
| DO3MHA-11 | 2026-08-30 11:51:25 | 45.56777 | 9.16991 | 74° | 60km/h | 16187m | 4.8m/s | -59.8°C | 6.8% | 0hPa | 2.6V | 00:00:00 | 01:17:15 | 08:30:00 | |
| IW2NTF | 2026-08-30 11:51:21 | 45.56736 | 9.16808 | 62° | 53km/h | 16145m | 5.4m/s | -59.8°C | 6.5% | 0hPa | 2.8V | 08:30:00 | 01:17:06 | 00:00:00 | |
| DB0UT-7 | 2026-08-30 11:51:21 | 45.56758 | 9.16918 | 73° | 60km/h | 16169m | 2.4m/s | -59.8°C | 6.7% | 0hPa | 2.6V | 00:00:00 | 01:17:11 | 00:00:00 | |
| DO3MHA-11 | 2026-08-30 11:51:15 | 45.56730 | 9.16792 | 63° | 58km/h | 16140m | 3.2m/s | -59.8°C | 6.4% | 0hPa | 2.6V | 00:00:00 | 01:17:05 | 00:00:00 | |
| IW2NTF | 2026-08-30 11:51:11 | 45.56696 | 9.16611 | 76° | 68km/h | 16100m | 4.8m/s | -59.6°C | 6.5% | 0hPa | 2.6V | 08:30:00 | 01:16:56 | 00:00:00 | |
| DO3MHA-11 | 2026-08-30 11:51:05 | 45.56691 | 9.16586 | 77° | 64km/h | 16096m | 3.5m/s | -59.6°C | 6.5% | 0hPa | 2.8V | 00:00:00 | 01:16:55 | 00:00:00 | |
| IW2NTF | 2026-08-30 11:51:01 | 45.56646 | 9.16393 | 67° | 66km/h | 16057m | 3.7m/s | -59.8°C | 6.5% | 0hPa | 2.8V | 08:30:00 | 01:16:46 | 00:00:00 | |
| NBG1-10 | 2026-08-30 11:50:56 | 45.56646 | 9.16393 | 68° | 64km/h | 16057m | 3.6m/s | -59.7°C | 6.5% | 0hPa | 2.6V | 00:00:00 | 01:16:46 | 00:00:00 | |
| DO3MHA-11 | 2026-08-30 11:50:55 | 45.56640 | 9.16371 | 73° | 62km/h | 16053m | 5.8m/s | -59.7°C | 6.5% | 0hPa | 2.6V | 00:00:00 | 01:16:45 | 00:00:00 | |
| IW2NTF | 2026-08-30 11:50:51 | 45.56593 | 9.16180 | 70° | 58km/h | 16009m | 5.4m/s | -59.5°C | 6.6% | 0hPa | 2.6V | 08:30:00 | 01:16:36 | 00:00:00 | |
| DB0UT-7 | 2026-08-30 11:50:51 | 45.56623 | 9.16285 | 58° | 64km/h | 16033m | 5.2m/s | -59.6°C | 6.4% | 0hPa | 2.6V | 00:00:00 | 00:00:00 | 00:00:00 | |
| DO3MHA-11 | 2026-08-30 11:50:45 | 45.56587 | 9.16161 | 61° | 62km/h | 16005m | 3.4m/s | -59.4°C | 6.6% | 0hPa | 2.6V | 00:00:00 | 01:16:35 | 00:00:00 | |
| IW2NTF | 2026-08-30 11:50:41 | 45.56525 | 9.15979 | 71° | 69km/h | 15965m | 4.4m/s | -59.2°C | 6.3% | 0hPa | 2.6V | 08:30:00 | 01:16:26 | 00:00:00 | |
| IW2NTF | 2026-08-30 11:50:32 | 45.56451 | 9.15776 | 54° | 60km/h | 15922m | 4.2m/s | -59°C | 6.3% | 0hPa | 2.6V | 08:30:00 | 01:16:16 | 00:00:00 | |
| DO3MHA-11 | 2026-08-30 11:50:25 | 45.56443 | 9.15758 | 56° | 62km/h | 15917m | 5.5m/s | -59.0°C | 6.3% | 0hPa | 2.6V | 00:00:00 | 01:16:15 | 00:00:00 | |
| NBG1-10 | 2026-08-30 11:50:23 | 45.56427 | 9.15721 | 60° | 58km/h | 15908m | 3.8m/s | -59.0°C | 6.3% | 0hPa | 2.7V | 00:00:00 | 01:16:13 | 08:30:00 | |
| IW2NTF | 2026-08-30 11:50:21 | 45.56373 | 9.15586 | 55° | 68km/h | 15874m | 5.3m/s | -59°C | 6.2% | 0hPa | 2.6V | 08:30:00 | 01:16:06 | 00:00:00 | |
| DB0UT-7 | 2026-08-30 11:50:21 | 45.56408 | 9.15682 | 51° | 58km/h | 15898m | 4.4m/s | -59.0°C | 6.4% | 0hPa | 2.6V | 00:00:00 | 01:16:11 | 08:30:00 | |
| DO3MHA-11 | 2026-08-30 11:50:15 | 45.56362 | 9.15567 | 49° | 60km/h | 15870m | 3.7m/s | -58.9°C | 6.1% | 0hPa | 2.6V | 00:00:00 | 01:16:05 | 00:00:00 | |
| IW2NTF | 2026-08-30 11:50:11 | 45.56299 | 9.15400 | 63° | 55km/h | 15828m | 4.8m/s | -58.6°C | 6.2% | 0hPa | 2.6V | 08:30:00 | 01:15:56 | 00:00:00 | |
| DO3MHA-11 | 2026-08-30 11:50:05 | 45.56293 | 9.15382 | 71° | 58km/h | 15824m | 4.0m/s | -58.6°C | 6.2% | 0hPa | 2.6V | 00:00:00 | 01:15:55 | 00:00:00 | |
| IW2NTF | 2026-08-30 11:50:02 | 45.56241 | 9.15212 | 56° | 66km/h | 15781m | 3.9m/s | -58.5°C | 6% | 0hPa | 2.6V | 08:30:00 | 01:15:46 | 00:00:00 | |
| DO3MHA-11 | 2026-08-30 11:49:55 | 45.56232 | 9.15193 | 60° | 53km/h | 15777m | 3.9m/s | -58.6°C | 6.0% | 0hPa | 2.6V | 00:00:00 | 01:15:45 | 08:30:00 | |
| DB0UT-7 | 2026-08-30 11:49:51 | 45.56217 | 9.15120 | 75° | 51km/h | 15758m | 5.6m/s | -58.4°C | 6.2% | 0hPa | 2.6V | 00:00:00 | 00:00:00 | 00:00:00 | |
| NBG1-10 | 2026-08-30 11:49:48 | 45.56196 | 9.15060 | 57° | 49km/h | 15745m | 5.6m/s | -58.3°C | 6.2% | 0hPa | 2.6V | 00:00:00 | 01:15:38 | 00:00:00 | |
| IW2NTF | 2026-08-30 11:49:44 | 45.56176 | 9.14996 | 65° | 68km/h | 15726m | 6.1m/s | -58.2°C | 5.9% | 0hPa | 2.6V | 08:30:00 | 01:15:34 | 00:00:00 | |
| IW2NTF | 2026-08-30 11:49:39 | 45.56115 | 9.14823 | 54° | 47km/h | 15680m | 4.5m/s | -57.9°C | 6% | 0hPa | 2.8V | 08:30:00 | 01:15:24 | 00:00:00 | |
| IW2NTF | 2026-08-30 11:49:30 | 45.56054 | 9.14666 | 62° | 35km/h | 15633m | 5.5m/s | -57.5°C | 6.2% | 0hPa | 2.8V | 08:30:00 | 01:15:14 | 00:00:00 | |
| DO3MHA-11 | 2026-08-30 11:49:25 | 45.56058 | 9.14679 | 59° | 46km/h | 15639m | 6.0m/s | -57.6°C | 6.1% | 0hPa | 2.6V | 00:00:00 | 01:15:15 | 00:00:00 | |
| DB0UT-7 | 2026-08-30 11:49:21 | 45.56041 | 9.14623 | 65° | 47km/h | 15618m | 5.2m/s | -57.4°C | 6.0% | 0hPa | 2.6V | 00:00:00 | 01:15:11 | 00:00:00 | |
| IW2NTF | 2026-08-30 11:49:19 | 45.56005 | 9.14516 | 76° | 64km/h | 15584m | 3.7m/s | -57.1°C | 5.9% | 0hPa | 2.6V | 08:30:00 | 01:15:04 | 00:00:00 | |
| DO3MHA-11 | 2026-08-30 11:49:15 | 45.56007 | 9.14536 | 86° | 51km/h | 15589m | 5.3m/s | -57.1°C | 6.0% | 0hPa | 2.8V | 00:00:00 | 01:15:05 | 00:00:00 | |
| IW2NTF | 2026-08-30 11:49:09 | 45.55958 | 9.14359 | 48° | 38km/h | 15535m | 3.6m/s | -56.9°C | 5.8% | 0hPa | 2.8V | 08:30:00 | 01:14:54 | 00:00:00 | |
| DO3MHA-11 | 2026-08-30 11:49:05 | 45.55963 | 9.14370 | 62° | 44km/h | 15540m | 5.1m/s | -56.8°C | 5.8% | 0hPa | 2.6V | 00:00:00 | 01:14:55 | 00:00:00 | |
| IW2NTF | 2026-08-30 11:48:59 | 45.55922 | 9.14203 | 82° | 49km/h | 15492m | 3.4m/s | -57.2°C | 6.4% | 0hPa | 2.6V | 08:30:00 | 01:14:44 | 00:00:00 | |
| DO3MHA-11 | 2026-08-30 11:48:55 | 45.55924 | 9.14221 | 78° | 49km/h | 15496m | 3.6m/s | -57.1°C | 6.4% | 0hPa | 2.6V | 00:00:00 | 01:14:45 | 00:00:00 | |
| DB0UT-7 | 2026-08-30 11:48:51 | 45.55914 | 9.14166 | 61° | 46km/h | 15478m | 2.3m/s | -57.4°C | 6.5% | 0hPa | 2.7V | 00:00:00 | 00:00:00 | 00:00:00 | |
| IW2NTF | 2026-08-30 11:48:49 | 45.55881 | 9.14048 | 76° | 33km/h | 15447m | 4.5m/s | -57.3°C | 6.8% | 0hPa | 2.8V | 08:30:00 | 01:14:34 | 00:00:00 | |
| DO3MHA-11 | 2026-08-30 11:48:45 | 45.55884 | 9.14060 | 65° | 44km/h | 15452m | 4.6m/s | -57.3°C | 6.6% | 0hPa | 2.8V | 00:00:00 | 01:14:35 | 00:00:00 | |
| IW2NTF | 2026-08-30 11:48:39 | 45.55840 | 9.13902 | 48° | 53km/h | 15404m | 5.2m/s | -57.1°C | 6.6% | 0hPa | 2.8V | 08:30:00 | 01:14:24 | 00:00:00 | |
| DO3MHA-11 | 2026-08-30 11:48:35 | 45.55847 | 9.13916 | 63° | 44km/h | 15409m | 5.5m/s | -57.1°C | 6.6% | 0hPa | 2.8V | 00:00:00 | 01:14:25 | 00:00:00 | |
| IW2NTF | 2026-08-30 11:48:29 | 45.55797 | 9.13757 | 70° | 49km/h | 15361m | 3.3m/s | -57.6°C | 7.5% | 0hPa | 2.8V | 08:30:00 | 01:14:14 | 00:00:00 | |
| DO3MHA-11 | 2026-08-30 11:48:25 | 45.55801 | 9.13776 | 74° | 47km/h | 15365m | 3.5m/s | -57.5°C | 7.4% | 0hPa | 2.6V | 00:00:00 | 01:14:15 | 08:30:00 | |
| DB0UT-7 | 2026-08-30 11:48:21 | 45.55782 | 9.13723 | 54° | 51km/h | 15349m | 2.3m/s | -57.8°C | 7.5% | 0hPa | 2.8V | 00:00:00 | 01:14:11 | 00:00:00 | |
| IW2NTF | 2026-08-30 11:48:19 | 45.55753 | 9.13607 | 64° | 38km/h | 15317m | 4.2m/s | -58.6°C | 8.4% | 0hPa | 2.8V | 08:30:00 | 01:14:04 | 00:00:00 | |
| DO3MHA-11 | 2026-08-30 11:48:15 | 45.55758 | 9.13619 | 61° | 51km/h | 15322m | 4.5m/s | -58.5°C | 8.2% | 0hPa | 2.6V | 00:00:00 | 01:14:05 | 00:00:00 | |
| IW2NTF | 2026-08-30 11:48:09 | 45.55714 | 9.13438 | 69° | 42km/h | 15275m | 3.9m/s | -59°C | 8.6% | 0hPa | 2.6V | 08:30:00 | 01:13:54 | 00:00:00 | |
| NBG1-10 | 2026-08-30 11:48:09 | 45.55738 | 9.13518 | 77° | 49km/h | 15296m | 5.0m/s | -58.8°C | 8.7% | 0hPa | 2.6V | 00:00:00 | 01:13:59 | 00:00:00 | |
| DO3MHA-11 | 2026-08-30 11:48:05 | 45.55718 | 9.13450 | 57° | 49km/h | 15279m | 3.2m/s | -58.9°C | 8.6% | 0hPa | 2.6V | 00:00:00 | 01:13:55 | 00:00:00 | |
| IW2NTF | 2026-08-30 11:47:59 | 45.55672 | 9.13265 | 74° | 51km/h | 15231m | 4.5m/s | -58.9°C | 8.8% | 0hPa | 2.6V | 08:30:00 | 01:13:44 | 00:00:00 | |
| DO3MHA-11 | 2026-08-30 11:47:55 | 45.55674 | 9.13282 | 81° | 49km/h | 15236m | 4.7m/s | -58.9°C | 8.7% | 0hPa | 2.6V | 00:00:00 | 01:13:45 | 00:00:00 | |
| DB0UT-7 | 2026-08-30 11:47:51 | 45.55663 | 9.13210 | 86° | 46km/h | 15218m | 5.3m/s | -58.8°C | 8.8% | 0hPa | 2.6V | 00:00:00 | 00:00:00 | 00:00:00 | |
| IW2NTF | 2026-08-30 11:47:49 | 45.55644 | 9.13091 | 88° | 49km/h | 15188m | 4.5m/s | -58.9°C | 8.8% | 0hPa | 2.6V | 08:30:00 | 01:13:34 | 00:00:00 | |
| DO3MHA-11 | 2026-08-30 11:47:45 | 45.55644 | 9.13108 | 89° | 46km/h | 15192m | 3.8m/s | -58.8°C | 8.8% | 0hPa | 2.6V | 00:00:00 | 01:13:35 | 00:00:00 | |
| IW2NTF | 2026-08-30 11:47:39 | 45.55629 | 9.12929 | 93° | 38km/h | 15145m | 4.1m/s | -58.7°C | 9% | 0hPa | 2.6V | 08:30:00 | 01:13:24 | 00:00:00 | |
| NBG1-10 | 2026-08-30 11:47:36 | 45.55630 | 9.12961 | 83° | 49km/h | 15154m | 2.9m/s | -58.7°C | 8.9% | 0hPa | 2.8V | 00:00:00 | 01:13:26 | 00:00:00 | |
| DO3MHA-11 | 2026-08-30 11:47:35 | 45.55629 | 9.12944 | 90° | 42km/h | 15150m | 4.8m/s | -58.7°C | 8.9% | 0hPa | 2.8V | 00:00:00 | 01:13:25 | 00:00:00 | |
| IW2NTF | 2026-08-30 11:47:29 | 45.55620 | 9.12783 | 62° | 47km/h | 15102m | 4.8m/s | -58.8°C | 8.7% | 0hPa | 2.8V | 08:30:00 | 01:13:14 | 00:00:00 | |
| DO3MHA-11 | 2026-08-30 11:47:25 | 45.55624 | 9.12798 | 79° | 46km/h | 15107m | 5.4m/s | -58.8°C | 8.8% | 0hPa | 2.7V | 00:00:00 | 01:13:15 | 00:00:00 | |
| DB0UT-7 | 2026-08-30 11:47:21 | 45.55610 | 9.12738 | 101° | 57km/h | 15089m | 5.2m/s | -58.7°C | 9.1% | 0hPa | 2.7V | 00:00:00 | 01:13:11 | 00:00:00 | |
| IW2NTF | 2026-08-30 11:47:19 | 45.55618 | 9.12623 | 104° | 46km/h | 15056m | 3.6m/s | -58.6°C | 9.2% | 0hPa | 2.8V | 08:30:00 | 01:13:04 | 00:00:00 | |
| DO3MHA-11 | 2026-08-30 11:47:15 | 45.55616 | 9.12638 | 99° | 53km/h | 15060m | 4.7m/s | -58.6°C | 9.2% | 0hPa | 2.8V | 00:00:00 | 01:13:05 | 00:00:00 | |
| IW2NTF | 2026-08-30 11:47:10 | 45.55632 | 9.12422 | 94° | 66km/h | 15011m | 4.5m/s | -58.7°C | 9.2% | 0hPa | 2.8V | 08:30:00 | 01:12:54 | 00:00:00 | |
| DO3MHA-11 | 2026-08-30 11:47:05 | 45.55632 | 9.12447 | 92° | 64km/h | 15015m | 3.2m/s | -58.7°C | 9.2% | 0hPa | 2.7V | 00:00:00 | 01:12:55 | 00:00:00 | |
| NBG1-10 | 2026-08-30 11:47:03 | 45.55634 | 9.12401 | 102° | 69km/h | 15007m | 4.5m/s | -58.6°C | 9.1% | 0hPa | 2.7V | 00:00:00 | 01:12:53 | 00:00:00 | |
| IW2NTF | 2026-08-30 11:46:59 | 45.55666 | 9.12208 | 102° | 58km/h | 14968m | 4.7m/s | -59°C | 9.7% | 0hPa | 2.8V | 08:30:00 | 01:12:44 | 00:00:00 | |
| DO3MHA-11 | 2026-08-30 11:46:55 | 45.55662 | 9.12228 | 109° | 69km/h | 14972m | 4.1m/s | -59.0°C | 9.6% | 0hPa | 2.7V | 00:00:00 | 01:12:45 | 08:30:00 | |
| IW2NTF | 2026-08-30 11:46:49 | 45.55694 | 9.11956 | 97° | 57km/h | 14923m | 4.6m/s | -59.4°C | 9.6% | 0hPa | 2.6V | 08:30:00 | 01:12:34 | 00:00:00 | |
| DO3MHA-11 | 2026-08-30 11:46:45 | 45.55691 | 9.11978 | 101° | 73km/h | 14929m | 6.1m/s | -59.4°C | 9.6% | 0hPa | 2.8V | 00:00:00 | 01:12:35 | 00:00:00 | |
| IW2NTF | 2026-08-30 11:46:40 | 45.55722 | 9.11692 | 97° | 66km/h | 14881m | 3.7m/s | -59.4°C | 9.7% | 0hPa | 2.8V | 08:30:00 | 01:12:24 | 00:00:00 | |
| DO3MHA-11 | 2026-08-30 11:46:35 | 45.55720 | 9.11716 | 96° | 73km/h | 14885m | 4.4m/s | -59.3°C | 9.8% | 0hPa | 2.8V | 00:00:00 | 01:12:25 | 00:00:00 | |
| NBG1-10 | 2026-08-30 11:46:30 | 45.55730 | 9.11583 | 95° | 75km/h | 14863m | 3.2m/s | -59.4°C | 9.4% | 0hPa | 2.8V | 00:00:00 | 01:12:20 | 00:00:00 | |
| IW2NTF | 2026-08-30 11:46:29 | 45.55737 | 9.11425 | 94° | 82km/h | 14838m | 3.3m/s | -59.3°C | 9.5% | 0hPa | 2.8V | 08:30:00 | 01:12:14 | 00:00:00 | |
| DO3MHA-11 | 2026-08-30 11:46:25 | 45.55735 | 9.11453 | 97° | 77km/h | 14842m | 3.4m/s | -59.3°C | 9.6% | 0hPa | 2.6V | 00:00:00 | 01:12:15 | 00:00:00 | |
| DB0UT-7 | 2026-08-30 11:46:21 | 45.55738 | 9.11338 | 91° | 73km/h | 14825m | 4.2m/s | -59.3°C | 9.3% | 0hPa | 2.8V | 00:00:00 | 01:12:11 | 00:00:00 | |
| IW2NTF | 2026-08-30 11:46:19 | 45.55739 | 9.11155 | 100° | 75km/h | 14795m | 5.6m/s | -59.4°C | 8.8% | 0hPa | 2.8V | 08:30:00 | 01:12:04 | 00:00:00 | |
| DO3MHA-11 | 2026-08-30 11:46:15 | 45.55737 | 9.11181 | 92° | 75km/h | 14801m | 4.7m/s | -59.4°C | 8.7% | 0hPa | 2.8V | 00:00:00 | 01:12:05 | 00:00:00 | |
| IW2NTF | 2026-08-30 11:46:09 | 45.55736 | 9.10885 | 87° | 77km/h | 14751m | 4.7m/s | -59.6°C | 8.4% | 0hPa | 2.8V | 08:30:00 | 01:11:54 | 00:00:00 | |
| DO3MHA-11 | 2026-08-30 11:46:05 | 45.55737 | 9.10912 | 89° | 73km/h | 14756m | 5.0m/s | -59.5°C | 8.4% | 0hPa | 2.7V | 00:00:00 | 01:11:55 | 00:00:00 | |
| IW2NTF | 2026-08-30 11:45:59 | 45.55734 | 9.10624 | 84° | 68km/h | 14704m | 4.4m/s | -59.7°C | 8.6% | 0hPa | 2.7V | 08:30:00 | 01:11:44 | 00:00:00 | |
| NBG1-10 | 2026-08-30 11:45:57 | 45.55732 | 9.10710 | 94° | 69km/h | 14718m | 6.0m/s | 0°C | 0% | 0hPa | 2.6V | 00:00:00 | 01:11:47 | 00:00:00 | |
| DO3MHA-11 | 2026-08-30 11:45:55 | 45.55734 | 9.10651 | 92° | 69km/h | 14709m | 4.8m/s | -59.7°C | 8.6% | 0hPa | 2.6V | 00:00:00 | 01:11:45 | 00:00:00 | |
| DB0UT-7 | 2026-08-30 11:45:51 | 45.55727 | 9.10552 | 87° | 69km/h | 14690m | 4.2m/s | -59.6°C | 8.7% | 0hPa | 2.7V | 00:00:00 | 00:00:00 | 08:30:00 | |
| IW2NTF | 2026-08-30 11:45:49 | 45.55722 | 9.10376 | 74° | 73km/h | 14659m | 5.3m/s | -59.6°C | 8.4% | 0hPa | 2.6V | 08:30:00 | 01:11:34 | 00:00:00 | |
| DO3MHA-11 | 2026-08-30 11:45:45 | 45.55726 | 9.10403 | 81° | 69km/h | 14664m | 3.3m/s | -59.6°C | 8.5% | 0hPa | 2.8V | 00:00:00 | 01:11:35 | 00:00:00 | |
| IW2NTF | 2026-08-30 11:45:39 | 45.55702 | 9.10133 | 90° | 66km/h | 14613m | 4.7m/s | -59.5°C | 8.8% | 0hPa | 2.8V | 08:30:00 | 01:11:24 | 00:00:00 | |
| DO3MHA-11 | 2026-08-30 11:45:35 | 45.55703 | 9.10157 | 85° | 69km/h | 14618m | 4.2m/s | -59.4°C | 8.9% | 0hPa | 2.6V | 00:00:00 | 01:11:25 | 00:00:00 | |
| IW2NTF | 2026-08-30 11:45:29 | 45.55689 | 9.09884 | 88° | 78km/h | 14570m | 4.3m/s | -59.4°C | 8.9% | 0hPa | 2.6V | 08:30:00 | 01:11:14 | 00:00:00 | |
| DO3MHA-11 | 2026-08-30 11:45:25 | 45.55689 | 9.09910 | 92° | 71km/h | 14575m | 5.2m/s | -59.4°C | 8.9% | 0hPa | 2.6V | 00:00:00 | 01:11:15 | 08:30:00 | |
| NBG1-10 | 2026-08-30 11:45:24 | 45.55689 | 9.09884 | 89° | 75km/h | 14570m | 4.2m/s | 0°C | 0% | 0hPa | 2.8V | 00:00:00 | 01:11:14 | 00:00:00 | |
| DB0UT-7 | 2026-08-30 11:45:21 | 45.55680 | 9.09804 | 73° | 69km/h | 14556m | 4.2m/s | -59.3°C | 9.0% | 0hPa | 2.8V | 00:00:00 | 01:11:11 | 00:00:00 | |
| IW2NTF | 2026-08-30 11:45:19 | 45.55658 | 9.09629 | 79° | 71km/h | 14524m | 4.7m/s | -59.2°C | 9.1% | 0hPa | 2.8V | 08:30:00 | 01:11:04 | 00:00:00 | |
| DO3MHA-11 | 2026-08-30 11:45:15 | 45.55662 | 9.09654 | 77° | 69km/h | 14529m | 4.4m/s | -59.1°C | 9.0% | 0hPa | 2.8V | 00:00:00 | 01:11:05 | 00:00:00 | |
| IW2NTF | 2026-08-30 11:45:09 | 45.55625 | 9.09390 | 73° | 64km/h | 14478m | 4.5m/s | -58.9°C | 8.9% | 0hPa | 2.8V | 08:30:00 | 01:10:54 | 00:00:00 | |
| DO3MHA-11 | 2026-08-30 11:45:05 | 45.55629 | 9.09412 | 78° | 66km/h | 14483m | 5.0m/s | -58.9°C | 8.9% | 0hPa | 2.6V | 00:00:00 | 01:10:55 | 00:00:00 | |
| IW2NTF | 2026-08-30 11:44:59 | 45.55587 | 9.09156 | 70° | 69km/h | 14431m | 4.4m/s | -58.8°C | 9.1% | 0hPa | 2.6V | 08:30:00 | 01:10:44 | 00:00:00 | |
| DO3MHA-11 | 2026-08-30 11:44:55 | 45.55592 | 9.09179 | 78° | 66km/h | 14437m | 5.3m/s | -58.7°C | 9.1% | 0hPa | 2.7V | 00:00:00 | 01:10:45 | 00:00:00 | |
| DB0UT-7 | 2026-08-30 11:44:51 | 45.55573 | 9.09080 | 82° | 68km/h | 14418m | 3.6m/s | -58.7°C | 9.4% | 0hPa | 2.6V | 00:00:00 | 00:00:00 | 00:00:00 | |
| IW2NTF | 2026-08-30 11:44:49 | 45.55547 | 9.08925 | 78° | 73km/h | 14386m | 5m/s | -58.7°C | 9.2% | 0hPa | 2.6V | 08:30:00 | 01:10:34 | 00:00:00 | |
| DO3MHA-11 | 2026-08-30 11:44:45 | 45.55549 | 9.08949 | 85° | 66km/h | 14390m | 2.6m/s | -58.6°C | 9.4% | 0hPa | 2.8V | 00:00:00 | 01:10:35 | 00:00:00 | |
| IW2NTF | 2026-08-30 11:44:39 | 45.55505 | 9.08690 | 80° | 69km/h | 14340m | 5.3m/s | -58.8°C | 10.2% | 0hPa | 2.8V | 08:30:00 | 01:10:24 | 00:00:00 | |
| DO3MHA-11 | 2026-08-30 11:44:35 | 45.55509 | 9.08716 | 77° | 68km/h | 14345m | 4.3m/s | -58.7°C | 10.1% | 0hPa | 2.7V | 00:00:00 | 01:10:25 | 00:00:00 | |
| IW2NTF | 2026-08-30 11:44:29 | 45.55480 | 9.08454 | 73° | 69km/h | 14296m | 5.4m/s | -58.8°C | 9.7% | 0hPa | 2.7V | 08:30:00 | 01:10:14 | 00:00:00 | |
| DO3MHA-11 | 2026-08-30 11:44:25 | 45.55484 | 9.08476 | 79° | 68km/h | 14301m | 3.7m/s | -58.7°C | 9.8% | 0hPa | 2.7V | 00:00:00 | 01:10:15 | 00:00:00 | |
| DB0UT-7 | 2026-08-30 11:44:21 | 45.55467 | 9.08375 | 87° | 66km/h | 14283m | 5.3m/s | -58.6°C | 10.0% | 0hPa | 2.7V | 00:00:00 | 01:10:11 | 00:00:00 | |
| IW2NTF | 2026-08-30 11:44:19 | 45.55448 | 9.08218 | 77° | 62km/h | 14251m | 2.1m/s | -58.5°C | 10.6% | 0hPa | 2.6V | 08:30:00 | 01:10:04 | 00:00:00 | |
| DO3MHA-11 | 2026-08-30 11:44:15 | 45.55453 | 9.08239 | 68° | 66km/h | 14254m | 3.5m/s | -58.5°C | 10.7% | 0hPa | 2.8V | 00:00:00 | 01:10:05 | 00:00:00 | |
| IW2NTF | 2026-08-30 11:44:09 | 45.55427 | 9.07988 | 90° | 57km/h | 14205m | 4m/s | -58.4°C | 10.8% | 0hPa | 2.8V | 08:30:00 | 01:09:54 | 00:00:00 | |
| DO3MHA-11 | 2026-08-30 11:44:05 | 45.55427 | 9.08010 | 85° | 66km/h | 14210m | 5.2m/s | -58.5°C | 10.6% | 0hPa | 2.7V | 00:00:00 | 01:09:55 | 00:00:00 | |
| IW2NTF | 2026-08-30 11:43:59 | 45.55418 | 9.07753 | 88° | 57km/h | 14160m | 3.1m/s | -58.5°C | 11.5% | 0hPa | 2.7V | 08:30:00 | 01:09:44 | 00:00:00 | |
| DO3MHA-11 | 2026-08-30 11:43:55 | 45.55417 | 9.07774 | 98° | 66km/h | 14164m | 5.2m/s | -58.5°C | 11.6% | 0hPa | 2.7V | 00:00:00 | 01:09:45 | 08:30:00 | |
| DB0UT-7 | 2026-08-30 11:43:51 | 45.55406 | 9.07680 | 74° | 75km/h | 14146m | 1.6m/s | -58.6°C | 11.1% | 0hPa | 2.7V | 00:00:00 | 00:00:00 | 00:00:00 | |
| IW2NTF | 2026-08-30 11:43:49 | 45.55410 | 9.07514 | 79° | 77km/h | 14115m | 5.5m/s | -58.8°C | 11.9% | 0hPa | 2.7V | 08:30:00 | 01:09:34 | 00:00:00 | |
| DO3MHA-11 | 2026-08-30 11:43:45 | 45.55412 | 9.07540 | 85° | 73km/h | 14120m | 5.1m/s | -58.7°C | 11.8% | 0hPa | 2.8V | 00:00:00 | 01:09:35 | 00:00:00 | |
| IW2NTF | 2026-08-30 11:43:39 | 45.55410 | 9.07248 | 83° | 86km/h | 14070m | 4.1m/s | -58.7°C | 12.7% | 0hPa | 2.8V | 08:30:00 | 01:09:24 | 00:00:00 | |
| DO3MHA-11 | 2026-08-30 11:43:35 | 45.55412 | 9.07277 | 83° | 77km/h | 14075m | 5.8m/s | -58.7°C | 12.8% | 0hPa | 2.7V | 00:00:00 | 01:09:25 | 00:00:00 | |
| IW2NTF | 2026-08-30 11:43:29 | 45.55413 | 9.06971 | 100° | 80km/h | 14029m | 4.4m/s | -59°C | 13.4% | 0hPa | 2.7V | 08:30:00 | 01:09:14 | 00:00:00 | |
| DO3MHA-11 | 2026-08-30 11:43:24 | 45.55413 | 9.06971 | 101° | 82km/h | 14029m | 4.4m/s | -58.9°C | 13.4% | 0hPa | 2.7V | 00:00:00 | 01:09:14 | 00:00:00 | |
| DB0UT-7 | 2026-08-30 11:43:21 | 45.55421 | 9.06873 | 90° | 82km/h | 14016m | 3.0m/s | -59.0°C | 14.0% | 0hPa | 2.7V | 00:00:00 | 01:09:11 | 00:00:00 | |
| IW2NTF | 2026-08-30 11:43:19 | 45.55420 | 9.06672 | 91° | 84km/h | 13985m | 4.9m/s | -59.2°C | 15% | 0hPa | 2.7V | 08:30:00 | 01:09:04 | 00:00:00 | |
| DO3MHA-11 | 2026-08-30 11:43:14 | 45.55420 | 9.06672 | 92° | 84km/h | 13985m | 4.9m/s | -59.1°C | 15.0% | 0hPa | 2.8V | 00:00:00 | 01:09:04 | 00:00:00 | |
| IW2NTF | 2026-08-30 11:43:09 | 45.55434 | 9.06374 | 100° | 77km/h | 13938m | 4.9m/s | -59.5°C | 15.7% | 0hPa | 2.8V | 08:30:00 | 01:08:54 | 00:00:00 | |
| DO3MHA-11 | 2026-08-30 11:43:04 | 45.55434 | 9.06373 | 101° | 82km/h | 13938m | 4.8m/s | -59.4°C | 15.7% | 0hPa | 2.7V | 00:00:00 | 01:08:54 | 00:00:00 | |
| IW2NTF | 2026-08-30 11:42:59 | 45.55434 | 9.06081 | 88° | 73km/h | 13893m | 3.9m/s | -59.6°C | 17.3% | 0hPa | 2.7V | 08:30:00 | 01:08:44 | 00:00:00 | |
| DO3MHA-11 | 2026-08-30 11:42:54 | 45.55434 | 9.06081 | 89° | 77km/h | 13893m | 3.9m/s | -59.6°C | 17.3% | 0hPa | 2.7V | 00:00:00 | 01:08:44 | 00:00:00 | |
| DB0UT-7 | 2026-08-30 11:42:51 | 45.55434 | 9.05994 | 92° | 77km/h | 13879m | 3.0m/s | -59.5°C | 17.1% | 0hPa | 2.7V | 00:00:00 | 00:00:00 | 00:00:00 | |
| IW2NTF | 2026-08-30 11:42:48 | 45.55432 | 9.05797 | 93° | 84km/h | 13848m | 4.4m/s | -59.5°C | 17% | 0hPa | 2.7V | 08:30:00 | 01:08:34 | 00:00:00 | |
| DO3MHA-11 | 2026-08-30 11:42:44 | 45.55432 | 9.05797 | 94° | 77km/h | 13848m | 4.4m/s | -59.4°C | 17.0% | 0hPa | 2.8V | 00:00:00 | 01:08:34 | 00:00:00 | |
| IW2NTF | 2026-08-30 11:42:39 | 45.55428 | 9.05525 | 93° | 77km/h | 13802m | 4.9m/s | -59.6°C | 18.6% | 0hPa | 2.8V | 08:30:00 | 01:08:24 | 00:00:00 | |
| DO3MHA-11 | 2026-08-30 11:42:34 | 45.55427 | 9.05525 | 94° | 77km/h | 13802m | 4.8m/s | -59.6°C | 18.6% | 0hPa | 2.7V | 00:00:00 | 01:08:24 | 00:00:00 | |
| IW2NTF | 2026-08-30 11:42:28 | 45.55434 | 9.05254 | 91° | 64km/h | 13757m | 4.5m/s | -60°C | 19.5% | 0hPa | 2.7V | 08:30:00 | 01:08:14 | 00:00:00 | |
| DO3MHA-11 | 2026-08-30 11:42:24 | 45.55434 | 9.05254 | 92° | 77km/h | 13757m | 4.4m/s | -60.0°C | 19.5% | 0hPa | 2.7V | 00:00:00 | 01:08:14 | 08:30:00 | |
| DB0UT-7 | 2026-08-30 11:42:21 | 45.55435 | 9.05176 | 90° | 77km/h | 13743m | 4.5m/s | -59.9°C | 19.7% | 0hPa | 2.7V | 00:00:00 | 01:08:11 | 00:00:00 | |
| IW2NTF | 2026-08-30 11:42:19 | 45.55436 | 9.04979 | 85° | 66km/h | 13711m | 6.1m/s | -59.9°C | 19.6% | 0hPa | 2.7V | 08:30:00 | 01:08:04 | 00:00:00 | |
| DO3MHA-11 | 2026-08-30 11:42:14 | 45.55436 | 9.04979 | 86° | 73km/h | 13711m | 6.1m/s | -59.8°C | 19.6% | 0hPa | 2.8V | 00:00:00 | 01:08:04 | 00:00:00 | |
| IW2NTF | 2026-08-30 11:42:08 | 45.55434 | 9.04712 | 95° | 84km/h | 13665m | 4.1m/s | -59.8°C | 19.7% | 0hPa | 2.8V | 08:30:00 | 01:07:54 | 00:00:00 | |
| DO3MHA-11 | 2026-08-30 11:42:04 | 45.55434 | 9.04712 | 96° | 78km/h | 13666m | 4.1m/s | -59.7°C | 19.7% | 0hPa | 2.8V | 00:00:00 | 01:07:54 | 00:00:00 | |
| IW2NTF | 2026-08-30 11:41:58 | 45.55439 | 9.04434 | 85° | 78km/h | 13618m | 5.5m/s | -60.1°C | 21.1% | 0hPa | 2.8V | 08:30:00 | 01:07:44 | 00:00:00 | |
| DO3MHA-11 | 2026-08-30 11:41:54 | 45.55439 | 9.04434 | 86° | 80km/h | 13619m | 5.5m/s | -60.0°C | 21.1% | 0hPa | 2.7V | 00:00:00 | 01:07:44 | 00:00:00 | |
| DB0UT-7 | 2026-08-30 11:41:51 | 45.55433 | 9.04350 | 86° | 84km/h | 13605m | 4.5m/s | -60.3°C | 21.8% | 0hPa | 2.8V | 00:00:00 | 00:00:00 | 00:00:00 | |
| IW2NTF | 2026-08-30 11:41:46 | 45.55425 | 9.04145 | 91° | 69km/h | 13573m | 3.6m/s | -60.4°C | 21% | 0hPa | 2.8V | 08:30:00 | 01:07:34 | 00:00:00 | |
| DO3MHA-11 | 2026-08-30 11:41:44 | 45.55425 | 9.04145 | 92° | 82km/h | 13573m | 3.6m/s | -60.4°C | 21.0% | 0hPa | 2.7V | 00:00:00 | 01:07:34 | 00:00:00 | |
| IW2NTF | 2026-08-30 11:41:38 | 45.55420 | 9.03851 | 84° | 71km/h | 13531m | 4.6m/s | -60°C | 21.8% | 0hPa | 2.7V | 08:30:00 | 01:07:24 | 00:00:00 | |
| DO3MHA-11 | 2026-08-30 11:41:34 | 45.55420 | 9.03851 | 85° | 82km/h | 13531m | 4.6m/s | -60.0°C | 21.8% | 0hPa | 2.7V | 00:00:00 | 01:07:24 | 00:00:00 | |
| IW2NTF | 2026-08-30 11:41:28 | 45.55412 | 9.03554 | 91° | 106km/h | 13482m | 4.1m/s | -59.6°C | 19.8% | 0hPa | 2.7V | 08:30:00 | 01:07:14 | 00:00:00 | |
| DO3MHA-11 | 2026-08-30 11:41:24 | 45.55412 | 9.03554 | 92° | 84km/h | 13482m | 4.0m/s | -59.6°C | 19.8% | 0hPa | 2.7V | 00:00:00 | 01:07:14 | 00:00:00 | |
| DB0UT-7 | 2026-08-30 11:41:21 | 45.55405 | 9.03456 | 81° | 77km/h | 13469m | 5.7m/s | -59.5°C | 20.0% | 0hPa | 2.7V | 00:00:00 | 01:07:11 | 08:30:00 | |
| IW2NTF | 2026-08-30 11:41:17 | 45.55397 | 9.03262 | 82° | 73km/h | 13434m | 4.7m/s | -59.3°C | 19.5% | 0hPa | 2.7V | 08:30:00 | 01:07:04 | 00:00:00 | |
| DO3MHA-11 | 2026-08-30 11:41:14 | 45.55397 | 9.03262 | 83° | 78km/h | 13435m | 4.7m/s | -59.2°C | 19.5% | 0hPa | 2.8V | 00:00:00 | 01:07:04 | 00:00:00 | |
| IW2NTF | 2026-08-30 11:41:08 | 45.55396 | 9.02982 | 90° | 78km/h | 13386m | 5.4m/s | -59.1°C | 19.8% | 0hPa | 2.8V | 08:30:00 | 01:06:54 | 00:00:00 | |
| DO3MHA-11 | 2026-08-30 11:41:04 | 45.55396 | 9.02982 | 91° | 78km/h | 13386m | 5.3m/s | -59.1°C | 19.8% | 0hPa | 2.7V | 00:00:00 | 01:06:54 | 00:00:00 | |
| IW2NTF | 2026-08-30 11:40:58 | 45.55393 | 9.02706 | 97° | 66km/h | 13339m | 4m/s | -59°C | 19.7% | 0hPa | 2.7V | 08:30:00 | 01:06:44 | 00:00:00 | |
| DO3MHA-11 | 2026-08-30 11:40:54 | 45.55393 | 9.02706 | 98° | 77km/h | 13340m | 4.0m/s | -59.0°C | 19.7% | 0hPa | 2.7V | 00:00:00 | 01:06:44 | 08:30:00 | |
| DB0UT-7 | 2026-08-30 11:40:51 | 45.55397 | 9.02624 | 86° | 78km/h | 13327m | 4.6m/s | -58.9°C | 19.6% | 0hPa | 2.8V | 00:00:00 | 00:00:00 | 00:00:00 | |
| IW2NTF | 2026-08-30 11:40:48 | 45.55392 | 9.02432 | 81° | 77km/h | 13297m | 3m/s | -58.9°C | 21.1% | 0hPa | 2.8V | 08:30:00 | 01:06:34 | 00:00:00 | |
| DO3MHA-11 | 2026-08-30 11:40:44 | 45.55392 | 9.02432 | 82° | 75km/h | 13298m | 2.9m/s | -58.8°C | 21.1% | 0hPa | 2.8V | 00:00:00 | 01:06:34 | 00:00:00 | |
| IW2NTF | 2026-08-30 11:40:38 | 45.55381 | 9.02164 | 97° | 62km/h | 13258m | 1.7m/s | -58.6°C | 22.2% | 0hPa | 2.8V | 08:30:00 | 01:06:24 | 00:00:00 | |
| DO3MHA-11 | 2026-08-30 11:40:34 | 45.55381 | 9.02164 | 98° | 78km/h | 13258m | 1.7m/s | -58.6°C | 22.2% | 0hPa | 2.7V | 00:00:00 | 01:06:24 | 00:00:00 | |
| IW2NTF | 2026-08-30 11:40:28 | 45.55376 | 9.01880 | 83° | 88km/h | 13221m | 4.2m/s | -58.4°C | 21.4% | 0hPa | 2.7V | 08:30:00 | 01:06:14 | 00:00:00 | |
| DO3MHA-11 | 2026-08-30 11:40:24 | 45.55376 | 9.01880 | 84° | 78km/h | 13221m | 4.1m/s | -58.3°C | 21.4% | 0hPa | 2.7V | 00:00:00 | 01:06:14 | 00:00:00 | |
| DB0UT-7 | 2026-08-30 11:40:21 | 45.55376 | 9.01788 | 93° | 78km/h | 13209m | 4.8m/s | -58.4°C | 22.2% | 0hPa | 2.8V | 00:00:00 | 01:06:11 | 00:00:00 | |
| IW2NTF | 2026-08-30 11:40:19 | 45.55379 | 9.01601 | 83° | 75km/h | 13177m | 2.7m/s | -58.5°C | 22.1% | 0hPa | 2.8V | 08:30:00 | 01:06:04 | 00:00:00 | |
| DO3MHA-11 | 2026-08-30 11:40:14 | 45.55379 | 9.01601 | 84° | 80km/h | 13177m | 2.6m/s | -58.5°C | 22.1% | 0hPa | 2.8V | 00:00:00 | 01:06:04 | 00:00:00 | |
| IW2NTF | 2026-08-30 11:40:09 | 45.55385 | 9.01316 | 96° | 75km/h | 13135m | 3.8m/s | -58.5°C | 22.8% | 0hPa | 2.8V | 08:30:00 | 01:05:54 | 00:00:00 | |
| DO3MHA-11 | 2026-08-30 11:40:04 | 45.55385 | 9.01316 | 97° | 80km/h | 13136m | 3.7m/s | -58.5°C | 22.8% | 0hPa | 2.8V | 00:00:00 | 01:05:54 | 00:00:00 | |
| IW2NTF | 2026-08-30 11:39:58 | 45.55377 | 9.01031 | 86° | 71km/h | 13093m | 4.5m/s | -58.4°C | 21.8% | 0hPa | 2.8V | 08:30:00 | 01:05:44 | 00:00:00 | |
| DO3MHA-11 | 2026-08-30 11:39:54 | 45.55377 | 9.01031 | 87° | 75km/h | 13094m | 4.5m/s | -58.4°C | 21.8% | 0hPa | 2.7V | 00:00:00 | 01:05:44 | 00:00:00 | |
| DB0UT-7 | 2026-08-30 11:39:51 | 45.55381 | 9.00949 | 93° | 80km/h | 13080m | 4.7m/s | -58.3°C | 21.8% | 0hPa | 2.7V | 00:00:00 | 00:00:00 | 00:00:00 | |
| IW2NTF | 2026-08-30 11:39:48 | 45.55381 | 9.00763 | 88° | 84km/h | 13052m | 3.9m/s | -58.3°C | 22.8% | 0hPa | 2.8V | 08:30:00 | 01:05:34 | 00:00:00 | |
| DO3MHA-11 | 2026-08-30 11:39:44 | 45.55381 | 9.00763 | 89° | 80km/h | 13052m | 3.8m/s | -58.2°C | 22.8% | 0hPa | 2.7V | 00:00:00 | 01:05:34 | 00:00:00 | |
| IW2NTF | 2026-08-30 11:39:39 | 45.55385 | 9.00472 | 85° | 95km/h | 13010m | 3.9m/s | -58.2°C | 22.6% | 0hPa | 2.7V | 08:30:00 | 01:05:24 | 00:00:00 | |
| DO3MHA-11 | 2026-08-30 11:39:34 | 45.55385 | 9.00472 | 86° | 84km/h | 13010m | 3.9m/s | -58.1°C | 22.6% | 0hPa | 2.7V | 00:00:00 | 01:05:24 | 00:00:00 | |
| IW2NTF | 2026-08-30 11:39:26 | 45.55386 | 9.00175 | 96° | 82km/h | 12975m | 3.4m/s | -58.1°C | 23.9% | 0hPa | 2.7V | 08:30:00 | 01:05:14 | 00:00:00 | |
| DO3MHA-11 | 2026-08-30 11:39:24 | 45.55386 | 9.00175 | 97° | 86km/h | 12975m | 3.4m/s | -58.0°C | 23.9% | 0hPa | 2.7V | 00:00:00 | 01:05:14 | 08:30:00 | |
| DB0UT-7 | 2026-08-30 11:39:21 | 45.55390 | 9.00076 | 90° | 88km/h | 12963m | 4.3m/s | -58.2°C | 24.3% | 0hPa | 2.8V | 00:00:00 | 01:05:11 | 00:00:00 | |
| IW2NTF | 2026-08-30 11:39:16 | 45.55397 | 8.99866 | 86° | 86km/h | 12936m | 4.3m/s | -58.1°C | 24.7% | 0hPa | 2.8V | 08:30:00 | 01:05:04 | 00:00:00 | |
| DO3MHA-11 | 2026-08-30 11:39:14 | 45.55397 | 8.99866 | 87° | 89km/h | 12937m | 4.2m/s | -58.0°C | 24.7% | 0hPa | 2.8V | 00:00:00 | 01:05:04 | 00:00:00 | |
| IW2NTF | 2026-08-30 11:39:06 | 45.55396 | 8.99544 | 85° | 91km/h | 12899m | 4.9m/s | -58.1°C | 24.1% | 0hPa | 2.8V | 08:30:00 | 01:04:54 | 00:00:00 | |
| DO3MHA-11 | 2026-08-30 11:39:04 | 45.55395 | 8.99544 | 86° | 86km/h | 12899m | 4.9m/s | -58.1°C | 24.1% | 0hPa | 2.7V | 00:00:00 | 01:04:54 | 00:00:00 | |
| IW2NTF | 2026-08-30 11:38:56 | 45.55391 | 8.99236 | 86° | 95km/h | 12859m | 3.2m/s | -58.1°C | 26% | 0hPa | 2.7V | 08:30:00 | 01:04:44 | 00:00:00 | |
| DO3MHA-11 | 2026-08-30 11:38:54 | 45.55391 | 8.99236 | 87° | 89km/h | 12859m | 3.1m/s | -58.1°C | 26.0% | 0hPa | 2.7V | 00:00:00 | 01:04:44 | 00:00:00 | |
| DB0UT-7 | 2026-08-30 11:38:51 | 45.55391 | 8.99143 | 96° | 89km/h | 12847m | 6.8m/s | -58.1°C | 25.2% | 0hPa | 2.8V | 00:00:00 | 00:00:00 | 00:00:00 | |
| IW2NTF | 2026-08-30 11:38:46 | 45.55384 | 8.98920 | 97° | 69km/h | 12814m | 6.1m/s | -58°C | 24.1% | 0hPa | 2.8V | 08:30:00 | 01:04:34 | 00:00:00 | |
| DO3MHA-11 | 2026-08-30 11:38:44 | 45.55384 | 8.98920 | 98° | 82km/h | 12815m | 6.1m/s | -57.9°C | 24.1% | 0hPa | 2.7V | 00:00:00 | 01:04:34 | 00:00:00 | |
| IW2NTF | 2026-08-30 11:38:35 | 45.55393 | 8.98622 | 97° | 89km/h | 12765m | 5.4m/s | -57.9°C | 27.8% | 0hPa | 2.7V | 08:30:00 | 01:04:24 | 00:00:00 | |
| DO3MHA-11 | 2026-08-30 11:38:34 | 45.55393 | 8.98622 | 98° | 95km/h | 12765m | 5.4m/s | -57.8°C | 27.8% | 0hPa | 2.7V | 00:00:00 | 01:04:24 | 00:00:00 | |
| IW2NTF | 2026-08-30 11:38:30 | 45.55407 | 8.98287 | 95° | 91km/h | 12714m | 7.6m/s | -58.2°C | 32.2% | 0hPa | 2.7V | 08:30:00 | 01:04:14 | 00:00:00 | |
| DO3MHA-11 | 2026-08-30 11:38:24 | 45.55407 | 8.98287 | 96° | 93km/h | 12714m | 7.6m/s | -58.1°C | 32.2% | 0hPa | 2.7V | 00:00:00 | 01:04:14 | 00:00:00 | |
| DB0UT-7 | 2026-08-30 11:38:21 | 45.55401 | 8.98185 | 88° | 88km/h | 12699m | 3.7m/s | -58.3°C | 32.7% | 0hPa | 2.7V | 00:00:00 | 01:04:11 | 00:00:00 | |
| IW2NTF | 2026-08-30 11:38:14 | 45.55417 | 8.97959 | 83° | 89km/h | 12666m | 2.9m/s | -58.5°C | 37.3% | 0hPa | 2.8V | 08:30:00 | 01:04:04 | 00:00:00 | |
| DO3MHA-11 | 2026-08-30 11:38:14 | 45.55417 | 8.97959 | 84° | 89km/h | 12666m | 2.9m/s | -58.5°C | 37.3% | 0hPa | 2.7V | 00:00:00 | 01:04:04 | 00:00:00 | |
| IW2NTF | 2026-08-30 11:38:09 | 45.55422 | 8.97635 | 91° | 91km/h | 12623m | 6m/s | -58.5°C | 41.6% | 0hPa | 2.7V | 08:30:00 | 01:03:54 | 00:00:00 | |
| DO3MHA-11 | 2026-08-30 11:38:04 | 45.55422 | 8.97635 | 92° | 86km/h | 12624m | 6.0m/s | -58.5°C | 41.6% | 0hPa | 2.7V | 00:00:00 | 01:03:54 | 00:00:00 | |
| DO3MHA-11 | 2026-08-30 11:37:54 | 45.55416 | 8.97334 | 80° | 84km/h | 12569m | 2.8m/s | -58.3°C | 43.9% | 0hPa | 2.7V | 00:00:00 | 01:03:44 | 08:30:00 | |
| IW2NTF | 2026-08-30 11:37:50 | 45.55414 | 8.97214 | 90° | 95km/h | 12548m | 7.3m/s | -58.6°C | 47.2% | 0hPa | 2.7V | 08:30:00 | 01:03:40 | 00:00:00 | |
| DO3MHA-11 | 2026-08-30 11:37:44 | 45.55394 | 8.97031 | 90° | 82km/h | 12515m | 5.1m/s | -58.4°C | 46.7% | 0hPa | 2.8V | 00:00:00 | 01:03:34 | 00:00:00 | |
| IW2NTF | 2026-08-30 11:37:41 | 45.55380 | 8.96904 | 70° | 89km/h | 12494m | 5.8m/s | -58.6°C | 46.4% | 0hPa | 2.8V | 08:30:00 | 01:03:30 | 00:00:00 | |
| DO3MHA-11 | 2026-08-30 11:37:34 | 45.55358 | 8.96742 | 85° | 80km/h | 12465m | 3.9m/s | -58.4°C | 48.7% | 0hPa | 2.7V | 00:00:00 | 01:03:24 | 00:00:00 | |
| IW2NTF | 2026-08-30 11:37:30 | 45.55336 | 8.96629 | 69° | 77km/h | 12444m | 8m/s | -58.6°C | 50.4% | 0hPa | 2.7V | 08:30:00 | 01:03:20 | 00:00:00 | |
| IW2NTF | 2026-08-30 11:37:24 | 45.55291 | 8.96355 | 88° | 84km/h | 12389m | 5.6m/s | -58.4°C | 52.6% | 0hPa | 2.8V | 08:30:00 | 01:03:10 | 00:00:00 | |
| DO3MHA-11 | 2026-08-30 11:37:24 | 45.55309 | 8.96466 | 63° | 80km/h | 12412m | 4.2m/s | -58.4°C | 51.1% | 0hPa | 2.7V | 00:00:00 | 01:03:14 | 00:00:00 | |
| DB0UT-7 | 2026-08-30 11:37:21 | 45.55292 | 8.96385 | 87° | 75km/h | 12395m | 6.2m/s | -58.4°C | 52.3% | 0hPa | 2.8V | 00:00:00 | 01:03:11 | 00:00:00 | |
| IW2NTF | 2026-08-30 11:37:14 | 45.55252 | 8.96077 | 68° | 86km/h | 12328m | 6.9m/s | -58.1°C | 50.8% | 0hPa | 2.8V | 08:30:00 | 01:03:00 | 00:00:00 | |
| DO3MHA-11 | 2026-08-30 11:37:14 | 45.55258 | 8.96185 | 88° | 75km/h | 12354m | 6.2m/s | 0°C | 0% | 0hPa | 2.8V | 00:00:00 | 01:03:04 | 00:00:00 | |
| IW2NTF | 2026-08-30 11:37:04 | 45.55195 | 8.95813 | 71° | 60km/h | 12280m | 8m/s | -57.9°C | 50.8% | 0hPa | 2.8V | 08:30:00 | 01:02:50 | 00:00:00 | |
| DO3MHA-11 | 2026-08-30 11:37:04 | 45.55222 | 8.95926 | 87° | 75km/h | 12301m | 5.4m/s | 0°C | 0% | 0hPa | 2.8V | 00:00:00 | 01:02:54 | 00:00:00 | |
| IW2NTF | 2026-08-30 11:36:54 | 45.55164 | 8.95583 | 64° | 68km/h | 12219m | 9.4m/s | -57.6°C | 50.9% | 0hPa | 2.8V | 08:30:00 | 01:02:40 | 00:00:00 | |
| DO3MHA-11 | 2026-08-30 11:36:54 | 45.55183 | 8.95667 | 69° | 71km/h | 12247m | 4.9m/s | 0°C | 0% | 0hPa | 2.7V | 00:00:00 | 01:02:44 | 00:00:00 | |
| DB0UT-7 | 2026-08-30 11:36:51 | 45.55170 | 8.95603 | 76° | 64km/h | 12228m | 8.9m/s | -57.6°C | 51.3% | 0hPa | 2.7V | 00:00:00 | 00:00:00 | 08:30:00 | |
| IW2NTF | 2026-08-30 11:36:44 | 45.55135 | 8.95327 | 82° | 53km/h | 12148m | 9.1m/s | -58°C | 56.2% | 0hPa | 2.8V | 08:30:00 | 01:02:29 | 00:00:00 | |
| DO3MHA-11 | 2026-08-30 11:36:44 | 45.55137 | 8.95420 | 79° | 60km/h | 12181m | 9.7m/s | 0°C | 0% | 0hPa | 2.7V | 00:00:00 | 01:02:34 | 00:00:00 | |
| DO3MHA-11 | 2026-08-30 11:36:34 | 45.55126 | 8.95204 | 104° | 62km/h | 12117m | 7.8m/s | 0°C | 0% | 0hPa | 2.7V | 00:00:00 | 01:02:24 | 00:00:00 | |
| IW2NTF | 2026-08-30 11:36:32 | 45.55129 | 8.95086 | 88° | 68km/h | 12087m | 5.1m/s | -57.7°C | 56.9% | 0hPa | 2.7V | 08:30:00 | 01:02:18 | 00:00:00 | |
| DO3MHA-11 | 2026-08-30 11:36:24 | 45.55133 | 8.94986 | 88° | 69km/h | 12065m | 8.6m/s | 0°C | 0% | 0hPa | 2.8V | 00:00:00 | 01:02:14 | 00:00:00 | |
| IW2NTF | 2026-08-30 11:36:23 | 45.55139 | 8.94845 | 108° | 60km/h | 12029m | 3.1m/s | -57.3°C | 53.7% | 0hPa | 2.8V | 08:30:00 | 01:02:08 | 00:00:00 | |
| DB0UT-7 | 2026-08-30 11:36:21 | 45.55126 | 8.94916 | 90° | 64km/h | 12046m | 7.0m/s | -57.4°C | 53.6% | 0hPa | 2.9V | 00:00:00 | 01:02:11 | 00:00:00 | |
| IW2NTF | 2026-08-30 11:36:12 | 45.55148 | 8.94618 | 103° | 68km/h | 11973m | 6.1m/s | -56.8°C | 51.5% | 0hPa | 2.9V | 08:30:00 | 01:01:58 | 00:00:00 | |
| IW2NTF | 2026-08-30 11:36:07 | 45.55157 | 8.94410 | 96° | 55km/h | 11916m | 5.5m/s | -56.3°C | 50.4% | 0hPa | 2.7V | 08:30:00 | 01:01:48 | 00:00:00 | |
| IW2NTF | 2026-08-30 11:35:51 | 45.55182 | 8.94182 | 104° | 62km/h | 11857m | 7.1m/s | -55.8°C | 50.1% | 0hPa | 2.8V | 08:30:00 | 01:01:38 | 00:00:00 | |
| IW2NTF | 2026-08-30 11:35:43 | 45.55194 | 8.93966 | 84° | 62km/h | 11799m | 3.9m/s | -55.3°C | 49.4% | 0hPa | 2.8V | 08:30:00 | 01:01:28 | 00:00:00 | |
| IW2NTF | 2026-08-30 11:35:30 | 45.55209 | 8.93722 | 113° | 68km/h | 11738m | 5.2m/s | -54.8°C | 46.6% | 0hPa | 2.9V | 08:30:00 | 01:01:18 | 00:00:00 | |
| IW2NTF | 2026-08-30 11:35:23 | 45.55236 | 8.93490 | 105° | 69km/h | 11686m | 6.9m/s | -54.3°C | 45.9% | 0hPa | 2.9V | 08:30:00 | 01:01:08 | 00:00:00 | |
| IW2NTF | 2026-08-30 11:35:10 | 45.55262 | 8.93254 | 93° | 51km/h | 11633m | 6.7m/s | -53.9°C | 43.5% | 0hPa | 2.9V | 08:30:00 | 01:00:58 | 00:00:00 | |
| IW2NTF | 2026-08-30 11:35:01 | 45.55283 | 8.93029 | 99° | 66km/h | 11579m | 4.8m/s | -53.5°C | 43.3% | 0hPa | 2.7V | 08:30:00 | 01:00:48 | 00:00:00 | |
| DB0UT-7 | 2026-08-30 11:34:51 | 45.55310 | 8.92856 | 87° | 73km/h | 11541m | 3.6m/s | -53.0°C | 41.6% | 0hPa | 2.7V | 00:00:00 | 00:00:00 | 00:00:00 | |
| IW2NTF | 2026-08-30 11:34:50 | 45.55317 | 8.92798 | 107° | 68km/h | 11524m | 7.2m/s | -53°C | 41.8% | 0hPa | 2.7V | 08:30:00 | 01:00:38 | 00:00:00 | |
| IW2NTF | 2026-08-30 11:34:39 | 45.55354 | 8.92542 | 103° | 58km/h | 11470m | 5.2m/s | -52.5°C | 40% | 0hPa | 2.9V | 08:30:00 | 01:00:28 | 00:00:00 | |
| IW2NTF | 2026-08-30 11:34:34 | 45.55371 | 8.92273 | 83° | 80km/h | 11415m | 4.8m/s | -51.9°C | 38.6% | 0hPa | 2.9V | 08:30:00 | 01:00:18 | 00:00:00 | |
| IW2NTF | 2026-08-30 11:34:23 | 45.55390 | 8.92002 | 99° | 68km/h | 11363m | 7.5m/s | -51.4°C | 38.1% | 0hPa | 2.9V | 08:30:00 | 01:00:08 | 00:00:00 | |
| DB0UT-7 | 2026-08-30 11:34:21 | 45.55382 | 8.92080 | 96° | 75km/h | 11383m | 4.2m/s | 0°C | 0% | 0hPa | 2.7V | 00:00:00 | 01:00:11 | 00:00:00 | |
| IW2NTF | 2026-08-30 11:34:14 | 45.55407 | 8.91735 | 91° | 82km/h | 11307m | 7.4m/s | -50.8°C | 34.5% | 0hPa | 2.7V | 08:30:00 | 00:59:58 | 00:00:00 | |
| IW2NTF | 2026-08-30 11:34:04 | 45.55431 | 8.91468 | 98° | 80km/h | 11260m | 4.6m/s | -50.3°C | 36.2% | 0hPa | 2.9V | 08:30:00 | 00:59:48 | 00:00:00 | |
| IW2NTF | 2026-08-30 11:33:52 | 45.55451 | 8.91213 | 95° | 78km/h | 11201m | 10.4m/s | -49.9°C | 32% | 0hPa | 2.9V | 08:30:00 | 00:59:38 | 00:00:00 | |
| DB0UT-7 | 2026-08-30 11:33:51 | 45.55434 | 8.91280 | 119° | 71km/h | 11222m | 4.6m/s | 0°C | 0% | 0hPa | 2.7V | 00:00:00 | 00:00:00 | 00:00:00 | |
| IW2NTF | 2026-08-30 11:33:41 | 45.55455 | 8.90946 | 92° | 78km/h | 11143m | 4.2m/s | -49.4°C | 32.6% | 0hPa | 2.7V | 08:30:00 | 00:59:28 | 00:00:00 | |
| IW2NTF | 2026-08-30 11:33:32 | 45.55460 | 8.90706 | 60° | 51km/h | 11087m | 1.8m/s | -49°C | 31.8% | 0hPa | 2.9V | 08:30:00 | 00:59:18 | 00:00:00 | |
| IW2NTF | 2026-08-30 11:33:21 | 45.55464 | 8.90448 | 85° | 84km/h | 11016m | 3.1m/s | -48.3°C | 32.1% | 0hPa | 2.9V | 08:30:00 | 00:59:08 | 00:00:00 | |
| IW2NTF | 2026-08-30 11:33:12 | 45.55462 | 8.90195 | 85° | 73km/h | 10970m | 3.8m/s | -48.1°C | 31.8% | 0hPa | 2.7V | 08:30:00 | 00:58:58 | 00:00:00 | |
| DB0UT-7 | 2026-08-30 11:33:03 | 45.55459 | 8.90062 | 88° | 75km/h | 10951m | 1.1m/s | 0°C | 0% | 0hPa | 2.9V | 00:00:00 | 00:58:53 | 00:00:00 | |
| IW2NTF | 2026-08-30 11:33:01 | 45.55457 | 8.89917 | 82° | 64km/h | 10931m | 5.3m/s | -47.7°C | 30% | 0hPa | 2.9V | 08:30:00 | 00:58:48 | 00:00:00 | |
| IW2NTF | 2026-08-30 11:32:50 | 45.55445 | 8.89652 | 98° | 91km/h | 10892m | 6.8m/s | -47.3°C | 30.3% | 0hPa | 2.9V | 08:30:00 | 00:58:38 | 00:00:00 | |
| IW2NTF | 2026-08-30 11:32:43 | 45.55450 | 8.89396 | 104° | 75km/h | 10851m | 2.8m/s | -47°C | 32.3% | 0hPa | 2.7V | 08:30:00 | 00:58:28 | 00:00:00 | |
| DB0UT-7 | 2026-08-30 11:32:33 | 45.55440 | 8.89266 | 90° | 58km/h | 10829m | 4.9m/s | 0°C | 0% | 0hPa | 2.9V | 00:00:00 | 00:00:00 | 00:00:00 | |
| IW2NTF | 2026-08-30 11:32:30 | 45.55443 | 8.89125 | 95° | 80km/h | 10791m | 7.5m/s | -46.6°C | 34% | 0hPa | 2.9V | 08:30:00 | 00:58:17 | 00:00:00 | |
| IW2NTF | 2026-08-30 11:32:22 | 45.55443 | 8.88899 | 82° | 47km/h | 10737m | 4.2m/s | -46.2°C | 33.9% | 0hPa | 2.9V | 08:30:00 | 00:58:07 | 00:00:00 | |
| IW2NTF | 2026-08-30 11:32:12 | 45.55436 | 8.88678 | 79° | 53km/h | 10680m | 8.8m/s | -45.6°C | 32.6% | 0hPa | 2.9V | 08:30:00 | 00:57:57 | 00:00:00 | |
| IW2NTF | 2026-08-30 11:32:02 | 45.55425 | 8.88450 | 85° | 71km/h | 10626m | 4.2m/s | -45.2°C | 34.5% | 0hPa | 2.9V | 08:30:00 | 00:57:47 | 00:00:00 | |
| IW2NTF | 2026-08-30 11:31:53 | 45.55428 | 8.88230 | 88° | 55km/h | 10571m | 6.4m/s | -44.8°C | 36.6% | 0hPa | 2.9V | 08:30:00 | 00:57:37 | 00:00:00 | |
| IW2NTF | 2026-08-30 11:31:42 | 45.55423 | 8.88016 | 89° | 49km/h | 10504m | 8.7m/s | -44.3°C | 37.4% | 0hPa | 2.9V | 08:30:00 | 00:57:27 | 00:00:00 | |
| IW2NTF | 2026-08-30 11:31:32 | 45.55430 | 8.87801 | 80° | 60km/h | 10447m | 3.7m/s | -43.8°C | 36.8% | 0hPa | 2.9V | 08:30:00 | 00:57:17 | 00:00:00 | |
| IW2NTF | 2026-08-30 11:31:23 | 45.55432 | 8.87607 | 91° | 42km/h | 10389m | 5.8m/s | -43.4°C | 36.8% | 0hPa | 2.9V | 08:30:00 | 00:57:07 | 00:00:00 | |
| IW2NTF | 2026-08-30 11:31:12 | 45.55424 | 8.87393 | 98° | 73km/h | 10332m | 4.8m/s | -42.9°C | 36.9% | 0hPa | 2.9V | 08:30:00 | 00:56:57 | 00:00:00 | |
| DB0UT-7 | 2026-08-30 11:31:02 | 45.55417 | 8.87298 | 88° | 60km/h | 10301m | 3.9m/s | 0°C | 0% | 0hPa | 2.8V | 00:00:00 | 00:56:52 | 00:00:00 | |
| IW2NTF | 2026-08-30 11:31:00 | 45.55424 | 8.87183 | 87° | 49km/h | 10270m | 6.2m/s | -42.5°C | 35.5% | 0hPa | 2.8V | 08:30:00 | 00:56:47 | 00:00:00 | |
| IW2NTF | 2026-08-30 11:30:52 | 45.55433 | 8.86986 | 98° | 66km/h | 10208m | 7.8m/s | -41.9°C | 33.3% | 0hPa | 2.9V | 08:30:00 | 00:56:37 | 00:00:00 | |
| IW2NTF | 2026-08-30 11:30:42 | 45.55437 | 8.86780 | 84° | 73km/h | 10152m | 5.4m/s | -41.5°C | 33% | 0hPa | 2.8V | 08:30:00 | 00:56:27 | 00:00:00 | |
| IW2NTF | 2026-08-30 11:30:33 | 45.55441 | 8.86573 | 102° | 57km/h | 10093m | 2.7m/s | -40.9°C | 33.5% | 0hPa | 2.9V | 08:30:00 | 00:56:17 | 00:00:00 | |
| IW2NTF | 2026-08-30 11:30:22 | 45.55436 | 8.86381 | 97° | 42km/h | 10044m | 5.6m/s | -40.5°C | 31.9% | 0hPa | 2.9V | 08:30:00 | 00:56:07 | 00:00:00 | |
| IW2NTF | 2026-08-30 11:30:12 | 45.55450 | 8.86174 | 78° | 53km/h | 9992m | 5m/s | -40°C | 31.9% | 0hPa | 2.8V | 08:30:00 | 00:55:57 | 00:00:00 | |
| IW2NTF | 2026-08-30 11:30:02 | 45.55457 | 8.85980 | 93° | 64km/h | 9945m | 3.6m/s | -39.5°C | 32.1% | 0hPa | 2.9V | 08:30:00 | 00:55:47 | 00:00:00 | |
| IW2NTF | 2026-08-30 11:29:52 | 45.55463 | 8.85798 | 95° | 60km/h | 9906m | 5.4m/s | -39.2°C | 32.3% | 0hPa | 2.9V | 08:30:00 | 00:55:37 | 00:00:00 | |
| IW2NTF | 2026-08-30 11:29:42 | 45.55466 | 8.85596 | 92° | 51km/h | 9866m | 4.7m/s | -38.8°C | 31.8% | 0hPa | 2.8V | 08:30:00 | 00:55:27 | 00:00:00 | |
| IW2NTF | 2026-08-30 11:29:33 | 45.55486 | 8.85421 | 97° | 55km/h | 9817m | 6.4m/s | -38.4°C | 32.2% | 0hPa | 2.9V | 08:30:00 | 00:55:17 | 00:00:00 | |
| IW2NTF | 2026-08-30 11:29:22 | 45.55493 | 8.85238 | 78° | 58km/h | 9765m | 8.7m/s | -37.9°C | 29% | 0hPa | 2.9V | 08:30:00 | 00:55:07 | 00:00:00 | |
| IW2NTF | 2026-08-30 11:29:12 | 45.55499 | 8.85048 | 108° | 58km/h | 9709m | 7.5m/s | -37.3°C | 28.4% | 0hPa | 2.9V | 08:30:00 | 00:54:57 | 00:00:00 | |
| IW2NTF | 2026-08-30 11:29:02 | 45.55500 | 8.84859 | 76° | 58km/h | 9655m | 6.5m/s | -36.8°C | 28.6% | 0hPa | 2.8V | 08:30:00 | 00:54:47 | 00:00:00 | |
| IW2NTF | 2026-08-30 11:28:53 | 45.55503 | 8.84670 | 94° | 47km/h | 9606m | 7.1m/s | -36.4°C | 29.6% | 0hPa | 2.9V | 08:30:00 | 00:54:37 | 00:00:00 | |
| IW2NTF | 2026-08-30 11:28:42 | 45.55508 | 8.84470 | 108° | 57km/h | 9561m | 6m/s | -36°C | 28.7% | 0hPa | 2.9V | 08:30:00 | 00:54:27 | 00:00:00 | |
| IW2NTF | 2026-08-30 11:28:33 | 45.55510 | 8.84299 | 66° | 38km/h | 9499m | 4.1m/s | -35.4°C | 28.4% | 0hPa | 2.9V | 08:30:00 | 00:54:17 | 00:00:00 | |
| IW2NTF | 2026-08-30 11:28:23 | 45.55510 | 8.84139 | 89° | 64km/h | 9447m | 6.2m/s | -35.3°C | 31.2% | 0hPa | 2.9V | 08:30:00 | 00:54:07 | 00:00:00 | |
| IW2NTF | 2026-08-30 11:28:12 | 45.55513 | 8.83966 | 94° | 33km/h | 9392m | 3.4m/s | -35°C | 30.2% | 0hPa | 2.9V | 08:30:00 | 00:53:57 | 00:00:00 | |
| IW2NTF | 2026-08-30 11:28:02 | 45.55503 | 8.83778 | 110° | 46km/h | 9332m | 7.8m/s | -34.5°C | 25.3% | 0hPa | 2.9V | 08:30:00 | 00:53:47 | 00:00:00 | |
| IW2NTF | 2026-08-30 11:27:52 | 45.55508 | 8.83626 | 81° | 38km/h | 9267m | 6.8m/s | -34.1°C | 18.8% | 0hPa | 2.9V | 08:30:00 | 00:53:37 | 00:00:00 | |
| IW2NTF | 2026-08-30 11:27:43 | 45.55494 | 8.83447 | 82° | 33km/h | 9210m | 0.6m/s | -33.6°C | 16.9% | 0hPa | 2.9V | 08:30:00 | 00:53:27 | 00:00:00 | |
| IW2NTF | 2026-08-30 11:27:32 | 45.55478 | 8.83254 | 84° | 66km/h | 9163m | 5.2m/s | -33.1°C | 16.8% | 0hPa | 2.8V | 08:30:00 | 00:53:17 | 00:00:00 | |
| IW2NTF | 2026-08-30 11:27:22 | 45.55449 | 8.83056 | 87° | 51km/h | 9103m | 5.8m/s | -33.3°C | 39.6% | 0hPa | 2.8V | 08:30:00 | 00:53:07 | 00:00:00 | |
| IW2NTF | 2026-08-30 11:27:13 | 45.55429 | 8.82843 | 69° | 71km/h | 9051m | 4.9m/s | -32.9°C | 47.4% | 0hPa | 2.8V | 08:30:00 | 00:52:57 | 00:00:00 | |
| IW2NTF | 2026-08-30 11:27:02 | 45.55394 | 8.82627 | 72° | 78km/h | 9000m | 2.6m/s | -32.5°C | 47.1% | 0hPa | 2.9V | 08:30:00 | 00:52:47 | 00:00:00 | |
| IW2NTF | 2026-08-30 11:26:52 | 45.55350 | 8.82404 | 62° | 53km/h | 8939m | 4.7m/s | -31.9°C | 44.1% | 0hPa | 2.9V | 08:30:00 | 00:52:37 | 00:00:00 | |
| IW2NTF | 2026-08-30 11:26:40 | 45.55309 | 8.82142 | 87° | 57km/h | 8871m | 7.9m/s | -31.3°C | 42.9% | 0hPa | 2.9V | 08:30:00 | 00:52:25 | 00:00:00 | |
| IW2NTF | 2026-08-30 11:26:30 | 45.55284 | 8.81943 | 74° | 55km/h | 8816m | 5.2m/s | -30.8°C | 39.8% | 0hPa | 2.9V | 08:30:00 | 00:52:15 | 00:00:00 | |
| IW2NTF | 2026-08-30 11:26:20 | 45.55254 | 8.81729 | 71° | 49km/h | 8752m | 7.1m/s | -30.2°C | 37.8% | 0hPa | 2.9V | 08:30:00 | 00:52:05 | 00:00:00 | |
| IW2NTF | 2026-08-30 11:26:11 | 45.55237 | 8.81516 | 95° | 68km/h | 8687m | 4.6m/s | -29.6°C | 36% | 0hPa | 2.9V | 08:30:00 | 00:51:55 | 00:00:00 | |
| IW2NTF | 2026-08-30 11:26:00 | 45.55225 | 8.81296 | 100° | 58km/h | 8636m | 5.1m/s | -29.2°C | 34.1% | 0hPa | 2.9V | 08:30:00 | 00:51:45 | 00:00:00 | |
| IW2NTF | 2026-08-30 11:25:50 | 45.55213 | 8.81089 | 87° | 62km/h | 8580m | 3.2m/s | -28.6°C | 30% | 0hPa | 2.9V | 08:30:00 | 00:51:35 | 00:00:00 | |
| IW2NTF | 2026-08-30 11:25:41 | 45.55184 | 8.80858 | 78° | 60km/h | 8524m | 5.3m/s | -28.2°C | 28.5% | 0hPa | 2.9V | 08:30:00 | 00:51:25 | 00:00:00 | |
| IW2NTF | 2026-08-30 11:25:28 | 45.55182 | 8.80668 | 101° | 51km/h | 8473m | 2.7m/s | -27.8°C | 23.4% | 0hPa | 2.9V | 08:30:00 | 00:51:15 | 00:00:00 | |
| IW2NTF | 2026-08-30 11:25:20 | 45.55166 | 8.80456 | 97° | 42km/h | 8418m | 6.9m/s | -27.2°C | 15.3% | 0hPa | 2.9V | 08:30:00 | 00:51:05 | 00:00:00 | |
| IW2NTF | 2026-08-30 11:25:10 | 45.55163 | 8.80254 | 65° | 49km/h | 8367m | 5.2m/s | -26.9°C | 21.7% | 0hPa | 2.9V | 08:30:00 | 00:50:55 | 00:00:00 | |
| IW2NTF | 2026-08-30 11:25:00 | 45.55151 | 8.80051 | 78° | 71km/h | 8312m | 5m/s | -26.4°C | 27.6% | 0hPa | 2.9V | 08:30:00 | 00:50:45 | 00:00:00 | |
| IW2NTF | 2026-08-30 11:24:51 | 45.55154 | 8.79828 | 74° | 44km/h | 8249m | 5.7m/s | -26.1°C | 37.2% | 0hPa | 2.9V | 08:30:00 | 00:50:35 | 00:00:00 | |
| IW2NTF | 2026-08-30 11:24:41 | 45.55147 | 8.79622 | 88° | 80km/h | 8189m | 5.9m/s | -25.9°C | 52.1% | 0hPa | 2.8V | 08:30:00 | 00:50:25 | 00:00:00 | |
| IW2NTF | 2026-08-30 11:24:30 | 45.55146 | 8.79404 | 98° | 64km/h | 8128m | 5.9m/s | -25.4°C | 54% | 0hPa | 2.9V | 08:30:00 | 00:50:15 | 00:00:00 | |
| IW2NTF | 2026-08-30 11:24:20 | 45.55157 | 8.79167 | 101° | 64km/h | 8073m | 8.3m/s | -24.9°C | 52.7% | 0hPa | 2.9V | 08:30:00 | 00:50:05 | 00:00:00 | |
| IW2NTF | 2026-08-30 11:24:10 | 45.55160 | 8.78959 | 100° | 57km/h | 8008m | 4.5m/s | -24.5°C | 57.3% | 0hPa | 2.9V | 08:30:00 | 00:49:55 | 00:00:00 | |
| IW2NTF | 2026-08-30 11:24:00 | 45.55162 | 8.78713 | 83° | 75km/h | 7951m | 4.6m/s | -24.1°C | 63% | 0hPa | 2.9V | 08:30:00 | 00:49:45 | 00:00:00 | |
| IW2NTF | 2026-08-30 11:23:50 | 45.55150 | 8.78502 | 75° | 60km/h | 7893m | 7.1m/s | -23.5°C | 58.2% | 0hPa | 2.9V | 08:30:00 | 00:49:35 | 00:00:00 | |
| IW2NTF | 2026-08-30 11:23:40 | 45.55123 | 8.78282 | 75° | 49km/h | 7848m | 5.4m/s | -23.1°C | 57.4% | 0hPa | 2.9V | 08:30:00 | 00:49:25 | 00:00:00 | |
| IW2NTF | 2026-08-30 11:23:31 | 45.55117 | 8.78070 | 90° | 64km/h | 7797m | 4.3m/s | -22.5°C | 57.4% | 0hPa | 3V | 08:30:00 | 00:49:15 | 00:00:00 | |
| IW2NTF | 2026-08-30 11:23:20 | 45.55105 | 8.77838 | 86° | 77km/h | 7760m | 2.6m/s | -22.1°C | 56.8% | 0hPa | 2.8V | 08:30:00 | 00:49:05 | 00:00:00 | |
| IW2NTF | 2026-08-30 11:23:10 | 45.55089 | 8.77630 | 75° | 40km/h | 7716m | 3.8m/s | -21.7°C | 54.6% | 0hPa | 2.9V | 08:30:00 | 00:48:55 | 00:00:00 | |
| IW2NTF | 2026-08-30 11:23:00 | 45.55072 | 8.77436 | 93° | 49km/h | 7669m | 4.8m/s | -21.2°C | 43.9% | 0hPa | 3V | 08:30:00 | 00:48:45 | 00:00:00 | |
| IW2NTF | 2026-08-30 11:22:50 | 45.55042 | 8.77207 | 83° | 44km/h | 7608m | 6.7m/s | -20.7°C | 27.1% | 0hPa | 3V | 08:30:00 | 00:48:35 | 00:00:00 | |
| IW2NTF | 2026-08-30 11:22:40 | 45.55026 | 8.77000 | 73° | 68km/h | 7549m | 8.4m/s | -20.3°C | 21.1% | 0hPa | 2.9V | 08:30:00 | 00:48:25 | 00:00:00 | |
| IW2NTF | 2026-08-30 11:22:30 | 45.54972 | 8.76784 | 81° | 77km/h | 7483m | 7.9m/s | -19.9°C | 19.1% | 0hPa | 2.8V | 08:30:00 | 00:48:15 | 00:00:00 | |
| IW2NTF | 2026-08-30 11:22:20 | 45.54935 | 8.76583 | 96° | 62km/h | 7420m | 7.8m/s | -19.3°C | 19.6% | 0hPa | 3V | 08:30:00 | 00:48:05 | 00:00:00 | |
| IW2NTF | 2026-08-30 11:22:11 | 45.54911 | 8.76372 | 78° | 40km/h | 7360m | 5.1m/s | -18.7°C | 21.2% | 0hPa | 3V | 08:30:00 | 00:47:55 | 00:00:00 | |
| IW2NTF | 2026-08-30 11:22:00 | 45.54873 | 8.76194 | 73° | 51km/h | 7314m | 6.7m/s | -18.4°C | 20.3% | 0hPa | 3V | 08:30:00 | 00:47:45 | 00:00:00 | |
| IW2NTF | 2026-08-30 11:21:50 | 45.54853 | 8.75997 | 89° | 69km/h | 7261m | 6m/s | -18.1°C | 15.3% | 0hPa | 3V | 08:30:00 | 00:47:35 | 00:00:00 | |
| IW2NTF | 2026-08-30 11:21:40 | 45.54828 | 8.75845 | 81° | 57km/h | 7194m | 6.8m/s | -17.7°C | 12.4% | 0hPa | 3V | 08:30:00 | 00:47:25 | 00:00:00 | |
| IW2NTF | 2026-08-30 11:21:30 | 45.54804 | 8.75692 | 90° | 38km/h | 7139m | 5.1m/s | -17.3°C | 13.1% | 0hPa | 3V | 08:30:00 | 00:47:15 | 00:00:00 | |
| IW2NTF | 2026-08-30 11:21:18 | 45.54795 | 8.75499 | 101° | 47km/h | 7064m | 4.9m/s | -16.8°C | 12.8% | 0hPa | 3V | 08:30:00 | 00:47:03 | 00:00:00 | |
| IW2NTF | 2026-08-30 11:21:08 | 45.54792 | 8.75377 | 85° | 47km/h | 7009m | 8m/s | -16.4°C | 9.7% | 0hPa | 3V | 08:30:00 | 00:46:53 | 00:00:00 | |
| IW2NTF | 2026-08-30 11:20:58 | 45.54774 | 8.75195 | 84° | 44km/h | 6950m | 3.7m/s | -15.9°C | 8.5% | 0hPa | 3V | 08:30:00 | 00:46:43 | 00:00:00 | |
| IW2NTF | 2026-08-30 11:20:48 | 45.54763 | 8.75040 | 83° | 38km/h | 6906m | 6.3m/s | -15.5°C | 9% | 0hPa | 3V | 08:30:00 | 00:46:33 | 00:00:00 | |
| IW2NTF | 2026-08-30 11:20:39 | 45.54746 | 8.74876 | 95° | 33km/h | 6853m | 7.3m/s | -15.1°C | 9.6% | 0hPa | 2.8V | 08:30:00 | 00:46:23 | 00:00:00 | |
| IW2NTF | 2026-08-30 11:20:28 | 45.54722 | 8.74724 | 70° | 33km/h | 6806m | 5.3m/s | -14.8°C | 8% | 0hPa | 3V | 08:30:00 | 00:46:13 | 00:00:00 | |
| IW2NTF | 2026-08-30 11:20:18 | 45.54704 | 8.74576 | 63° | 46km/h | 6753m | 7.2m/s | -14.5°C | 7.6% | 0hPa | 3V | 08:30:00 | 00:46:03 | 00:00:00 | |
| IW2NTF | 2026-08-30 11:20:08 | 45.54676 | 8.74423 | 84° | 58km/h | 6692m | 3.9m/s | -14°C | 4.7% | 0hPa | 3V | 08:30:00 | 00:45:53 | 00:00:00 | |
| IW2NTF | 2026-08-30 11:19:58 | 45.54656 | 8.74273 | 64° | 37km/h | 6640m | 4.5m/s | -13.9°C | 4.6% | 0hPa | 2.8V | 08:30:00 | 00:45:43 | 00:00:00 | |
| IW2NTF | 2026-08-30 11:19:48 | 45.54654 | 8.74123 | 62° | 40km/h | 6590m | 6.9m/s | -13.6°C | 5.2% | 0hPa | 3V | 08:30:00 | 00:45:33 | 00:00:00 | |
| IW2NTF | 2026-08-30 11:19:38 | 45.54634 | 8.73968 | 70° | 49km/h | 6534m | 6.1m/s | -13.4°C | 5.8% | 0hPa | 3V | 08:30:00 | 00:45:23 | 00:00:00 | |
| IW2NTF | 2026-08-30 11:19:28 | 45.54617 | 8.73814 | 85° | 55km/h | 6479m | 4.2m/s | -13.2°C | 6.2% | 0hPa | 2.8V | 08:30:00 | 00:45:13 | 00:00:00 | |
| IW2NTF | 2026-08-30 11:19:19 | 45.54604 | 8.73671 | 75° | 49km/h | 6430m | 5.2m/s | -12.8°C | 6.3% | 0hPa | 3V | 08:30:00 | 00:45:03 | 00:00:00 | |
| IW2NTF | 2026-08-30 11:19:08 | 45.54586 | 8.73520 | 84° | 64km/h | 6377m | 4.8m/s | -12.5°C | 6.3% | 0hPa | 3V | 08:30:00 | 00:44:53 | 00:00:00 | |
| IW2NTF | 2026-08-30 11:18:58 | 45.54555 | 8.73380 | 78° | 22km/h | 6313m | 5.8m/s | -12.2°C | 6.6% | 0hPa | 3V | 08:30:00 | 00:44:43 | 00:00:00 | |
| IW2NTF | 2026-08-30 11:18:48 | 45.54519 | 8.73238 | 84° | 51km/h | 6254m | 4.5m/s | -11.7°C | 6.6% | 0hPa | 3V | 08:30:00 | 00:44:33 | 00:00:00 | |
| IW2NTF | 2026-08-30 11:18:38 | 45.54490 | 8.73092 | 58° | 37km/h | 6201m | 2.4m/s | -11.3°C | 6.4% | 0hPa | 3V | 08:30:00 | 00:44:23 | 00:00:00 | |
| IW2NTF | 2026-08-30 11:18:22 | 45.54454 | 8.72924 | 94° | 51km/h | 6144m | 7.2m/s | -10.8°C | 6.2% | 0hPa | 3V | 08:30:00 | 00:44:12 | 00:00:00 | |
| IW2NTF | 2026-08-30 11:18:12 | 45.54422 | 8.72771 | 60° | 37km/h | 6089m | 5.7m/s | -10.5°C | 6.7% | 0hPa | 3V | 08:30:00 | 00:44:02 | 00:00:00 | |
| IW2NTF | 2026-08-30 11:18:02 | 45.54389 | 8.72651 | 91° | 38km/h | 6035m | 5m/s | -10°C | 6.6% | 0hPa | 3V | 08:30:00 | 00:43:52 | 00:00:00 | |
| IW2NTF | 2026-08-30 11:17:52 | 45.54384 | 8.72535 | 44° | 18km/h | 5989m | 4m/s | -9.6°C | 6.5% | 0hPa | 3V | 08:30:00 | 00:43:42 | 00:00:00 | |
| IW2NTF | 2026-08-30 11:17:43 | 45.54364 | 8.72405 | 99° | 55km/h | 5932m | 3.1m/s | -9.2°C | 6.4% | 0hPa | 3V | 08:30:00 | 00:43:32 | 00:00:00 | |
| IW2NTF | 2026-08-30 11:17:33 | 45.54332 | 8.72270 | 56° | 40km/h | 5888m | 5.3m/s | -8.8°C | 6.4% | 0hPa | 3V | 08:30:00 | 00:43:22 | 00:00:00 | |
| IW2NTF | 2026-08-30 11:17:22 | 45.54313 | 8.72132 | 54° | 47km/h | 5828m | 6.2m/s | -8.5°C | 6.4% | 0hPa | 3V | 08:30:00 | 00:43:12 | 00:00:00 | |
| IW2NTF | 2026-08-30 11:17:13 | 45.54292 | 8.72012 | 81° | 38km/h | 5774m | 6.1m/s | -8.1°C | 6.4% | 0hPa | 3V | 08:30:00 | 00:43:02 | 00:00:00 | |
| IW2NTF | 2026-08-30 11:17:02 | 45.54276 | 8.71895 | 58° | 49km/h | 5730m | 2.4m/s | -7.8°C | 6% | 0hPa | 3V | 08:30:00 | 00:42:52 | 00:00:00 | |
| IW2NTF | 2026-08-30 11:16:52 | 45.54250 | 8.71783 | 92° | 29km/h | 5681m | 5.5m/s | -7.5°C | 5.6% | 0hPa | 3V | 08:30:00 | 00:42:42 | 00:00:00 | |
| IW2NTF | 2026-08-30 11:16:42 | 45.54229 | 8.71654 | 79° | 31km/h | 5637m | 4.2m/s | -7.2°C | 5.3% | 0hPa | 3V | 08:30:00 | 00:42:32 | 00:00:00 | |
| IW2NTF | 2026-08-30 11:16:32 | 45.54211 | 8.71554 | 104° | 46km/h | 5594m | 5.4m/s | -6.8°C | 5% | 0hPa | 3V | 08:30:00 | 00:42:22 | 00:00:00 | |
| IW2NTF | 2026-08-30 11:16:22 | 45.54191 | 8.71453 | 117° | 16km/h | 5531m | 3.7m/s | -6.5°C | 5.6% | 0hPa | 3V | 08:30:00 | 00:42:12 | 00:00:00 | |
| IW2NTF | 2026-08-30 11:16:17 | 45.54177 | 8.71372 | 87° | 5km/h | 5483m | 3.5m/s | -6.1°C | 5.7% | 0hPa | 3V | 08:30:00 | 00:42:02 | 00:00:00 | |
| IW2NTF | 2026-08-30 11:16:02 | 45.54171 | 8.71274 | 107° | 33km/h | 5432m | 4.7m/s | -5.8°C | 5.5% | 0hPa | 3V | 08:30:00 | 00:41:52 | 00:00:00 | |
| IW2NTF | 2026-08-30 11:15:52 | 45.54140 | 8.71191 | 62° | 16km/h | 5370m | 6.8m/s | -5.4°C | 5.3% | 0hPa | 3V | 08:30:00 | 00:41:42 | 00:00:00 | |
| IW2NTF | 2026-08-30 11:15:42 | 45.54144 | 8.71112 | 122° | 26km/h | 5320m | 2.7m/s | -5.1°C | 5.1% | 0hPa | 3V | 08:30:00 | 00:41:32 | 00:00:00 | |
| IW2NTF | 2026-08-30 11:15:32 | 45.54129 | 8.71037 | 86° | 37km/h | 5263m | 4.6m/s | -4.8°C | 5.5% | 0hPa | 3V | 08:30:00 | 00:41:22 | 00:00:00 | |
| IW2NTF | 2026-08-30 11:15:22 | 45.54109 | 8.70953 | 44° | 26km/h | 5209m | 6.6m/s | -4.4°C | 5.7% | 0hPa | 3V | 08:30:00 | 00:41:12 | 00:00:00 | |
| IW2NTF | 2026-08-30 11:15:12 | 45.54084 | 8.70868 | 80° | 9km/h | 5165m | 2.8m/s | -4.1°C | 5.3% | 0hPa | 3V | 08:30:00 | 00:41:02 | 00:00:00 | |
| IW2NTF | 2026-08-30 11:15:02 | 45.54068 | 8.70790 | 43° | 33km/h | 5127m | 4m/s | -4°C | 6.2% | 0hPa | 3V | 08:30:00 | 00:40:52 | 00:00:00 | |
| IW2NTF | 2026-08-30 11:14:57 | 45.54054 | 8.70716 | 82° | 35km/h | 5084m | 5.5m/s | -3.8°C | 6.7% | 0hPa | 3V | 08:30:00 | 00:40:42 | 00:00:00 | |
| IW2NTF | 2026-08-30 11:14:47 | 45.54036 | 8.70643 | 29° | 24km/h | 5026m | 4.8m/s | -3.3°C | 6.8% | 0hPa | 3V | 08:30:00 | 00:40:32 | 00:00:00 | |
| IW2NTF | 2026-08-30 11:14:37 | 45.54020 | 8.70564 | 55° | 7km/h | 4971m | 5.3m/s | -2.9°C | 6.1% | 0hPa | 3V | 08:30:00 | 00:40:22 | 00:00:00 | |
| IW2NTF | 2026-08-30 11:14:31 | 45.54023 | 8.70514 | 82° | 44km/h | 4937m | 4.7m/s | -2.6°C | 6% | 0hPa | 3V | 08:30:00 | 00:40:16 | 00:00:00 | |
| IW2NTF | 2026-08-30 11:14:25 | 45.53999 | 8.70471 | 66° | 5km/h | 4905m | 5.4m/s | -2.4°C | 6.1% | 0hPa | 3V | 08:30:00 | 00:40:10 | 00:00:00 | |
| IW2NTF | 2026-08-30 11:14:19 | 45.53994 | 8.70414 | 45° | 16km/h | 4865m | 6.9m/s | -2.1°C | 5.6% | 0hPa | 3V | 08:30:00 | 00:40:04 | 00:00:00 | |
| IW2NTF | 2026-08-30 11:14:12 | 45.53994 | 8.70374 | 79° | 40km/h | 4834m | 5.6m/s | -1.8°C | 5.8% | 0hPa | 3V | 08:30:00 | 00:39:58 | 00:00:00 | |
| IW2NTF | 2026-08-30 11:14:07 | 45.53981 | 8.70329 | 27° | 24km/h | 4810m | 3.9m/s | -1.6°C | 5% | 0hPa | 3V | 08:30:00 | 00:39:52 | 00:00:00 | |
| IW2NTF | 2026-08-30 11:14:01 | 45.53955 | 8.70254 | 64° | 46km/h | 4781m | 4.8m/s | -1.4°C | 5.3% | 0hPa | 3V | 08:30:00 | 00:39:46 | 00:00:00 | |
| IW2NTF | 2026-08-30 11:13:55 | 45.53939 | 8.70212 | 47° | 40km/h | 4751m | 6.3m/s | -1.3°C | 4.6% | 0hPa | 3V | 08:30:00 | 00:39:40 | 00:00:00 | |
| IW2NTF | 2026-08-30 11:13:49 | 45.53932 | 8.70131 | 93° | 49km/h | 4718m | 6.6m/s | -1.3°C | 6.8% | 0hPa | 3V | 08:30:00 | 00:39:34 | 00:00:00 | |
| IW2NTF | 2026-08-30 11:13:42 | 45.53920 | 8.70058 | 51° | 42km/h | 4685m | 4.8m/s | -1.6°C | 10.7% | 0hPa | 3V | 08:30:00 | 00:39:28 | 00:00:00 | |
| IW2NTF | 2026-08-30 11:13:37 | 45.53925 | 8.69973 | 125° | 31km/h | 4652m | 4.9m/s | -2.2°C | 23.3% | 0hPa | 3V | 08:30:00 | 00:39:22 | 00:00:00 | |
| IW2NTF | 2026-08-30 11:13:31 | 45.53922 | 8.69899 | 109° | 58km/h | 4616m | 6m/s | -2.4°C | 34.3% | 0hPa | 3V | 08:30:00 | 00:39:16 | 00:00:00 | |
| IW2NTF | 2026-08-30 11:13:26 | 45.53929 | 8.69805 | 71° | 53km/h | 4578m | 4m/s | -2.1°C | 35.5% | 0hPa | 3V | 08:30:00 | 00:39:10 | 00:00:00 | |
| IW2NTF | 2026-08-30 11:13:19 | 45.53943 | 8.69720 | 111° | 35km/h | 4542m | 7.9m/s | -2°C | 41.1% | 0hPa | 3V | 08:30:00 | 00:39:04 | 00:00:00 | |
| IW2NTF | 2026-08-30 11:13:12 | 45.53937 | 8.69632 | 119° | 31km/h | 4506m | 6.4m/s | -2.1°C | 31.6% | 0hPa | 3V | 08:30:00 | 00:38:58 | 00:00:00 | |
| IW2NTF | 2026-08-30 11:13:07 | 45.53944 | 8.69525 | 64° | 42km/h | 4471m | 4m/s | -2.3°C | 61.6% | 0hPa | 3V | 08:30:00 | 00:38:52 | 00:00:00 | |
| IW2NTF | 2026-08-30 11:13:01 | 45.53951 | 8.69447 | 67° | 55km/h | 4437m | 6.8m/s | -2°C | 61% | 0hPa | 3V | 08:30:00 | 00:38:46 | 00:00:00 | |
| IW2NTF | 2026-08-30 11:12:55 | 45.53954 | 8.69336 | 78° | 57km/h | 4396m | 5m/s | -1.8°C | 67.3% | 0hPa | 3V | 08:30:00 | 00:38:40 | 00:00:00 | |
| IW2NTF | 2026-08-30 11:12:49 | 45.53955 | 8.69252 | 69° | 37km/h | 4369m | 5.4m/s | -1.6°C | 68.8% | 0hPa | 3V | 08:30:00 | 00:38:34 | 00:00:00 | |
| IW2NTF | 2026-08-30 11:12:41 | 45.53963 | 8.69135 | 97° | 26km/h | 4318m | 7.8m/s | -1.1°C | 64.8% | 0hPa | 3V | 08:30:00 | 00:38:26 | 00:00:00 | |
| IW2NTF | 2026-08-30 11:12:35 | 45.53962 | 8.69040 | 101° | 51km/h | 4282m | 5.2m/s | -0.8°C | 64.7% | 0hPa | 3V | 08:30:00 | 00:38:20 | 00:00:00 | |
| IW2NTF | 2026-08-30 11:12:29 | 45.53980 | 8.68935 | 89° | 22km/h | 4252m | 5.8m/s | -0.6°C | 65.7% | 0hPa | 3V | 08:30:00 | 00:38:14 | 00:00:00 | |
| IW2NTF | 2026-08-30 11:12:22 | 45.53975 | 8.68841 | 89° | 62km/h | 4209m | 5.4m/s | -0.4°C | 64.9% | 0hPa | 3V | 08:30:00 | 00:38:08 | 00:00:00 | |
| IW2NTF | 2026-08-30 11:12:17 | 45.53976 | 8.68762 | 53° | 44km/h | 4176m | 4.6m/s | -0.2°C | 62.9% | 0hPa | 3V | 08:30:00 | 00:38:02 | 00:00:00 | |
| IW2NTF | 2026-08-30 11:12:11 | 45.53975 | 8.68685 | 54° | 22km/h | 4143m | 4.3m/s | 0.1°C | 61.9% | 0hPa | 3V | 08:30:00 | 00:37:56 | 00:00:00 | |
| IW2NTF | 2026-08-30 11:12:05 | 45.53970 | 8.68602 | 89° | 15km/h | 4108m | 5.5m/s | 0.3°C | 59.9% | 0hPa | 3V | 08:30:00 | 00:37:50 | 00:00:00 | |
| IW2NTF | 2026-08-30 11:11:59 | 45.53947 | 8.68518 | 84° | 33km/h | 4073m | 8.4m/s | 0.5°C | 57.5% | 0hPa | 3V | 08:30:00 | 00:37:44 | 00:00:00 | |
| IW2NTF | 2026-08-30 11:11:52 | 45.53946 | 8.68471 | 102° | 15km/h | 4036m | 4.5m/s | 0.8°C | 56.9% | 0hPa | 3V | 08:30:00 | 00:37:38 | 00:00:00 | |
| IW2NTF | 2026-08-30 11:11:47 | 45.53925 | 8.68408 | 92° | 33km/h | 4005m | 6.7m/s | 0.9°C | 59.3% | 0hPa | 3V | 08:30:00 | 00:37:32 | 00:00:00 | |
| IW2NTF | 2026-08-30 11:11:41 | 45.53933 | 8.68337 | 106° | 18km/h | 3971m | 5.9m/s | 1.1°C | 60.7% | 0hPa | 3V | 08:30:00 | 00:37:26 | 00:00:00 | |
| IW2NTF | 2026-08-30 11:11:35 | 45.53906 | 8.68292 | 58° | 11km/h | 3941m | 5.8m/s | 1.3°C | 61% | 0hPa | 3V | 08:30:00 | 00:37:20 | 00:00:00 | |
| IW2NTF | 2026-08-30 11:11:29 | 45.53895 | 8.68218 | 49° | 38km/h | 3911m | 5.5m/s | 1.4°C | 66.3% | 0hPa | 3V | 08:30:00 | 00:37:14 | 00:00:00 | |
| IW2NTF | 2026-08-30 11:11:23 | 45.53876 | 8.68183 | 89° | 31km/h | 3878m | 7.3m/s | 1.7°C | 68.8% | 0hPa | 3V | 08:30:00 | 00:37:08 | 00:00:00 | |
| IW2NTF | 2026-08-30 11:11:17 | 45.53848 | 8.68106 | 12° | 31km/h | 3847m | 5.2m/s | 1.9°C | 69.7% | 0hPa | 3V | 08:30:00 | 00:37:02 | 00:00:00 | |
| IW2NTF | 2026-08-30 11:11:11 | 45.53836 | 8.68049 | 55° | 40km/h | 3810m | 6m/s | 2.2°C | 69.7% | 0hPa | 3V | 08:30:00 | 00:36:56 | 00:00:00 | |
| IW2NTF | 2026-08-30 11:11:05 | 45.53809 | 8.68003 | 94° | 31km/h | 3773m | 6.7m/s | 2.5°C | 68.7% | 0hPa | 3V | 08:30:00 | 00:36:50 | 00:00:00 | |
| IW2NTF | 2026-08-30 11:10:59 | 45.53790 | 8.67933 | 30° | 13km/h | 3741m | 7.3m/s | 2.8°C | 66.8% | 0hPa | 3V | 08:30:00 | 00:36:44 | 00:00:00 | |
| IW2NTF | 2026-08-30 11:10:53 | 45.53777 | 8.67870 | 43° | 37km/h | 3709m | 6m/s | 3.1°C | 65.7% | 0hPa | 3V | 08:30:00 | 00:36:38 | 00:00:00 | |
| IW2NTF | 2026-08-30 11:10:47 | 45.53768 | 8.67822 | 83° | 51km/h | 3673m | 4.4m/s | 3.4°C | 62.9% | 0hPa | 3V | 08:30:00 | 00:36:32 | 00:00:00 | |
| IW2NTF | 2026-08-30 11:10:41 | 45.53744 | 8.67767 | 51° | 35km/h | 3642m | 4.7m/s | 3.6°C | 61.4% | 0hPa | 3V | 08:30:00 | 00:36:26 | 00:00:00 | |
| IW2NTF | 2026-08-30 11:10:35 | 45.53732 | 8.67712 | 142° | 2km/h | 3612m | 1.8m/s | 3.9°C | 59.5% | 0hPa | 3V | 08:30:00 | 00:36:20 | 00:00:00 | |
| IW2NTF | 2026-08-30 11:10:29 | 45.53725 | 8.67665 | 71° | 15km/h | 3579m | 8.3m/s | 4.1°C | 59.4% | 0hPa | 3V | 08:30:00 | 00:36:14 | 00:00:00 | |
| IW2NTF | 2026-08-30 11:10:23 | 45.53729 | 8.67630 | 6° | 16km/h | 3543m | 4.6m/s | 4.4°C | 61.2% | 0hPa | 3V | 08:30:00 | 00:36:08 | 00:00:00 | |
| IW2NTF | 2026-08-30 11:10:17 | 45.53721 | 8.67575 | 155° | 18km/h | 3507m | 4.7m/s | 4.8°C | 59.1% | 0hPa | 3V | 08:30:00 | 00:36:02 | 00:00:00 | |
| IW2NTF | 2026-08-30 11:10:11 | 45.53719 | 8.67526 | 91° | 38km/h | 3475m | 4.4m/s | 5.1°C | 57.6% | 0hPa | 3V | 08:30:00 | 00:35:56 | 00:00:00 | |
| IW2NTF | 2026-08-30 11:10:05 | 45.53716 | 8.67488 | 31° | 31km/h | 3446m | 5m/s | 5.3°C | 57.5% | 0hPa | 3V | 08:30:00 | 00:35:50 | 00:00:00 | |
| IW2NTF | 2026-08-30 11:09:59 | 45.53703 | 8.67420 | 67° | 29km/h | 3415m | 5m/s | 5.6°C | 58% | 0hPa | 3V | 08:30:00 | 00:35:44 | 00:00:00 | |
| IW2NTF | 2026-08-30 11:09:53 | 45.53695 | 8.67382 | 130° | 9km/h | 3379m | 3m/s | 5.8°C | 55.2% | 0hPa | 3V | 08:30:00 | 00:35:38 | 00:00:00 | |
| IW2NTF | 2026-08-30 11:09:47 | 45.53670 | 8.67341 | 91° | 24km/h | 3348m | 7.6m/s | 6.1°C | 49.9% | 0hPa | 3V | 08:30:00 | 00:35:32 | 00:00:00 | |
| IW2NTF | 2026-08-30 11:09:41 | 45.53662 | 8.67313 | 86° | 40km/h | 3313m | 5.5m/s | 6.4°C | 48.4% | 0hPa | 3V | 08:30:00 | 00:35:26 | 00:00:00 | |
| IW2NTF | 2026-08-30 11:09:35 | 45.53647 | 8.67275 | 74° | 18km/h | 3281m | 8.1m/s | 6.6°C | 50.7% | 0hPa | 3V | 08:30:00 | 00:35:20 | 00:00:00 | |
| IW2NTF | 2026-08-30 11:09:29 | 45.53626 | 8.67234 | 17° | 13km/h | 3247m | 4.2m/s | 6.7°C | 50.9% | 0hPa | 3V | 08:30:00 | 00:35:14 | 00:00:00 | |
| IW2NTF | 2026-08-30 11:09:23 | 45.53604 | 8.67185 | 64° | 37km/h | 3219m | 4.2m/s | 6.9°C | 49.6% | 0hPa | 3V | 08:30:00 | 00:35:08 | 00:00:00 | |
| IW2NTF | 2026-08-30 11:09:17 | 45.53588 | 8.67151 | 126° | 13km/h | 3190m | 4.3m/s | 7.2°C | 48.7% | 0hPa | 3V | 08:30:00 | 00:35:02 | 00:00:00 | |
| IW2NTF | 2026-08-30 11:09:11 | 45.53599 | 8.67125 | 82° | 38km/h | 3162m | 6.1m/s | 7.2°C | 51.8% | 0hPa | 3V | 08:30:00 | 00:34:56 | 00:00:00 | |
| IW2NTF | 2026-08-30 11:09:05 | 45.53598 | 8.67098 | 239° | 5km/h | 3123m | 5.6m/s | 7.4°C | 52.2% | 0hPa | 3V | 08:30:00 | 00:34:50 | 00:00:00 | |
| IW2NTF | 2026-08-30 11:08:59 | 45.53588 | 8.67062 | 136° | 24km/h | 3090m | 5.8m/s | 7.7°C | 51.4% | 0hPa | 3V | 08:30:00 | 00:34:44 | 00:00:00 | |
| IW2NTF | 2026-08-30 11:08:53 | 45.53578 | 8.67046 | 70° | 27km/h | 3057m | 6.6m/s | 7.9°C | 50.9% | 0hPa | 3V | 08:30:00 | 00:34:38 | 00:00:00 | |
| IW2NTF | 2026-08-30 11:08:47 | 45.53583 | 8.67012 | 42° | 15km/h | 3029m | 7.2m/s | 8.1°C | 51.1% | 0hPa | 3V | 08:30:00 | 00:34:32 | 00:00:00 | |
| IW2NTF | 2026-08-30 11:08:41 | 45.53561 | 8.66963 | 93° | 27km/h | 2991m | 3.5m/s | 8.1°C | 52.3% | 0hPa | 3V | 08:30:00 | 00:34:26 | 00:00:00 | |
| IW2NTF | 2026-08-30 11:08:35 | 45.53556 | 8.66952 | 158° | 15km/h | 2964m | 3.5m/s | 8.3°C | 51.2% | 0hPa | 3V | 08:30:00 | 00:34:20 | 00:00:00 | |
| IW2NTF | 2026-08-30 11:08:29 | 45.53540 | 8.66919 | 42° | 7km/h | 2926m | 7.4m/s | 8.6°C | 49.2% | 0hPa | 3V | 08:30:00 | 00:34:14 | 00:00:00 | |
| IW2NTF | 2026-08-30 11:08:24 | 45.53532 | 8.66875 | 79° | 33km/h | 2893m | 3.8m/s | 8.8°C | 49% | 0hPa | 3V | 08:30:00 | 00:34:08 | 00:00:00 | |
| IW2NTF | 2026-08-30 11:08:17 | 45.53530 | 8.66833 | 76° | 27km/h | 2860m | 4.7m/s | 9°C | 47.7% | 0hPa | 3V | 08:30:00 | 00:34:02 | 00:00:00 | |
| IW2NTF | 2026-08-30 11:08:11 | 45.53532 | 8.66794 | 41° | 29km/h | 2829m | 4.3m/s | 9.2°C | 48% | 0hPa | 3V | 08:30:00 | 00:33:56 | 00:00:00 | |
| IW2NTF | 2026-08-30 11:08:05 | 45.53525 | 8.66749 | 47° | 29km/h | 2797m | 6.3m/s | 9.4°C | 46.7% | 0hPa | 3V | 08:30:00 | 00:33:50 | 00:00:00 | |
| IW2NTF | 2026-08-30 11:07:59 | 45.53516 | 8.66731 | 109° | 15km/h | 2771m | 4.5m/s | 9.5°C | 47.7% | 0hPa | 3V | 08:30:00 | 00:33:44 | 00:00:00 | |
| IW2NTF | 2026-08-30 11:07:53 | 45.53518 | 8.66688 | 4° | 22km/h | 2746m | 6.5m/s | 9.7°C | 46.7% | 0hPa | 3V | 08:30:00 | 00:33:38 | 00:00:00 | |
| IW2NTF | 2026-08-30 11:07:47 | 45.53515 | 8.66669 | 349° | 27km/h | 2706m | 7.2m/s | 9.9°C | 48% | 0hPa | 3V | 08:30:00 | 00:33:32 | 00:00:00 | |
| IW2NTF | 2026-08-30 11:07:41 | 45.53508 | 8.66648 | 22° | 20km/h | 2670m | 8m/s | 10.2°C | 49.2% | 0hPa | 3V | 08:30:00 | 00:33:26 | 00:00:00 | |
| IW2NTF | 2026-08-30 11:07:35 | 45.53506 | 8.66635 | 65° | 22km/h | 2634m | 5.4m/s | 10.5°C | 49.2% | 0hPa | 3V | 08:30:00 | 00:33:20 | 00:00:00 | |
| IW2NTF | 2026-08-30 11:07:29 | 45.53481 | 8.66624 | 294° | 7km/h | 2606m | 5.9m/s | 10.5°C | 51.9% | 0hPa | 3V | 08:30:00 | 00:33:14 | 00:00:00 | |
| IW2NTF | 2026-08-30 11:07:23 | 45.53475 | 8.66594 | 22° | 31km/h | 2576m | 5.2m/s | 10.5°C | 46.7% | 0hPa | 3V | 08:30:00 | 00:33:08 | 00:00:00 | |
| IW2NTF | 2026-08-30 11:07:17 | 45.53470 | 8.66585 | 78° | 24km/h | 2540m | 5.8m/s | 10.6°C | 49.3% | 0hPa | 3V | 08:30:00 | 00:33:02 | 00:00:00 | |
| IW2NTF | 2026-08-30 11:07:11 | 45.53440 | 8.66573 | 298° | 15km/h | 2509m | 7.6m/s | 10.6°C | 50.9% | 0hPa | 3V | 08:30:00 | 00:32:56 | 00:00:00 | |
| IW2NTF | 2026-08-30 11:07:05 | 45.53436 | 8.66553 | 9° | 9km/h | 2472m | 7.7m/s | 10.7°C | 49.5% | 0hPa | 3V | 08:30:00 | 00:32:50 | 00:00:00 | |
| IW2NTF | 2026-08-30 11:06:59 | 45.53435 | 8.66567 | 264° | 16km/h | 2439m | 3.9m/s | 10.6°C | 65.3% | 0hPa | 3V | 08:30:00 | 00:32:44 | 00:00:00 | |
| IW2NTF | 2026-08-30 11:06:53 | 45.53419 | 8.66567 | 119° | 11km/h | 2411m | 4.9m/s | 10.7°C | 67.3% | 0hPa | 3V | 08:30:00 | 00:32:38 | 00:00:00 | |
| IW2NTF | 2026-08-30 11:06:47 | 45.53425 | 8.66540 | 96° | 15km/h | 2384m | 5.1m/s | 10.8°C | 70.7% | 0hPa | 3V | 08:30:00 | 00:32:32 | 00:00:00 | |
| IW2NTF | 2026-08-30 11:06:41 | 45.53410 | 8.66520 | 323° | 20km/h | 2356m | 4.2m/s | 11°C | 58.3% | 0hPa | 3V | 08:30:00 | 00:32:26 | 00:00:00 | |
| IW2NTF | 2026-08-30 11:06:35 | 45.53407 | 8.66534 | 27° | 18km/h | 2327m | 6m/s | 11°C | 59.7% | 0hPa | 3V | 08:30:00 | 00:32:20 | 00:00:00 | |
| IW2NTF | 2026-08-30 11:06:29 | 45.53406 | 8.66529 | 79° | 20km/h | 2289m | 6.4m/s | 11.1°C | 76.4% | 0hPa | 3V | 08:30:00 | 00:32:14 | 00:00:00 | |
| IW2NTF | 2026-08-30 11:06:23 | 45.53394 | 8.66537 | 177° | 15km/h | 2254m | 6.1m/s | 11.4°C | 72% | 0hPa | 3V | 08:30:00 | 00:32:08 | 00:00:00 | |
| IW2NTF | 2026-08-30 11:06:17 | 45.53380 | 8.66524 | 318° | 26km/h | 2221m | 5.6m/s | 11.7°C | 68.4% | 0hPa | 3V | 08:30:00 | 00:32:02 | 00:00:00 | |
| IW2NTF | 2026-08-30 11:06:11 | 45.53382 | 8.66535 | 347° | 13km/h | 2187m | 5.6m/s | 12°C | 64.3% | 0hPa | 3V | 08:30:00 | 00:31:56 | 00:00:00 | |
| IW2NTF | 2026-08-30 11:06:05 | 45.53387 | 8.66543 | 229° | 20km/h | 2162m | 4.4m/s | 12.2°C | 63.9% | 0hPa | 3V | 08:30:00 | 00:31:50 | 00:00:00 | |
| IW2NTF | 2026-08-30 11:05:59 | 45.53384 | 8.66557 | 200° | 15km/h | 2129m | 5.9m/s | 12.4°C | 68.4% | 0hPa | 3V | 08:30:00 | 00:31:44 | 00:00:00 | |
| IW2NTF | 2026-08-30 11:05:53 | 45.53374 | 8.66577 | 65° | 18km/h | 2096m | 4.7m/s | 12.6°C | 62.6% | 0hPa | 3V | 08:30:00 | 00:31:38 | 00:00:00 | |
| IW2NTF | 2026-08-30 11:05:47 | 45.53377 | 8.66586 | 343° | 26km/h | 2066m | 4.5m/s | 12.8°C | 54.2% | 0hPa | 3V | 08:30:00 | 00:31:32 | 00:00:00 | |
| IW2NTF | 2026-08-30 11:05:41 | 45.53381 | 8.66587 | 267° | 22km/h | 2032m | 6.6m/s | 12.9°C | 56.1% | 0hPa | 3V | 08:30:00 | 00:31:26 | 00:00:00 | |
| IW2NTF | 2026-08-30 11:05:33 | 45.53375 | 8.66596 | 223° | 11km/h | 1992m | 6.7m/s | 13°C | 60.3% | 0hPa | 3V | 08:30:00 | 00:31:20 | 00:00:00 | |
| IW2NTF | 2026-08-30 11:05:33 | 45.53372 | 8.66604 | 334° | 22km/h | 1980m | 5.5m/s | 13.1°C | 61.6% | 0hPa | 3V | 08:30:00 | 00:31:18 | 00:00:00 | |
| IW2NTF | 2026-08-30 11:05:27 | 45.53366 | 8.66601 | 74° | 11km/h | 1970m | 5.5m/s | 13.2°C | 61.7% | 0hPa | 3V | 08:30:00 | 00:31:16 | 00:00:00 | |
| IW2NTF | 2026-08-30 11:05:27 | 45.53367 | 8.66591 | 101° | 15km/h | 1959m | 5.5m/s | 13.2°C | 63.1% | 0hPa | 3V | 08:30:00 | 00:31:14 | 00:00:00 | |
| IW2NTF | 2026-08-30 11:05:27 | 45.53368 | 8.66580 | 87° | 20km/h | 1950m | 4.7m/s | 13.2°C | 64.7% | 0hPa | 3V | 08:30:00 | 00:31:12 | 00:00:00 | |
| IW2NTF | 2026-08-30 11:05:21 | 45.53372 | 8.66568 | 152° | 16km/h | 1940m | 5m/s | 13.3°C | 67.3% | 0hPa | 3V | 08:30:00 | 00:31:10 | 00:00:00 | |
| IW2NTF | 2026-08-30 11:05:21 | 45.53378 | 8.66570 | 252° | 11km/h | 1930m | 6.1m/s | 13.3°C | 67.7% | 0hPa | 3V | 08:30:00 | 00:31:08 | 00:00:00 | |
| IW2NTF | 2026-08-30 11:05:21 | 45.53376 | 8.66577 | 310° | 11km/h | 1918m | 6.1m/s | 13.4°C | 69.1% | 0hPa | 3V | 08:30:00 | 00:31:06 | 00:00:00 | |
| IW2NTF | 2026-08-30 11:05:15 | 45.53371 | 8.66577 | 27° | 9km/h | 1908m | 4.3m/s | 13.5°C | 69.2% | 0hPa | 3V | 08:30:00 | 00:31:04 | 00:00:00 | |
| IW2NTF | 2026-08-30 11:05:15 | 45.53365 | 8.66569 | 53° | 20km/h | 1900m | 2.8m/s | 13.5°C | 69.5% | 0hPa | 3V | 08:30:00 | 00:31:02 | 00:00:00 | |
| IW2NTF | 2026-08-30 11:05:15 | 45.53365 | 8.66557 | 129° | 16km/h | 1892m | 5.5m/s | 13.6°C | 67.9% | 0hPa | 3V | 08:30:00 | 00:31:00 | 00:00:00 | |
| IW2NTF | 2026-08-30 11:05:09 | 45.53373 | 8.66561 | 246° | 22km/h | 1881m | 4.7m/s | 13.7°C | 66% | 0hPa | 3V | 08:30:00 | 00:30:58 | 00:00:00 | |
| IW2NTF | 2026-08-30 11:05:09 | 45.53370 | 8.66569 | 5° | 18km/h | 1869m | 6.2m/s | 13.8°C | 60.7% | 0hPa | 3V | 08:30:00 | 00:30:56 | 00:00:00 | |
| IW2NTF | 2026-08-30 11:05:09 | 45.53366 | 8.66563 | 128° | 13km/h | 1857m | 6.2m/s | 13.8°C | 58.2% | 0hPa | 3V | 08:30:00 | 00:30:54 | 00:00:00 | |
| IW2NTF | 2026-08-30 11:05:01 | 45.53379 | 8.66554 | 16° | 4km/h | 1836m | 6.7m/s | 13.8°C | 67% | 0hPa | 3V | 08:30:00 | 00:30:50 | 00:00:00 | |
| IW2NTF | 2026-08-30 11:05:01 | 45.53378 | 8.66559 | 281° | 9km/h | 1821m | 7.7m/s | 13.9°C | 71.6% | 0hPa | 3V | 08:30:00 | 00:30:48 | 00:00:00 | |
| IW2NTF | 2026-08-30 11:05:01 | 45.53379 | 8.66565 | 215° | 13km/h | 1807m | 5.9m/s | 14°C | 71.5% | 0hPa | 3V | 08:30:00 | 00:30:46 | 00:00:00 | |
| IW2NTF | 2026-08-30 11:04:54 | 45.53390 | 8.66575 | 179° | 9km/h | 1794m | 6.6m/s | 14.1°C | 69.4% | 0hPa | 3V | 08:30:00 | 00:30:43 | 00:00:00 | |
| IW2NTF | 2026-08-30 11:04:54 | 45.53388 | 8.66567 | 42° | 22km/h | 1780m | 6.6m/s | 14.2°C | 68.6% | 0hPa | 3V | 08:30:00 | 00:30:41 | 00:00:00 | |
| IW2NTF | 2026-08-30 11:04:54 | 45.53381 | 8.66567 | 320° | 16km/h | 1769m | 5.5m/s | 14.3°C | 68.2% | 0hPa | 3V | 08:30:00 | 00:30:39 | 00:00:00 | |
| IW2NTF | 2026-08-30 11:04:48 | 45.53379 | 8.66575 | 257° | 9km/h | 1760m | 3.8m/s | 14.4°C | 67.8% | 0hPa | 3V | 08:30:00 | 00:30:37 | 00:00:00 | |
| IW2NTF | 2026-08-30 11:04:48 | 45.53382 | 8.66579 | 203° | 13km/h | 1750m | 5.9m/s | 14.5°C | 67.5% | 0hPa | 3V | 08:30:00 | 00:30:35 | 00:00:00 | |
| IW2NTF | 2026-08-30 11:04:48 | 45.53388 | 8.66579 | 160° | 15km/h | 1741m | 4.2m/s | 14.6°C | 67.6% | 0hPa | 3V | 08:30:00 | 00:30:33 | 00:00:00 | |
| IW2NTF | 2026-08-30 11:04:42 | 45.53392 | 8.66569 | 74° | 16km/h | 1732m | 5.9m/s | 14.6°C | 67.6% | 0hPa | 3V | 08:30:00 | 00:30:31 | 00:00:00 | |
| IW2NTF | 2026-08-30 11:04:42 | 45.53384 | 8.66567 | 323° | 24km/h | 1721m | 6.4m/s | 14.7°C | 67.3% | 0hPa | 3V | 08:30:00 | 00:30:29 | 00:00:00 | |
| IW2NTF | 2026-08-30 11:04:42 | 45.53385 | 8.66576 | 187° | 16km/h | 1707m | 7.1m/s | 14.8°C | 66.7% | 0hPa | 3V | 08:30:00 | 00:30:27 | 00:00:00 | |
| IW2NTF | 2026-08-30 11:04:35 | 45.53389 | 8.66569 | 77° | 13km/h | 1695m | 5.2m/s | 14.9°C | 65.7% | 0hPa | 3V | 08:30:00 | 00:30:25 | 00:00:00 | |
| IW2NTF | 2026-08-30 11:04:35 | 45.53382 | 8.66565 | 358° | 20km/h | 1681m | 7.1m/s | 15°C | 64.9% | 0hPa | 3V | 08:30:00 | 00:30:23 | 00:00:00 | |
| IW2NTF | 2026-08-30 11:04:35 | 45.53373 | 8.66566 | 358° | 13km/h | 1667m | 7.8m/s | 15.1°C | 67.5% | 0hPa | 3V | 08:30:00 | 00:30:21 | 00:00:00 | |
| IW2NTF | 2026-08-30 11:04:30 | 45.53368 | 8.66566 | 340° | 11km/h | 1652m | 7.5m/s | 15.2°C | 69.5% | 0hPa | 3V | 08:30:00 | 00:30:19 | 00:00:00 | |
| IW2NTF | 2026-08-30 11:04:30 | 45.53366 | 8.66577 | 249° | 18km/h | 1638m | 5.3m/s | 15.3°C | 70.3% | 0hPa | 3V | 08:30:00 | 00:30:17 | 00:00:00 | |
| IW2NTF | 2026-08-30 11:04:30 | 45.53365 | 8.66576 | 47° | 18km/h | 1624m | 6.4m/s | 15.4°C | 71.3% | 0hPa | 3V | 08:30:00 | 00:30:15 | 00:00:00 | |
| IW2NTF | 2026-08-30 11:04:24 | 45.53356 | 8.66574 | 325° | 20km/h | 1611m | 6.9m/s | 15.5°C | 70.4% | 0hPa | 3V | 08:30:00 | 00:30:13 | 00:00:00 | |
| IW2NTF | 2026-08-30 11:04:24 | 45.53354 | 8.66585 | 241° | 15km/h | 1598m | 6m/s | 15.6°C | 70.1% | 0hPa | 3V | 08:30:00 | 00:30:11 | 00:00:00 | |
| IW2NTF | 2026-08-30 11:04:24 | 45.53359 | 8.66586 | 144° | 15km/h | 1587m | 5m/s | 15.7°C | 69.4% | 0hPa | 3V | 08:30:00 | 00:30:09 | 00:00:00 | |
| IW2NTF | 2026-08-30 11:04:16 | 45.53348 | 8.66573 | 331° | 24km/h | 1568m | 6.5m/s | 15.9°C | 68.8% | 0hPa | 3V | 08:30:00 | 00:30:05 | 00:00:00 | |
| IW2NTF | 2026-08-30 11:04:16 | 45.53341 | 8.66585 | 288° | 15km/h | 1556m | 6.2m/s | 16°C | 0% | 0hPa | 3V | 08:30:00 | 00:30:03 | 00:00:00 | |
| IW2NTF | 2026-08-30 11:04:16 | 45.53343 | 8.66584 | 122° | 16km/h | 1543m | 5.7m/s | 16.1°C | 0% | 0hPa | 3V | 08:30:00 | 00:30:01 | 00:00:00 | |
| IW2NTF | 2026-08-30 11:04:10 | 45.53349 | 8.66580 | 224° | 13km/h | 1535m | 4.9m/s | 16.2°C | 0% | 0hPa | 3V | 08:30:00 | 00:29:59 | 00:00:00 | |
| IW2NTF | 2026-08-30 11:04:10 | 45.53347 | 8.66592 | 307° | 22km/h | 1525m | 5.9m/s | 16.2°C | 0% | 0hPa | 3V | 08:30:00 | 00:29:57 | 00:00:00 | |
| IW2NTF | 2026-08-30 11:04:10 | 45.53340 | 8.66594 | 38° | 16km/h | 1513m | 7.3m/s | 16.3°C | 0% | 0hPa | 3V | 08:30:00 | 00:29:55 | 00:00:00 | |
| IW2NTF | 2026-08-30 11:04:01 | 45.53344 | 8.66582 | 200° | 13km/h | 1491m | 4.8m/s | 16.4°C | 0% | 0hPa | 3V | 08:30:00 | 00:29:51 | 00:00:00 | |
| IW2NTF | 2026-08-30 11:04:01 | 45.53345 | 8.66592 | 298° | 20km/h | 1481m | 4.5m/s | 16.5°C | 0% | 0hPa | 3V | 08:30:00 | 00:29:49 | 00:00:00 | |
| IW2NTF | 2026-08-30 11:04:01 | 45.53334 | 8.66588 | 79° | 16km/h | 1464m | 6.2m/s | 16.6°C | 0% | 0hPa | 3V | 08:30:00 | 00:29:46 | 00:00:00 | |
| IW2NTF | 2026-08-30 11:03:55 | 45.53337 | 8.66581 | 174° | 11km/h | 1454m | 5.9m/s | 16.7°C | 0% | 0hPa | 3V | 08:30:00 | 00:29:44 | 00:00:00 | |
| IW2NTF | 2026-08-30 11:03:55 | 45.53341 | 8.66587 | 258° | 18km/h | 1442m | 5.2m/s | 16.7°C | 0% | 0hPa | 3V | 08:30:00 | 00:29:42 | 00:00:00 | |
| IW2NTF | 2026-08-30 11:03:55 | 45.53337 | 8.66599 | 327° | 26km/h | 1435m | 4.5m/s | 16.8°C | 0% | 0hPa | 3V | 08:30:00 | 00:29:40 | 00:00:00 | |
| IW2NTF | 2026-08-30 11:03:49 | 45.53328 | 8.66598 | 48° | 16km/h | 1423m | 6.3m/s | 16.9°C | 0% | 0hPa | 3V | 08:30:00 | 00:29:38 | 00:00:00 | |
| IW2NTF | 2026-08-30 11:03:49 | 45.53329 | 8.66589 | 160° | 11km/h | 1411m | 6.3m/s | 17°C | 0% | 0hPa | 3V | 08:30:00 | 00:29:36 | 00:00:00 | |
| IW2NTF | 2026-08-30 11:03:49 | 45.53333 | 8.66594 | 243° | 16km/h | 1399m | 5.7m/s | 17.1°C | 0% | 0hPa | 3V | 08:30:00 | 00:29:34 | 00:00:00 | |
| IW2NTF | 2026-08-30 11:03:43 | 45.53333 | 8.66606 | 305° | 16km/h | 1388m | 4.6m/s | 17.1°C | 0% | 0hPa | 3V | 08:30:00 | 00:29:32 | 00:00:00 | |
| IW2NTF | 2026-08-30 11:03:43 | 45.53327 | 8.66609 | 18° | 11km/h | 1378m | 6.1m/s | 17.3°C | 0% | 0hPa | 3V | 08:30:00 | 00:29:30 | 00:00:00 | |
| IW2NTF | 2026-08-30 11:03:43 | 45.53320 | 8.66603 | 53° | 16km/h | 1367m | 4.6m/s | 17.4°C | 0% | 0hPa | 3V | 08:30:00 | 00:29:28 | 00:00:00 | |
| IW2NTF | 2026-08-30 11:03:37 | 45.53317 | 8.66593 | 90° | 13km/h | 1358m | 5.7m/s | 17.5°C | 0% | 0hPa | 3V | 08:30:00 | 00:29:26 | 00:00:00 | |
| IW2NTF | 2026-08-30 11:03:37 | 45.53324 | 8.66594 | 203° | 22km/h | 1348m | 2.7m/s | 17.6°C | 0% | 0hPa | 3V | 08:30:00 | 00:29:24 | 00:00:00 | |
| IW2NTF | 2026-08-30 11:03:37 | 45.53331 | 8.66594 | 100° | 11km/h | 1339m | 7.5m/s | 17.7°C | 0% | 0hPa | 3V | 08:30:00 | 00:29:22 | 00:00:00 | |
| IW2NTF | 2026-08-30 11:03:31 | 45.53325 | 8.66582 | 35° | 20km/h | 1327m | 5.7m/s | 17.8°C | 0% | 0hPa | 3V | 08:30:00 | 00:29:20 | 00:00:00 | |
| IW2NTF | 2026-08-30 11:03:31 | 45.53323 | 8.66583 | 240° | 11km/h | 1312m | 7.4m/s | 18°C | 0% | 0hPa | 3V | 08:30:00 | 00:29:18 | 00:00:00 | |
| IW2NTF | 2026-08-30 11:03:31 | 45.53326 | 8.66592 | 272° | 5km/h | 1302m | 5.6m/s | 18.1°C | 0% | 0hPa | 3V | 08:30:00 | 00:29:16 | 00:00:00 | |
| IW2NTF | 2026-08-30 11:03:23 | 45.53323 | 8.66578 | 157° | 16km/h | 1280m | 6.9m/s | 18.4°C | 0% | 0hPa | 3V | 08:30:00 | 00:29:12 | 00:00:00 | |
| IW2NTF | 2026-08-30 11:03:23 | 45.53327 | 8.66579 | 233° | 7km/h | 1269m | 4.6m/s | 18.5°C | 0% | 0hPa | 3V | 08:30:00 | 00:29:10 | 00:00:00 | |
| IW2NTF | 2026-08-30 11:03:23 | 45.53327 | 8.66588 | 280° | 16km/h | 1261m | 4.1m/s | 18.6°C | 0% | 0hPa | 3V | 08:30:00 | 00:29:08 | 00:00:00 | |
| IW2NTF | 2026-08-30 11:03:17 | 45.53321 | 8.66595 | 350° | 22km/h | 1253m | 4.3m/s | 18.6°C | 0% | 0hPa | 3V | 08:30:00 | 00:29:06 | 00:00:00 | |
| IW2NTF | 2026-08-30 11:03:17 | 45.53315 | 8.66587 | 86° | 18km/h | 1241m | 6.3m/s | 18.6°C | 0% | 0hPa | 3V | 08:30:00 | 00:29:04 | 00:00:00 | |
| IW2NTF | 2026-08-30 11:03:17 | 45.53319 | 8.66579 | 169° | 15km/h | 1230m | 5.7m/s | 18.7°C | 0% | 0hPa | 3V | 08:30:00 | 00:29:02 | 00:00:00 | |
| IW2NTF | 2026-08-30 11:03:11 | 45.53325 | 8.66586 | 247° | 16km/h | 1219m | 5m/s | 18.8°C | 0% | 0hPa | 3V | 08:30:00 | 00:29:00 | 00:00:00 | |
| IW2NTF | 2026-08-30 11:03:11 | 45.53321 | 8.66594 | 340° | 18km/h | 1209m | 5.2m/s | 0°C | 0% | 0hPa | 3V | 08:30:00 | 00:28:58 | 00:00:00 | |
| IW2NTF | 2026-08-30 11:03:11 | 45.53314 | 8.66588 | 74° | 16km/h | 1198m | 5.8m/s | 0°C | 0% | 0hPa | 3V | 08:30:00 | 00:28:56 | 00:00:00 | |
| IW2NTF | 2026-08-30 11:03:05 | 45.53318 | 8.66578 | 152° | 16km/h | 1188m | 5.3m/s | 0°C | 0% | 0hPa | 3V | 08:30:00 | 00:28:54 | 00:00:00 | |
| IW2NTF | 2026-08-30 11:03:05 | 45.53324 | 8.66579 | 227° | 9km/h | 1177m | 6.3m/s | 0°C | 0% | 0hPa | 3V | 00:00:00 | 00:28:52 | 00:00:00 | |
| IW2NTF | 2026-08-30 11:03:05 | 45.53321 | 8.66584 | 342° | 16km/h | 1167m | 5m/s | 0°C | 0% | 0hPa | 3V | 00:00:00 | 00:28:50 | 00:00:00 | |
| IW2NTF | 2026-08-30 11:02:59 | 45.53313 | 8.66588 | 348° | 18km/h | 1159m | 5m/s | 0°C | 0% | 0hPa | 3V | 00:00:00 | 00:28:48 | 00:00:00 | |
| IW2NTF | 2026-08-30 11:02:59 | 45.53309 | 8.66584 | 96° | 15km/h | 1146m | 7.6m/s | 0°C | 0% | 0hPa | 3V | 00:00:00 | 00:28:46 | 00:00:00 | |
| IW2NTF | 2026-08-30 11:02:59 | 45.53311 | 8.66577 | 122° | 5km/h | 1133m | 5.5m/s | 0°C | 0% | 0hPa | 3V | 00:00:00 | 00:28:44 | 00:00:00 | |
| IW2NTF | 2026-08-30 11:02:53 | 45.53315 | 8.66577 | 181° | 13km/h | 1121m | 6.4m/s | 0°C | 0% | 0hPa | 3V | 00:00:00 | 00:28:42 | 00:00:00 | |
| IW2NTF | 2026-08-30 11:02:53 | 45.53320 | 8.66583 | 284° | 11km/h | 1110m | 5.8m/s | 0°C | 0% | 0hPa | 3V | 00:00:00 | 00:28:40 | 00:00:00 | |
| IW2NTF | 2026-08-30 11:02:53 | 45.53314 | 8.66590 | 355° | 18km/h | 1100m | 4.7m/s | 0°C | 0% | 0hPa | 3V | 00:00:00 | 00:28:38 | 00:00:00 | |
| IW2NTF | 2026-08-30 11:02:47 | 45.53309 | 8.66581 | 85° | 20km/h | 1089m | 6.6m/s | 0°C | 0% | 0hPa | 3V | 00:00:00 | 00:28:36 | 00:00:00 | |
| IW2NTF | 2026-08-30 11:02:47 | 45.53313 | 8.66568 | 155° | 18km/h | 1078m | 5.1m/s | 0°C | 0% | 0hPa | 3V | 00:00:00 | 00:28:34 | 00:00:00 | |
| IW2NTF | 2026-08-30 11:02:47 | 45.53320 | 8.66570 | 246° | 13km/h | 1066m | 6.1m/s | 0°C | 0% | 0hPa | 3V | 00:00:00 | 00:28:32 | 00:00:00 | |
| IW2NTF | 2026-08-30 11:02:41 | 45.53315 | 8.66577 | 337° | 22km/h | 1055m | 5.2m/s | 0°C | 0% | 0hPa | 3V | 00:00:00 | 00:28:30 | 00:00:00 | |
| IW2NTF | 2026-08-30 11:02:41 | 45.53306 | 8.66574 | 61° | 20km/h | 1045m | 6.8m/s | 0°C | 0% | 0hPa | 3V | 00:00:00 | 00:28:28 | 00:00:00 | |
| IW2NTF | 2026-08-30 11:02:41 | 45.53309 | 8.66560 | 147° | 24km/h | 1033m | 4.6m/s | 0°C | 0% | 0hPa | 3V | 00:00:00 | 00:28:26 | 00:00:00 | |
| IW2NTF | 2026-08-30 11:02:35 | 45.53316 | 8.66559 | 248° | 7km/h | 1022m | 7.5m/s | 0°C | 0% | 0hPa | 3V | 00:00:00 | 00:28:24 | 00:00:00 | |
| IW2NTF | 2026-08-30 11:02:35 | 45.53310 | 8.66561 | 29° | 20km/h | 1007m | 6.9m/s | 0°C | 0% | 0hPa | 3V | 00:00:00 | 00:28:22 | 00:00:00 | |
| IW2NTF | 2026-08-30 11:02:35 | 45.53306 | 8.66549 | 96° | 24km/h | 996m | 6.2m/s | 0°C | 0% | 0hPa | 3V | 00:00:00 | 00:28:20 | 00:00:00 | |
| IW2NTF | 2026-08-30 11:02:29 | 45.53311 | 8.66543 | 216° | 18km/h | 983m | 6.2m/s | 0°C | 0% | 0hPa | 3V | 00:00:00 | 00:28:18 | 00:00:00 | |
| IW2NTF | 2026-08-30 11:02:29 | 45.53316 | 8.66555 | 261° | 11km/h | 973m | 6.1m/s | 0°C | 0% | 0hPa | 3V | 00:00:00 | 00:28:16 | 00:00:00 | |
| IW2NTF | 2026-08-30 11:02:29 | 45.53311 | 8.66552 | 46° | 22km/h | 957m | 6.6m/s | 0°C | 0% | 0hPa | 3V | 00:00:00 | 00:28:14 | 00:00:00 | |
| IW2NTF | 2026-08-30 11:02:23 | 45.53312 | 8.66541 | 154° | 15km/h | 945m | 5.6m/s | 0°C | 0% | 0hPa | 3V | 00:00:00 | 00:28:12 | 00:00:00 | |
| IW2NTF | 2026-08-30 11:02:23 | 45.53315 | 8.66547 | 288° | 16km/h | 934m | 5.3m/s | 0°C | 0% | 0hPa | 3V | 00:00:00 | 00:28:10 | 00:00:00 | |
| IW2NTF | 2026-08-30 11:02:23 | 45.53307 | 8.66553 | 354° | 20km/h | 923m | 5.9m/s | 0°C | 0% | 0hPa | 3V | 00:00:00 | 00:28:08 | 00:00:00 | |
| IW2NTF | 2026-08-30 11:02:17 | 45.53303 | 8.66547 | 104° | 18km/h | 910m | 7.5m/s | 0°C | 0% | 0hPa | 3V | 00:00:00 | 00:28:06 | 00:00:00 | |
| IW2NTF | 2026-08-30 11:02:17 | 45.53308 | 8.66540 | 170° | 13km/h | 899m | 4.6m/s | 0°C | 0% | 0hPa | 3V | 00:00:00 | 00:28:04 | 00:00:00 | |
| IW2NTF | 2026-08-30 11:02:17 | 45.53312 | 8.66546 | 263° | 16km/h | 889m | 5.4m/s | 0°C | 0% | 0hPa | 3V | 00:00:00 | 00:28:02 | 00:00:00 | |
| IW2NTF | 2026-08-30 11:02:11 | 45.53305 | 8.66553 | 359° | 24km/h | 880m | 4.3m/s | 0°C | 0% | 0hPa | 3V | 00:00:00 | 00:28:00 | 00:00:00 | |
| IW2NTF | 2026-08-30 11:02:11 | 45.53298 | 8.66544 | 81° | 16km/h | 871m | 5.4m/s | 0°C | 0% | 0hPa | 3V | 00:00:00 | 00:27:58 | 00:00:00 | |
| IW2NTF | 2026-08-30 11:02:11 | 45.53301 | 8.66539 | 194° | 9km/h | 860m | 6.1m/s | 0°C | 0% | 0hPa | 3V | 00:00:00 | 00:27:56 | 00:00:00 | |
| IW2NTF | 2026-08-30 11:02:05 | 45.53305 | 8.66546 | 266° | 16km/h | 849m | 5.4m/s | 0°C | 0% | 0hPa | 3V | 00:00:00 | 00:27:54 | 00:00:00 | |
| IW2NTF | 2026-08-30 11:02:05 | 45.53300 | 8.66556 | 353° | 20km/h | 841m | 4.5m/s | 0°C | 0% | 0hPa | 3V | 00:00:00 | 00:27:52 | 00:00:00 | |
| IW2NTF | 2026-08-30 11:02:05 | 45.53292 | 8.66547 | 66° | 22km/h | 831m | 4.3m/s | 0°C | 0% | 0hPa | 3V | 00:00:00 | 00:27:50 | 00:00:00 |